# Wetter Temperatur Luftdruck Luftfeuchtigkeit Sichtweite Windgeschwindigkeit Windrichtung Zeit
1 Clouds -8 1020 85 10000 3.13 210 15:23 01.02.2023
2 Snow -8 1019 85 9000 4.02 210 13:20 01.02.2023
3 Snow -8 1019 85 7000 5 210 12:59 01.02.2023
4 Snow -8 1019 85 5000 5 220 11:57 01.02.2023
5 Clouds -8 1018 78 10000 5 210 09:38 01.02.2023
6 Clouds -11 1016 92 10000 5 190 03:18 01.02.2023
7 Snow -12 1017 85 8000 4 190 21:44 31.01.2023
8 Snow -12 1017 92 10000 4 190 19:57 31.01.2023
9 Snow -12 1017 85 10000 4.02 190 18:50 31.01.2023
10 Clouds -11 1017 85 7000 3 180 16:20 31.01.2023
11 Snow -11 1017 85 10000 3.13 170 15:36 31.01.2023
12 Snow -11 1017 85 10000 3.13 170 15:18 31.01.2023
13 Clouds -12 1017 85 10000 3 180 12:24 31.01.2023
14 Clouds -12 1017 85 10000 4.02 190 11:20 31.01.2023
15 Clouds -11 1016 78 10000 3.13 180 09:53 31.01.2023
16 Snow -11 1017 85 8000 4.02 220 08:59 31.01.2023
17 Snow -11 1017 85 3100 4.02 210 08:35 31.01.2023
18 Clouds -10 1016 92 10000 4 200 05:44 31.01.2023
19 Clouds -9 1015 92 10000 3.13 200 23:57 30.01.2023
20 Clouds -9 1014 92 10000 4.02 200 22:51 30.01.2023
21 Snow -9 1014 92 6000 4.02 210 22:30 30.01.2023
22 Clouds -9 1014 86 10000 4 210 20:59 30.01.2023
23 Clouds -10 1014 92 10000 4.02 220 20:27 30.01.2023
24 Clouds -11 1014 85 10000 3.13 230 17:50 30.01.2023
25 Clear -12 1014 92 10000 3.13 220 16:32 30.01.2023
26 Clouds -12 1013 85 10000 3.13 200 14:27 30.01.2023
27 Clouds -13 1013 92 10000 4.02 190 12:26 30.01.2023
28 Clouds -12 1013 85 9000 4.02 190 11:27 30.01.2023
29 Mist -13 1013 84 4000 3.13 180 09:54 30.01.2023
30 Clouds -13 1013 92 10000 3.13 180 08:54 30.01.2023
31 Clouds -14 1012 84 6000 3.13 160 06:46 30.01.2023
32 Clouds -15 1012 92 10000 2 110 01:39 30.01.2023
33 Snow -13 1011 85 10000 0 0 23:35 29.01.2023
34 Snow -13 1011 85 10000 1 0 22:37 29.01.2023
35 Clouds -13 1010 92 10000 2 340 21:40 29.01.2023
36 Snow -13 1009 92 10000 3 310 20:36 29.01.2023
37 Snow -13 1009 92 10000 3 290 19:34 29.01.2023
38 Clouds -13 1009 92 10000 3 290 18:44 29.01.2023
39 Clouds -15 1008 92 10000 3 290 17:35 29.01.2023
40 Clear -12 1007 85 10000 4 280 16:21 29.01.2023
41 Clear -12 1006 85 10000 5 250 14:48 29.01.2023
42 Clouds -12 1005 85 9000 4.02 270 13:26 29.01.2023
43 Snow -12 1005 92 1900 4.02 250 12:40 29.01.2023
44 Snow -12 1005 92 1900 4 250 12:21 29.01.2023
45 Snow -12 1005 92 1200 3 240 11:45 29.01.2023
46 Snow -12 1005 85 5000 3 230 11:25 29.01.2023
47 Clouds -14 1005 92 10000 4.02 240 08:56 29.01.2023
48 Snow -14 1006 92 10000 5 250 07:18 29.01.2023
49 Clouds -13 1007 85 10000 5 250 00:36 29.01.2023
50 Clouds -13 1006 85 10000 4 230 21:57 28.01.2023
51 Clouds -12 1006 92 10000 6 270 20:34 28.01.2023
52 Clouds -12 1006 92 10000 4 260 19:47 28.01.2023
53 Clouds -11 1005 85 10000 5 280 18:23 28.01.2023
54 Clouds -12 1005 92 10000 5 280 16:59 28.01.2023
55 Clouds -10 1005 92 10000 6 290 16:20 28.01.2023
56 Snow -9 1005 92 10000 6 280 15:38 28.01.2023
57 Snow -9 1005 92 10000 6 280 15:38 28.01.2023
58 Clear -8 1005 86 10000 5 280 14:21 28.01.2023
59 Clouds -7 1005 93 10000 4 240 12:49 28.01.2023
60 Clouds -7 1005 93 10000 5 240 11:54 28.01.2023
61 Clouds -6 1005 86 10000 4 240 10:34 28.01.2023
62 Clouds -7 1006 93 10000 4 250 06:52 28.01.2023
63 Clouds -7 1007 93 10000 3 240 01:36 28.01.2023
64 Clouds -7 1007 93 10000 5 250 00:23 28.01.2023
65 Clouds -6 1007 92 10000 6 250 20:57 27.01.2023
66 Clouds -6 1007 92 10000 5 240 18:25 27.01.2023
67 Clouds -6 1007 85 10000 5 240 17:54 27.01.2023
68 Clouds -7 1007 92 10000 3.13 240 17:18 27.01.2023
69 Clouds -7 1006 85 10000 4.02 240 16:34 27.01.2023
70 Clouds -6 1006 92 10000 5 240 14:53 27.01.2023
71 Clouds -5 1006 85 10000 5 240 14:24 27.01.2023
72 Clouds -5 1005 85 10000 6 240 12:48 27.01.2023
73 Clouds -3 1003 79 10000 7.15 260 08:41 27.01.2023
74 Snow -4 1000 92 10000 7.15 270 04:55 27.01.2023
75 Snow -5 996 92 2500 5 240 22:54 26.01.2023
76 Snow -5 996 92 2700 5 240 21:39 26.01.2023
77 Snow -6 996 92 5000 6 240 20:36 26.01.2023
78 Snow -7 995 92 4000 7 240 19:21 26.01.2023
79 Snow -8 995 85 9000 6 240 17:42 26.01.2023
80 Snow -8 995 85 2200 7.15 230 16:27 26.01.2023
81 Snow -9 996 92 1400 6 230 15:55 26.01.2023
82 Snow -9 996 85 1200 7.15 220 15:31 26.01.2023
83 Snow -9 996 85 1600 7.15 220 14:50 26.01.2023
84 Snow -9 997 78 7000 6 220 12:48 26.01.2023
85 Snow -10 998 85 3800 6 210 11:31 26.01.2023
86 Snow -10 999 78 4500 7.15 220 10:30 26.01.2023
87 Snow -11 999 85 1100 7.15 220 09:44 26.01.2023
88 Clouds -11 1000 85 6000 7.15 210 08:25 26.01.2023
89 Clouds -11 1002 85 10000 6 200 06:26 26.01.2023
90 Clear -13 1008 92 10000 5 240 23:39 25.01.2023
91 Clear -12 1008 85 10000 6 250 22:21 25.01.2023
92 Clouds -11 1008 85 10000 7.15 250 21:24 25.01.2023
93 Clouds -10 1008 85 10000 8 280 19:42 25.01.2023
94 Snow -10 1007 85 8000 8.05 280 18:24 25.01.2023
95 Snow -11 1006 85 4000 7.15 260 15:55 25.01.2023
96 Snow -11 1006 78 4500 7.15 240 13:46 25.01.2023
97 Snow -10 1006 85 5000 6 240 11:25 25.01.2023
98 Snow -10 1006 85 7000 6 220 09:52 25.01.2023
99 Snow -11 1007 92 3000 5 200 07:59 25.01.2023
100 Clouds -11 1013 92 10000 4 200 01:51 25.01.2023
101 Clouds -10 1014 92 10000 4 200 00:26 25.01.2023
102 Mist -10 1015 92 4200 4.02 200 21:54 24.01.2023
103 Clouds -10 1016 85 10000 4.02 200 21:26 24.01.2023
104 Clear -10 1017 85 10000 4.02 210 19:18 24.01.2023
105 Clouds -10 1017 85 10000 4.02 200 18:29 24.01.2023
106 Snow -10 1018 85 10000 4.02 190 17:18 24.01.2023
107 Snow -10 1018 85 5000 3.13 190 16:43 24.01.2023
108 Snow -13 1020 84 5000 2 120 13:51 24.01.2023
109 Snow -13 1021 84 6000 2 110 11:59 24.01.2023
110 Snow -11 1022 85 10000 2 280 08:53 24.01.2023
111 Snow -11 1022 85 10000 1 290 08:19 24.01.2023
112 Snow -11 1022 85 10000 2 260 07:49 24.01.2023
113 Clouds -9 1022 92 10000 4 290 02:48 24.01.2023
114 Clouds -9 1022 92 10000 5 300 00:41 24.01.2023
115 Clouds -9 1022 92 10000 6 290 22:38 23.01.2023
116 Clouds -8 1023 93 10000 5 290 20:45 23.01.2023
117 Clouds -7 1023 86 10000 6 290 19:24 23.01.2023
118 Clouds -7 1023 92 10000 7.15 290 17:29 23.01.2023
119 Clouds -7 1023 93 10000 7 290 15:32 23.01.2023
120 Clouds -6 1024 93 10000 6 290 13:57 23.01.2023
121 Clouds -5 1024 93 10000 6 300 12:58 23.01.2023
122 Clouds -5 1024 93 10000 6 290 12:34 23.01.2023
123 Snow -4 1024 86 10000 7 290 11:29 23.01.2023
124 Snow -3 1024 86 10000 6 300 08:25 23.01.2023
125 Clouds -5 1022 93 10000 5 300 00:27 23.01.2023
126 Snow -5 1023 93 4300 4 290 22:49 22.01.2023
127 Clouds -6 1023 93 10000 4 280 21:19 22.01.2023
128 Snow -5 1023 93 6000 4 290 20:24 22.01.2023
129 Clouds -5 1023 93 10000 4 290 19:45 22.01.2023
130 Clouds -5 1023 93 10000 5 290 18:49 22.01.2023
131 Snow -5 1024 93 10000 4 290 17:56 22.01.2023
132 Clouds -5 1024 93 10000 5 290 17:25 22.01.2023
133 Clouds -5 1024 93 10000 4 270 15:51 22.01.2023
134 Clouds -5 1025 93 10000 4 270 14:54 22.01.2023
135 Clouds -5 1025 93 10000 5 280 13:39 22.01.2023
136 Clouds -5 1025 93 10000 5 290 12:34 22.01.2023
137 Clouds -5 1025 93 10000 5 280 11:35 22.01.2023
138 Clouds -4 1025 85 10000 6 280 09:35 22.01.2023
139 Snow -5 1024 92 10000 6 270 06:40 22.01.2023
140 Snow -7 1025 85 10000 3.13 220 02:27 22.01.2023
141 Snow -9 1026 85 5000 3.13 210 23:32 21.01.2023
142 Snow -9 1027 85 10000 4.02 190 22:18 21.01.2023
143 Snow -11 1029 85 10000 5 170 19:47 21.01.2023
144 Clouds -13 1031 85 1400 6 170 17:40 21.01.2023
145 Snow -14 1033 84 3700 6 160 14:37 21.01.2023
146 Snow -14 1034 84 2500 6 160 12:57 21.01.2023
147 Snow -14 1035 84 1700 6 160 12:36 21.01.2023
148 Snow -14 1035 84 1200 6 170 11:27 21.01.2023
149 Snow -15 1035 84 1200 6 150 09:31 21.01.2023
150 Snow -16 1038 84 10000 6 150 04:41 21.01.2023
151 Snow -20 1040 84 7000 5 130 22:29 20.01.2023
152 Snow -20 1040 84 7000 5 130 22:29 20.01.2023
153 Snow -20 1041 76 10000 4.02 120 21:40 20.01.2023
154 Snow -20 1041 76 10000 4.02 120 21:21 20.01.2023
155 Clouds -21 1041 76 10000 3.13 110 19:54 20.01.2023
156 Clouds -22 1040 83 10000 3.13 110 16:51 20.01.2023
157 Clear -21 1040 83 10000 2 120 14:47 20.01.2023
158 Clouds -19 1040 77 10000 3 100 13:51 20.01.2023
159 Snow -16 1038 85 9000 2 100 10:36 20.01.2023
160 Snow -16 1038 92 8000 2 90 08:57 20.01.2023
161 Clouds -14 1036 92 10000 2 90 06:38 20.01.2023
162 Clouds -15 1034 92 10000 0 0 02:31 20.01.2023
163 Clouds -17 1032 85 10000 2 60 22:37 19.01.2023
164 Clouds -17 1032 85 10000 1 50 21:31 19.01.2023
165 Clear -18 1031 84 10000 1 0 19:29 19.01.2023
166 Clear -18 1031 85 10000 3 280 17:39 19.01.2023
167 Clear -15 1030 85 10000 4 280 14:25 19.01.2023
168 Clear -10 1029 85 10000 4 290 10:19 19.01.2023
169 Clear -10 1028 85 10000 4 280 08:55 19.01.2023
170 Clear -12 1026 79 10000 5 280 22:40 18.01.2023
171 Clouds -12 1026 79 10000 5 280 20:21 18.01.2023
172 Clouds -13 1025 84 10000 4.02 280 19:41 18.01.2023
173 Clouds -13 1025 84 10000 4.02 270 19:23 18.01.2023
174 Clouds -14 1025 77 10000 5 270 16:22 18.01.2023
175 Clouds -15 1025 77 10000 4.02 260 14:20 18.01.2023
176 Clear -16 1026 77 10000 4.02 250 12:24 18.01.2023
177 Clear -15 1026 77 10000 3.13 230 09:32 18.01.2023
178 Clear -16 1026 77 10000 3.13 230 06:22 18.01.2023
179 Clear -12 1027 72 10000 4.02 240 00:37 18.01.2023
180 Clouds -10 1028 79 10000 4 240 21:27 17.01.2023
181 Clouds -11 1027 78 10000 5 250 19:42 17.01.2023
182 Clouds -12 1027 85 10000 4.02 250 18:48 17.01.2023
183 Clouds -13 1027 84 10000 6 250 17:38 17.01.2023
184 Clear -13 1027 78 10000 4.02 240 15:26 17.01.2023
185 Clear -13 1028 84 10000 3.13 240 14:45 17.01.2023
186 Clouds -13 1028 90 10000 4.1 255 13:32 17.01.2023
187 Clear -11 1027 85 10000 3.13 240 11:46 17.01.2023
188 Clouds -9 1026 85 10000 4.02 270 09:36 17.01.2023
189 Clouds -9 1025 85 10000 4.02 260 08:20 17.01.2023
190 Clouds -10 1025 85 10000 4.02 250 06:51 17.01.2023
191 Clouds -8 1025 93 10000 4 250 01:32 17.01.2023
192 Clouds -8 1025 93 10000 6 260 00:47 17.01.2023
193 Clouds -6 1024 93 10000 7 270 22:29 16.01.2023
194 Clouds -5 1023 93 10000 4 280 20:50 16.01.2023
195 Clouds -5 1023 93 10000 6 280 19:45 16.01.2023
196 Clouds -4 1022 86 10000 6 290 18:56 16.01.2023
197 Clouds -4 1022 86 10000 5 290 18:28 16.01.2023
198 Clouds -4 1021 86 10000 5 300 17:57 16.01.2023
199 Clouds -4 1021 86 10000 7 290 17:19 16.01.2023
200 Snow -4 1018 86 10000 6 290 13:40 16.01.2023
201 Clouds -5 1016 92 10000 8.05 280 11:58 16.01.2023
202 Snow -5 1015 85 10000 7.15 290 10:21 16.01.2023
203 Clouds -6 1013 85 10000 7.15 280 07:35 16.01.2023
204 Snow -8 1013 92 9000 5 240 22:42 15.01.2023
205 Snow -8 1014 85 5000 6 240 20:48 15.01.2023
206 Snow -8 1014 85 3300 6 230 20:25 15.01.2023
207 Snow -8 1015 85 8000 6 220 18:55 15.01.2023
208 Snow -7 1017 85 4700 6 220 16:47 15.01.2023
209 Snow -7 1019 93 9000 5 210 13:30 15.01.2023
210 Clouds -8 1020 93 10000 3 210 11:56 15.01.2023
211 Clouds -8 1020 93 10000 3 210 11:28 15.01.2023
212 Clouds -8 1020 93 10000 4 240 10:21 15.01.2023
213 Clouds -8 1021 93 10000 5 260 06:59 15.01.2023
214 Clouds -12 1019 92 10000 3.13 280 23:28 14.01.2023
215 Clouds -12 1019 92 10000 3.13 280 22:42 14.01.2023
216 Clouds -12 1018 92 10000 4.02 280 21:36 14.01.2023
217 Clouds -12 1018 92 10000 4.02 280 21:18 14.01.2023
218 Clouds -11 1018 92 10000 5 290 20:40 14.01.2023
219 Clouds -12 1017 92 10000 3.13 280 19:57 14.01.2023
220 Clouds -14 1016 84 10000 3.13 280 17:43 14.01.2023
221 Clear -13 1015 84 10000 3.13 280 15:31 14.01.2023
222 Clouds -12 1014 92 10000 4.02 280 14:35 14.01.2023
223 Snow -10 1014 85 6000 3.13 280 13:44 14.01.2023
224 Snow -10 1014 85 6000 3.13 280 13:44 14.01.2023
225 Snow -10 1013 92 4200 3.13 260 12:23 14.01.2023
226 Snow -10 1013 92 1900 2 240 10:47 14.01.2023
227 Snow -10 1013 92 1800 3.13 250 08:19 14.01.2023
228 Snow -11 1015 85 2800 5 240 23:56 13.01.2023
229 Snow -11 1015 85 4900 5 240 22:58 13.01.2023
230 Snow -11 1015 85 4900 5 240 22:40 13.01.2023
231 Snow -12 1016 85 2200 5 240 21:56 13.01.2023
232 Snow -12 1016 85 9000 5 230 19:53 13.01.2023
233 Snow -13 1017 92 1800 5 230 18:47 13.01.2023
234 Snow -13 1018 92 3900 5 210 16:57 13.01.2023
235 Snow -14 1020 84 5000 3.13 190 14:40 13.01.2023
236 Snow -16 1022 91 10000 2 190 12:21 13.01.2023
237 Clear -17 1022 84 10000 1 0 10:32 13.01.2023
238 Clear -17 1023 84 10000 2 200 09:54 13.01.2023
239 Clear -18 1023 84 10000 2 210 09:34 13.01.2023
240 Snow -18 1023 85 10000 2 210 08:28 13.01.2023
241 Clouds -20 1023 84 10000 0 0 06:54 13.01.2023
242 Clouds -22 1023 84 10000 1 270 05:44 13.01.2023
243 Clouds -21 1021 77 10000 2 300 00:45 13.01.2023
244 Clouds -22 1020 83 10000 3.13 310 22:44 12.01.2023
245 Clear -19 1019 84 10000 4.02 310 20:56 12.01.2023
246 Clear -19 1019 84 10000 3 300 19:54 12.01.2023
247 Clouds -18 1018 85 10000 2 280 17:56 12.01.2023
248 Snow -17 1017 85 9000 2 280 16:48 12.01.2023
249 Snow -15 1017 85 4300 1 0 14:45 12.01.2023
250 Snow -15 1017 84 3300 1 230 14:23 12.01.2023
251 Snow -16 1016 85 3900 1 190 12:56 12.01.2023
252 Snow -17 1016 85 4000 2 160 10:54 12.01.2023
253 Snow -18 1016 85 10000 2 170 09:31 12.01.2023
254 Snow -21 1018 84 6000 2 150 05:48 12.01.2023
255 Snow -27 1021 76 5000 2 150 00:21 12.01.2023
256 Snow -28 1021 76 2500 2 140 23:41 11.01.2023
257 Snow -29 1022 76 2900 2 140 23:22 11.01.2023
258 Snow -29 1022 76 3200 2 140 22:42 11.01.2023
259 Mist -31 1023 69 2500 2 130 20:37 11.01.2023
260 Clouds -22 1025 97 10000 3.72 170 18:40 11.01.2023
261 Clouds -24 1026 98 435 3.52 163 17:24 11.01.2023
262 Fog -36 1027 75 1000 3 130 15:23 11.01.2023
263 Fog -37 1028 74 400 3 140 13:51 11.01.2023
264 Fog -38 1029 74 550 3 150 12:21 11.01.2023
265 Fog -38 1029 67 500 1 0 10:45 11.01.2023
266 Fog -40 1030 74 200 1 70 08:21 11.01.2023
267 Fog -41 1030 82 250 1 0 07:26 11.01.2023
268 Clear -40 1028 72 10000 2 20 01:46 11.01.2023
269 Clear -39 1027 65 10000 2 350 22:46 10.01.2023
270 Clear -39 1027 65 10000 2 350 22:46 10.01.2023
271 Clear -38 1026 66 10000 3.13 340 21:36 10.01.2023
272 Clear -38 1026 66 10000 3.13 330 20:43 10.01.2023
273 Clear -38 1026 66 10000 3.13 300 19:40 10.01.2023
274 Clear -38 1025 66 10000 3.13 290 18:48 10.01.2023
275 Clear -38 1025 66 10000 3.13 290 18:48 10.01.2023
276 Clear -38 1025 73 10000 3.13 290 17:59 10.01.2023
277 Clear -37 1025 73 10000 3.13 320 16:39 10.01.2023
278 Clear -36 1024 66 10000 3.13 310 15:31 10.01.2023
279 Clear -36 1024 66 10000 3.13 310 15:31 10.01.2023
280 Clear -36 1024 66 10000 3.13 290 14:32 10.01.2023
281 Clear -35 1023 74 10000 4.02 320 12:25 10.01.2023
282 Clear -34 1022 67 10000 3.13 290 09:26 10.01.2023
283 Clear -35 1021 74 10000 3.13 320 08:30 10.01.2023
284 Clear -35 1021 66 10000 3.13 310 07:27 10.01.2023
285 Clear -35 1020 66 10000 3.13 310 04:55 10.01.2023
286 Clear -32 1017 74 10000 4.02 320 23:37 09.01.2023
287 Clear -31 1016 74 10000 4.02 320 21:51 09.01.2023
288 Clear -30 1015 68 10000 4.02 320 20:45 09.01.2023
289 Clear -30 1014 75 10000 5 320 19:30 09.01.2023
290 Clouds -28 1013 75 10000 5 310 17:55 09.01.2023
291 Clouds -28 1013 75 10000 5 320 17:26 09.01.2023
292 Clouds -26 1012 75 10000 6 330 16:32 09.01.2023
293 Snow -26 1012 75 7000 5 300 15:28 09.01.2023
294 Clouds -27 1011 75 10000 5 290 14:45 09.01.2023
295 Clouds -27 1011 68 10000 5 290 13:38 09.01.2023
296 Clouds -28 1010 75 10000 5 290 12:49 09.01.2023
297 Snow -29 1010 69 10000 5 300 11:42 09.01.2023
298 Snow -31 1009 76 9000 5 300 10:26 09.01.2023
299 Clouds -31 1006 67 10000 6 330 06:41 09.01.2023
300 Clouds -30 1003 68 4900 7.15 350 02:54 09.01.2023
301 Snow -29 1002 68 4400 7.15 360 23:53 08.01.2023
302 Clouds -30 1002 75 1900 7.15 10 21:24 08.01.2023
303 Clouds -30 1002 75 6000 7.15 360 20:58 08.01.2023
304 Clouds -29 1003 68 6000 7.15 20 20:21 08.01.2023
305 Clouds -31 1003 67 10000 5 10 17:53 08.01.2023
306 Clouds -31 1003 74 10000 4.02 10 17:20 08.01.2023
307 Clear -31 1004 74 10000 5 20 15:39 08.01.2023
308 Clouds -30 1004 68 10000 5 30 14:41 08.01.2023
309 Clear -30 1004 68 10000 6 30 13:57 08.01.2023
310 Clouds -30 1004 68 10000 5 30 13:25 08.01.2023
311 Clouds -29 1005 68 10000 6 40 11:51 08.01.2023
312 Clouds -28 1004 68 10000 6 40 09:38 08.01.2023
313 Snow -28 1004 68 2300 7.15 40 08:45 08.01.2023
314 Snow -28 1004 68 2700 7.15 40 07:21 08.01.2023
315 Snow -28 1002 76 1100 8 60 23:35 07.01.2023
316 Snow -28 1003 76 1700 8 60 22:45 07.01.2023
317 Snow -28 1003 76 2700 8 60 22:18 07.01.2023
318 Snow -28 1003 76 2500 8 60 21:32 07.01.2023
319 Snow -27 1004 76 3000 7 60 20:29 07.01.2023
320 Snow -27 1005 76 3000 8 60 19:25 07.01.2023
321 Snow -28 1006 76 10000 8 70 18:21 07.01.2023
322 Snow -28 1006 76 10000 7 70 17:41 07.01.2023
323 Snow -28 1006 76 2100 7 70 16:49 07.01.2023
324 Snow -28 1006 76 2900 8 70 16:28 07.01.2023
325 Snow -28 1006 76 4200 6 70 15:40 07.01.2023
326 Snow -29 1007 76 6000 6 60 15:22 07.01.2023
327 Snow -28 1008 76 5000 5 70 14:25 07.01.2023
328 Snow -28 1008 76 4300 5 70 13:43 07.01.2023
329 Snow -29 1009 76 3800 6 80 13:19 07.01.2023
330 Snow -29 1009 76 3800 6 80 12:21 07.01.2023
331 Snow -30 1010 76 7000 6 90 10:29 07.01.2023
332 Clouds -30 1011 76 10000 5 80 09:23 07.01.2023
333 Clear -31 1011 76 10000 5 90 08:18 07.01.2023
334 Clouds -31 1012 69 10000 5 90 07:41 07.01.2023
335 Clouds -33 1012 74 10000 4.02 90 06:31 07.01.2023
336 Clear -33 1012 74 10000 1 280 23:34 06.01.2023
337 Clear -32 1011 75 10000 2 280 22:21 06.01.2023
338 Clear -32 1011 75 10000 3 280 21:50 06.01.2023
339 Clear -30 1011 76 10000 3 250 20:38 06.01.2023
340 Clear -30 1010 76 10000 3 250 19:55 06.01.2023
341 Clear -30 1010 76 10000 3 250 19:37 06.01.2023
342 Clear -30 1010 76 10000 3 240 19:19 06.01.2023
343 Clear -29 1010 76 10000 3 240 17:55 06.01.2023
344 Clouds -29 1009 76 10000 3 250 16:52 06.01.2023
345 Clear -29 1009 76 10000 3 250 16:22 06.01.2023
346 Clear -29 1008 76 10000 4 250 15:52 06.01.2023
347 Clouds -28 1008 76 10000 4 260 15:29 06.01.2023
348 Clouds -28 1008 76 10000 4 250 13:42 06.01.2023
349 Clear -27 1007 83 10000 3 240 11:50 06.01.2023
350 Clear -26 1006 76 10000 4 240 10:34 06.01.2023
351 Clear -25 1005 77 10000 3 240 08:49 06.01.2023
352 Clouds -23 1004 77 10000 4 250 05:22 06.01.2023
353 Snow -17 1003 84 10000 3.13 250 22:56 05.01.2023
354 Snow -17 1003 84 6000 4.02 270 22:29 05.01.2023
355 Snow -16 1003 84 7000 2 270 20:24 05.01.2023
356 Snow -14 1002 84 4000 2 60 17:30 05.01.2023
357 Snow -14 1002 92 10000 1 0 16:38 05.01.2023
358 Snow -12 1001 85 5000 2 30 15:48 05.01.2023
359 Snow -12 1001 85 3800 1 0 15:20 05.01.2023
360 Snow -11 1001 85 6000 2 50 13:34 05.01.2023
361 Snow -11 1001 92 4500 2 60 12:39 05.01.2023
362 Clouds -10 1000 85 10000 4.02 80 10:19 05.01.2023
363 Snow -10 1000 85 5000 4 80 09:36 05.01.2023
364 Snow -10 1000 85 10000 3.13 80 07:26 05.01.2023
365 Snow -10 1000 85 8000 3.13 80 06:38 05.01.2023
366 Snow -12 1000 85 6000 3.13 80 00:28 05.01.2023
367 Snow -13 1000 92 8000 3.13 80 22:23 04.01.2023
368 Snow -12 1000 92 10000 4.02 100 21:29 04.01.2023
369 Snow -12 1001 92 7000 4.02 100 19:58 04.01.2023
370 Snow -12 1001 85 7000 4.02 100 19:36 04.01.2023
371 Snow -12 1001 85 7000 4.02 100 19:36 04.01.2023
372 Snow -12 1001 92 8000 4.02 90 19:18 04.01.2023
373 Snow -12 1001 85 10000 3 100 16:48 04.01.2023
374 Snow -12 1001 85 9000 4 90 16:30 04.01.2023
375 Snow -12 1001 85 9000 4 90 16:30 04.01.2023
376 Snow -12 1002 85 4000 4 80 14:49 04.01.2023
377 Clouds -11 1002 85 10000 4.02 110 11:45 04.01.2023
378 Snow -11 1002 85 8000 5 100 11:22 04.01.2023
379 Snow -11 1002 85 5000 4 100 10:43 04.01.2023
380 Snow -11 1002 85 5000 4 100 10:24 04.01.2023
381 Snow -12 1002 85 7000 5 90 08:58 04.01.2023
382 Snow -12 1003 85 6000 4 110 05:37 04.01.2023
383 Clouds -16 1003 84 10000 4.02 90 00:39 04.01.2023
384 Clear -16 1003 84 10000 4.92 100 23:36 03.01.2023
385 Snow -16 1003 84 10000 4.02 100 22:55 03.01.2023
386 Clouds -16 1003 84 10000 4.02 110 21:21 03.01.2023
387 Clouds -16 1003 84 10000 5 110 19:51 03.01.2023
388 Clouds -15 1003 84 10000 5 110 17:57 03.01.2023
389 Snow -12 1004 92 7000 5 120 16:39 03.01.2023
390 Clouds -13 1005 84 10000 5 110 13:58 03.01.2023
391 Clouds -13 1005 84 10000 5 120 13:31 03.01.2023
392 Clouds -13 1004 84 10000 5 120 12:58 03.01.2023
393 Clouds -14 1005 92 10000 5 110 12:30 03.01.2023
394 Clouds -13 1004 84 10000 5 120 11:32 03.01.2023
395 Snow -13 1005 84 6000 5 130 07:50 03.01.2023
396 Snow -15 1006 84 4000 4.02 120 04:23 03.01.2023
397 Snow -15 1007 84 3100 5 130 03:44 03.01.2023
398 Snow -15 1007 84 4400 5 130 02:50 03.01.2023
399 Snow -18 1009 85 3000 5 150 22:43 02.01.2023
400 Snow -18 1009 85 3000 5 150 22:23 02.01.2023
401 Snow -18 1010 85 3500 5 140 20:40 02.01.2023
402 Snow -19 1010 84 2300 5 140 19:53 02.01.2023
403 Snow -19 1012 77 5000 4.02 150 17:53 02.01.2023
404 Snow -20 1014 84 8000 4.02 140 15:28 02.01.2023
405 Snow -21 1016 83 5000 5 140 13:31 02.01.2023
406 Clouds -23 1018 84 6000 4 130 11:59 02.01.2023
407 Clouds -24 1018 77 7000 4 130 10:52 02.01.2023
408 Clouds -27 1022 76 10000 3 130 07:34 02.01.2023
409 Clouds -31 1027 69 10000 2 150 00:58 02.01.2023
410 Clouds -31 1029 76 10000 2 150 22:32 01.01.2023
411 Clouds -32 1030 75 10000 1 0 21:30 01.01.2023
412 Clouds -32 1030 75 10000 1 0 20:47 01.01.2023
413 Clouds -32 1030 75 9000 1 0 19:44 01.01.2023
414 Clouds -33 1031 75 9000 0 0 17:59 01.01.2023
415 Clouds -34 1032 74 6000 0.89 0 17:21 01.01.2023
416 Clouds -36 1032 75 9000 0 0 16:32 01.01.2023
417 Clouds -36 1032 66 10000 1 0 14:53 01.01.2023
418 Clouds -36 1033 66 10000 1 280 13:38 01.01.2023
419 Clouds -35 1033 66 7000 1 280 12:40 01.01.2023
420 Clouds -35 1033 75 8000 0 0 11:37 01.01.2023
421 Clouds -35 1033 68 10000 1 300 10:36 01.01.2023
422 Mist -37 1034 67 4100 1 290 08:51 01.01.2023
423 Clear -38 1034 67 10000 1 290 08:20 01.01.2023
424 Clear -39 1034 67 10000 1 300 07:18 01.01.2023
425 Clear -39 1035 67 10000 0 0 01:42 01.01.2023
426 Clear -39 1035 74 10000 1 310 23:42 31.12.2022
427 Clear -39 1035 74 10000 1 0 22:33 31.12.2022
428 Clear -38 1035 67 10000 1 0 21:35 31.12.2022
429 Clear -38 1035 74 10000 1 280 20:52 31.12.2022
430 Clear -37 1035 67 10000 1 330 19:33 31.12.2022
431 Clear -37 1036 67 10000 1 320 18:42 31.12.2022
432 Clear -38 1036 74 10000 1 300 18:18 31.12.2022
433 Clear -37 1035 74 10000 1 0 17:45 31.12.2022
434 Clear -36 1036 75 10000 1 0 16:40 31.12.2022
435 Clear -36 1036 75 10000 1 0 16:20 31.12.2022
436 Clouds -35 1036 68 10000 1 310 14:39 31.12.2022
437 Clouds -35 1036 68 10000 1 340 13:33 31.12.2022
438 Clouds -35 1036 68 10000 1 340 12:39 31.12.2022
439 Clouds -35 1036 75 10000 1 10 12:19 31.12.2022
440 Clouds -34 1037 68 10000 1 0 11:50 31.12.2022
441 Clouds -34 1036 75 10000 1 0 10:34 31.12.2022
442 Clouds -34 1037 75 10000 1 0 09:53 31.12.2022
443 Clouds -33 1037 68 10000 1 0 09:18 31.12.2022
444 Mist -36 1037 75 5000 1 0 07:22 31.12.2022
445 Clouds -38 1037 74 10000 1 40 00:35 31.12.2022
446 Clouds -38 1037 67 10000 2 50 23:44 30.12.2022
447 Clear -38 1037 74 10000 0 0 22:41 30.12.2022
448 Clear -38 1037 74 10000 1 360 21:42 30.12.2022
449 Clear -38 1037 74 10000 1 320 21:21 30.12.2022
450 Clear -37 1036 74 10000 1 340 18:57 30.12.2022
451 Clouds -36 1036 75 10000 2 30 17:35 30.12.2022
452 Clouds -35 1036 68 10000 2 20 16:52 30.12.2022
453 Clear -35 1037 75 10000 1 0 15:22 30.12.2022
454 Clouds -34 1036 68 10000 1 0 13:36 30.12.2022
455 Clear -32 1035 75 10000 1 0 09:32 30.12.2022
456 Clear -34 1035 75 10000 1 0 06:44 30.12.2022
457 Clear -32 1033 75 10000 2 330 02:41 30.12.2022
458 Clear -30 1032 76 10000 2 350 00:53 30.12.2022
459 Clear -28 1031 75 10000 2 340 22:41 29.12.2022
460 Clear -25 1030 76 10000 2 350 21:29 29.12.2022
461 Clear -24 1030 76 10000 3.13 10 20:53 29.12.2022
462 Clear -22 1029 76 10000 2 360 19:55 29.12.2022
463 Clear -19 1029 84 10000 2 360 17:57 29.12.2022
464 Clear -19 1029 84 10000 2 330 17:28 29.12.2022
465 Clear -18 1029 84 10000 2 10 16:55 29.12.2022
466 Snow -16 1028 84 10000 2 10 15:58 29.12.2022
467 Snow -14 1028 84 3300 3.13 20 13:55 29.12.2022
468 Snow -14 1028 84 8000 2 120 12:34 29.12.2022
469 Snow -14 1028 92 6000 2 110 10:31 29.12.2022
470 Clouds -16 1028 91 10000 0 0 06:57 29.12.2022
471 Clouds -16 1028 84 10000 1 280 23:30 28.12.2022
472 Clouds -16 1028 84 10000 2 280 22:25 28.12.2022
473 Clouds -16 1028 91 10000 2 280 21:20 28.12.2022
474 Clouds -15 1027 84 10000 2 270 20:20 28.12.2022
475 Clouds -25 1030 100 6622 1.18 249 18:52 28.12.2022
476 Clouds -16 1026 92 10000 3 280 16:23 28.12.2022
477 Clear -16 1026 85 10000 2 270 14:27 28.12.2022
478 Clouds -16 1026 85 10000 3 250 12:49 28.12.2022
479 Clouds -16 1025 85 10000 2 270 11:35 28.12.2022
480 Clouds -17 1025 92 10000 3 300 10:31 28.12.2022
481 Clear -16 1024 85 10000 4 280 07:48 28.12.2022
482 Snow -14 1024 85 4200 3 290 06:47 28.12.2022
483 Snow -11 1022 92 9000 4 290 01:25 28.12.2022
484 Clouds -20 1024 99 10000 2.63 290 22:33 27.12.2022
485 Clouds -10 1021 92 10000 4 260 19:51 27.12.2022
486 Clouds -10 1021 92 10000 4 270 18:55 27.12.2022
487 Snow -10 1021 85 10000 4 250 17:20 27.12.2022
488 Snow -11 1021 92 10000 4 250 16:19 27.12.2022
489 Clouds -11 1021 85 9000 4 240 14:53 27.12.2022
490 Clouds -11 1021 85 10000 5 230 12:27 27.12.2022
491 Clouds -11 1021 85 10000 5 240 10:31 27.12.2022
492 Clouds -11 1021 85 10000 4 250 09:44 27.12.2022
493 Clouds -11 1021 92 10000 5 240 09:20 27.12.2022
494 Clouds -10 1020 92 10000 6 250 04:57 27.12.2022
495 Clear -7 1019 86 10000 5 240 23:40 26.12.2022
496 Clear -7 1019 86 10000 4 240 21:52 26.12.2022
497 Clear -8 1019 92 10000 4.02 240 20:44 26.12.2022
498 Clouds -8 1019 92 10000 4.02 230 19:55 26.12.2022
499 Clear -9 1019 92 10000 3.13 240 18:42 26.12.2022
500 Clouds -8 1018 85 10000 4.02 250 17:18 26.12.2022
501 Clouds -10 1018 92 10000 3.13 250 15:40 26.12.2022
502 Clouds -4 1016 79 10000 6 280 12:59 26.12.2022
503 Snow -3 1015 92 3400 5 280 11:44 26.12.2022
504 Snow -2 1013 93 2500 5 240 05:44 26.12.2022
505 Snow -1 1012 92 10000 5 240 23:42 25.12.2022
506 Snow 0 1012 86 10000 5 240 22:51 25.12.2022
507 Clouds 0 1012 92 10000 5 240 22:22 25.12.2022
508 Snow 0 1012 92 10000 7.15 230 19:56 25.12.2022
509 Snow 0 1013 100 3800 4.02 200 17:52 25.12.2022
510 Snow 0 1013 100 3800 4.02 200 17:34 25.12.2022
511 Snow 0 1013 100 7000 4.02 200 16:47 25.12.2022
512 Clouds 0 1015 100 10000 5 210 14:26 25.12.2022
513 Clouds 0 1014 100 10000 5 240 11:47 25.12.2022
514 Mist 0 1013 100 2100 3.13 230 04:48 25.12.2022
515 Snow -3 1013 92 10000 3.13 190 22:55 24.12.2022
516 Snow -4 1013 100 4000 3.13 170 19:53 24.12.2022
517 Clouds -4 1015 93 10000 4 190 17:35 24.12.2022
518 Clouds -4 1016 93 10000 3 190 15:38 24.12.2022
519 Clouds -5 1016 93 10000 2 200 14:30 24.12.2022
520 Clouds -5 1016 93 10000 4 230 12:24 24.12.2022
521 Clouds -5 1015 93 10000 4 240 10:24 24.12.2022
522 Clouds -5 1015 93 10000 4 250 09:37 24.12.2022
523 Clouds -5 1015 93 10000 4 260 08:46 24.12.2022
524 Clouds -9 1013 92 10000 2 190 02:52 24.12.2022
525 Snow -10 1012 85 7000 3.13 200 00:30 24.12.2022
526 Clouds -12 1011 92 10000 2 200 22:45 23.12.2022
527 Snow -11 1011 85 4500 3.13 200 21:43 23.12.2022
528 Snow -11 1011 85 2400 3.13 190 19:40 23.12.2022
529 Snow -12 1010 85 10000 3.13 190 19:22 23.12.2022
530 Snow -12 1010 85 10000 4.02 190 18:53 23.12.2022
531 Snow -12 1010 85 6000 3.13 190 18:22 23.12.2022
532 Snow -12 1010 85 4600 3.13 200 17:43 23.12.2022
533 Snow -12 1010 78 10000 4.02 190 15:45 23.12.2022
534 Snow -13 1010 84 4200 5 190 14:33 23.12.2022
535 Snow -14 1009 84 2100 5 200 10:21 23.12.2022
536 Snow -14 1010 77 1800 5 190 09:35 23.12.2022
537 Snow -16 1010 85 2000 7 190 07:30 23.12.2022
538 Snow -16 1010 85 1600 6 200 06:50 23.12.2022
539 Snow -17 1012 77 2700 6 170 00:39 23.12.2022
540 Snow -18 1013 84 2700 5 160 23:19 22.12.2022
541 Snow -19 1015 77 2900 6 180 21:56 22.12.2022
542 Clear -22 1017 76 10000 6 190 19:48 22.12.2022
543 Clear -22 1017 69 10000 6 180 19:21 22.12.2022
544 Clear -23 1018 69 10000 5 190 17:59 22.12.2022
545 Clear -24 1018 69 10000 4.02 190 16:53 22.12.2022
546 Clear -24 1019 69 10000 3.13 190 15:47 22.12.2022
547 Clear -25 1019 76 10000 3.13 210 15:29 22.12.2022
548 Clear -25 1019 76 10000 3.13 210 15:29 22.12.2022
549 Clear -25 1019 76 10000 3.13 220 14:27 22.12.2022
550 Clear -25 1019 76 10000 3.13 240 13:20 22.12.2022
551 Clear -24 1018 76 10000 5 250 12:29 22.12.2022
552 Clouds -24 1017 76 9000 5 250 10:31 22.12.2022
553 Snow -25 1016 76 8000 4.02 250 09:24 22.12.2022
554 Snow -26 1016 75 4300 5 240 08:53 22.12.2022
555 Snow -28 1016 76 7000 4 250 07:52 22.12.2022
556 Clouds -32 1014 74 10000 3.13 250 04:19 22.12.2022
557 Clouds -34 1012 75 10000 4 280 00:48 22.12.2022
558 Clouds -33 1011 75 10000 4 290 22:40 21.12.2022
559 Clear -33 1011 75 10000 4 310 21:49 21.12.2022
560 Clear -32 1010 68 10000 5 310 21:19 21.12.2022
561 Clear -31 1010 69 10000 5 310 20:34 21.12.2022
562 Clear -31 1009 76 10000 5 310 19:56 21.12.2022
563 Clear -31 1009 76 10000 5 310 19:37 21.12.2022
564 Clouds -30 1009 69 10000 4 310 19:18 21.12.2022
565 Clouds -29 1008 69 10000 4 310 18:38 21.12.2022
566 Clouds -28 1007 76 10000 5 300 16:19 21.12.2022
567 Snow -26 1006 70 8000 5 300 14:20 21.12.2022
568 Clouds -25 1005 77 10000 5 310 11:58 21.12.2022
569 Clouds -25 1004 77 10000 5 310 11:20 21.12.2022
570 Clouds -24 1003 70 10000 5 320 10:29 21.12.2022
571 Snow -21 1002 77 5000 4 280 08:48 21.12.2022
572 Clouds -20 1001 77 10000 3 240 06:30 21.12.2022
573 Snow -18 1001 84 2800 3.13 220 00:26 21.12.2022
574 Snow -17 1001 84 10000 5 220 21:47 20.12.2022
575 Snow -16 1001 77 9000 5 230 20:51 20.12.2022
576 Snow -16 1001 84 7000 5 230 19:54 20.12.2022
577 Snow -15 1001 77 6000 5 240 18:47 20.12.2022
578 Snow -15 1000 77 6000 5 240 18:22 20.12.2022
579 Snow -15 1000 84 4500 5 240 17:48 20.12.2022
580 Snow -15 1000 84 7000 5 250 17:22 20.12.2022
581 Snow -13 1000 78 4400 7.15 250 15:50 20.12.2022
582 Snow -11 999 85 5000 4.02 280 14:52 20.12.2022
583 Snow -13 999 92 4000 2 230 14:29 20.12.2022
584 Snow -13 999 84 3000 3.13 120 13:26 20.12.2022
585 Snow -13 999 84 2100 4.02 110 12:32 20.12.2022
586 Snow -13 999 84 2100 5 110 11:42 20.12.2022
587 Snow -13 1000 84 2100 6 110 09:52 20.12.2022
588 Clouds -13 1002 84 8000 6 120 06:24 20.12.2022
589 Snow -13 1007 84 1600 8.05 120 23:46 19.12.2022
590 Snow -13 1009 84 1900 7.15 110 22:21 19.12.2022
591 Snow -13 1009 84 2300 7.15 110 20:48 19.12.2022
592 Snow -13 1010 84 4000 7.15 110 19:40 19.12.2022
593 Snow -14 1012 92 10000 6 110 18:43 19.12.2022
594 Snow -13 1013 84 10000 5 110 17:36 19.12.2022
595 Clouds -13 1015 92 10000 5 110 14:45 19.12.2022
596 Clouds -13 1016 84 10000 5 110 12:35 19.12.2022
597 Clouds -14 1017 92 10000 4.02 90 11:30 19.12.2022
598 Clouds -15 1019 84 10000 3.13 110 07:48 19.12.2022
599 Clouds -16 1020 84 9000 3.13 110 06:31 19.12.2022
600 Clouds -19 1027 84 10000 1 0 22:59 18.12.2022
601 Clear -19 1027 77 10000 1 0 21:47 18.12.2022
602 Clear -19 1028 84 10000 1 230 21:24 18.12.2022
603 Clear -19 1028 84 10000 2 240 20:52 18.12.2022
604 Clear -19 1028 84 10000 2 250 19:43 18.12.2022
605 Clear -17 1028 84 10000 3.13 250 18:39 18.12.2022
606 Clear -17 1028 91 10000 3.13 250 17:52 18.12.2022
607 Clouds -16 1028 91 10000 3.13 250 15:41 18.12.2022
608 Clouds -15 1028 84 10000 3.13 250 15:20 18.12.2022
609 Clear -14 1028 92 10000 3.13 250 14:21 18.12.2022
610 Clear -12 1028 85 10000 6 280 12:58 18.12.2022
611 Clear -12 1028 85 10000 6 280 12:58 18.12.2022
612 Clouds -11 1028 85 10000 7 280 12:31 18.12.2022
613 Clouds -9 1027 92 10000 8 280 11:22 18.12.2022
614 Clouds -9 1025 86 10000 8 280 09:23 18.12.2022
615 Clouds -9 1025 86 10000 8 280 08:45 18.12.2022
616 Snow -12 1023 85 10000 7 280 06:24 18.12.2022
617 Snow -13 1022 84 10000 7.15 280 04:20 18.12.2022
618 Clouds -13 1020 84 10000 6 270 01:49 18.12.2022
619 Clear -14 1019 84 10000 6 270 22:29 17.12.2022
620 Clouds -13 1018 84 10000 8.05 280 20:18 17.12.2022
621 Clear -16 1017 85 10000 5 250 17:20 17.12.2022
622 Clouds -17 1017 85 10000 4 240 14:44 17.12.2022
623 Clouds -19 1017 84 10000 4 220 12:33 17.12.2022
624 Clear -19 1017 84 10000 5 210 11:18 17.12.2022
625 Clouds -18 1017 78 10000 5 210 10:38 17.12.2022
626 Snow -19 1018 84 800 5 160 08:36 17.12.2022
627 Snow -20 1020 84 1900 5 150 06:46 17.12.2022
628 Snow -22 1030 84 4800 2 160 00:18 17.12.2022
629 Clouds -22 1032 76 10000 2 200 21:39 16.12.2022
630 Clouds -23 1032 83 10000 3.13 190 20:24 16.12.2022
631 Clear -23 1033 83 10000 3.13 210 17:20 16.12.2022
632 Clear -21 1033 76 10000 4.02 230 14:51 16.12.2022
633 Clear -21 1033 76 10000 5 240 14:27 16.12.2022
634 Clouds -20 1033 76 10000 5 230 12:22 16.12.2022
635 Clear -21 1032 76 10000 4.02 220 10:58 16.12.2022
636 Clear -21 1031 76 10000 5 220 09:39 16.12.2022
637 Clear -20 1031 70 10000 5 220 08:27 16.12.2022
638 Clear -20 1031 76 10000 6 220 07:54 16.12.2022
639 Clear -19 1033 77 10000 6 190 00:18 16.12.2022
640 Clear -19 1034 70 10000 7.15 190 22:33 15.12.2022
641 Clear -19 1035 77 10000 7.15 180 21:24 15.12.2022
642 Clear -19 1036 77 10000 7 180 19:41 15.12.2022
643 Clear -18 1037 77 10000 6 190 18:34 15.12.2022
644 Clear -18 1037 77 10000 4.02 190 17:27 15.12.2022
645 Clear -18 1038 84 10000 5 190 15:41 15.12.2022
646 Clear -18 1039 77 10000 4.02 190 14:37 15.12.2022
647 Clear -18 1040 77 10000 3.13 170 12:48 15.12.2022
648 Clear -17 1040 77 10000 4.02 210 10:41 15.12.2022
649 Clouds -19 1040 84 10000 4 210 08:55 15.12.2022
650 Clear -20 1040 77 10000 4 220 07:57 15.12.2022
651 Clear -22 1040 77 10000 4 200 05:35 15.12.2022
652 Clouds -19 1040 84 10000 6 230 22:35 14.12.2022
653 Clouds -18 1039 77 10000 5 220 21:23 14.12.2022
654 Clouds -18 1039 84 10000 5 230 20:35 14.12.2022
655 Snow -18 1039 84 10000 5 230 19:28 14.12.2022
656 Clouds -17 1038 77 10000 5 230 16:58 14.12.2022
657 Clouds -16 1039 77 10000 5 230 15:58 14.12.2022
658 Clouds -17 1039 84 10000 5 220 14:50 14.12.2022
659 Clouds -18 1039 84 10000 5 190 12:56 14.12.2022
660 Clear -19 1040 84 10000 5 190 10:45 14.12.2022
661 Mist -22 1041 77 9000 3 160 09:38 14.12.2022
662 Snow -26 1042 84 7000 3 140 05:53 14.12.2022
663 Clouds -33 1043 75 10000 1 310 21:54 13.12.2022
664 Mist -34 1042 74 4000 1 290 21:36 13.12.2022
665 Clouds -34 1042 74 10000 0 0 20:47 13.12.2022
666 Clouds -34 1041 67 10000 2 270 18:49 13.12.2022
667 Clear -33 1040 67 10000 1 310 16:22 13.12.2022
668 Clear -32 1039 67 10000 1 0 14:54 13.12.2022
669 Clear -32 1037 74 10000 2 300 12:53 13.12.2022
670 Clear -31 1035 74 10000 1 0 10:39 13.12.2022
671 Clear -31 1034 76 10000 3 300 09:47 13.12.2022
672 Clear -31 1031 76 10000 2 330 07:52 13.12.2022
673 Clear -29 1022 75 10000 3.13 10 22:24 12.12.2022
674 Clear -29 1022 75 10000 4.02 10 21:57 12.12.2022
675 Clouds -28 1020 76 10000 1 0 19:33 12.12.2022
676 Clouds -28 1019 83 10000 1 0 17:50 12.12.2022
677 Snow -26 1018 76 7000 4 80 15:29 12.12.2022
678 Snow -25 1018 77 9000 5 80 13:20 12.12.2022
679 Snow -23 1020 77 1200 5 120 09:20 12.12.2022
680 Snow -24 1021 84 1100 7 110 08:54 12.12.2022
681 Mist -29 1031 76 1400 4 110 03:53 12.12.2022
682 Clouds -30 1035 75 7000 2 110 00:18 12.12.2022
683 Mist -30 1037 75 3600 2 100 22:18 11.12.2022
684 Mist -30 1039 75 4300 1 120 20:29 11.12.2022
685 Mist -29 1040 75 5000 1.79 110 19:37 11.12.2022
686 Clouds -30 1040 75 8000 1 0 18:29 11.12.2022
687 Clouds -30 1040 68 8000 2 70 17:33 11.12.2022
688 Clouds -30 1040 75 6000 1 0 16:52 11.12.2022
689 Fog -30 1041 75 550 2 70 15:56 11.12.2022
690 Fog -31 1041 74 550 2 70 15:35 11.12.2022
691 Fog -31 1040 74 4100 2 70 13:33 11.12.2022
692 Mist -30 1040 75 7000 2 70 12:40 11.12.2022
693 Clouds -30 1039 75 10000 1 60 09:47 11.12.2022
694 Clear -33 1034 74 10000 1 0 00:39 11.12.2022
695 Clear -32 1034 74 10000 1 0 00:21 11.12.2022
696 Clear -31 1033 67 10000 1 310 22:33 10.12.2022
697 Clear -31 1033 74 10000 0 0 21:26 10.12.2022
698 Clear -31 1033 74 10000 1 0 20:41 10.12.2022
699 Clear -30 1033 75 10000 1 280 19:55 10.12.2022
700 Clear -30 1033 75 10000 1 280 19:55 10.12.2022
701 Clear -30 1033 75 10000 1 280 19:55 10.12.2022
702 Clouds -29 1032 75 10000 3.13 280 17:33 10.12.2022
703 Snow -29 1032 75 10000 2 280 16:37 10.12.2022
704 Clear -29 1031 75 10000 3 280 15:40 10.12.2022
705 Clear -29 1031 75 10000 3 280 15:40 10.12.2022
706 Clear -29 1031 75 10000 3.13 290 14:59 10.12.2022
707 Clear -29 1030 76 10000 3 280 12:55 10.12.2022
708 Clear -29 1029 76 10000 3 280 11:55 10.12.2022
709 Clear -28 1029 76 10000 3 280 10:46 10.12.2022
710 Clouds -28 1028 75 10000 4.02 280 09:38 10.12.2022
711 Clear -30 1027 76 10000 4 280 07:21 10.12.2022
712 Clear -30 1025 75 10000 4.02 290 03:18 10.12.2022
713 Clouds -28 1024 75 10000 4.02 290 23:20 09.12.2022
714 Clouds -29 1023 75 10000 4.02 280 22:41 09.12.2022
715 Clear -29 1023 75 10000 3.13 270 21:27 09.12.2022
716 Clouds -29 1023 82 10000 3.13 280 20:57 09.12.2022
717 Clear -30 1024 82 10000 4.02 280 19:41 09.12.2022
718 Clear -29 1024 82 10000 3.13 280 17:56 09.12.2022
719 Clear -28 1024 83 10000 3 280 16:37 09.12.2022
720 Clear -28 1023 76 10000 3 280 16:18 09.12.2022
721 Clear -28 1023 76 10000 3 280 16:18 09.12.2022
722 Clear -27 1023 76 10000 3 310 15:19 09.12.2022
723 Clear -23 1022 84 10000 5 330 11:36 09.12.2022
724 Snow -22 1021 84 10000 3 310 10:45 09.12.2022
725 Clouds -20 1021 77 10000 4 330 09:44 09.12.2022
726 Snow -11 1017 85 1500 6 350 05:36 09.12.2022
727 Snow -10 1015 85 7000 6 250 02:29 09.12.2022
728 Snow -12 1015 85 7000 4.02 240 22:32 08.12.2022
729 Snow -13 1016 92 6000 4.02 240 20:51 08.12.2022
730 Snow -13 1017 84 9000 4.02 230 18:18 08.12.2022
731 Snow -14 1019 92 8000 4.02 240 15:45 08.12.2022
732 Snow -14 1019 84 8000 4.02 240 14:27 08.12.2022
733 Snow -15 1019 92 10000 4.02 250 11:42 08.12.2022
734 Snow -15 1019 84 9000 4.02 250 10:22 08.12.2022
735 Snow -15 1019 84 6000 4.02 250 09:27 08.12.2022
736 Clear -18 1018 84 10000 4.02 240 02:56 08.12.2022
737 Clear -19 1020 84 10000 4.02 220 22:19 07.12.2022
738 Clear -18 1021 77 10000 4.02 220 21:50 07.12.2022
739 Clear -19 1021 84 10000 4.02 220 21:31 07.12.2022
740 Clear -18 1022 84 10000 4.02 220 19:44 07.12.2022
741 Clouds -17 1023 84 10000 4.02 230 17:41 07.12.2022
742 Clouds -16 1026 84 10000 3.13 230 14:41 07.12.2022
743 Clouds -16 1027 84 10000 3.13 230 12:38 07.12.2022
744 Snow -16 1028 91 10000 3.13 230 10:44 07.12.2022
745 Snow -15 1029 84 6000 3.13 230 09:54 07.12.2022
746 Snow -15 1029 84 5000 3.13 230 08:47 07.12.2022
747 Clouds -16 1031 91 10000 3.13 230 06:49 07.12.2022
748 Snow -15 1031 84 7000 3.13 240 05:23 07.12.2022
749 Clouds -14 1033 85 10000 4 250 23:37 06.12.2022
750 Clouds -15 1035 85 10000 3 250 20:53 06.12.2022
751 Clouds -15 1035 85 10000 3 250 18:22 06.12.2022
752 Clouds -16 1036 92 10000 2 240 16:55 06.12.2022
753 Clouds -16 1036 92 10000 4 260 16:20 06.12.2022
754 Clouds -16 1036 85 10000 3 250 15:34 06.12.2022
755 Clouds -16 1036 85 10000 3 250 14:32 06.12.2022
756 Clouds -16 1036 85 10000 3 250 13:39 06.12.2022
757 Clouds -16 1036 92 10000 3 250 12:40 06.12.2022
758 Clouds -12 1036 85 10000 3 260 10:23 06.12.2022
759 Snow -11 1036 92 10000 4 280 06:48 06.12.2022
760 Clouds -11 1036 92 10000 3 280 01:32 06.12.2022
761 Clouds -10 1037 85 10000 4 280 22:37 05.12.2022
762 Snow -10 1037 92 10000 3 280 21:37 05.12.2022
763 Snow -10 1037 92 10000 3 270 20:39 05.12.2022
764 Snow -10 1037 92 4900 3 280 19:46 05.12.2022
765 Clouds -10 1037 85 10000 4 280 18:38 05.12.2022
766 Snow -11 1037 92 9000 4 280 16:49 05.12.2022
767 Clouds -11 1038 92 10000 4 280 15:26 05.12.2022
768 Clouds -11 1038 85 10000 4 280 13:28 05.12.2022
769 Snow -11 1038 85 7000 4 280 12:56 05.12.2022
770 Snow -11 1038 85 7000 4 280 12:37 05.12.2022
771 Clouds -12 1039 85 10000 4 280 10:59 05.12.2022
772 Snow -15 1040 85 8000 1 250 05:22 05.12.2022
773 Snow -19 1039 84 8000 1 300 23:33 04.12.2022
774 Snow -19 1039 84 6000 0 0 22:40 04.12.2022
775 Snow -21 1039 77 10000 1 190 22:18 04.12.2022
776 Clouds -21 1039 84 10000 0 0 21:29 04.12.2022
777 Clouds -21 1039 84 10000 1 60 19:48 04.12.2022
778 Clouds -20 1039 84 10000 1 40 19:22 04.12.2022
779 Clear -19 1038 84 10000 1 70 17:40 04.12.2022
780 Clear -18 1038 92 10000 2 50 17:21 04.12.2022
781 Clear -18 1038 92 10000 2 70 16:36 04.12.2022
782 Clear -18 1037 92 10000 2 60 16:18 04.12.2022
783 Clear -16 1037 85 10000 4 60 14:50 04.12.2022
784 Clouds -14 1036 85 10000 4 40 13:38 04.12.2022
785 Clouds -14 1036 85 10000 3 50 12:44 04.12.2022
786 Clouds -13 1035 85 10000 5 70 11:59 04.12.2022
787 Clouds -11 1034 85 10000 3 70 10:48 04.12.2022
788 Snow -7 1031 86 10000 5 50 07:34 04.12.2022
789 Snow -10 1029 85 6000 2 310 02:22 04.12.2022
790 Clouds -12 1029 92 10000 4.02 290 23:43 03.12.2022
791 Snow -13 1030 85 10000 4 280 22:24 03.12.2022
792 Snow -13 1030 85 9000 4 280 21:39 03.12.2022
793 Snow -14 1030 85 8000 5 280 20:35 03.12.2022
794 Snow -14 1031 78 2500 6 280 18:40 03.12.2022
795 Snow -16 1032 85 3200 5 270 17:27 03.12.2022
796 Snow -18 1033 85 3000 6 280 15:48 03.12.2022
797 Clouds -21 1036 84 10000 5 260 12:55 03.12.2022
798 Clear -21 1037 77 10000 5 260 12:26 03.12.2022
799 Clouds -21 1038 77 10000 4 250 10:27 03.12.2022
800 Clouds -23 1040 84 10000 5 260 07:58 03.12.2022
801 Clear -25 1043 77 10000 4 280 01:31 03.12.2022
802 Clear -23 1044 76 10000 5 280 23:25 02.12.2022
803 Clear -23 1045 76 10000 3.13 250 21:23 02.12.2022
804 Clear -24 1047 76 10000 4 250 19:34 02.12.2022
805 Clear -26 1048 75 10000 3.13 260 16:19 02.12.2022
806 Clear -25 1049 76 10000 3.13 250 14:46 02.12.2022
807 Clear -26 1049 75 10000 3.13 270 14:27 02.12.2022
808 Clear -26 1049 75 10000 2 260 13:36 02.12.2022
809 Clear -24 1050 76 10000 3.13 270 11:46 02.12.2022
810 Clear -23 1050 76 10000 3.13 280 09:46 02.12.2022
811 Clear -23 1050 76 10000 3.13 280 09:46 02.12.2022
812 Clear -25 1051 76 10000 3.13 270 07:25 02.12.2022
813 Clear -28 1051 83 10000 2 280 05:58 02.12.2022
814 Clear -26 1050 83 10000 1 300 22:30 01.12.2022
815 Clear -27 1050 83 10000 1 300 21:39 01.12.2022
816 Clear -25 1050 76 10000 1 290 20:30 01.12.2022
817 Clear -25 1050 83 10000 2 290 18:57 01.12.2022
818 Clear -23 1050 84 10000 0 0 16:25 01.12.2022
819 Clear -20 1049 84 10000 2 330 13:41 01.12.2022
820 Clear -17 1049 85 10000 1 340 10:42 01.12.2022
821 Clear -17 1049 85 10000 1 340 10:42 01.12.2022
822 Clear -16 1049 85 10000 1 320 09:54 01.12.2022
823 Clear -16 1049 85 10000 1 320 09:36 01.12.2022
824 Clear -17 1048 85 10000 0 0 05:45 01.12.2022
825 Clouds -18 1047 85 10000 2 70 22:40 30.11.2022
826 Clear -18 1047 85 10000 2 90 21:20 30.11.2022
827 Clear -18 1046 78 10000 2 90 20:48 30.11.2022
828 Clear -19 1046 84 10000 2 100 20:23 30.11.2022
829 Clear -19 1046 84 10000 2 110 18:35 30.11.2022
830 Clear -19 1046 84 10000 2 100 17:39 30.11.2022
831 Clear -19 1046 84 10000 2 110 16:20 30.11.2022
832 Clouds -19 1046 84 10000 3 110 14:41 30.11.2022
833 Clouds -19 1046 84 10000 3 100 14:23 30.11.2022
834 Clouds -19 1045 84 10000 3.13 110 11:38 30.11.2022
835 Clear -19 1045 84 10000 2 120 08:41 30.11.2022
836 Clouds -20 1045 84 10000 3.13 120 07:58 30.11.2022
837 Clouds -20 1045 84 10000 3.13 120 07:58 30.11.2022
838 Clouds -21 1044 83 10000 3.13 110 04:56 30.11.2022
839 Clouds -22 1044 76 10000 3.13 110 23:22 29.11.2022
840 Clouds -22 1044 76 10000 3.13 110 21:47 29.11.2022
841 Clouds -22 1044 83 10000 2 110 20:42 29.11.2022
842 Clear -24 1044 83 10000 2 90 19:36 29.11.2022
843 Clouds -24 1043 76 10000 1 0 17:51 29.11.2022
844 Clouds -23 1044 76 10000 1 140 16:28 29.11.2022
845 Clouds -23 1044 76 10000 1 0 14:51 29.11.2022
846 Clear -23 1044 83 10000 1 140 13:38 29.11.2022
847 Clouds -22 1044 76 10000 2 150 12:35 29.11.2022
848 Clouds -22 1044 83 10000 1 190 11:30 29.11.2022
849 Clouds -21 1043 76 10000 1 0 10:23 29.11.2022
850 Clouds -22 1043 83 10000 2 220 08:42 29.11.2022
851 Clouds -25 1043 76 10000 1 0 05:49 29.11.2022
852 Clouds -24 1044 83 10000 1 0 23:38 28.11.2022
853 Clouds -24 1044 83 10000 0 0 23:19 28.11.2022
854 Clouds -23 1044 83 10000 2 230 21:55 28.11.2022
855 Clouds -24 1045 83 10000 2 230 21:36 28.11.2022
856 Clouds -24 1045 83 10000 1 230 20:19 28.11.2022
857 Clouds -24 1045 83 10000 1 230 18:39 28.11.2022
858 Clouds -25 1045 76 10000 1 0 17:51 28.11.2022
859 Clouds -25 1045 83 10000 1 0 16:57 28.11.2022
860 Clouds -24 1045 83 10000 2 220 14:30 28.11.2022
861 Clouds -24 1045 83 10000 2 210 13:52 28.11.2022
862 Clouds -24 1046 83 10000 2 210 12:43 28.11.2022
863 Clouds -23 1046 76 10000 3.13 240 10:29 28.11.2022
864 Clouds -23 1045 76 10000 4.02 250 07:53 28.11.2022
865 Clear -24 1045 76 10000 3.13 230 04:45 28.11.2022
866 Clear -24 1045 76 10000 3.13 220 03:59 28.11.2022
867 Clear -24 1045 76 10000 3.13 220 03:19 28.11.2022
868 Clear -24 1046 76 10000 4.02 210 22:53 27.11.2022
869 Clear -24 1047 76 10000 4.02 210 21:43 27.11.2022
870 Clear -23 1047 69 10000 3.13 210 20:34 27.11.2022
871 Clear -22 1048 69 10000 4.02 210 17:59 27.11.2022
872 Clear -22 1049 76 10000 4 220 15:35 27.11.2022
873 Clear -21 1049 70 10000 3.13 230 13:33 27.11.2022
874 Clear -18 1049 71 10000 4 250 10:57 27.11.2022
875 Clear -18 1048 71 10000 4 240 08:35 27.11.2022
876 Clear -19 1047 78 10000 4 250 04:22 27.11.2022
877 Snow -20 1046 76 10000 4.02 250 22:31 26.11.2022
878 Clouds -21 1045 76 10000 6 250 20:51 26.11.2022
879 Clouds -21 1045 76 10000 5 250 19:27 26.11.2022
880 Snow -22 1045 76 10000 5 250 17:54 26.11.2022
881 Snow -22 1045 69 10000 5 250 15:52 26.11.2022
882 Clear -23 1045 69 10000 6 250 13:35 26.11.2022
883 Clear -24 1046 69 10000 4.02 240 11:45 26.11.2022
884 Clear -25 1046 76 10000 4.02 250 10:22 26.11.2022
885 Clear -25 1046 69 10000 3.13 240 09:31 26.11.2022
886 Clear -30 1046 76 10000 3 270 06:30 26.11.2022
887 Clear -34 1044 74 10000 2 300 21:46 25.11.2022
888 Clear -34 1044 74 10000 2 300 21:22 25.11.2022
889 Clear -34 1043 74 10000 2 310 19:57 25.11.2022
890 Clear -36 1041 75 10000 2 300 16:49 25.11.2022
891 Clear -33 1040 67 10000 2 360 14:22 25.11.2022
892 Clear -32 1036 74 10000 2 20 09:22 25.11.2022
893 Clear -32 1036 74 10000 3.13 30 08:41 25.11.2022
894 Clear -34 1034 68 10000 3 40 06:54 25.11.2022
895 Clear -34 1034 67 10000 2 50 06:22 25.11.2022
896 Clear -33 1030 74 10000 2 50 23:54 24.11.2022
897 Clear -32 1029 74 10000 3.13 60 22:50 24.11.2022
898 Clear -31 1029 74 10000 3.13 60 21:58 24.11.2022
899 Clear -30 1028 75 10000 2 50 20:30 24.11.2022
900 Clear -28 1027 76 10000 3 60 18:30 24.11.2022
901 Clear -27 1027 75 10000 2 60 17:40 24.11.2022
902 Clear -27 1027 83 10000 3.13 60 17:20 24.11.2022
903 Clear -23 1026 76 10000 3.13 50 15:18 24.11.2022
904 Clouds -21 1025 76 10000 2 10 13:49 24.11.2022
905 Clear -20 1025 91 10000 2 290 11:55 24.11.2022
906 Clear -19 1024 84 10000 3.13 280 10:35 24.11.2022
907 Clouds -19 1023 84 10000 3.13 280 07:53 24.11.2022
908 Snow -18 1022 77 8000 5 280 03:22 24.11.2022
909 Snow -18 1022 77 1500 6 280 23:45 23.11.2022
910 Snow -19 1022 77 2500 7.15 250 21:56 23.11.2022
911 Snow -20 1022 84 2300 7 250 21:23 23.11.2022
912 Snow -20 1023 76 3800 7.15 250 19:59 23.11.2022
913 Snow -21 1023 76 4300 6 250 18:58 23.11.2022
914 Snow -22 1024 83 4300 6 250 18:35 23.11.2022
915 Clear -24 1026 76 10000 5 250 16:24 23.11.2022
916 Clear -28 1028 75 10000 3.13 250 13:27 23.11.2022
917 Clear -28 1028 75 10000 4.02 250 12:58 23.11.2022
918 Clouds -28 1028 75 8000 3.13 240 11:59 23.11.2022
919 Clear -28 1028 75 10000 4 250 11:40 23.11.2022
920 Clouds -28 1028 75 10000 4 270 10:42 23.11.2022
921 Clouds -28 1028 75 10000 4.02 280 09:42 23.11.2022
922 Clouds -28 1028 75 10000 4.02 280 09:23 23.11.2022
923 Clear -29 1027 75 10000 4.02 280 08:36 23.11.2022
924 Clear -30 1026 75 10000 4.02 290 05:22 23.11.2022
925 Clear -30 1025 75 10000 3.13 310 02:56 23.11.2022
926 Clear -28 1022 75 10000 3.13 330 22:59 22.11.2022
927 Clear -27 1021 75 10000 4 330 22:18 22.11.2022
928 Clear -27 1021 75 10000 4.02 330 21:33 22.11.2022
929 Clear -27 1021 75 10000 4.02 330 20:45 22.11.2022
930 Clear -27 1021 75 10000 4.02 330 20:45 22.11.2022
931 Clear -27 1020 75 10000 4.02 330 19:52 22.11.2022
932 Clear -26 1018 69 10000 6 350 17:55 22.11.2022
933 Clear -27 1017 75 10000 6 350 16:48 22.11.2022
934 Clouds -26 1016 69 10000 6 350 15:24 22.11.2022
935 Clouds -27 1014 76 10000 5 340 13:24 22.11.2022
936 Clouds -25 1010 70 10000 6 340 10:25 22.11.2022
937 Clouds -25 1009 70 10000 7 340 09:18 22.11.2022
938 Clouds -24 1007 70 10000 7 330 07:18 22.11.2022
939 Snow -19 1002 77 7000 7.15 320 01:38 22.11.2022
940 Clouds -17 1001 77 10000 7.15 320 23:36 21.11.2022
941 Snow -14 1000 78 4600 6 340 22:31 21.11.2022
942 Snow -11 1000 79 9000 7 330 21:58 21.11.2022
943 Clouds -8 999 86 10000 5 300 20:36 21.11.2022
944 Clouds -7 999 73 10000 6 300 19:41 21.11.2022
945 Snow -7 999 86 9000 6 280 18:54 21.11.2022
946 Snow -7 999 85 10000 6 260 17:46 21.11.2022
947 Snow -7 999 85 10000 5 250 16:52 21.11.2022
948 Snow -7 999 85 6000 5 250 16:34 21.11.2022
949 Snow -7 999 85 3100 6 250 15:24 21.11.2022
950 Snow -8 1000 92 2400 6 240 13:55 21.11.2022
951 Snow -8 1000 92 4700 6 240 13:34 21.11.2022
952 Snow -9 1002 85 1700 6 230 10:24 21.11.2022
953 Snow -12 1004 92 2200 5 220 08:21 21.11.2022
954 Snow -16 1006 84 1600 4.02 190 05:44 21.11.2022
955 Clear -26 1016 75 10000 2 220 22:25 20.11.2022
956 Clear -28 1016 82 10000 1 250 21:24 20.11.2022
957 Clear -28 1017 75 10000 2 280 20:23 20.11.2022
958 Clear -28 1017 82 10000 2 280 18:20 20.11.2022
959 Clear -27 1017 83 10000 3.13 280 15:58 20.11.2022
960 Clear -27 1017 83 10000 3.13 280 15:28 20.11.2022
961 Clear -25 1017 83 10000 2 320 14:30 20.11.2022
962 Clear -24 1017 77 10000 4 330 13:32 20.11.2022
963 Clear -23 1016 77 10000 4 320 12:31 20.11.2022
964 Clear -22 1015 77 10000 4 330 10:59 20.11.2022
965 Clear -21 1014 70 10000 5 330 09:55 20.11.2022
966 Clear -21 1013 70 10000 5 340 08:59 20.11.2022
967 Clouds -21 1013 70 10000 5 330 08:34 20.11.2022
968 Clouds -21 1012 70 10000 6 340 07:28 20.11.2022
969 Snow -16 1008 77 5000 7.15 320 01:50 20.11.2022
970 Clouds -15 1008 71 10000 4.02 330 01:18 20.11.2022
971 Clear -15 1007 71 10000 8 310 00:40 20.11.2022
972 Clear -15 1007 71 10000 8.05 310 00:21 20.11.2022
973 Snow -14 1007 77 7000 5 310 23:47 19.11.2022
974 Clouds -14 1007 71 10000 6 300 23:21 19.11.2022
975 Clear -16 1008 84 10000 6 280 22:28 19.11.2022
976 Clear -16 1008 84 10000 6 280 21:31 19.11.2022
977 Clouds -16 1008 84 10000 6 280 20:42 19.11.2022
978 Clouds -16 1009 84 10000 6 280 20:23 19.11.2022
979 Snow -15 1009 84 5000 5 260 18:55 19.11.2022
980 Snow -16 1010 77 5000 4.02 290 17:39 19.11.2022
981 Snow -18 1010 85 5000 4 280 17:19 19.11.2022
982 Snow -18 1011 84 1800 2 280 15:36 19.11.2022
983 Snow -18 1011 84 7000 4.02 280 13:46 19.11.2022
984 Snow -18 1012 77 8000 5 280 11:57 19.11.2022
985 Clear -18 1012 71 10000 5 280 10:19 19.11.2022
986 Clear -18 1012 71 10000 5 310 08:36 19.11.2022
987 Clear -18 1010 84 10000 5 320 04:46 19.11.2022
988 Snow -15 1008 84 7000 5 250 01:52 19.11.2022
989 Snow -15 1009 84 7000 5 240 23:37 18.11.2022
990 Snow -15 1009 77 5000 5 240 22:34 18.11.2022
991 Snow -15 1009 77 8000 6 240 21:37 18.11.2022
992 Snow -15 1009 77 4500 6 240 20:59 18.11.2022
993 Snow -15 1009 77 2300 6 240 20:25 18.11.2022
994 Snow -15 1009 77 1500 6 230 19:44 18.11.2022
995 Clear -15 1010 71 10000 7.15 230 17:46 18.11.2022
996 Clear -15 1010 71 10000 7.15 230 16:41 18.11.2022
997 Clear -14 1012 65 10000 9 220 13:36 18.11.2022
998 Clear -13 1013 60 10000 8.05 230 11:24 18.11.2022
999 Clear -16 1015 77 10000 7.15 220 07:59 18.11.2022
1000 Clear -17 1017 71 10000 7.15 220 06:18 18.11.2022
1001 Clear -18 1018 70 10000 5 220 04:53 18.11.2022
1002 Clear -19 1021 64 10000 6 230 00:40 18.11.2022
1003 Clear -21 1025 70 10000 4.02 240 20:59 17.11.2022
1004 Clear -21 1025 70 10000 4.02 240 20:26 17.11.2022
1005 Clear -21 1025 70 10000 4.02 230 19:50 17.11.2022
1006 Clear -22 1026 76 10000 3.13 240 18:34 17.11.2022
1007 Clear -22 1027 76 10000 4.02 240 17:32 17.11.2022
1008 Clear -21 1027 70 10000 4.02 240 16:42 17.11.2022
1009 Clear -21 1027 83 10000 3.13 250 12:29 17.11.2022
1010 Clear -20 1027 76 10000 3.13 240 11:21 17.11.2022
1011 Clear -22 1027 83 10000 4.02 280 08:19 17.11.2022
1012 Clear -27 1023 75 10000 1 290 02:35 17.11.2022
1013 Clear -27 1022 75 10000 1 290 00:20 17.11.2022
1014 Clear -25 1020 76 10000 1 0 22:27 16.11.2022
1015 Clear -25 1018 76 10000 2 40 20:35 16.11.2022
1016 -273 0 0 0 0 0 19:30 16.11.2022
1017 Clear -25 1016 76 10000 2 10 18:33 16.11.2022
1018 Clear -24 1015 69 10000 3.13 20 16:36 16.11.2022
1019 Clear -23 1012 69 10000 4.02 10 13:30 16.11.2022
1020 Clear -22 1009 69 10000 4.02 10 08:45 16.11.2022
1021 Clear -24 1004 77 10000 4 10 01:54 16.11.2022
1022 Clear -23 1003 77 10000 3 10 00:40 16.11.2022
1023 Clear -22 1001 77 10000 4 20 21:54 15.11.2022
1024 Clear -21 1000 76 10000 4.02 20 20:32 15.11.2022
1025 Clouds -21 1000 84 10000 4 10 19:18 15.11.2022
1026 Clouds -21 1000 84 10000 4 10 19:18 15.11.2022
1027 Snow -19 999 77 9000 5 30 17:38 15.11.2022
1028 Snow -19 998 77 9000 4.02 30 16:52 15.11.2022
1029 Clouds -19 998 84 10000 4.02 20 16:18 15.11.2022
1030 Clouds -18 997 77 10000 5 20 14:42 15.11.2022
1031 Snow -18 996 84 10000 4.02 30 12:59 15.11.2022
1032 Snow -18 996 84 10000 4.02 30 12:59 15.11.2022
1033 Snow -17 996 77 2300 5 30 11:29 15.11.2022
1034 Snow -17 995 85 5000 5 40 10:35 15.11.2022
1035 Snow -18 994 85 2900 5 50 05:19 15.11.2022
1036 Snow -15 994 78 8000 4 50 00:28 15.11.2022
1037 Snow -15 995 78 3300 6 60 22:52 14.11.2022
1038 Snow -14 995 78 5000 5 60 20:53 14.11.2022
1039 Snow -14 995 85 6000 5 60 20:30 14.11.2022
1040 Snow -13 996 84 3800 5 60 18:28 14.11.2022
1041 Snow -11 997 85 2500 7.15 70 14:59 14.11.2022
1042 Clouds -8 997 92 10000 6 70 11:49 14.11.2022
1043 Clouds -8 997 92 10000 6 70 11:28 14.11.2022
1044 Snow -8 998 92 10000 6 70 08:48 14.11.2022
1045 Snow -8 999 92 10000 6 80 07:53 14.11.2022
1046 Clouds -9 999 92 10000 6 70 05:46 14.11.2022
1047 Clouds -10 1001 92 9000 2 60 23:24 13.11.2022
1048 Clouds -10 1001 92 9000 4 70 21:43 13.11.2022
1049 Mist -10 1001 92 4600 4 70 21:43 13.11.2022
1050 Clouds -10 1001 92 6000 3 80 20:54 13.11.2022
1051 Clouds -10 1001 92 7000 3.13 70 18:59 13.11.2022
1052 Mist -10 1001 92 2800 4.02 80 17:50 13.11.2022
1053 Clouds -11 1000 92 10000 4.02 60 16:25 13.11.2022
1054 Clouds -10 1000 92 10000 3.13 40 14:44 13.11.2022
1055 Clouds -10 1000 92 10000 3.13 60 12:58 13.11.2022
1056 Clouds -10 1000 92 10000 3.13 70 12:24 13.11.2022
1057 Clouds -9 999 92 10000 3.13 40 10:42 13.11.2022
1058 Clouds -9 998 86 10000 3 340 06:29 13.11.2022
1059 Clouds -5 996 85 10000 4.02 340 23:58 12.11.2022
1060 Snow -2 995 93 10000 3 330 21:42 12.11.2022
1061 Snow -2 995 93 10000 3 330 21:19 12.11.2022
1062 Snow -2 995 100 8000 3 330 19:46 12.11.2022
1063 Snow -2 995 100 6000 4.02 280 17:33 12.11.2022
1064 Snow -1 996 92 5000 4.02 270 16:19 12.11.2022
1065 Snow -1 996 100 9000 4.02 280 14:46 12.11.2022
1066 Clouds 0 997 92 10000 2 190 10:39 12.11.2022
1067 Clouds -1 999 92 10000 3 190 07:48 12.11.2022
1068 Snow -2 1004 92 8000 4.02 150 00:40 12.11.2022
1069 Clouds -1 1007 86 10000 5 190 21:31 11.11.2022
1070 Snow -1 1007 86 6000 5 200 20:44 11.11.2022
1071 Snow -1 1007 86 6000 5 200 20:44 11.11.2022
1072 Snow -2 1008 92 7000 4.02 190 19:28 11.11.2022
1073 Snow -2 1009 100 3000 4.02 200 18:40 11.11.2022
1074 Clouds -2 1010 92 10000 5 190 17:40 11.11.2022
1075 Clouds -2 1010 92 10000 5 190 17:40 11.11.2022
1076 Clouds -2 1010 92 10000 5 190 17:40 11.11.2022
1077 Clouds -2 1012 86 10000 5 200 15:21 11.11.2022
1078 Clouds -2 1013 92 10000 4.02 190 13:57 11.11.2022
1079 Clouds -2 1014 86 10000 3.13 200 12:45 11.11.2022
1080 Clouds -2 1016 86 10000 3.13 230 09:32 11.11.2022
1081 Clouds -2 1016 86 10000 3.13 230 09:32 11.11.2022
1082 Clouds -2 1016 86 10000 2 210 08:27 11.11.2022
1083 Clouds -4 1019 93 10000 0 0 00:40 11.11.2022
1084 Clouds -4 1019 93 10000 1 40 22:54 10.11.2022
1085 Clouds -4 1019 93 10000 1 0 21:51 10.11.2022
1086 Clouds -4 1019 93 10000 1 0 21:29 10.11.2022
1087 Clouds -4 1019 93 10000 1 0 20:47 10.11.2022
1088 Clouds -4 1018 93 10000 2 30 20:20 10.11.2022
1089 Clouds -3 1018 93 10000 2 50 18:59 10.11.2022
1090 Clouds -3 1018 93 10000 3 40 17:59 10.11.2022
1091 Clouds -3 1018 93 10000 3 40 17:59 10.11.2022
1092 Clouds -2 1018 93 10000 3 40 16:25 10.11.2022
1093 Clouds -2 1017 100 10000 3 40 13:40 10.11.2022
1094 Clouds -1 1016 93 10000 2 30 11:29 10.11.2022
1095 Clouds -1 1015 92 10000 1 60 08:21 10.11.2022
1096 Clouds -1 1013 93 9000 1 0 01:27 10.11.2022
1097 Clouds -1 1013 93 10000 2 230 23:21 09.11.2022
1098 Snow -1 1013 93 9000 2 230 21:59 09.11.2022
1099 Snow -1 1013 93 9000 2 230 20:47 09.11.2022
1100 Snow -1 1013 93 3600 2 240 20:29 09.11.2022
1101 Snow -1 1013 100 3200 2 230 19:30 09.11.2022
1102 Snow -1 1013 100 2200 3 220 18:39 09.11.2022
1103 Snow -1 1013 100 2200 3 220 18:39 09.11.2022
1104 Snow -1 1013 92 6000 2 210 15:53 09.11.2022
1105 Snow -1 1013 92 5000 2 200 14:42 09.11.2022
1106 Snow -1 1013 92 5000 2 200 14:23 09.11.2022
1107 Snow -1 1013 92 9000 3.13 200 12:58 09.11.2022
1108 Snow -1 1013 92 3400 3.13 220 10:29 09.11.2022
1109 Clouds -1 1013 86 10000 3.13 240 08:32 09.11.2022
1110 Clouds -1 1013 92 10000 4.02 240 07:41 09.11.2022
1111 Snow -2 1011 92 9000 3.13 250 23:29 08.11.2022
1112 Snow -2 1011 92 10000 3.13 240 21:44 08.11.2022
1113 Clouds -2 1011 92 10000 3.13 240 21:25 08.11.2022
1114 Snow -2 1011 92 4600 4 230 20:40 08.11.2022
1115 Snow -2 1011 100 2500 4.02 240 19:36 08.11.2022
1116 Snow -2 1011 92 4000 5 240 18:24 08.11.2022
1117 Snow -2 1011 92 4600 5 230 16:20 08.11.2022
1118 Snow -1 1011 86 10000 5 220 14:55 08.11.2022
1119 Snow -2 1011 92 10000 5 220 13:36 08.11.2022
1120 Clouds -2 1011 92 10000 5 220 12:45 08.11.2022
1121 Snow -2 1012 92 7000 5 210 09:18 08.11.2022
1122 Snow -2 1012 92 10000 4.02 200 07:25 08.11.2022
1123 Clouds -3 1014 86 10000 3 230 00:33 08.11.2022
1124 Snow -3 1014 100 6000 4 240 22:24 07.11.2022
1125 Snow -3 1014 100 5000 4 230 21:21 07.11.2022
1126 Clouds -3 1014 100 10000 3 240 20:33 07.11.2022
1127 Clouds -3 1014 93 10000 3 250 17:52 07.11.2022
1128 Clouds -3 1014 93 10000 3 250 16:39 07.11.2022
1129 Clouds -3 1015 93 10000 3 250 15:35 07.11.2022
1130 Clouds -3 1015 93 10000 3 240 14:44 07.11.2022
1131 Snow -4 1014 92 9000 3.13 240 12:35 07.11.2022
1132 Clouds -4 1014 92 10000 3.13 240 11:30 07.11.2022
1133 Clouds -5 1014 92 10000 3.13 270 09:36 07.11.2022
1134 Clouds -5 1013 85 10000 4.02 290 07:41 07.11.2022
1135 Clear -6 1012 92 10000 3 290 04:18 07.11.2022
1136 Clear -7 1011 100 10000 2 290 01:20 07.11.2022
1137 Clouds -6 1009 100 10000 3.13 310 22:18 06.11.2022
1138 Snow -5 1009 92 10000 3.13 290 21:19 06.11.2022
1139 Snow -5 1008 100 8000 3.13 310 20:23 06.11.2022
1140 Snow -4 1008 100 8000 2 280 19:34 06.11.2022
1141 Snow -4 1008 100 10000 2 250 18:39 06.11.2022
1142 Snow -4 1008 92 10000 2 250 18:19 06.11.2022
1143 Snow -5 1007 92 5000 1.79 290 17:20 06.11.2022
1144 Clouds -5 1007 92 6000 2 290 16:40 06.11.2022
1145 Mist -5 1007 100 1800 2 290 15:43 06.11.2022
1146 Clouds -4 1006 100 10000 2 290 12:49 06.11.2022
1147 Clouds -3 1006 93 10000 2 280 12:28 06.11.2022
1148 Clouds -3 1005 92 10000 1.79 320 10:45 06.11.2022
1149 Clouds -3 1005 100 10000 2 50 07:45 06.11.2022
1150 Clouds -3 1005 100 10000 3.13 80 00:50 06.11.2022
1151 Clouds -2 1005 100 10000 2 70 22:54 05.11.2022
1152 Snow -1 1005 92 9000 3.13 220 19:28 05.11.2022
1153 Snow 0 1005 100 2300 2 170 17:23 05.11.2022
1154 Snow 0 1005 92 8000 3.13 110 15:45 05.11.2022
1155 Snow 0 1006 92 4300 5 100 14:33 05.11.2022
1156 Snow 0 1006 100 3800 6 100 12:38 05.11.2022
1157 Clear 1 1006 80 10000 6 90 10:23 05.11.2022
1158 Clear 1 1007 86 10000 6 70 07:58 05.11.2022
1159 Clear 1 1008 86 10000 6 60 06:57 05.11.2022
1160 Clouds 0 1011 92 10000 6 90 02:35 05.11.2022
1161 Snow 0 1013 92 10000 5 80 23:33 04.11.2022
1162 -273 0 0 0 0 0 22:20 04.11.2022
1163 Clouds -1 1015 100 10000 4.02 90 19:51 04.11.2022
1164 Clouds -1 1016 92 10000 4.02 70 17:45 04.11.2022
1165 Clouds -1 1016 92 10000 3.13 70 16:30 04.11.2022
1166 Clear -2 1017 100 10000 3.13 80 13:21 04.11.2022
1167 Clear -2 1017 100 10000 3.13 70 12:21 04.11.2022
1168 Clouds 1 1018 86 10000 3.13 80 09:31 04.11.2022
1169 Clouds 0 1018 92 10000 3.13 90 08:21 04.11.2022
1170 Clouds 0 1018 92 10000 2 110 06:57 04.11.2022
1171 Clouds -1 1017 92 10000 2 200 00:57 04.11.2022
1172 Clouds 0 1017 86 10000 3.13 210 22:25 03.11.2022
1173 Clouds 0 1017 92 10000 3.13 210 20:47 03.11.2022
1174 Clouds 0 1017 92 10000 4.02 210 19:42 03.11.2022
1175 Clouds 0 1016 100 10000 3.13 220 18:32 03.11.2022
1176 Clouds 0 1016 100 10000 3.13 210 17:38 03.11.2022
1177 Snow 0 1015 100 7000 3.13 150 15:27 03.11.2022
1178 Snow 0 1015 92 3500 3.13 150 13:37 03.11.2022
1179 Clouds 0 1015 100 7000 4.02 170 12:35 03.11.2022
1180 Drizzle 1 1015 93 5000 4.02 170 11:43 03.11.2022
1181 Clouds 1 1015 100 10000 7.15 110 07:49 03.11.2022
1182 Clouds 1 1017 100 10000 6 80 22:43 02.11.2022
1183 Drizzle 1 1017 100 9000 6 90 20:56 02.11.2022
1184 Clouds 1 1018 100 7000 6 80 20:25 02.11.2022
1185 Mist 1 1018 100 3200 5 80 18:45 02.11.2022
1186 Clouds 1 1018 100 7000 6 90 16:29 02.11.2022
1187 Mist 1 1018 100 4900 5 90 15:32 02.11.2022
1188 Drizzle 1 1018 100 2700 4.02 80 12:58 02.11.2022
1189 Drizzle 1 1018 100 2700 3.13 90 12:23 02.11.2022
1190 Mist 2 1018 100 3100 2 90 09:51 02.11.2022
1191 Fog 2 1018 100 450 1.79 80 08:38 02.11.2022
1192 Fog 1 1016 100 900 2 190 02:40 02.11.2022
1193 Fog 1 1016 100 650 2 200 22:21 01.11.2022
1194 Fog 1 1015 100 750 3.13 200 21:54 01.11.2022
1195 Fog 1 1015 100 750 3.13 190 20:55 01.11.2022
1196 Mist 1 1015 100 1100 3.13 190 20:23 01.11.2022
1197 Mist 1 1015 100 1400 2 190 19:41 01.11.2022
1198 Rain 1 1015 93 6000 3.13 190 18:26 01.11.2022
1199 Drizzle 0 1014 100 4300 4.02 190 16:28 01.11.2022
1200 Clouds 0 1014 100 9000 4.02 190 14:39 01.11.2022
1201 Mist 0 1013 92 3600 4.02 190 12:38 01.11.2022
1202 Snow -1 1013 100 7000 4.02 190 11:40 01.11.2022
1203 Snow -1 1013 92 4700 4.02 190 11:20 01.11.2022
1204 Snow -1 1012 92 10000 5 200 09:22 01.11.2022
1205 Snow -1 1012 86 10000 5 190 07:51 01.11.2022
1206 Snow -2 1012 86 10000 4.02 190 07:28 01.11.2022
1207 Snow -2 1012 86 10000 4.02 190 06:45 01.11.2022
1208 Snow -2 1012 86 5000 5 190 05:19 01.11.2022
1209 Clouds -2 1011 79 10000 4.02 190 22:43 31.10.2022
1210 Clear -2 1011 79 10000 4.02 170 21:32 31.10.2022
1211 Clouds -3 1012 86 10000 5 170 19:56 31.10.2022
1212 Clouds -3 1012 86 10000 5 170 18:36 31.10.2022
1213 Clear -3 1013 79 10000 5 160 16:44 31.10.2022
1214 Clear -2 1013 74 10000 6 160 15:30 31.10.2022
1215 Clear -2 1014 79 10000 6 150 12:21 31.10.2022
1216 Clear -1 1016 68 10000 6 150 09:35 31.10.2022
1217 Clouds -2 1017 68 10000 6 160 05:52 31.10.2022
1218 Clouds -2 1017 74 10000 5 180 02:42 31.10.2022
1219 Clouds -2 1017 74 10000 4.02 180 01:46 31.10.2022
1220 Clouds -1 1018 74 10000 4.02 200 22:18 30.10.2022
1221 Clouds -2 1018 86 10000 6 200 20:37 30.10.2022
1222 Clouds -1 1018 80 10000 6 200 19:33 30.10.2022
1223 Clouds -1 1018 80 10000 4.02 200 16:28 30.10.2022
1224 Clouds -1 1018 80 10000 5 190 14:33 30.10.2022
1225 Clouds -1 1018 86 10000 5 190 13:33 30.10.2022
1226 Clouds -1 1018 86 10000 4.02 180 11:58 30.10.2022
1227 Clouds -1 1019 80 10000 5 170 09:56 30.10.2022
1228 Clouds -1 1019 80 10000 4.02 190 08:57 30.10.2022
1229 Snow -2 1019 86 10000 4.02 190 07:45 30.10.2022
1230 Clouds -3 1021 92 10000 4.02 190 00:29 30.10.2022
1231 Clouds -3 1021 92 10000 4.02 190 00:29 30.10.2022
1232 Clouds -3 1022 86 10000 4.02 200 23:46 29.10.2022
1233 Clouds -3 1023 92 10000 3.13 200 21:56 29.10.2022
1234 Clear -3 1024 79 10000 4.02 210 18:38 29.10.2022
1235 Clouds -3 1024 86 10000 4.02 210 17:22 29.10.2022
1236 Clouds -3 1024 79 10000 4.02 220 15:38 29.10.2022
1237 Clear -3 1024 73 10000 4.02 210 14:52 29.10.2022
1238 Clear -1 1024 68 10000 4.02 240 12:36 29.10.2022
1239 Clear -1 1023 68 10000 5 240 11:58 29.10.2022
1240 Clear -4 1023 85 10000 4.02 260 07:39 29.10.2022
1241 Clear -5 1022 85 10000 5 260 06:47 29.10.2022
1242 Clear -7 1022 92 10000 3.13 250 05:53 29.10.2022
1243 Clouds -4 1018 79 10000 3.13 300 23:43 28.10.2022
1244 Clouds -1 1016 69 10000 6 310 21:30 28.10.2022
1245 Clouds -1 1014 86 10000 4.02 290 19:46 28.10.2022
1246 Snow -1 1014 92 8000 4.02 280 18:32 28.10.2022
1247 Clouds -1 1013 92 10000 4.02 280 17:39 28.10.2022
1248 Clouds -2 1013 100 10000 4.02 240 14:46 28.10.2022
1249 Snow -2 1013 92 10000 5 240 13:43 28.10.2022
1250 Snow -2 1012 92 6000 4.02 230 11:54 28.10.2022
1251 Snow -2 1012 92 9000 5 230 11:32 28.10.2022
1252 Snow -2 1012 86 9000 5 230 10:44 28.10.2022
1253 Snow -3 1013 92 9000 5 220 08:40 28.10.2022
1254 Snow -4 1014 92 7000 5 220 06:51 28.10.2022
1255 Clear -5 1016 85 10000 4.02 210 00:52 28.10.2022
1256 Clear -5 1017 85 10000 4.02 200 23:45 27.10.2022
1257 Clear -5 1018 85 10000 3.13 210 22:32 27.10.2022
1258 Clear -5 1019 85 10000 3.13 210 20:53 27.10.2022
1259 Clear -4 1021 79 10000 5 220 18:30 27.10.2022
1260 Clear -4 1021 79 10000 4.02 210 16:38 27.10.2022
1261 Clear -3 1023 79 10000 3.13 240 11:35 27.10.2022
1262 Clouds -5 1023 85 10000 4.02 280 07:34 27.10.2022
1263 Clouds -4 1022 86 10000 3 300 02:50 27.10.2022
1264 Clouds -3 1021 80 10000 3 340 23:53 26.10.2022
1265 Clouds -4 1021 93 10000 1 0 22:41 26.10.2022
1266 Clouds -4 1020 92 10000 2 340 21:31 26.10.2022
1267 Snow -3 1019 86 10000 3 340 17:59 26.10.2022
1268 Snow -3 1017 86 9000 3.13 340 14:54 26.10.2022
1269 Snow -2 1016 92 1800 4.02 310 13:33 26.10.2022
1270 Snow -1 1015 74 10000 3.13 300 12:26 26.10.2022
1271 Clouds -1 1013 80 10000 3.13 280 09:19 26.10.2022
1272 Clouds -1 1013 86 10000 4.02 280 08:53 26.10.2022
1273 Clouds -1 1005 86 10000 7.15 280 00:57 26.10.2022
1274 Clouds 0 1004 80 10000 8.05 280 00:36 26.10.2022
1275 Clouds 0 1002 86 10000 8.05 260 22:43 25.10.2022
1276 Snow 0 1001 92 9000 8.05 250 21:46 25.10.2022
1277 Clouds 0 1001 86 10000 6 240 20:45 25.10.2022
1278 Clouds 0 1000 86 10000 7.15 240 18:56 25.10.2022
1279 Clouds 0 1000 86 10000 7.15 240 17:38 25.10.2022
1280 Rain 1 997 100 9000 5 210 12:55 25.10.2022
1281 Snow 1 997 93 5000 6 200 11:38 25.10.2022
1282 Snow 1 997 93 5000 6 200 11:38 25.10.2022
1283 Snow 1 997 93 10000 6 200 10:36 25.10.2022
1284 Clouds 1 997 93 10000 7.15 200 08:38 25.10.2022
1285 Snow 0 997 92 10000 6 200 08:18 25.10.2022
1286 Snow 0 997 92 6000 6 200 07:53 25.10.2022
1287 Snow 0 998 92 2800 6 200 06:52 25.10.2022
1288 Snow 1 999 74 10000 7.15 200 03:32 25.10.2022
1289 Snow 0 1001 92 4000 5 200 00:32 25.10.2022
1290 Clouds 2 1002 64 10000 6 210 22:28 24.10.2022
1291 Clouds 2 1002 64 10000 6 210 21:50 24.10.2022
1292 Clouds 2 1002 64 10000 6 210 21:31 24.10.2022
1293 Clouds 2 1003 69 10000 6 220 20:29 24.10.2022
1294 Clouds 2 1003 69 10000 6 220 18:45 24.10.2022
1295 Snow 1 1004 86 4100 6 230 16:58 24.10.2022
1296 Snow 2 1004 69 10000 6 220 15:34 24.10.2022
1297 Clouds 2 1004 69 10000 6 220 14:20 24.10.2022
1298 Clouds 3 1003 64 10000 7.15 230 12:41 24.10.2022
1299 Clouds 1 1003 74 10000 6 230 09:28 24.10.2022
1300 Snow 0 1003 80 5000 7.15 230 07:51 24.10.2022
1301 Clear -1 1006 68 10000 7.15 220 22:40 23.10.2022
1302 Clear -1 1007 74 10000 6 240 20:40 23.10.2022
1303 Clear -1 1008 74 10000 6 240 19:27 23.10.2022
1304 Clear -1 1008 74 10000 6 240 17:30 23.10.2022
1305 Clear -1 1008 80 10000 6 240 16:19 23.10.2022
1306 Clear 0 1007 74 10000 6 250 14:56 23.10.2022
1307 Clouds 0 1005 80 10000 8.05 270 11:56 23.10.2022
1308 Clouds 0 1003 80 10000 6 260 10:52 23.10.2022
1309 Clouds -3 1001 92 10000 5 270 06:27 23.10.2022
1310 Clear -2 999 92 10000 4.02 270 23:24 22.10.2022
1311 Clouds -2 999 92 10000 3.13 270 22:30 22.10.2022
1312 Clouds -2 999 92 10000 4 300 21:39 22.10.2022
1313 Clouds -1 999 92 10000 5 280 20:18 22.10.2022
1314 Clouds 0 1000 86 10000 5 260 19:31 22.10.2022
1315 Snow 0 1000 86 10000 4.02 250 17:39 22.10.2022
1316 Clouds 0 1000 80 10000 6 260 16:28 22.10.2022
1317 Clouds 1 1000 69 10000 7.15 250 14:49 22.10.2022
1318 Clouds 1 1000 69 10000 5 250 14:18 22.10.2022
1319 Clouds 1 1000 69 10000 6 240 11:22 22.10.2022
1320 Clouds 0 1000 74 10000 6 230 09:43 22.10.2022
1321 Clouds -1 1000 80 10000 5 240 08:37 22.10.2022
1322 Clear -2 999 79 10000 5 230 05:34 22.10.2022
1323 Clouds -1 999 86 10000 4.02 230 00:28 22.10.2022
1324 Clouds 0 999 86 10000 4.02 230 22:37 21.10.2022
1325 Clouds 0 999 92 10000 4.02 220 21:32 21.10.2022
1326 Snow 0 999 100 8000 4.02 230 20:25 21.10.2022
1327 Rain 1 1000 86 10000 6 220 17:50 21.10.2022
1328 Snow 1 1000 86 10000 5 230 14:38 21.10.2022
1329 Clouds 2 1000 86 10000 5 220 13:39 21.10.2022
1330 Snow 3 999 74 10000 7.15 230 11:46 21.10.2022
1331 Clouds 3 999 74 10000 7.15 220 10:22 21.10.2022
1332 Clouds 3 999 74 10000 7.15 210 08:42 21.10.2022
1333 Clouds 3 999 74 10000 7.15 220 08:19 21.10.2022
1334 Clouds 3 1001 86 10000 3.13 210 03:19 21.10.2022
1335 Clouds 3 1001 93 10000 3.13 220 23:18 20.10.2022
1336 Clouds 3 1001 93 10000 2 220 20:56 20.10.2022
1337 Clouds 4 1001 86 10000 3.13 220 19:42 20.10.2022
1338 Clouds 3 1001 93 10000 2 220 18:19 20.10.2022
1339 Clouds 3 1001 93 10000 3 230 17:38 20.10.2022
1340 Clouds 5 1000 93 10000 3.13 210 13:32 20.10.2022
1341 Clouds 5 1000 93 10000 3.13 200 12:31 20.10.2022
1342 Clouds 5 999 93 10000 3.13 210 11:29 20.10.2022
1343 Clouds 5 999 93 10000 3.13 210 10:51 20.10.2022
1344 Clouds 4 1000 100 10000 3.13 220 08:55 20.10.2022
1345 Rain 4 1000 93 7000 4.02 200 05:54 20.10.2022
1346 Clouds 4 999 100 10000 4.02 210 01:58 20.10.2022
1347 Clouds 4 1000 100 10000 3.13 190 22:53 19.10.2022
1348 Clouds 4 1000 100 10000 3.13 220 22:23 19.10.2022
1349 Clouds 4 1000 100 10000 3.13 200 21:20 19.10.2022
1350 Clouds 5 1000 93 10000 3.13 200 19:53 19.10.2022
1351 Rain 5 1001 93 9000 2 220 17:44 19.10.2022
1352 Clouds 5 1001 86 10000 4.02 180 16:22 19.10.2022
1353 Clouds 5 1001 86 10000 3.13 210 13:59 19.10.2022
1354 Clouds 5 1001 93 10000 4.02 200 11:42 19.10.2022
1355 Rain 6 1002 86 10000 3.13 200 08:47 19.10.2022
1356 Rain 5 1002 93 10000 4.02 190 07:22 19.10.2022
1357 Clouds 5 1004 93 10000 4.02 180 01:32 19.10.2022
1358 Rain 5 1006 93 10000 4.02 180 23:22 18.10.2022
1359 Clouds 5 1006 86 10000 5 180 21:49 18.10.2022
1360 Clouds 5 1007 86 10000 4.02 180 21:19 18.10.2022
1361 Clouds 5 1007 86 10000 4.02 170 20:24 18.10.2022
1362 Clouds 5 1009 80 10000 4.02 180 18:32 18.10.2022
1363 Clouds 5 1009 80 10000 4.02 160 16:56 18.10.2022
1364 Clouds 5 1010 80 10000 3.13 170 14:59 18.10.2022
1365 Clouds 5 1011 80 10000 3 190 13:38 18.10.2022
1366 Clouds 5 1011 75 10000 3.13 190 11:39 18.10.2022
1367 Clouds 4 1012 86 10000 3.13 230 10:27 18.10.2022
1368 Clouds 5 1013 86 10000 3.13 230 08:40 18.10.2022
1369 Clouds 4 1013 93 10000 2 270 05:45 18.10.2022
1370 Mist 4 1014 100 4800 3.13 310 23:25 17.10.2022
1371 Mist 4 1014 100 1300 3.13 310 21:28 17.10.2022
1372 Fog 4 1014 100 1100 3.13 320 20:45 17.10.2022
1373 Fog 4 1014 100 800 3.13 320 20:27 17.10.2022
1374 Mist 4 1014 100 1400 3 320 19:41 17.10.2022
1375 Mist 4 1015 100 1600 3.13 310 17:40 17.10.2022
1376 Mist 4 1015 100 3100 3.13 330 15:54 17.10.2022
1377 Clouds 5 1014 93 10000 3.13 320 14:36 17.10.2022
1378 Clouds 5 1015 93 10000 3.13 300 12:42 17.10.2022
1379 Clouds 5 1014 93 10000 3.13 330 07:34 17.10.2022
1380 Mist 5 1014 100 2700 3.13 290 00:28 17.10.2022
1381 Mist 5 1015 100 5000 3.13 270 22:34 16.10.2022
1382 Mist 5 1015 100 4300 2 280 21:21 16.10.2022
1383 Rain 4 1015 100 3200 1 330 19:51 16.10.2022
1384 Mist 4 1015 100 3600 1 300 19:24 16.10.2022
1385 Clouds 4 1016 93 8000 0 0 17:44 16.10.2022
1386 Clouds 5 1016 86 10000 0 0 16:24 16.10.2022
1387 Clouds 5 1016 86 10000 2 310 15:50 16.10.2022
1388 Clear 9 1016 66 10000 2 100 12:25 16.10.2022
1389 Clear 9 1017 66 10000 1 0 11:22 16.10.2022
1390 Clear 9 1017 66 10000 2 140 10:26 16.10.2022
1391 Clear 2 1018 86 10000 2 150 04:51 16.10.2022
1392 Clear 4 1019 75 10000 2 160 23:42 15.10.2022
1393 Clear 5 1019 70 10000 2 160 21:30 15.10.2022
1394 Clear 5 1019 70 10000 2 160 20:57 15.10.2022
1395 Clear 5 1019 70 10000 2 160 20:57 15.10.2022
1396 Clear 5 1019 70 10000 2 160 20:57 15.10.2022
1397 Clear 5 1019 70 10000 3.13 160 19:30 15.10.2022
1398 Clear 6 1020 65 10000 3.13 160 16:57 15.10.2022
1399 Clear 6 1020 65 10000 4.02 160 15:45 15.10.2022
1400 Clear 7 1020 56 10000 5 160 13:26 15.10.2022
1401 Clear 7 1020 56 10000 4.02 150 11:43 15.10.2022
1402 Clear 6 1020 60 10000 4.02 140 09:28 15.10.2022
1403 Clear 4 1020 64 10000 5 160 07:33 15.10.2022
1404 Clear 4 1021 69 10000 4.02 140 00:40 15.10.2022
1405 Clear 4 1022 69 10000 5 150 22:41 14.10.2022
1406 Clear 4 1022 69 10000 5 150 22:22 14.10.2022
1407 Clear 4 1023 69 10000 5 150 20:46 14.10.2022
1408 Clear 5 1023 70 10000 5 140 18:39 14.10.2022
1409 Clear 6 1024 65 10000 5 130 15:32 14.10.2022
1410 Clear 9 1024 49 10000 6 150 12:48 14.10.2022
1411 Clear 9 1025 53 10000 5 160 11:25 14.10.2022
1412 Clear 5 1026 70 10000 4.02 150 08:26 14.10.2022
1413 Clear 3 1027 74 10000 3.13 140 06:46 14.10.2022
1414 Clear 2 1027 80 10000 3.13 140 06:18 14.10.2022
1415 Clear 2 1027 80 10000 3 130 05:42 14.10.2022
1416 Clear 0 1027 92 10000 2 120 02:26 14.10.2022
1417 Clear 2 1027 80 10000 2 120 23:23 13.10.2022
1418 Clear 3 1027 80 10000 2 150 21:39 13.10.2022
1419 Clear 3 1028 80 10000 2 180 20:42 13.10.2022
1420 Clear 2 1027 86 10000 2 140 19:42 13.10.2022
1421 Clear 4 1028 75 10000 3.13 150 18:51 13.10.2022
1422 Clear 4 1027 75 10000 3.13 160 18:20 13.10.2022
1423 Clear 6 1027 65 10000 3.13 160 15:49 13.10.2022
1424 Clear 7 1027 65 10000 1 160 14:59 13.10.2022
1425 Clear 8 1027 61 10000 2 170 13:53 13.10.2022
1426 Clear 9 1027 57 10000 3.13 200 12:38 13.10.2022
1427 Clear 8 1028 65 10000 3.13 200 10:31 13.10.2022
1428 Clear 6 1028 70 10000 3.13 210 08:34 13.10.2022
1429 Clear 4 1028 80 10000 2 220 07:36 13.10.2022
1430 Fog -3 1027 100 10000 0 0 03:45 13.10.2022
1431 Clear -3 1026 100 10000 0 0 01:40 13.10.2022
1432 Clear -1 1026 92 10000 2 280 00:24 13.10.2022
1433 Clear -1 1026 92 10000 3.13 280 22:44 12.10.2022
1434 Clear -1 1025 100 10000 2 280 21:25 12.10.2022
1435 Clear 0 1025 92 10000 3.13 280 20:56 12.10.2022
1436 Clear 0 1025 92 10000 2 280 20:28 12.10.2022
1437 Clear 0 1025 92 10000 2 280 19:19 12.10.2022
1438 Clear 1 1024 93 10000 3.13 290 17:54 12.10.2022
1439 Clouds 2 1024 86 10000 3.13 290 16:48 12.10.2022
1440 Clouds 5 1023 80 10000 3.13 300 14:20 12.10.2022
1441 Clouds 7 1022 70 10000 4.02 300 13:36 12.10.2022
1442 Clouds 8 1021 65 10000 5 300 11:25 12.10.2022
1443 Clouds 6 1020 75 10000 5 300 09:23 12.10.2022
1444 Clouds 4 1019 86 10000 5 310 07:41 12.10.2022
1445 Clouds 4 1019 86 10000 5 300 06:43 12.10.2022
1446 Clouds 1 1017 100 10000 4 290 03:59 12.10.2022
1447 Clouds 3 1014 93 10000 4.02 290 23:37 11.10.2022
1448 Clouds 3 1013 93 10000 3.13 280 20:58 11.10.2022
1449 Rain 3 1013 100 10000 6 290 20:19 11.10.2022
1450 Clear 5 1013 75 10000 6 260 17:56 11.10.2022
1451 Clouds 6 1013 70 10000 6 270 15:37 11.10.2022
1452 Clouds 6 1011 75 10000 8.05 270 13:30 11.10.2022
1453 Clouds 6 1011 75 10000 9 270 10:44 11.10.2022
1454 Clouds 6 1011 75 10000 7.15 260 10:24 11.10.2022
1455 Clouds 4 1011 86 10000 7.15 260 08:30 11.10.2022
1456 Clouds 4 1009 100 10000 5 280 02:52 11.10.2022
1457 Clouds 5 1008 100 10000 4.92 280 00:39 11.10.2022
1458 Clouds 7 1008 93 10000 5 280 22:54 10.10.2022
1459 Clouds 8 1007 93 10000 4.02 280 20:48 10.10.2022
1460 Rain 8 1007 100 10000 5 260 19:22 10.10.2022
1461 Rain 8 1007 93 10000 5 240 17:34 10.10.2022
1462 Rain 9 1007 87 10000 5 240 16:36 10.10.2022
1463 Clouds 9 1007 81 10000 6 250 13:59 10.10.2022
1464 Clouds 9 1007 75 10000 7.15 240 12:23 10.10.2022
1465 Clouds 8 1008 81 10000 5 210 09:38 10.10.2022
1466 Clear 6 1010 86 10000 5 220 07:21 10.10.2022
1467 Clear 5 1010 86 10000 4.02 220 05:35 10.10.2022
1468 Clouds 5 1010 86 10000 3.13 220 01:58 10.10.2022
1469 Clouds 5 1010 86 10000 3.13 220 01:58 10.10.2022
1470 Clouds 5 1011 80 10000 3.13 230 00:23 10.10.2022
1471 Clouds 5 1011 80 10000 4.02 220 22:26 09.10.2022
1472 Clouds 5 1011 80 10000 4.02 220 21:45 09.10.2022
1473 Clouds 5 1012 80 10000 4.02 220 20:45 09.10.2022
1474 Clear 5 1012 80 10000 4.02 220 19:51 09.10.2022
1475 Clear 5 1012 80 10000 3.13 220 18:51 09.10.2022
1476 Clear 5 1012 80 10000 3.13 220 17:55 09.10.2022
1477 Clear 5 1013 80 10000 3.13 240 16:56 09.10.2022
1478 Clear 4 1013 86 10000 3.13 260 16:21 09.10.2022
1479 Clouds 7 1012 75 10000 4.02 250 15:25 09.10.2022
1480 Clouds 8 1012 75 10000 2 250 14:26 09.10.2022
1481 Clouds 9 1012 87 10000 0 0 12:53 09.10.2022
1482 Clouds 9 1011 75 10000 4.02 290 11:28 09.10.2022
1483 Clouds 9 1011 81 10000 4.02 270 08:41 09.10.2022
1484 Clouds 6 1011 100 10000 3.13 240 06:46 09.10.2022
1485 Clear 5 1010 93 10000 2 280 03:30 09.10.2022
1486 Clouds 5 1010 100 10000 2 280 02:22 09.10.2022
1487 Clouds 7 1009 93 10000 2 250 23:56 08.10.2022
1488 Clouds 7 1009 93 10000 2 250 22:52 08.10.2022
1489 Clouds 8 1008 87 10000 3.13 240 20:52 08.10.2022
1490 Clear 8 1008 87 10000 3.13 250 19:51 08.10.2022
1491 Clear 9 1008 81 10000 4.02 250 17:55 08.10.2022
1492 Clouds 9 1007 81 10000 3.13 220 15:41 08.10.2022
1493 Clouds 10 1006 71 10000 3.13 240 13:53 08.10.2022
1494 Clouds 11 1006 61 10000 5 250 12:30 08.10.2022
1495 Clouds 10 1005 71 10000 4.02 230 10:36 08.10.2022
1496 Clouds 10 1005 71 10000 4.02 240 09:43 08.10.2022
1497 Clouds 7 1005 87 10000 4.02 250 07:32 08.10.2022
1498 Clear 7 1004 87 10000 4.02 230 02:53 08.10.2022
1499 Clouds 7 1005 87 10000 4.02 200 00:32 08.10.2022
1500 Clear 7 1005 87 10000 4.02 200 23:20 07.10.2022
1501 Clouds 8 1006 81 10000 4.02 210 22:24 07.10.2022
1502 Rain 8 1006 81 10000 3.13 220 20:42 07.10.2022
1503 Rain 8 1007 81 10000 4.02 210 19:18 07.10.2022
1504 Clear 9 1008 61 10000 4.02 210 16:59 07.10.2022
1505 Clear 9 1008 61 10000 4.02 200 15:56 07.10.2022
1506 Clear 9 1008 61 10000 4 190 14:42 07.10.2022
1507 Clouds 8 1009 75 10000 5 190 12:25 07.10.2022
1508 Rain 7 1011 81 10000 5 190 09:28 07.10.2022
1509 Rain 7 1011 81 10000 5 190 08:56 07.10.2022
1510 Clear 7 1013 81 10000 3.13 190 06:23 07.10.2022
1511 Clouds 6 1017 100 10000 4.02 160 00:46 07.10.2022
1512 Rain 5 1019 100 10000 3.13 130 22:50 06.10.2022
1513 Rain 5 1020 93 10000 2 120 21:44 06.10.2022
1514 Rain 5 1021 86 9000 3.13 130 21:22 06.10.2022
1515 Clouds 4 1021 93 10000 3.13 130 19:50 06.10.2022
1516 Clouds 3 1022 93 10000 3.13 120 18:37 06.10.2022
1517 Clouds 3 1022 93 10000 3.13 120 18:37 06.10.2022
1518 Clouds 3 1022 93 10000 3.13 120 17:50 06.10.2022
1519 Clouds 4 1024 86 10000 5 120 14:24 06.10.2022
1520 Clouds 4 1025 86 10000 5 110 11:24 06.10.2022
1521 Clouds 0 1028 100 10000 4 110 06:53 06.10.2022
1522 Mist -2 1028 100 3000 3 120 03:34 06.10.2022
1523 Clear -2 1029 100 10000 3 90 23:20 05.10.2022
1524 Clear -1 1029 100 10000 0 0 19:58 05.10.2022
1525 Clear -1 1029 93 10000 0 0 18:42 05.10.2022
1526 Clear 1 1030 93 10000 0 0 17:34 05.10.2022
1527 Clear 3 1030 86 10000 3.13 10 15:54 05.10.2022
1528 Clear 4 1030 86 10000 2 10 14:47 05.10.2022
1529 Clear 7 1030 70 10000 2 350 13:54 05.10.2022
1530 Clear 7 1030 65 10000 3.13 330 12:19 05.10.2022
1531 Clear 7 1030 70 10000 4.02 320 08:49 05.10.2022
1532 Clear 6 1030 75 10000 4.02 300 07:35 05.10.2022
1533 Clear 3 1029 93 10000 3.13 290 05:35 05.10.2022
1534 Clear 3 1029 93 10000 2 290 02:47 05.10.2022
1535 Clouds 3 1028 93 10000 3.13 290 00:41 05.10.2022
1536 Clouds 4 1028 86 10000 3.13 290 00:23 05.10.2022
1537 Clouds 4 1027 93 10000 3.13 290 21:59 04.10.2022
1538 Clouds 4 1027 93 10000 3.13 280 20:31 04.10.2022
1539 Clouds 5 1027 86 10000 2 290 18:58 04.10.2022
1540 Clouds 5 1027 86 10000 3.13 290 18:35 04.10.2022
1541 Clouds 5 1027 86 10000 3.13 300 17:43 04.10.2022
1542 Clouds 5 1026 86 10000 4.02 290 16:28 04.10.2022
1543 Clouds 6 1024 93 10000 5 320 12:41 04.10.2022
1544 Drizzle 8 1020 100 2400 4.02 250 08:52 04.10.2022
1545 Mist 6 1020 100 1200 5 240 06:28 04.10.2022
1546 Clouds 5 1019 93 10000 5 220 01:28 04.10.2022
1547 Clouds 5 1020 86 10000 5 210 23:37 03.10.2022
1548 Rain 5 1020 86 10000 5 210 21:52 03.10.2022
1549 Clouds 5 1020 80 10000 6 200 20:52 03.10.2022
1550 Rain 5 1022 86 10000 7.15 200 18:57 03.10.2022
1551 Rain 5 1022 86 10000 6 200 17:48 03.10.2022
1552 Rain 6 1022 75 10000 5 200 16:43 03.10.2022
1553 Clear 9 1022 40 10000 7 200 15:27 03.10.2022
1554 Clear 9 1022 40 10000 8 190 13:44 03.10.2022
1555 Clear 10 1023 37 10000 7 190 12:20 03.10.2022
1556 Clear 8 1024 42 10000 6 200 10:38 03.10.2022
1557 Clear 6 1024 48 10000 8.05 190 09:33 03.10.2022
1558 Clear 1 1027 69 10000 5 190 04:51 03.10.2022
1559 Clear 1 1028 64 10000 4.02 190 02:27 03.10.2022
1560 Clear 1 1029 59 10000 3.13 190 22:24 02.10.2022
1561 Clear 1 1030 59 10000 4.02 190 20:37 02.10.2022
1562 Clear 2 1030 55 10000 5 200 18:30 02.10.2022
1563 Clear 3 1031 51 10000 5 200 17:32 02.10.2022
1564 Clear 3 1031 51 10000 4.02 190 16:33 02.10.2022
1565 Clear 3 1031 51 10000 4.02 200 15:40 02.10.2022
1566 Clear 5 1032 44 10000 4.02 200 13:51 02.10.2022
1567 Clear 5 1032 44 10000 5 210 12:51 02.10.2022
1568 Clear 5 1032 44 10000 6 200 12:24 02.10.2022
1569 Clear 5 1032 44 10000 5 200 11:36 02.10.2022
1570 Clear 5 1033 44 10000 7.15 210 10:36 02.10.2022
1571 Clear 3 1034 51 10000 7.15 230 08:40 02.10.2022
1572 Clear 1 1034 59 10000 4.02 200 07:29 02.10.2022
1573 Clear -2 1034 68 10000 3.13 200 02:54 02.10.2022
1574 Clear -2 1034 74 10000 3.13 210 00:45 02.10.2022
1575 Clear -2 1035 79 10000 2 210 23:43 01.10.2022
1576 Clear -4 1035 79 10000 1 0 22:31 01.10.2022
1577 Clear -2 1035 79 10000 2 280 19:58 01.10.2022
1578 Clear -2 1035 79 10000 1 0 17:49 01.10.2022
1579 Clear -1 1035 74 10000 1 240 16:29 01.10.2022
1580 Clear 5 1035 45 10000 2 220 14:25 01.10.2022
1581 Clear 5 1036 48 10000 2 220 12:59 01.10.2022
1582 Clear 5 1036 48 10000 2 250 12:29 01.10.2022
1583 Clear 5 1036 48 10000 3.13 240 11:19 01.10.2022
1584 Clear 5 1037 48 10000 2 310 10:31 01.10.2022
1585 Clear 4 1037 55 10000 1 0 09:27 01.10.2022
1586 Clear 3 1037 59 10000 2 310 08:57 01.10.2022
1587 Clouds -6 1037 86 10000 1 310 03:59 01.10.2022
1588 Clouds -6 1037 93 10000 1 0 03:28 01.10.2022
1589 Clear -5 1036 92 10000 1 290 23:47 30.09.2022
1590 Clear -4 1036 85 10000 2 290 22:32 30.09.2022
1591 Clear -3 1036 86 10000 1 0 21:22 30.09.2022
1592 Clear -3 1036 92 10000 1 0 20:43 30.09.2022
1593 Clear -2 1036 86 10000 2 20 19:32 30.09.2022
1594 Clear -1 1035 80 10000 3.13 340 17:27 30.09.2022
1595 Clear 1 1035 64 10000 3.13 340 15:26 30.09.2022
1596 Clear 4 1034 51 10000 4.02 350 13:27 30.09.2022
1597 Clear 4 1034 44 10000 5 340 11:56 30.09.2022
1598 Clear 4 1034 51 10000 4.02 360 10:18 30.09.2022
1599 Clear 3 1034 51 10000 4.02 350 08:21 30.09.2022
1600 Clear -1 1032 74 10000 3.13 10 04:31 30.09.2022
1601 Clear -1 1031 80 10000 3.13 340 02:27 30.09.2022
1602 Clear 0 1029 74 10000 2 360 22:24 29.09.2022
1603 Clear 0 1029 74 10000 3 20 21:26 29.09.2022
1604 Clear 1 1029 69 10000 3 10 20:31 29.09.2022
1605 Clear 1 1028 69 10000 3 360 18:32 29.09.2022
1606 Clear 1 1027 74 10000 3.13 360 16:56 29.09.2022
1607 Clear 1 1027 74 10000 3.13 350 16:26 29.09.2022
1608 Clear 2 1027 59 10000 4.02 360 15:35 29.09.2022
1609 Snow 2 1026 64 10000 4.02 350 14:24 29.09.2022
1610 Clear 1 1024 74 10000 5 360 09:21 29.09.2022
1611 Clouds 0 1024 69 10000 5.81 10 05:42 29.09.2022
1612 Clouds -1 1023 86 10000 4.02 360 02:45 29.09.2022
1613 Clouds -1 1022 80 10000 4.02 10 23:54 28.09.2022
1614 Clouds -1 1022 80 10000 3.13 350 22:32 28.09.2022
1615 Clouds -1 1022 80 10000 4.02 350 21:29 28.09.2022
1616 Clouds -1 1022 80 9000 4.02 350 20:20 28.09.2022
1617 Clouds 0 1022 69 10000 4.02 10 18:20 28.09.2022
1618 Clouds 0 1021 74 10000 4.02 10 14:50 28.09.2022
1619 Snow 1 1020 69 10000 5 360 12:40 28.09.2022
1620 Clouds 0 1020 80 10000 4.02 10 10:24 28.09.2022
1621 Snow 0 1019 80 10000 3.13 20 08:25 28.09.2022
1622 Clouds -1 1019 80 10000 4.02 40 06:45 28.09.2022
1623 Snow -2 1018 92 8000 3.13 30 01:54 28.09.2022
1624 Snow -2 1018 92 9000 3.13 20 01:30 28.09.2022
1625 Clouds -2 1018 92 10000 3.13 20 23:19 27.09.2022
1626 Clouds -2 1018 86 10000 3.13 20 21:40 27.09.2022
1627 Snow -2 1018 92 10000 3.13 30 20:37 27.09.2022
1628 Clouds -2 1018 92 10000 3.13 20 19:47 27.09.2022
1629 Snow -2 1018 92 3700 3.13 30 18:31 27.09.2022
1630 Clouds -2 1018 92 10000 3.13 30 17:43 27.09.2022
1631 Snow -1 1018 86 7000 2 30 15:27 27.09.2022
1632 Snow -1 1018 86 1500 4.02 10 14:41 27.09.2022
1633 Snow 0 1017 86 10000 4.02 350 12:40 27.09.2022
1634 Snow 0 1017 80 9000 5 360 10:53 27.09.2022
1635 Clouds 0 1017 63 10000 5 20 08:46 27.09.2022
1636 Clouds -1 1017 74 10000 5 30 06:27 27.09.2022
1637 Clouds 0 1018 63 10000 3.13 20 01:45 27.09.2022
1638 Clouds 0 1018 69 10000 2 20 01:27 27.09.2022
1639 Clouds -1 1018 86 10000 2 60 23:25 26.09.2022
1640 Clouds 0 1018 80 10000 3.13 20 22:24 26.09.2022
1641 Clear 0 1019 74 10000 3.13 30 20:29 26.09.2022
1642 Clear 0 1019 74 10000 2 360 19:30 26.09.2022
1643 Clear 0 1019 74 10000 2 340 18:31 26.09.2022
1644 Clouds 0 1020 69 10000 2 360 15:55 26.09.2022
1645 Clouds 1 1020 59 10000 3.13 10 13:30 26.09.2022
1646 Clouds 0 1020 63 10000 4.02 20 11:29 26.09.2022
1647 Clouds 0 1021 69 10000 5 20 10:37 26.09.2022
1648 Clouds 0 1021 69 10000 5 20 10:19 26.09.2022
1649 Clouds 0 1021 69 10000 5 20 09:53 26.09.2022
1650 Clouds 1 1021 69 10000 4.02 10 09:22 26.09.2022
1651 Clouds 1 1021 69 10000 5 30 06:28 26.09.2022
1652 Clouds -1 1022 80 10000 4.02 20 02:44 26.09.2022
1653 Clear -1 1021 80 10000 3.13 20 23:28 25.09.2022
1654 Clear -1 1021 92 10000 4.02 20 21:54 25.09.2022
1655 Clear -1 1021 92 10000 3.13 10 21:34 25.09.2022
1656 Clouds 0 1021 86 10000 3.13 10 20:44 25.09.2022
1657 Clouds 1 1021 74 10000 3.13 10 19:31 25.09.2022
1658 Clear 1 1021 64 10000 2 310 18:34 25.09.2022
1659 Clear 1 1022 64 10000 3.13 360 17:49 25.09.2022
1660 Clear 1 1022 59 10000 3.13 20 16:22 25.09.2022
1661 Clouds 2 1021 59 10000 4.02 10 15:35 25.09.2022
1662 Clouds 2 1021 64 10000 5 30 14:21 25.09.2022
1663 Clouds 2 1021 74 10000 5 20 12:44 25.09.2022
1664 Snow 2 1020 87 9000 5 10 10:20 25.09.2022
1665 Rain 3 1019 100 6000 5 10 07:47 25.09.2022
1666 Clouds 3 1019 93 10000 2 340 05:31 25.09.2022
1667 Clouds 4 1019 87 10000 2 10 00:36 25.09.2022
1668 Clouds 4 1019 81 10000 3 30 22:34 24.09.2022
1669 Clouds 3 1019 80 10000 2 40 20:45 24.09.2022
1670 Clouds 1 1020 86 10000 2 310 19:21 24.09.2022
1671 Clear 3 1020 74 10000 2 10 16:59 24.09.2022
1672 Clear 3 1020 74 10000 2 340 16:23 24.09.2022
1673 Clear 7 1020 56 10000 3.13 350 15:19 24.09.2022
1674 Clear 8 1020 52 10000 4.02 350 13:23 24.09.2022
1675 Clear 8 1020 52 10000 5 360 12:40 24.09.2022
1676 Clear 9 1020 53 10000 5 360 10:19 24.09.2022
1677 Clear 10 1020 49 10000 4.02 340 09:22 24.09.2022
1678 Clear 10 1020 49 10000 4.02 340 09:22 24.09.2022
1679 Clear 9 1020 45 10000 3.13 310 08:42 24.09.2022
1680 Clear 5 1020 70 10000 1 290 05:55 24.09.2022
1681 Clear 3 1020 93 10000 1 0 04:31 24.09.2022
1682 Clear 2 1021 93 10000 0 0 23:47 23.09.2022
1683 Clear 3 1021 86 10000 1 310 21:44 23.09.2022
1684 Clear 3 1020 86 10000 1 270 21:24 23.09.2022
1685 Clear 3 1020 86 10000 1 280 20:54 23.09.2022
1686 Clear 3 1020 86 10000 1 0 19:20 23.09.2022
1687 Clear 5 1020 75 10000 2 340 17:50 23.09.2022
1688 Clouds 11 1019 50 10000 6 290 13:41 23.09.2022
1689 Clear 10 1019 53 10000 7.15 300 10:24 23.09.2022
1690 Clear 9 1018 57 10000 6 280 07:43 23.09.2022
1691 Clear 4 1017 69 10000 6 270 02:32 23.09.2022
1692 Clear 5 1017 65 10000 6 260 23:29 22.09.2022
1693 Clear 6 1017 60 10000 6 270 22:28 22.09.2022
1694 Clear 6 1017 60 10000 6 260 21:35 22.09.2022
1695 Clear 7 1017 52 10000 7.15 260 20:23 22.09.2022
1696 Clear 7 1018 56 10000 7.15 250 18:58 22.09.2022
1697 Clear 7 1017 52 10000 4 290 15:39 22.09.2022
1698 Clouds 8 1015 52 10000 10 320 10:51 22.09.2022
1699 Clouds 7 1014 70 10000 11.18 320 10:19 22.09.2022
1700 Clouds 11 1011 61 10000 8.05 290 07:55 22.09.2022
1701 Rain 10 1009 81 10000 7.15 280 04:56 22.09.2022
1702 Clear 11 1008 76 10000 6 250 00:37 22.09.2022
1703 Clear 12 1009 71 10000 6 250 22:29 21.09.2022
1704 Clear 12 1009 71 10000 5 240 21:18 21.09.2022
1705 Clear 14 1009 62 10000 6 250 18:50 21.09.2022
1706 Clear 15 1009 58 10000 5 250 17:44 21.09.2022
1707 Clear 17 1008 55 10000 7.15 260 15:35 21.09.2022
1708 Clear 18 1007 51 10000 8.05 250 13:42 21.09.2022
1709 Clear 19 1006 55 10000 8.94 240 11:42 21.09.2022
1710 Clear 19 1007 59 10000 7.15 240 10:54 21.09.2022
1711 Clouds 17 1007 77 10000 7.15 240 09:39 21.09.2022
1712 Clouds 17 1007 77 10000 7.15 240 09:39 21.09.2022
1713 Clear 16 1008 77 10000 5 230 08:31 21.09.2022
1714 Clouds 14 1010 93 10000 3.13 240 03:51 21.09.2022
1715 Clear 15 1010 87 10000 4.02 220 02:38 21.09.2022
1716 Clear 15 1010 87 10000 4.02 230 01:56 21.09.2022
1717 Clear 14 1011 93 10000 2 230 00:19 21.09.2022
1718 Clear 13 1012 93 10000 2 200 21:53 20.09.2022
1719 Clear 13 1012 93 10000 4.02 190 20:32 20.09.2022
1720 Clear 12 1013 87 10000 4 160 18:41 20.09.2022
1721 Clouds 11 1017 93 10000 5 130 15:37 20.09.2022
1722 Clouds 10 1018 93 10000 4 100 14:18 20.09.2022
1723 Clear 13 1019 66 10000 4.02 130 11:29 20.09.2022
1724 Clear 12 1020 66 10000 4.02 140 08:44 20.09.2022
1725 Clear 12 1020 66 10000 3.13 150 08:23 20.09.2022
1726 Clear 6 1020 100 10000 1 0 04:37 20.09.2022
1727 Clear 3 1020 93 10000 1 0 01:42 20.09.2022
1728 Clear 6 1019 93 10000 1 330 22:42 19.09.2022
1729 Clear 9 1018 75 10000 2 310 21:28 19.09.2022
1730 Clear 10 1018 71 10000 2 340 20:40 19.09.2022
1731 Clear 13 1017 67 10000 3 330 18:49 19.09.2022
1732 Clear 13 1016 71 10000 3.13 280 17:20 19.09.2022
1733 Clouds 15 1015 54 10000 7.15 280 13:47 19.09.2022
1734 Clouds 16 1014 55 10000 8.05 280 11:57 19.09.2022
1735 Clouds 15 1013 58 10000 11.18 270 10:19 19.09.2022
1736 Clouds 14 1012 67 10000 10 280 08:37 19.09.2022
1737 Clear 10 1010 81 10000 6 250 03:39 19.09.2022
1738 Clear 11 1010 87 10000 5 240 00:48 19.09.2022
1739 Clouds 11 1010 100 10000 5 230 22:42 18.09.2022
1740 Clouds 12 1010 93 10000 4.02 230 21:26 18.09.2022
1741 Clouds 11 1010 100 10000 4.02 230 19:40 18.09.2022
1742 Clouds 11 1010 93 10000 4.02 240 17:52 18.09.2022
1743 Rain 10 1010 93 8000 5 220 16:49 18.09.2022
1744 Rain 9 1010 100 10000 6 200 14:52 18.09.2022
1745 Rain 10 1011 93 8000 5 200 13:41 18.09.2022
1746 Rain 12 1010 71 10000 6 160 12:20 18.09.2022
1747 Clear 15 1013 44 10000 7.15 180 09:44 18.09.2022
1748 Clear 9 1019 70 10000 3.13 170 01:44 18.09.2022
1749 Clear 9 1019 70 10000 3.13 180 01:20 18.09.2022
1750 Clear 11 1020 57 10000 2 180 22:57 17.09.2022
1751 Clear 12 1021 54 10000 4.02 190 20:56 17.09.2022
1752 Clear 12 1021 54 10000 3.13 200 19:39 17.09.2022
1753 Clear 14 1021 47 10000 4 200 18:30 17.09.2022
1754 Clear 17 1021 45 10000 4.02 180 14:27 17.09.2022
1755 Clear 17 1021 45 10000 3.13 170 13:32 17.09.2022
1756 Clear 13 1022 67 10000 4 150 10:49 17.09.2022
1757 Clear 13 1023 66 10000 2 150 07:28 17.09.2022
1758 Clear 13 1023 66 10000 2 150 06:19 17.09.2022
1759 Clear 13 1023 58 10000 3.13 230 23:41 16.09.2022
1760 Clear 12 1023 66 10000 2 210 22:27 16.09.2022
1761 Clear 13 1023 62 10000 2 210 20:54 16.09.2022
1762 Clear 13 1023 62 10000 2 230 19:35 16.09.2022
1763 Clear 15 1022 54 10000 3.13 210 16:24 16.09.2022
1764 Clear 16 1022 51 10000 2 200 14:52 16.09.2022
1765 Clear 18 1022 39 10000 3.13 200 13:21 16.09.2022
1766 Clear 17 1023 45 10000 5 210 10:24 16.09.2022
1767 Clear 12 1024 66 10000 2 190 07:26 16.09.2022
1768 Clear 11 1024 66 10000 2 200 06:48 16.09.2022
1769 Clear 10 1024 76 10000 2 200 05:57 16.09.2022
1770 Clear 7 1024 87 10000 0.89 0 02:35 16.09.2022
1771 Clear 8 1024 81 10000 1 0 21:47 15.09.2022
1772 Clear 8 1024 81 10000 2 200 20:38 15.09.2022
1773 Clear 10 1024 71 10000 3.13 200 19:31 15.09.2022
1774 Clear 9 1024 81 10000 1 0 17:41 15.09.2022
1775 Clear 10 1024 76 10000 1 180 17:22 15.09.2022
1776 Clear 13 1024 62 10000 3.13 190 15:47 15.09.2022
1777 Clouds 16 1024 47 10000 4.02 230 12:51 15.09.2022
1778 Clouds 15 1025 51 10000 4.02 240 11:48 15.09.2022
1779 Clear 15 1025 54 10000 3.13 250 09:45 15.09.2022
1780 Clear 11 1025 81 10000 2 250 06:58 15.09.2022
1781 Clouds 5 1024 100 10000 2 270 03:48 15.09.2022
1782 Fog 5 1023 100 450 1 330 23:22 14.09.2022
1783 Fog 7 1023 93 5000 1 0 20:37 14.09.2022
1784 Clear 8 1023 93 10000 2 250 19:33 14.09.2022
1785 Clear 9 1022 93 10000 2 260 17:47 14.09.2022
1786 Clouds 11 1022 81 10000 3.13 230 16:36 14.09.2022
1787 Clouds 12 1021 76 10000 3.13 240 14:56 14.09.2022
1788 Clouds 12 1021 76 10000 4.02 240 12:40 14.09.2022
1789 Rain 11 1021 76 10000 4.02 230 09:53 14.09.2022
1790 Clouds 12 1021 71 10000 5 240 08:38 14.09.2022
1791 Clouds 10 1021 81 10000 4.02 230 06:50 14.09.2022
1792 Clouds 9 1021 87 10000 4.02 250 06:29 14.09.2022
1793 Clear 8 1021 87 10000 3.13 210 02:43 14.09.2022
1794 Clear 8 1021 87 10000 3.13 220 01:36 14.09.2022
1795 Clouds 8 1021 87 10000 3.13 220 00:53 14.09.2022
1796 Clear 9 1021 81 10000 3.13 210 23:55 13.09.2022
1797 Clear 9 1021 81 10000 4.02 230 23:36 13.09.2022
1798 Clear 9 1021 81 10000 4.02 230 23:18 13.09.2022
1799 Clear 9 1021 81 10000 3.13 230 22:29 13.09.2022
1800 Clear 8 1021 87 10000 3.13 230 21:38 13.09.2022
1801 Clear 9 1021 81 10000 4.02 230 18:59 13.09.2022
1802 Clouds 10 1021 76 10000 3.13 250 16:42 13.09.2022
1803 Clouds 10 1021 81 10000 4.02 230 15:31 13.09.2022
1804 Clouds 11 1021 71 10000 5 230 13:40 13.09.2022
1805 Rain 12 1021 71 10000 6 250 10:30 13.09.2022
1806 Clear 10 1020 76 10000 5 230 07:56 13.09.2022
1807 Clear 6 1020 86 10000 3.13 230 02:27 13.09.2022
1808 Clear 6 1020 81 10000 2 250 23:22 12.09.2022
1809 Clear 6 1019 81 10000 3 240 22:40 12.09.2022
1810 Clear 6 1019 81 10000 3.13 240 21:35 12.09.2022
1811 Clear 7 1019 81 10000 2 250 20:22 12.09.2022
1812 Clear 8 1019 75 10000 3.13 250 18:24 12.09.2022
1813 Clear 11 1017 61 10000 5 250 15:50 12.09.2022
1814 Clouds 14 1017 44 10000 7.15 290 12:35 12.09.2022
1815 Clear 12 1016 54 10000 5 260 10:31 12.09.2022
1816 Clear 10 1016 66 10000 4.02 250 07:40 12.09.2022
1817 Clear 2 1015 100 10000 3.13 280 04:36 12.09.2022
1818 Clear 0 1015 100 10000 2 280 02:24 12.09.2022
1819 Clouds 1 1014 100 10000 2 310 22:46 11.09.2022
1820 Clear 1 1014 93 10000 2 290 21:27 11.09.2022
1821 Clear 2 1014 93 10000 1 280 20:44 11.09.2022
1822 Clear 2 1014 93 10000 1.79 290 19:39 11.09.2022
1823 Clear 2 1014 93 10000 0 0 19:19 11.09.2022
1824 Clear 4 1014 93 10000 0 0 17:29 11.09.2022
1825 Clear 8 1013 75 10000 1 0 15:51 11.09.2022
1826 Clouds 11 1013 53 10000 4.02 360 13:26 11.09.2022
1827 Clouds 10 1013 57 10000 2 310 11:26 11.09.2022
1828 Clouds 9 1013 61 10000 3.13 80 08:25 11.09.2022
1829 Clouds 7 1013 87 10000 2 360 05:49 11.09.2022
1830 Clouds 2 1012 93 10000 1 330 00:23 11.09.2022
1831 Clouds 2 1012 100 10000 0 0 22:23 10.09.2022
1832 Clouds 5 1012 100 10000 1 0 20:34 10.09.2022
1833 Clear 6 1013 93 10000 2 150 19:44 10.09.2022
1834 Clear 7 1013 87 10000 2 230 19:25 10.09.2022
1835 Clear 6 1013 86 10000 1 0 17:51 10.09.2022
1836 Clouds 7 1013 87 10000 2 70 15:37 10.09.2022
1837 Rain 8 1013 75 10000 4.02 320 13:55 10.09.2022
1838 Clouds 9 1013 61 10000 2 240 12:52 10.09.2022
1839 Clouds 9 1013 57 10000 3.13 260 10:34 10.09.2022
1840 Clouds 9 1012 57 10000 2 230 08:42 10.09.2022
1841 Clouds 8 1012 65 10000 2 230 08:22 10.09.2022
1842 Fog 4 1012 100 650 0 0 04:55 10.09.2022
1843 Clouds -1 1012 100 10000 0 0 23:38 09.09.2022
1844 Clear -1 1012 93 10000 0 0 22:36 09.09.2022
1845 Clear -1 1012 100 10000 0 0 20:59 09.09.2022
1846 Clear 1 1012 93 10000 1 0 20:22 09.09.2022
1847 Clear 2 1012 93 10000 1 0 19:23 09.09.2022
1848 Clear 3 1012 93 10000 0 0 17:50 09.09.2022
1849 Clouds 8 1012 81 10000 0 0 15:23 09.09.2022
1850 Clouds 8 1012 75 10000 1 0 13:43 09.09.2022
1851 Clouds 8 1012 75 10000 2 120 11:38 09.09.2022
1852 Clouds 6 1013 86 10000 2 50 07:58 09.09.2022
1853 Fog 4 1012 100 10000 0.89 0 03:40 09.09.2022
1854 Clear 4 1011 100 10000 1 0 00:21 09.09.2022
1855 Clear 5 1011 93 10000 2 50 21:52 08.09.2022
1856 Clouds 5 1011 93 10000 2 90 20:49 08.09.2022
1857 Clouds 5 1011 93 10000 2 60 20:29 08.09.2022
1858 Rain 5 1010 93 6000 3.13 60 19:25 08.09.2022
1859 Rain 6 1010 93 10000 4.02 90 17:29 08.09.2022
1860 Rain 6 1009 93 10000 2 60 15:54 08.09.2022
1861 Clouds 9 1009 61 10000 3.13 280 13:30 08.09.2022
1862 Clouds 9 1008 57 10000 4.02 280 12:42 08.09.2022
1863 Clear 9 1008 53 10000 4.02 300 11:24 08.09.2022
1864 Clear 9 1006 53 10000 5 290 09:46 08.09.2022
1865 Clouds 8 1005 65 10000 6 300 07:25 08.09.2022
1866 Clouds 6 1002 75 10000 5 310 04:53 08.09.2022
1867 Clouds 6 1000 81 10000 4.02 320 02:36 08.09.2022
1868 Clouds 6 1000 81 10000 4.02 320 02:18 08.09.2022
1869 Clouds 8 996 87 10000 5 320 23:25 07.09.2022
1870 Clouds 8 995 87 10000 5 330 21:46 07.09.2022
1871 Clouds 8 995 87 10000 5 330 21:24 07.09.2022
1872 Clouds 7 994 93 10000 4.02 320 20:29 07.09.2022
1873 Clouds 7 994 93 10000 4.02 320 19:20 07.09.2022
1874 Rain 7 994 87 10000 5 360 16:24 07.09.2022
1875 Clear 10 995 61 10000 5 50 10:52 07.09.2022
1876 Clear 10 996 66 10000 4.02 50 10:32 07.09.2022
1877 Clear 9 997 75 10000 5 50 08:26 07.09.2022
1878 Clear 7 1000 93 10000 4.02 70 05:46 07.09.2022
1879 Clouds 6 1004 93 10000 2 80 00:31 07.09.2022
1880 Fog 2 1005 93 9000 1 70 21:56 06.09.2022
1881 Clouds 2 1005 93 10000 1 70 21:33 06.09.2022
1882 Clouds 4 1006 100 9000 1 320 19:39 06.09.2022
1883 Clear 5 1006 93 10000 1.79 280 18:39 06.09.2022
1884 Clear 8 1006 81 10000 3.13 240 17:39 06.09.2022
1885 Clouds 9 1006 87 10000 1 0 16:47 06.09.2022
1886 Clouds 9 1006 81 10000 0 0 15:58 06.09.2022
1887 Clouds 10 1006 71 10000 2 240 13:48 06.09.2022
1888 Clouds 10 1007 66 10000 1 0 13:27 06.09.2022
1889 Clouds 10 1007 71 10000 2 260 12:57 06.09.2022
1890 Clouds 10 1007 81 10000 1 0 10:55 06.09.2022
1891 Rain 8 1007 93 8000 1 0 09:22 06.09.2022
1892 Clouds 8 1007 87 10000 2 240 07:53 06.09.2022
1893 Clouds 8 1007 93 10000 3.13 260 06:19 06.09.2022
1894 Clear 6 1005 93 10000 3.13 290 00:54 06.09.2022
1895 Clouds 7 1005 93 10000 4.02 280 22:49 05.09.2022
1896 Clouds 7 1005 93 10000 4.02 280 21:38 05.09.2022
1897 Clouds 7 1005 93 10000 5 270 20:20 05.09.2022
1898 Clear 7 1004 93 10000 5 250 18:53 05.09.2022
1899 Clouds 7 1004 93 10000 4.02 260 18:24 05.09.2022
1900 Clouds 7 1004 93 10000 4.02 250 17:50 05.09.2022
1901 Clouds 8 1004 81 10000 4.02 260 15:53 05.09.2022
1902 Rain 8 1004 93 10000 5 270 14:34 05.09.2022
1903 Rain 9 1004 81 10000 7.15 260 12:51 05.09.2022
1904 Clouds 10 1003 66 10000 8.05 250 10:35 05.09.2022
1905 Clouds 10 1003 71 10000 6 250 08:45 05.09.2022
1906 Clouds 7 1002 81 10000 7.15 240 03:47 05.09.2022
1907 Clouds 7 1002 81 10000 7.15 240 03:47 05.09.2022
1908 Clear 7 1002 87 10000 6 240 00:18 05.09.2022
1909 Clear 8 1002 81 10000 5 240 22:28 04.09.2022
1910 Clear 8 1002 81 10000 6 240 21:49 04.09.2022
1911 Clouds 8 1003 81 10000 5 240 20:21 04.09.2022
1912 Clouds 10 1004 76 10000 5 240 18:34 04.09.2022
1913 Clouds 10 1004 76 10000 6 240 17:26 04.09.2022
1914 Clouds 12 1003 62 10000 8.05 240 15:42 04.09.2022
1915 Clouds 12 1004 62 10000 8.05 250 14:24 04.09.2022
1916 Rain 10 1004 81 10000 6 260 12:27 04.09.2022
1917 Clouds 10 1004 81 9000 7.15 250 10:59 04.09.2022
1918 Clouds 11 1004 66 10000 10 260 09:24 04.09.2022
1919 Clear 10 1003 76 10000 6 260 06:31 04.09.2022
1920 Clear 6 1003 93 10000 4.92 270 02:41 04.09.2022
1921 Clear 8 1004 81 10000 2 280 22:33 03.09.2022
1922 Clear 10 1005 76 10000 3.13 290 21:25 03.09.2022
1923 Clear 11 1005 71 10000 4.02 290 20:55 03.09.2022
1924 Clear 12 1005 71 10000 3.13 280 17:37 03.09.2022
1925 Clouds 14 1005 62 10000 4.02 260 16:52 03.09.2022
1926 Clouds 18 1005 67 10000 4.02 230 14:52 03.09.2022
1927 Clouds 18 1005 72 10000 4.02 220 14:30 03.09.2022
1928 Clouds 17 1005 77 10000 3.13 220 13:44 03.09.2022
1929 Clouds 15 1006 82 10000 4.02 210 11:32 03.09.2022
1930 Clouds 14 1005 76 10000 3.13 190 09:22 03.09.2022
1931 Clouds 13 1005 76 10000 5 160 07:45 03.09.2022
1932 Clear 11 1008 81 10000 6 150 04:48 03.09.2022
1933 Rain 10 1010 81 10000 8.05 130 02:35 03.09.2022
1934 Rain 10 1014 87 10000 7.15 120 23:42 02.09.2022
1935 Rain 11 1017 81 9000 5 110 21:57 02.09.2022
1936 Rain 11 1017 76 10000 6 130 20:42 02.09.2022
1937 Clouds 11 1018 76 10000 5 130 19:47 02.09.2022
1938 Clouds 11 1018 76 10000 5 130 19:47 02.09.2022
1939 Rain 11 1018 76 10000 5 120 18:50 02.09.2022
1940 Clear 12 1019 66 10000 5 120 18:24 02.09.2022
1941 Clear 12 1020 66 10000 5 110 16:56 02.09.2022
1942 Clear 12 1020 66 10000 4.02 110 16:22 02.09.2022
1943 Clear 15 1021 47 10000 6 120 12:58 02.09.2022
1944 Clear 14 1022 50 10000 4.02 130 10:37 02.09.2022
1945 Clear 13 1022 54 10000 4.02 130 09:41 02.09.2022
1946 Clouds 13 1022 54 10000 5 120 08:43 02.09.2022
1947 Clouds 12 1022 57 10000 4.02 120 06:43 02.09.2022
1948 Clear 11 1022 61 10000 3.13 120 05:32 02.09.2022
1949 Clear 3 1019 86 10000 1 0 22:58 01.09.2022
1950 Clear 4 1019 86 10000 1 60 21:46 01.09.2022
1951 Clear 4 1019 86 10000 0 0 21:26 01.09.2022
1952 Clear 4 1019 93 10000 0 0 20:49 01.09.2022
1953 Clear 6 1019 86 10000 1 280 19:24 01.09.2022
1954 Clouds 10 1018 66 10000 2 60 17:49 01.09.2022
1955 Clouds 10 1017 61 10000 2 50 16:47 01.09.2022
1956 Clouds 11 1017 53 10000 4.02 40 14:41 01.09.2022
1957 Clouds 12 1016 54 10000 4.02 40 13:20 01.09.2022
1958 Clouds 12 1015 57 10000 5 50 11:57 01.09.2022
1959 Clouds 12 1015 57 10000 4.92 50 11:39 01.09.2022
1960 Clouds 12 1014 57 10000 4.02 40 11:19 01.09.2022
1961 Clouds 12 1013 54 10000 5 40 09:20 01.09.2022
1962 Clouds 11 1012 57 10000 7.15 70 06:28 01.09.2022
1963 Clear 5 1011 100 10000 4.02 40 01:45 01.09.2022
1964 Clear 6 1010 93 10000 4.02 70 00:33 01.09.2022
1965 Clear 8 1010 87 10000 5 80 22:21 31.08.2022
1966 Clouds 9 1010 75 10000 4.02 70 20:22 31.08.2022
1967 Clouds 11 1010 76 10000 3.13 60 18:19 31.08.2022
1968 Clouds 12 1011 71 10000 1 0 16:32 31.08.2022
1969 Clouds 12 1011 62 10000 3.13 20 14:58 31.08.2022
1970 Clouds 13 1011 66 10000 3.13 10 12:30 31.08.2022
1971 Clouds 13 1011 66 10000 3.13 360 11:38 31.08.2022
1972 Clouds 14 1011 62 10000 3.13 310 09:25 31.08.2022
1973 Clear 12 1010 76 10000 4.02 340 06:35 31.08.2022
1974 Clouds 10 1008 93 10000 3.13 330 01:25 31.08.2022
1975 Clouds 13 1006 93 10000 4.02 330 21:49 30.08.2022
1976 Clouds 14 1006 87 10000 4.02 330 21:21 30.08.2022
1977 Rain 17 1005 94 9000 5 290 18:53 30.08.2022
1978 Clouds 22 1005 60 10000 4 260 15:43 30.08.2022
1979 Clear 23 1006 60 10000 7.15 270 13:30 30.08.2022
1980 Clouds 23 1006 60 10000 9 260 11:22 30.08.2022
1981 Clear 22 1006 68 10000 7.15 260 10:57 30.08.2022
1982 Clouds 23 1007 60 10000 7.15 240 08:46 30.08.2022
1983 Fog 13 1010 100 450 3.13 210 03:33 30.08.2022
1984 Clouds 13 1012 93 10000 3.13 200 23:45 29.08.2022
1985 Clouds 13 1013 93 10000 3.13 200 22:33 29.08.2022
1986 Clouds 13 1013 93 10000 1 0 21:34 29.08.2022
1987 Clouds 13 1014 87 10000 1 0 20:26 29.08.2022
1988 Clear 11 1015 81 10000 2 140 17:58 29.08.2022
1989 Clear 11 1015 81 10000 1 0 17:25 29.08.2022
1990 Clear 12 1015 81 10000 2 70 16:50 29.08.2022
1991 Clear 15 1015 54 10000 2 180 15:18 29.08.2022
1992 Clear 16 1015 51 10000 2 190 13:34 29.08.2022
1993 Clear 15 1015 47 10000 3.13 110 11:33 29.08.2022
1994 Clear 15 1015 47 10000 4 80 10:39 29.08.2022
1995 Clouds 14 1014 58 10000 3.13 90 08:38 29.08.2022
1996 Clouds 12 1012 81 10000 4.02 70 05:58 29.08.2022
1997 Rain 15 1008 93 10000 5 280 01:53 29.08.2022
1998 Clouds 17 1007 72 10000 6 250 22:55 28.08.2022
1999 Clear 17 1008 72 10000 5 250 21:45 28.08.2022
2000 Clear 17 1009 67 10000 6 260 20:58 28.08.2022
2001 Clear 17 1009 67 10000 6 250 19:44 28.08.2022
2002 Clear 17 1011 67 10000 4.02 250 18:22 28.08.2022
2003 Clear 18 1011 63 10000 6 250 17:45 28.08.2022
2004 Clear 19 1011 59 10000 7.15 260 16:33 28.08.2022
2005 Clear 20 1012 56 10000 8.05 250 14:44 28.08.2022
2006 Clear 20 1013 59 10000 7.15 260 12:49 28.08.2022
2007 Clear 19 1013 63 10000 7.15 260 10:51 28.08.2022
2008 Clear 18 1014 63 10000 7.15 260 09:57 28.08.2022
2009 Clear 17 1014 67 10000 7.15 260 08:39 28.08.2022
2010 Clear 17 1014 63 10000 8.05 260 07:48 28.08.2022
2011 Clear 12 1015 81 10000 5 260 03:32 28.08.2022
2012 Clear 13 1016 76 10000 5 280 00:31 28.08.2022
2013 Clear 13 1016 76 10000 4.02 280 22:41 27.08.2022
2014 Clear 14 1016 71 10000 5 290 21:58 27.08.2022
2015 Clear 14 1017 67 10000 5 290 20:19 27.08.2022
2016 Clear 13 1017 71 10000 6 270 18:41 27.08.2022
2017 Clouds 14 1017 62 10000 5 250 15:53 27.08.2022
2018 Clear 14 1017 58 10000 5 250 15:25 27.08.2022
2019 Clouds 15 1018 51 10000 7.15 300 12:31 27.08.2022
2020 Clouds 14 1018 54 10000 8.05 310 11:53 27.08.2022
2021 Clouds 13 1018 62 10000 7.15 300 09:51 27.08.2022
2022 Clouds 14 1018 58 10000 7.15 290 08:45 27.08.2022
2023 Clear 10 1018 76 10000 5 300 04:39 27.08.2022
2024 Clear 7 1016 93 10000 4.02 310 00:20 27.08.2022
2025 Clear 7 1016 93 10000 4.02 290 23:23 26.08.2022
2026 Clouds 8 1015 87 10000 3.13 300 21:39 26.08.2022
2027 Clouds 10 1014 81 10000 4.02 330 19:25 26.08.2022
2028 Clouds 11 1013 81 10000 6 340 17:29 26.08.2022
2029 Clouds 13 1010 93 8000 5 320 15:35 26.08.2022
2030 Clouds 13 1010 93 10000 5 310 14:44 26.08.2022
2031 Rain 13 1009 93 9000 5 270 12:54 26.08.2022
2032 Rain 12 1009 100 6000 4.02 230 11:37 26.08.2022
2033 Rain 12 1010 100 5000 4.02 230 10:47 26.08.2022
2034 Clouds 12 1013 81 10000 4.02 200 07:32 26.08.2022
2035 Clear 11 1017 81 10000 3.13 250 02:31 26.08.2022
2036 Clear 11 1018 81 10000 1 240 23:44 25.08.2022
2037 Clear 12 1019 76 10000 1 270 21:40 25.08.2022
2038 Clear 11 1019 81 10000 1 290 20:51 25.08.2022
2039 Clear 12 1020 76 10000 1 0 19:20 25.08.2022
2040 Clear 12 1020 76 10000 2 320 18:18 25.08.2022
2041 Clear 14 1019 67 10000 2 320 17:31 25.08.2022
2042 Clouds 16 1019 55 10000 2 350 15:54 25.08.2022
2043 Clouds 16 1019 55 10000 3.13 330 15:27 25.08.2022
2044 Clouds 17 1019 55 10000 6 350 12:40 25.08.2022
2045 Clear 18 1018 51 10000 6 340 10:48 25.08.2022
2046 Clear 18 1018 51 10000 7.15 340 09:20 25.08.2022
2047 Clear 18 1016 55 10000 5 360 05:39 25.08.2022
2048 Clear 18 1015 88 10000 3 320 01:42 25.08.2022
2049 Thunderstorm 18 1014 93 10000 4.02 280 23:26 24.08.2022
2050 Clear 20 1015 77 10000 5 260 22:23 24.08.2022
2051 Clear 20 1015 72 10000 5 270 21:36 24.08.2022
2052 Clear 20 1015 72 10000 5 250 20:55 24.08.2022
2053 Clear 20 1016 72 10000 4.02 240 19:19 24.08.2022
2054 Clear 22 1017 68 10000 4.02 240 16:47 24.08.2022
2055 Clear 23 1017 64 10000 4.02 240 15:52 24.08.2022
2056 Clouds 24 1019 53 9000 6 250 13:40 24.08.2022
2057 Clouds 25 1020 47 10000 7.15 240 11:50 24.08.2022
2058 Clouds 25 1021 50 10000 7.15 250 09:39 24.08.2022
2059 Clear 24 1022 60 10000 6 240 08:25 24.08.2022
2060 Clouds 16 1023 100 6000 3.13 250 02:57 24.08.2022
2061 Mist 17 1024 93 7000 2 250 23:34 23.08.2022
2062 Mist 16 1024 100 1900 1 250 22:32 23.08.2022
2063 Fog 16 1024 93 1100 1 250 21:34 23.08.2022
2064 Fog 16 1025 100 250 2 250 20:21 23.08.2022
2065 Fog 17 1025 93 2900 2 250 18:46 23.08.2022
2066 Clouds 18 1025 93 9000 2 250 17:49 23.08.2022
2067 Clear 20 1025 82 10000 3.13 250 16:54 23.08.2022
2068 Clouds 22 1025 73 10000 4.02 240 15:39 23.08.2022
2069 Clouds 22 1025 73 10000 2 260 13:29 23.08.2022
2070 Clouds 23 1026 64 10000 2 160 11:33 23.08.2022
2071 Clouds 22 1026 73 10000 2 190 10:48 23.08.2022
2072 Clouds 22 1026 68 10000 3.13 190 10:24 23.08.2022
2073 Clouds 19 1026 82 10000 1 0 08:52 23.08.2022
2074 Clouds 19 1026 82 10000 2 300 08:21 23.08.2022
2075 Clouds 19 1026 82 10000 4.02 280 07:38 23.08.2022
2076 Clouds 18 1026 88 10000 3.13 290 06:28 23.08.2022
2077 Clouds 16 1026 93 10000 2 270 04:38 23.08.2022
2078 Clouds 12 1025 100 10000 0 0 00:28 23.08.2022
2079 Clouds 11 1025 100 10000 0 0 23:37 22.08.2022
2080 Clouds 12 1024 93 10000 1 260 22:44 22.08.2022
2081 Clear 11 1024 100 10000 0 0 21:29 22.08.2022
2082 Clear 12 1024 93 10000 0 0 19:48 22.08.2022
2083 Clear 13 1025 93 10000 0 0 19:18 22.08.2022
2084 Clouds 16 1024 82 10000 1.79 290 17:22 22.08.2022
2085 Clear 18 1024 72 10000 2 350 15:39 22.08.2022
2086 Clear 18 1023 67 10000 4.02 300 14:31 22.08.2022
2087 Clouds 18 1024 63 10000 3.13 270 10:43 22.08.2022
2088 Clear 15 1025 67 10000 2 250 07:59 22.08.2022
2089 Clear 10 1025 93 10000 1 0 04:25 22.08.2022
2090 Clouds 5 1024 100 10000 1.79 300 00:43 22.08.2022
2091 Clouds 5 1024 93 10000 1 300 00:24 22.08.2022
2092 Clouds 6 1023 93 10000 1 300 22:53 21.08.2022
2093 Clear 6 1023 100 10000 1 0 21:28 21.08.2022
2094 Clear 7 1024 87 10000 0 0 20:56 21.08.2022
2095 Clear 9 1023 87 10000 2 360 19:26 21.08.2022
2096 Clear 12 1023 76 10000 1 320 17:35 21.08.2022
2097 Clear 13 1023 67 10000 2 360 15:53 21.08.2022
2098 Clear 13 1023 66 10000 2 330 15:21 21.08.2022
2099 Clouds 13 1023 62 10000 3.13 340 13:52 21.08.2022
2100 Clouds 13 1023 62 10000 4.02 340 13:28 21.08.2022
2101 Clouds 13 1023 71 10000 4 340 11:39 21.08.2022
2102 Clouds 11 1024 71 10000 4.02 360 09:31 21.08.2022
2103 Clouds 12 1024 66 10000 5 350 08:56 21.08.2022
2104 Clouds 12 1024 66 10000 4.92 350 08:38 21.08.2022
2105 Clouds 11 1024 71 10000 5 360 07:26 21.08.2022
2106 Clouds 10 1023 81 10000 3.13 340 03:40 21.08.2022
2107 Clouds 9 1022 76 10000 2 310 00:22 21.08.2022
2108 Clouds 10 1022 76 10000 2 340 22:37 20.08.2022
2109 Clouds 11 1022 71 10000 3.13 360 21:34 20.08.2022
2110 Clouds 11 1022 81 10000 3.13 350 20:28 20.08.2022
2111 Clouds 11 1022 81 10000 2 340 19:40 20.08.2022
2112 Clouds 12 1022 71 10000 3.13 10 18:29 20.08.2022
2113 Clouds 12 1022 76 10000 3 10 17:40 20.08.2022
2114 Clouds 13 1021 66 10000 3.13 10 16:49 20.08.2022
2115 Clouds 14 1020 62 10000 6 360 15:26 20.08.2022
2116 Clouds 14 1020 71 10000 6 360 13:24 20.08.2022
2117 Clouds 14 1019 82 10000 7.15 360 11:49 20.08.2022
2118 Clouds 13 1019 81 10000 5 350 09:34 20.08.2022
2119 Clouds 12 1018 87 10000 6 360 08:29 20.08.2022
2120 Mist 14 1017 93 3300 6 350 05:51 20.08.2022
2121 Clouds 12 1017 93 10000 3.13 210 00:58 20.08.2022
2122 Clouds 12 1017 93 10000 3.13 210 00:58 20.08.2022
2123 Clouds 12 1018 93 10000 4.02 250 00:30 20.08.2022
2124 Clouds 12 1018 93 10000 3.13 240 22:59 19.08.2022
2125 Rain 12 1018 93 10000 3.13 250 21:40 19.08.2022
2126 Clouds 12 1019 93 10000 3.13 280 19:54 19.08.2022
2127 Clouds 13 1020 81 10000 3.13 330 16:47 19.08.2022
2128 Clouds 13 1020 81 10000 3.13 330 14:54 19.08.2022
2129 Clouds 13 1020 76 10000 4.02 330 12:49 19.08.2022
2130 Clouds 13 1020 71 10000 5 360 10:44 19.08.2022
2131 Clouds 12 1020 76 10000 4.02 350 09:59 19.08.2022
2132 Clouds 10 1021 93 10000 4.02 340 05:58 19.08.2022
2133 Clouds 12 1021 87 10000 5 340 00:48 19.08.2022
2134 Clouds 12 1021 87 10000 4.02 340 00:23 19.08.2022
2135 Clouds 13 1021 81 10000 5 340 23:28 18.08.2022
2136 Clouds 13 1021 87 10000 4.02 340 22:37 18.08.2022
2137 Clouds 13 1021 81 10000 3.13 320 21:53 18.08.2022
2138 Clouds 13 1021 81 10000 3.13 340 21:23 18.08.2022
2139 Clouds 12 1021 87 10000 3.13 320 19:54 18.08.2022
2140 Clear 12 1021 87 10000 4.02 310 19:24 18.08.2022
2141 Clouds 13 1021 82 10000 3 320 17:46 18.08.2022
2142 Clouds 14 1021 71 10000 3.13 320 16:25 18.08.2022
2143 Clouds 15 1021 62 10000 4.02 330 14:22 18.08.2022
2144 Clouds 14 1021 67 10000 4.02 350 13:45 18.08.2022
2145 Clouds 13 1021 71 10000 4.02 350 12:31 18.08.2022
2146 Clouds 13 1021 71 10000 5 350 11:21 18.08.2022
2147 Clouds 12 1021 71 10000 3.13 10 09:43 18.08.2022
2148 Clouds 11 1020 81 10000 3.13 350 07:57 18.08.2022
2149 Clouds 10 1019 81 10000 3.13 300 06:43 18.08.2022
2150 Clouds 7 1018 100 10000 3.13 280 02:59 18.08.2022
2151 Clear 7 1017 93 10000 3.13 300 22:51 17.08.2022
2152 Clear 8 1017 87 10000 3.13 290 21:26 17.08.2022
2153 Clear 9 1017 81 10000 2 330 19:59 17.08.2022
2154 Clouds 10 1016 81 10000 4.92 350 18:39 17.08.2022
2155 Clouds 11 1016 71 10000 4.02 340 17:27 17.08.2022
2156 Clouds 11 1016 66 10000 4.02 360 16:20 17.08.2022
2157 Clouds 12 1016 62 10000 5 350 14:46 17.08.2022
2158 Clouds 12 1015 54 10000 7.15 350 12:36 17.08.2022
2159 Clouds 13 1015 54 10000 7.15 350 11:36 17.08.2022
2160 Clouds 12 1015 54 10000 7.15 350 09:29 17.08.2022
2161 Clouds 11 1014 66 10000 6 350 07:28 17.08.2022
2162 Clouds 8 1013 81 10000 4.02 350 01:45 17.08.2022
2163 Rain 10 1012 93 10000 6 350 23:33 16.08.2022
2164 Rain 10 1012 93 10000 4.02 10 21:48 16.08.2022
2165 Clouds 9 1011 93 10000 3.13 300 20:25 16.08.2022
2166 Clear 8 1011 93 10000 3.13 300 19:40 16.08.2022
2167 Clouds 10 1011 87 10000 4.02 300 17:56 16.08.2022
2168 Clear 11 1011 81 10000 3.13 300 17:24 16.08.2022
2169 Rain 13 1011 66 10000 5 330 15:45 16.08.2022
2170 Clouds 13 1011 71 10000 5 300 14:55 16.08.2022
2171 Clouds 13 1011 76 10000 4.02 300 14:36 16.08.2022
2172 Clouds 13 1011 66 10000 6 340 12:40 16.08.2022
2173 Clouds 12 1011 93 10000 4.02 290 10:29 16.08.2022
2174 Rain 11 1011 93 10000 4.02 250 09:29 16.08.2022
2175 Rain 12 1011 81 9000 2 250 08:26 16.08.2022
2176 Clouds 11 1011 81 10000 3.13 280 07:20 16.08.2022
2177 Clear 8 1012 87 10000 3.13 280 01:20 16.08.2022
2178 Clear 10 1013 76 10000 3.13 290 22:29 15.08.2022
2179 Clear 10 1013 76 10000 2 290 21:51 15.08.2022
2180 Clear 10 1013 76 10000 3.13 290 20:39 15.08.2022
2181 Clear 10 1014 76 10000 3.13 290 20:00 15.08.2022
2182 Clear 11 1014 71 10000 3.13 290 18:20 15.08.2022
2183 Clear 12 1014 62 10000 3.13 320 16:26 15.08.2022
2184 Clear 13 1014 58 10000 4.02 320 15:55 15.08.2022
2185 Clear 13 1013 54 10000 9 340 13:54 15.08.2022
2186 Clouds 13 1013 50 10000 10 320 12:24 15.08.2022
2187 Clouds 12 1012 57 10000 10 330 09:54 15.08.2022
2188 Clouds 11 1011 61 10000 10 320 08:21 15.08.2022
2189 Clouds 10 1010 61 10000 10 330 04:36 15.08.2022
2190 Clear 9 1008 81 10000 6 300 01:26 15.08.2022
2191 Clouds 10 1008 81 10000 6 310 22:39 14.08.2022
2192 Clouds 11 1007 76 10000 6 320 21:38 14.08.2022
2193 Clouds 12 1007 71 10000 6 310 19:54 14.08.2022
2194 Clouds 13 1007 66 10000 5 300 18:58 14.08.2022
2195 Clouds 13 1007 66 10000 5 310 18:19 14.08.2022
2196 Clouds 13 1007 66 10000 6 310 16:53 14.08.2022
2197 Clouds 14 1006 62 10000 9 320 15:48 14.08.2022
2198 Clouds 15 1006 62 10000 8.05 300 14:27 14.08.2022
2199 Rain 14 1006 67 10000 8.05 330 13:50 14.08.2022
2200 Clouds 15 1005 67 10000 9 300 13:19 14.08.2022
2201 Clouds 15 1005 67 10000 10 320 12:23 14.08.2022
2202 Clouds 15 1004 62 10000 10 300 10:49 14.08.2022
2203 Clouds 15 1003 67 10000 9 300 08:50 14.08.2022
2204 Clouds 15 1002 72 10000 9 310 06:22 14.08.2022
2205 Clouds 13 1000 81 10000 6 300 02:48 14.08.2022
2206 Clouds 13 999 81 10000 6 320 23:53 13.08.2022
2207 Clouds 13 998 87 10000 6 320 22:52 13.08.2022
2208 Rain 14 997 93 10000 7.15 330 20:58 13.08.2022
2209 Rain 14 997 100 8000 6 330 20:33 13.08.2022
2210 Rain 14 997 100 9000 6 290 19:37 13.08.2022
2211 Rain 13 997 93 10000 4.02 280 17:42 13.08.2022
2212 Clouds 17 997 82 10000 3.13 250 15:26 13.08.2022
2213 Clouds 17 997 82 10000 3.13 240 14:27 13.08.2022
2214 Clouds 17 997 82 10000 3.13 240 13:39 13.08.2022
2215 Rain 15 998 82 9000 6 290 11:52 13.08.2022
2216 Rain 16 998 88 10000 4 230 10:21 13.08.2022
2217 Clouds 16 999 87 9000 3.13 260 08:23 13.08.2022
2218 Clouds 15 1000 93 6000 3.13 230 05:22 13.08.2022
2219 Clouds 17 1003 93 8000 1.79 230 23:52 12.08.2022
2220 Clouds 17 1004 93 8000 2 240 21:42 12.08.2022
2221 Clouds 17 1004 93 10000 2 230 20:53 12.08.2022
2222 Clouds 17 1005 100 10000 2 210 19:40 12.08.2022
2223 Clouds 17 1006 100 6000 2 210 18:46 12.08.2022
2224 Clouds 17 1006 93 10000 2 190 17:21 12.08.2022
2225 Rain 18 1007 100 8000 1 0 15:49 12.08.2022
2226 Clouds 18 1007 93 10000 1 0 14:41 12.08.2022
2227 Thunderstorm 23 1007 56 10000 5 160 12:55 12.08.2022
2228 Clear 24 1009 46 10000 5 150 10:44 12.08.2022
2229 Clear 21 1011 52 10000 5 150 07:50 12.08.2022
2230 Clear 20 1013 52 10000 5 150 06:39 12.08.2022
2231 Clear 15 1015 67 10000 3 120 02:39 12.08.2022
2232 Clear 15 1015 67 10000 3.13 130 00:26 12.08.2022
2233 Clear 16 1016 63 10000 2 130 23:35 11.08.2022
2234 Clear 17 1016 59 10000 2 140 22:27 11.08.2022
2235 Clear 16 1016 67 10000 4.02 140 21:43 11.08.2022
2236 Clear 16 1016 67 10000 2 120 20:51 11.08.2022
2237 Clear 17 1017 67 10000 3.13 120 20:19 11.08.2022
2238 Clear 17 1017 67 10000 3.13 120 19:32 11.08.2022
2239 Clear 18 1017 63 10000 3.13 110 17:48 11.08.2022
2240 Clouds 21 1017 52 10000 3.13 120 16:35 11.08.2022
2241 Clear 22 1017 46 10000 4.02 130 15:24 11.08.2022
2242 Clear 23 1018 38 10000 2 130 13:37 11.08.2022
2243 Clear 23 1019 38 10000 3.13 160 10:27 11.08.2022
2244 Clear 22 1020 40 10000 3.13 90 07:38 11.08.2022
2245 Clear 15 1020 76 10000 2 40 03:54 11.08.2022
2246 Clear 14 1020 71 10000 4.02 30 00:50 11.08.2022
2247 Clear 15 1021 67 10000 3.13 20 22:32 10.08.2022
2248 Clear 16 1021 63 10000 3.13 20 21:25 10.08.2022
2249 Clear 16 1020 63 10000 4.02 20 20:55 10.08.2022
2250 Clear 17 1020 63 10000 3.13 20 19:31 10.08.2022
2251 Clear 18 1020 59 10000 3 10 18:22 10.08.2022
2252 Clear 22 1020 43 10000 3 20 16:41 10.08.2022
2253 Clouds 23 1020 38 10000 6 50 13:36 10.08.2022
2254 Clouds 23 1020 38 10000 5 30 12:44 10.08.2022
2255 Clear 23 1020 38 10000 6 30 09:25 10.08.2022
2256 Clear 22 1020 40 10000 7.15 50 08:34 10.08.2022
2257 Clear 22 1020 40 10000 6 30 07:19 10.08.2022
2258 Clear 17 1019 82 10000 4.02 20 03:28 10.08.2022
2259 Clear 18 1017 88 10000 3.13 10 23:34 09.08.2022
2260 Clear 18 1017 88 10000 3.13 10 22:56 09.08.2022
2261 Clouds 19 1017 88 10000 3.13 30 21:36 09.08.2022
2262 Clouds 20 1017 82 10000 4.02 10 20:30 09.08.2022
2263 Haze 22 1016 83 1300 5 360 18:44 09.08.2022
2264 Haze 23 1016 83 1000 4.02 350 17:28 09.08.2022
2265 Haze 23 1016 83 1000 4.02 350 17:28 09.08.2022
2266 Haze 24 1016 73 3300 4.02 10 16:41 09.08.2022
2267 Haze 25 1015 65 4400 3.13 20 15:58 09.08.2022
2268 Clouds 29 1016 45 6000 5 320 12:52 09.08.2022
2269 Clouds 29 1016 42 10000 4.02 310 09:39 09.08.2022
2270 Clouds 29 1016 45 10000 4.02 290 08:50 09.08.2022
2271 Clouds 29 1016 45 10000 3.13 280 07:53 09.08.2022
2272 Clouds 20 1017 82 8000 2 290 04:25 09.08.2022
2273 Clear 17 1017 93 10000 2 290 23:27 08.08.2022
2274 Clear 18 1017 88 10000 1 290 22:55 08.08.2022
2275 Clear 19 1017 82 10000 1 310 22:18 08.08.2022
2276 Clear 19 1017 82 10000 2 260 21:18 08.08.2022
2277 Clear 20 1017 82 10000 3.13 280 19:51 08.08.2022
2278 Clear 22 1017 73 10000 3.13 270 18:50 08.08.2022
2279 Clear 26 1017 53 10000 4 250 16:44 08.08.2022
2280 Clear 28 1017 44 10000 3 300 15:40 08.08.2022
2281 Clear 29 1018 39 10000 3.13 300 13:55 08.08.2022
2282 Clear 28 1018 42 10000 3.13 310 12:19 08.08.2022
2283 Clear 27 1019 44 10000 3.13 260 09:46 08.08.2022
2284 Clear 22 1019 56 10000 2 270 05:54 08.08.2022
2285 Clear 14 1019 88 10000 1 0 02:56 08.08.2022
2286 Clear 14 1018 82 10000 1 0 22:42 07.08.2022
2287 Clear 14 1018 82 10000 1 310 21:40 07.08.2022
2288 Clear 15 1018 82 10000 1 20 20:26 07.08.2022
2289 Clear 15 1018 82 10000 1 20 20:26 07.08.2022
2290 Clear 16 1018 77 10000 0 0 19:56 07.08.2022
2291 Clear 16 1018 77 10000 1 0 19:38 07.08.2022
2292 Clear 19 1017 63 10000 2 20 18:23 07.08.2022
2293 Clear 22 1017 53 10000 3 10 16:54 07.08.2022
2294 Clear 23 1017 49 10000 4 360 16:35 07.08.2022
2295 Clear 23 1017 49 10000 4 360 16:35 07.08.2022
2296 Clear 23 1017 49 10000 5 350 15:20 07.08.2022
2297 Clouds 23 1017 46 10000 5 10 13:26 07.08.2022
2298 Clouds 23 1017 46 10000 6 350 11:54 07.08.2022
2299 Clouds 24 1017 46 10000 7.15 340 10:34 07.08.2022
2300 Clouds 22 1018 60 10000 4.02 350 07:36 07.08.2022
2301 Clear 18 1017 82 10000 3.13 350 03:20 07.08.2022
2302 Clear 16 1016 93 10000 3.13 360 00:31 07.08.2022
2303 Clear 16 1016 93 10000 3.13 340 22:24 06.08.2022
2304 Clear 17 1016 93 10000 2 340 20:42 06.08.2022
2305 Clear 18 1016 88 10000 1.79 340 19:41 06.08.2022
2306 Clear 18 1015 88 10000 2 10 18:28 06.08.2022
2307 Clear 20 1015 82 10000 2 60 17:31 06.08.2022
2308 Thunderstorm 22 1014 73 10000 2 100 14:43 06.08.2022
2309 Clouds 23 1014 68 10000 3.13 110 13:44 06.08.2022
2310 Clouds 24 1014 60 10000 2 270 11:33 06.08.2022
2311 Clouds 24 1014 57 10000 2 200 09:51 06.08.2022
2312 Clouds 23 1015 60 10000 3.13 260 08:32 06.08.2022
2313 Mist 18 1015 88 3600 2 260 03:51 06.08.2022
2314 Mist 15 1016 93 4800 0 0 23:34 05.08.2022
2315 Mist 16 1016 87 5000 0 0 22:22 05.08.2022
2316 Clouds 17 1016 88 7000 0 0 19:33 05.08.2022
2317 Clouds 18 1016 82 7000 0 0 18:44 05.08.2022
2318 Clouds 20 1016 73 8000 0 0 17:54 05.08.2022
2319 Clouds 21 1016 68 8000 0 0 16:49 05.08.2022
2320 Clouds 21 1016 68 8000 0 0 16:49 05.08.2022
2321 Clouds 23 1016 56 10000 2 310 15:22 05.08.2022
2322 Clouds 23 1016 56 9000 2 300 14:19 05.08.2022
2323 Clouds 22 1016 60 10000 1 320 13:23 05.08.2022
2324 Clouds 23 1017 60 7000 6 360 12:28 05.08.2022
2325 Clouds 25 1016 53 10000 4.02 290 10:49 05.08.2022
2326 Clouds 24 1017 53 10000 4.02 260 08:25 05.08.2022
2327 Clouds 22 1017 60 10000 3 260 06:41 05.08.2022
2328 Clouds 15 1018 87 6000 3.13 280 00:30 05.08.2022
2329 Clouds 16 1018 87 6000 3.13 280 22:29 04.08.2022
2330 Clouds 17 1018 82 7000 2 280 21:26 04.08.2022
2331 Clouds 18 1018 77 7000 2 280 20:43 04.08.2022
2332 Clouds 18 1019 72 10000 3.13 280 19:40 04.08.2022
2333 Clear 20 1019 64 10000 3.13 280 18:36 04.08.2022
2334 Clear 21 1019 64 10000 3.13 280 17:38 04.08.2022
2335 Clear 26 1019 44 10000 5 230 14:18 04.08.2022
2336 Clouds 26 1019 36 10000 4.02 300 12:57 04.08.2022
2337 Smoke 27 1020 36 5000 6 300 11:18 04.08.2022
2338 Clear 25 1021 41 10000 4.02 250 07:53 04.08.2022
2339 Clear 23 1021 46 10000 3.13 250 05:46 04.08.2022
2340 Clear 13 1021 81 10000 1 280 02:33 04.08.2022
2341 Clear 13 1022 81 10000 2 300 23:45 03.08.2022
2342 Clear 13 1021 87 10000 1 300 22:55 03.08.2022
2343 Clear 14 1021 82 10000 2 290 20:50 03.08.2022
2344 Clear 16 1021 72 10000 0 0 19:46 03.08.2022
2345 Clear 19 1021 59 10000 3.13 340 18:37 03.08.2022
2346 Clear 23 1021 43 10000 3 340 16:25 03.08.2022
2347 Clear 24 1021 41 10000 4.02 330 15:32 03.08.2022
2348 Clear 24 1022 38 10000 4.92 330 12:41 03.08.2022
2349 Clear 23 1022 40 10000 6 10 08:54 03.08.2022
2350 Clear 19 1022 63 10000 4.02 340 04:47 03.08.2022
2351 Clear 15 1021 87 10000 3.13 340 03:37 03.08.2022
2352 Clear 13 1021 93 10000 2 310 01:45 03.08.2022
2353 Clear 13 1021 87 10000 2 310 23:27 02.08.2022
2354 Clear 14 1020 82 10000 2 350 21:55 02.08.2022
2355 Clear 14 1020 82 10000 3.13 340 21:33 02.08.2022
2356 Clear 15 1020 76 10000 3.13 330 19:38 02.08.2022
2357 Clear 20 1019 49 10000 4 350 16:42 02.08.2022
2358 Clear 21 1019 43 10000 6 350 13:21 02.08.2022
2359 Clear 20 1019 42 10000 5 350 09:53 02.08.2022
2360 Clear 18 1019 48 10000 5 10 08:26 02.08.2022
2361 Clouds 18 1019 51 10000 4.02 10 07:50 02.08.2022
2362 Clear 15 1019 62 10000 4.02 20 04:56 02.08.2022
2363 Clouds 12 1018 76 10000 3.13 20 01:26 02.08.2022
2364 Clear 10 1018 81 10000 3.13 40 23:21 01.08.2022
2365 Clear 12 1017 76 10000 4.02 60 21:19 01.08.2022
2366 Clear 14 1017 67 10000 3.13 20 19:44 01.08.2022
2367 Clear 15 1016 62 10000 2 20 18:53 01.08.2022
2368 Clear 18 1016 51 10000 4.02 30 16:55 01.08.2022
2369 Clear 18 1016 51 10000 4.02 30 16:55 01.08.2022
2370 Clear 18 1016 51 10000 4.02 30 16:55 01.08.2022
2371 Clear 19 1016 45 10000 5 20 16:29 01.08.2022
2372 Clear 19 1016 45 10000 4.02 20 15:33 01.08.2022
2373 Clear 20 1016 42 10000 5 30 14:44 01.08.2022
2374 Clear 20 1016 45 10000 5 30 12:57 01.08.2022
2375 Clear 20 1016 45 10000 5 20 10:47 01.08.2022
2376 Clear 19 1016 45 10000 6 10 08:45 01.08.2022
2377 Clouds 17 1017 55 10000 5 50 06:50 01.08.2022
2378 Clear 14 1017 62 10000 6 60 04:30 01.08.2022
2379 Clear 10 1016 87 10000 4.02 20 00:56 01.08.2022
2380 Clear 12 1015 76 10000 3.13 40 22:42 31.07.2022
2381 Clear 13 1015 71 10000 3.13 30 22:18 31.07.2022
2382 Clear 14 1015 67 10000 4.02 40 20:21 31.07.2022
2383 Clear 16 1015 58 10000 4.02 50 18:38 31.07.2022
2384 Clear 18 1014 51 10000 5 60 16:22 31.07.2022
2385 Clear 19 1014 52 10000 6 40 13:59 31.07.2022
2386 Clear 20 1014 49 10000 6 50 12:43 31.07.2022
2387 Clear 19 1014 48 10000 7.15 50 10:53 31.07.2022
2388 Clear 19 1014 48 10000 7.15 50 08:29 31.07.2022
2389 Clouds 18 1013 72 10000 6 30 04:46 31.07.2022
2390 Clear 20 1011 77 10000 5 40 00:56 31.07.2022
2391 Clear 21 1011 64 10000 4.02 30 22:20 30.07.2022
2392 Clear 20 1011 68 10000 3.13 20 21:50 30.07.2022
2393 Clear 20 1011 68 10000 4.02 20 21:24 30.07.2022
2394 Clear 21 1011 64 10000 3.13 20 20:24 30.07.2022
2395 Clear 22 1011 60 10000 3 30 19:42 30.07.2022
2396 Clear 24 1010 50 10000 3 30 17:52 30.07.2022
2397 Clear 26 1010 44 10000 5 50 16:37 30.07.2022
2398 Clouds 27 1010 39 10000 5 40 15:29 30.07.2022
2399 Clouds 28 1011 34 10000 6 40 13:22 30.07.2022
2400 Clouds 28 1011 34 10000 6 50 12:21 30.07.2022
2401 Clouds 28 1011 34 10000 5 40 10:44 30.07.2022
2402 Clouds 27 1011 36 10000 6 40 09:59 30.07.2022
2403 Clear 27 1011 41 10000 5 360 08:49 30.07.2022
2404 Clear 26 1012 50 10000 5 350 06:55 30.07.2022
2405 Clear 19 1013 82 10000 3.13 350 02:33 30.07.2022
2406 Clear 19 1013 82 10000 3.13 340 23:30 29.07.2022
2407 Clear 20 1014 77 10000 3.13 340 21:36 29.07.2022
2408 Clear 20 1014 77 10000 3.13 340 20:50 29.07.2022
2409 Clear 21 1014 68 10000 3.13 340 19:34 29.07.2022
2410 Clear 25 1014 50 10000 3 20 16:44 29.07.2022
2411 Clear 26 1015 41 10000 5 360 14:38 29.07.2022
2412 Clear 26 1015 41 10000 6 360 12:41 29.07.2022
2413 Clear 23 1017 49 10000 4.02 20 08:52 29.07.2022
2414 Clear 23 1017 49 10000 4.02 20 08:22 29.07.2022
2415 Clear 19 1018 59 10000 4.02 60 04:39 29.07.2022
2416 Clear 14 1017 82 10000 3.13 30 23:46 28.07.2022
2417 Clear 15 1017 76 10000 3.13 40 21:38 28.07.2022
2418 Clear 16 1017 72 10000 3.13 20 20:50 28.07.2022
2419 Clear 16 1017 72 10000 3.13 20 20:18 28.07.2022
2420 Clear 16 1016 77 10000 3.13 30 19:26 28.07.2022
2421 Clear 18 1016 67 10000 2 50 17:46 28.07.2022
2422 Clear 19 1016 63 10000 2 60 17:20 28.07.2022
2423 Clouds 20 1016 56 10000 4 40 16:40 28.07.2022
2424 Clouds 21 1016 49 10000 4.02 30 13:56 28.07.2022
2425 Clouds 22 1016 49 10000 4.92 20 12:39 28.07.2022
2426 Clouds 19 1016 59 10000 4.92 30 07:46 28.07.2022
2427 Clear 17 1016 67 10000 6 30 05:39 28.07.2022
2428 Clear 17 1016 67 10000 6 50 05:20 28.07.2022
2429 Clear 13 1014 81 10000 3.13 30 23:20 27.07.2022
2430 Clear 14 1013 76 10000 3.13 20 21:30 27.07.2022
2431 Clear 15 1013 72 10000 4.02 20 19:53 27.07.2022
2432 Clear 16 1013 67 10000 3.13 10 19:20 27.07.2022
2433 Clouds 19 1012 55 10000 4.02 350 16:31 27.07.2022
2434 Clouds 19 1012 55 10000 5 350 15:51 27.07.2022
2435 Clouds 20 1011 49 10000 5 350 14:41 27.07.2022
2436 Clouds 20 1011 49 10000 6 350 13:34 27.07.2022
2437 Clear 20 1009 49 10000 6 350 09:29 27.07.2022
2438 Clear 19 1009 55 10000 6 350 07:47 27.07.2022
2439 Clouds 17 1008 77 10000 5 340 04:53 27.07.2022
2440 Clouds 17 1004 88 10000 3 330 23:21 26.07.2022
2441 Clouds 17 1004 88 10000 4.02 340 21:52 26.07.2022
2442 Clouds 17 1004 93 10000 2 300 20:49 26.07.2022
2443 Clouds 17 1004 93 10000 1 0 19:22 26.07.2022
2444 Clouds 18 1004 88 10000 3 300 18:40 26.07.2022
2445 Clouds 20 1004 88 10000 2 220 17:54 26.07.2022
2446 Clouds 20 1004 93 10000 1 0 15:43 26.07.2022
2447 Clouds 22 1004 73 10000 4.02 160 14:43 26.07.2022
2448 Clouds 24 1004 60 10000 2 200 12:32 26.07.2022
2449 Clouds 24 1004 64 10000 1 0 10:20 26.07.2022
2450 Clear 21 1005 73 10000 3.13 180 08:27 26.07.2022
2451 Clear 15 1005 100 10000 1 0 01:52 26.07.2022
2452 Clear 15 1005 100 10000 2 150 00:20 26.07.2022
2453 Clear 14 1006 87 10000 1 0 22:40 25.07.2022
2454 Clear 15 1005 87 10000 3.13 90 21:43 25.07.2022
2455 Clear 15 1005 82 10000 2 50 20:43 25.07.2022
2456 Clear 15 1005 87 10000 0 0 20:24 25.07.2022
2457 Clear 17 1006 77 10000 2 30 19:24 25.07.2022
2458 Clouds 20 1005 64 10000 2 10 17:42 25.07.2022
2459 Clouds 21 1005 60 10000 2 360 17:20 25.07.2022
2460 Clouds 23 1004 56 10000 4.02 230 13:27 25.07.2022
2461 Clouds 23 1003 49 10000 5 220 10:54 25.07.2022
2462 Clear 21 1003 52 10000 5 220 07:53 25.07.2022
2463 Clear 11 1002 87 10000 2 280 00:57 25.07.2022
2464 Clear 11 1001 93 10000 3.13 280 23:45 24.07.2022
2465 Clear 12 1001 87 10000 3.13 280 22:44 24.07.2022
2466 Clear 14 1001 76 10000 3.13 280 21:42 24.07.2022
2467 Clear 13 1000 81 10000 3.13 280 20:59 24.07.2022
2468 Clear 13 1000 81 10000 3.13 280 20:41 24.07.2022
2469 Clear 13 1000 81 10000 2 290 19:20 24.07.2022
2470 Clear 17 1000 63 10000 2 310 17:57 24.07.2022
2471 Clear 19 999 55 10000 6 320 15:55 24.07.2022
2472 Clear 20 999 49 10000 7 310 14:47 24.07.2022
2473 Clear 20 998 49 10000 8 320 13:49 24.07.2022
2474 Clear 20 998 45 10000 7 320 12:28 24.07.2022
2475 Clouds 19 998 52 10000 8.05 320 11:30 24.07.2022
2476 Clouds 16 997 77 10000 4.02 330 09:48 24.07.2022
2477 Rain 12 997 93 9000 6 310 08:22 24.07.2022
2478 Rain 13 997 81 10000 8.05 310 07:41 24.07.2022
2479 Rain 12 998 87 10000 6 280 03:18 24.07.2022
2480 Clouds 12 999 81 10000 4.02 280 23:25 23.07.2022
2481 Clear 12 1000 81 10000 4.02 290 20:47 23.07.2022
2482 Clouds 10 1000 93 10000 3.13 280 19:29 23.07.2022
2483 Clouds 11 1000 87 10000 4 280 18:40 23.07.2022
2484 Clouds 14 1001 71 10000 6 290 17:27 23.07.2022
2485 Clear 14 1001 76 10000 5 290 16:24 23.07.2022
2486 Clouds 13 1001 81 10000 4.02 310 15:22 23.07.2022
2487 Clouds 15 1001 67 10000 5 320 14:52 23.07.2022
2488 Clear 15 1001 62 10000 5 320 14:23 23.07.2022
2489 Clouds 16 1001 58 10000 7.15 310 11:56 23.07.2022
2490 Clouds 15 1001 62 10000 7.15 300 10:41 23.07.2022
2491 Clouds 16 1001 55 10000 5.81 310 09:38 23.07.2022
2492 Clouds 15 1001 58 10000 5 330 07:18 23.07.2022
2493 Clear 13 1001 81 10000 1 0 03:37 23.07.2022
2494 Clear 7 1001 93 10000 2 300 00:37 23.07.2022
2495 Clear 11 1001 71 10000 3.13 10 21:36 22.07.2022
2496 Clear 12 1001 66 10000 2 10 20:31 22.07.2022
2497 Clouds 13 1001 66 10000 3.13 330 18:42 22.07.2022
2498 Clear 16 1001 55 10000 3.13 340 17:40 22.07.2022
2499 Clear 17 1001 48 10000 3.13 350 16:26 22.07.2022
2500 Clear 18 1001 48 10000 3.13 340 13:24 22.07.2022
2501 Clouds 18 1000 51 10000 4.02 340 10:23 22.07.2022
2502 Clouds 17 1000 59 10000 3.13 330 09:24 22.07.2022
2503 Clouds 17 1000 55 10000 4.02 340 07:58 22.07.2022
2504 Clear 15 1000 72 10000 4.02 340 04:23 22.07.2022
2505 Clear 12 1000 87 10000 3.13 350 23:43 21.07.2022
2506 Clear 10 1000 81 10000 2 330 21:55 21.07.2022
2507 Clear 13 1000 71 10000 2 350 20:28 21.07.2022
2508 Clear 15 1000 58 10000 2 10 18:43 21.07.2022
2509 Clear 19 1000 45 10000 3 20 17:22 21.07.2022
2510 Clear 19 1000 48 10000 4.02 20 16:31 21.07.2022
2511 Clear 20 1000 45 10000 6 20 14:49 21.07.2022
2512 Clouds 21 999 43 10000 5 360 13:58 21.07.2022
2513 Clouds 21 999 43 10000 5 360 13:58 21.07.2022
2514 Clouds 21 999 46 10000 5 350 12:18 21.07.2022
2515 Clouds 22 999 40 10000 4.02 20 10:21 21.07.2022
2516 Clouds 23 999 35 10000 3.13 30 08:53 21.07.2022
2517 Clouds 22 999 37 10000 3.13 340 08:18 21.07.2022
2518 Clouds 22 999 40 10000 4 20 07:22 21.07.2022
2519 Clear 16 1000 77 10000 3.13 30 03:25 21.07.2022
2520 Clear 12 1001 87 10000 0 0 22:51 20.07.2022
2521 Clear 13 1001 87 10000 0 0 22:20 20.07.2022
2522 Clear 14 1001 82 10000 0 0 20:46 20.07.2022
2523 Clear 15 1002 82 10000 1 330 19:47 20.07.2022
2524 Clear 17 1002 72 10000 0 0 18:56 20.07.2022
2525 Clear 18 1003 72 10000 0 0 18:31 20.07.2022
2526 Clear 21 1003 52 10000 3 50 17:33 20.07.2022
2527 Clear 23 1003 40 10000 3 40 15:38 20.07.2022
2528 Clear 24 1003 38 10000 4.02 30 14:49 20.07.2022
2529 Clouds 23 1004 40 10000 3.13 320 13:44 20.07.2022
2530 Clear 23 1005 43 10000 0 0 11:29 20.07.2022
2531 Clear 22 1007 46 10000 3.13 270 06:49 20.07.2022
2532 Clear 12 1008 87 10000 0 0 01:58 20.07.2022
2533 Clear 13 1008 87 10000 1 310 00:43 20.07.2022
2534 Clear 13 1009 87 10000 2 270 22:39 19.07.2022
2535 Clear 13 1009 88 10000 2 270 22:21 19.07.2022
2536 Clear 15 1009 82 10000 2 340 20:50 19.07.2022
2537 Clear 17 1009 67 10000 3.13 350 19:38 19.07.2022
2538 Clear 19 1010 63 10000 2 330 18:43 19.07.2022
2539 Clear 21 1010 52 10000 2 10 17:56 19.07.2022
2540 Clear 23 1010 43 10000 4 30 15:50 19.07.2022
2541 Clear 24 1010 38 10000 5.81 340 13:51 19.07.2022
2542 Clouds 24 1010 38 10000 6 340 11:35 19.07.2022
2543 Clouds 24 1010 41 10000 6 350 09:58 19.07.2022
2544 Clouds 24 1011 43 10000 6 360 08:48 19.07.2022
2545 Clouds 23 1011 43 10000 7.15 360 08:21 19.07.2022
2546 Clear 23 1011 46 10000 6 350 07:18 19.07.2022
2547 Clear 21 1011 56 10000 4.02 350 05:23 19.07.2022
2548 Clear 21 1011 60 10000 4.02 360 04:40 19.07.2022
2549 Clear 15 1011 87 10000 4.02 310 00:21 19.07.2022
2550 Clear 16 1011 82 10000 3.13 310 23:21 18.07.2022
2551 Clear 16 1011 82 10000 3.13 300 22:55 18.07.2022
2552 Clear 15 1011 82 10000 3.13 290 21:50 18.07.2022
2553 Clear 15 1011 82 10000 3.13 290 20:50 18.07.2022
2554 Clear 16 1012 77 10000 2 300 19:24 18.07.2022
2555 Clear 21 1012 49 10000 3.13 20 16:50 18.07.2022
2556 Clear 23 1012 43 10000 4 10 15:42 18.07.2022
2557 Clear 23 1012 43 10000 4.02 20 13:45 18.07.2022
2558 Clouds 22 1011 46 10000 5 30 12:37 18.07.2022
2559 Clear 23 1011 43 10000 7.15 360 10:34 18.07.2022
2560 Clear 23 1011 43 10000 7.15 10 08:50 18.07.2022
2561 Clear 23 1011 43 10000 6 350 06:54 18.07.2022
2562 Clouds 17 1010 72 10000 4 320 23:31 17.07.2022
2563 Clouds 17 1011 72 10000 3 320 22:32 17.07.2022
2564 Clouds 17 1011 72 10000 3 310 21:47 17.07.2022
2565 Clouds 17 1011 67 10000 3 310 20:55 17.07.2022
2566 Clouds 17 1011 67 10000 3.13 310 20:36 17.07.2022
2567 Clouds 17 1011 67 10000 1 0 19:28 17.07.2022
2568 Clouds 19 1011 59 10000 5 90 18:26 17.07.2022
2569 Clouds 20 1011 56 10000 2 340 17:38 17.07.2022
2570 Clouds 20 1011 56 10000 3.13 350 16:50 17.07.2022
2571 Clouds 22 1011 43 10000 4 350 16:25 17.07.2022
2572 Clouds 24 1011 38 10000 6 340 14:32 17.07.2022
2573 Clouds 24 1011 41 10000 5 10 13:28 17.07.2022
2574 Clouds 23 1011 43 10000 5 360 10:59 17.07.2022
2575 Clouds 22 1012 43 10000 5.81 10 08:50 17.07.2022
2576 Clear 18 1012 63 10000 4.02 40 03:40 17.07.2022
2577 Clear 15 1012 76 10000 3.13 20 02:21 17.07.2022
2578 Clear 15 1011 76 10000 3.13 360 23:19 16.07.2022
2579 Clear 15 1011 76 10000 1 0 21:21 16.07.2022
2580 Clear 15 1011 76 10000 2 10 19:25 16.07.2022
2581 Clear 20 1011 52 10000 2 70 17:56 16.07.2022
2582 Clouds 21 1010 52 10000 4.02 100 16:31 16.07.2022
2583 Clouds 24 1009 38 10000 6 60 13:47 16.07.2022
2584 Clouds 25 1008 41 10000 5 10 10:50 16.07.2022
2585 Clouds 23 1009 49 10000 2 50 09:32 16.07.2022
2586 Clouds 22 1009 53 10000 3.13 60 08:43 16.07.2022
2587 Clouds 23 1010 49 10000 3 110 07:59 16.07.2022
2588 Clouds 19 1010 72 10000 2 90 03:41 16.07.2022
2589 Clear 17 1010 82 10000 3 90 02:40 16.07.2022
2590 Clouds 14 1011 93 10000 1 0 23:29 15.07.2022
2591 Clouds 15 1011 87 10000 3.13 90 22:39 15.07.2022
2592 Clear 16 1011 82 10000 2 120 21:28 15.07.2022
2593 Clear 16 1011 82 10000 3.13 90 20:24 15.07.2022
2594 Clear 19 1011 77 10000 2 70 18:37 15.07.2022
2595 Clear 21 1012 64 10000 2 120 17:36 15.07.2022
2596 Clear 22 1012 56 10000 2 170 14:48 15.07.2022
2597 Clear 21 1013 60 10000 2 200 12:49 15.07.2022
2598 Clouds 21 1013 60 10000 2 200 11:20 15.07.2022
2599 Clear 20 1014 59 10000 2 190 09:21 15.07.2022
2600 Clouds 17 1014 77 10000 2 230 05:56 15.07.2022
2601 Clear 12 1014 93 10000 1 70 00:53 15.07.2022
2602 Clear 12 1013 93 10000 0 0 00:21 15.07.2022
2603 Fog 13 1013 93 10000 0 0 22:45 14.07.2022
2604 Clear 14 1013 94 10000 0 0 21:43 14.07.2022
2605 Clear 15 1013 88 10000 0 0 21:25 14.07.2022
2606 Clear 15 1013 88 10000 0 0 20:43 14.07.2022
2607 Clear 16 1013 82 10000 2 190 20:19 14.07.2022
2608 Clear 18 1013 72 10000 2 190 18:42 14.07.2022
2609 Clear 19 1013 72 10000 3.13 170 16:22 14.07.2022
2610 Clear 20 1012 64 10000 4.02 130 15:29 14.07.2022
2611 Clouds 19 1012 72 10000 2 170 13:53 14.07.2022
2612 Clouds 19 1013 72 10000 3.13 170 12:53 14.07.2022
2613 Clouds 19 1013 72 10000 4.02 140 11:43 14.07.2022
2614 Clouds 18 1013 77 10000 4.02 160 11:22 14.07.2022
2615 Clouds 18 1013 82 10000 4.02 150 09:49 14.07.2022
2616 Rain 15 1012 93 10000 5 200 06:54 14.07.2022
2617 Clouds 16 1015 93 10000 2 220 01:24 14.07.2022
2618 Clouds 16 1016 93 10000 2 210 00:53 14.07.2022
2619 Clear 16 1016 87 10000 0 0 22:33 13.07.2022
2620 Clear 17 1017 82 10000 1 0 21:56 13.07.2022
2621 Clear 16 1017 82 10000 3.13 270 20:53 13.07.2022
2622 Clear 17 1017 77 10000 2 280 19:30 13.07.2022
2623 Clear 19 1017 68 10000 3 260 17:51 13.07.2022
2624 Clear 21 1017 60 10000 4 270 16:39 13.07.2022
2625 Clear 21 1018 56 10000 3.13 290 15:24 13.07.2022
2626 Clouds 21 1018 52 10000 2 330 12:55 13.07.2022
2627 Clear 20 1019 56 10000 2 220 10:45 13.07.2022
2628 Clouds 19 1019 59 10000 2 360 09:58 13.07.2022
2629 Clouds 20 1019 56 10000 1 0 09:22 13.07.2022
2630 Clear 17 1020 72 10000 3.13 270 06:20 13.07.2022
2631 Clear 15 1021 82 10000 2 230 02:21 13.07.2022
2632 Rain 15 1022 76 10000 1.79 310 23:45 12.07.2022
2633 Clear 15 1021 72 10000 0 0 21:57 12.07.2022
2634 Clear 16 1022 72 10000 0 0 21:29 12.07.2022
2635 Clear 16 1022 72 10000 0 0 20:41 12.07.2022
2636 Clear 17 1023 67 10000 0 0 19:28 12.07.2022
2637 Clear 19 1023 52 10000 2 10 17:50 12.07.2022
2638 Clear 21 1023 40 10000 4.02 350 16:20 12.07.2022
2639 Clear 22 1024 37 10000 4.02 360 14:31 12.07.2022
2640 Clear 22 1024 43 10000 5 350 12:48 12.07.2022
2641 Clear 22 1024 43 10000 4.02 350 11:26 12.07.2022
2642 Clear 21 1025 46 10000 5.81 340 09:42 12.07.2022
2643 Clear 20 1026 45 10000 5 360 08:23 12.07.2022
2644 Clear 19 1025 52 10000 4.02 360 06:49 12.07.2022
2645 Clear 19 1026 52 10000 4.02 20 05:42 12.07.2022
2646 Clear 16 1025 67 10000 4.02 20 02:52 12.07.2022
2647 Clear 15 1024 72 10000 2 340 23:30 11.07.2022
2648 Clear 14 1024 82 10000 1 330 22:31 11.07.2022
2649 Clear 17 1023 67 10000 2 330 20:41 11.07.2022
2650 Clear 18 1023 59 10000 2 360 19:44 11.07.2022
2651 Clear 20 1023 52 10000 4.02 20 18:32 11.07.2022
2652 Clear 21 1022 46 10000 3 20 17:53 11.07.2022
2653 Clear 23 1022 43 10000 5 10 16:21 11.07.2022
2654 Clear 24 1021 43 10000 6 10 14:49 11.07.2022
2655 Clear 25 1021 50 10000 7.15 360 11:59 11.07.2022
2656 Clouds 26 1020 44 10000 5 350 10:37 11.07.2022
2657 Clouds 26 1020 47 10000 5 350 09:49 11.07.2022
2658 Clouds 25 1020 57 10000 4 20 08:34 11.07.2022
2659 Clear 22 1020 78 10000 2 340 06:44 11.07.2022
2660 Clear 16 1019 87 10000 0 0 00:22 11.07.2022
2661 Clear 16 1018 87 10000 0 0 23:28 10.07.2022
2662 Clear 17 1018 82 10000 0 0 21:55 10.07.2022
2663 Clear 18 1018 77 10000 1 330 20:54 10.07.2022
2664 Clear 19 1018 77 10000 0 0 19:50 10.07.2022
2665 Clear 22 1017 64 10000 1.79 80 18:50 10.07.2022
2666 Clear 23 1017 60 10000 2 70 17:41 10.07.2022
2667 Clear 25 1017 50 10000 2 60 16:58 10.07.2022
2668 Clear 26 1017 44 10000 4.02 90 16:20 10.07.2022
2669 Clear 27 1016 39 10000 3.13 50 14:33 10.07.2022
2670 Clear 27 1016 44 10000 4.02 70 12:33 10.07.2022
2671 Clear 26 1016 47 10000 3.13 100 11:34 10.07.2022
2672 Clouds 24 1016 60 10000 4.02 110 08:46 10.07.2022
2673 Clouds 24 1016 60 10000 4.02 120 08:24 10.07.2022
2674 Clouds 22 1014 64 10000 5.81 70 03:38 10.07.2022
2675 Clear 21 1012 82 10000 0 0 23:30 09.07.2022
2676 Clouds 21 1012 82 10000 3.13 60 22:25 09.07.2022
2677 Clouds 21 1012 82 10000 1 0 21:31 09.07.2022
2678 Clouds 24 1011 69 10000 0 0 18:59 09.07.2022
2679 Clouds 26 1010 57 10000 0 0 17:59 09.07.2022
2680 Clouds 28 1010 54 10000 3 320 16:59 09.07.2022
2681 Clouds 30 1010 48 10000 6 280 15:44 09.07.2022
2682 Clouds 30 1010 48 10000 6 280 15:25 09.07.2022
2683 Clouds 32 1010 37 10000 6 270 13:51 09.07.2022
2684 Clouds 31 1010 43 10000 6 250 12:53 09.07.2022
2685 Clouds 31 1010 43 10000 7.15 240 11:33 09.07.2022
2686 Clouds 31 1010 43 10000 7.15 240 11:33 09.07.2022
2687 Clear 30 1011 45 10000 6 240 10:23 09.07.2022
2688 Clear 28 1011 48 10000 6 240 07:54 09.07.2022
2689 Clear 27 1012 50 10000 4.02 230 06:58 09.07.2022
2690 Clear 22 1012 64 10000 3.13 240 04:34 09.07.2022
2691 Clear 18 1013 77 10000 2 230 23:18 08.07.2022
2692 Clear 18 1013 77 10000 0 0 21:59 08.07.2022
2693 Clear 18 1013 77 10000 1 0 20:59 08.07.2022
2694 Clear 19 1013 72 10000 0 0 20:25 08.07.2022
2695 Clear 23 1013 56 10000 2 210 18:32 08.07.2022
2696 Clear 26 1013 38 10000 3 240 17:25 08.07.2022
2697 Clear 28 1014 30 10000 4.02 250 14:55 08.07.2022
2698 Clear 28 1014 34 10000 5 240 14:29 08.07.2022
2699 Clear 28 1015 34 10000 4.02 220 12:28 08.07.2022
2700 Clear 27 1015 39 10000 5 260 10:45 08.07.2022
2701 Clear 26 1016 41 10000 4.02 250 08:51 08.07.2022
2702 Clear 25 1016 38 10000 3.13 260 06:55 08.07.2022
2703 Clear 19 1016 59 10000 2 280 03:22 08.07.2022
2704 Clear 14 1016 76 10000 1 280 23:45 07.07.2022
2705 Clear 14 1016 76 10000 0 0 22:45 07.07.2022
2706 Clear 16 1015 72 10000 0 0 20:59 07.07.2022
2707 Clear 20 1015 56 10000 1 0 18:42 07.07.2022
2708 Clear 24 1015 41 10000 1 0 17:41 07.07.2022
2709 Clear 26 1015 34 10000 2 360 15:22 07.07.2022
2710 Clear 26 1015 34 10000 3.13 310 13:30 07.07.2022
2711 Clear 26 1015 34 10000 3 30 12:40 07.07.2022
2712 Clear 25 1015 36 10000 3.13 30 12:20 07.07.2022
2713 Clear 26 1015 34 10000 3.13 330 11:31 07.07.2022
2714 Clear 25 1015 33 10000 3 300 10:44 07.07.2022
2715 Clear 25 1015 33 10000 3.13 300 10:25 07.07.2022
2716 Clear 23 1015 38 10000 3.13 340 07:40 07.07.2022
2717 Clear 21 1014 49 10000 2 30 04:42 07.07.2022
2718 Clouds 13 1013 69 10000 1.62 12 23:37 06.07.2022
2719 Clear 13 1012 81 10000 0 0 23:19 06.07.2022
2720 Clear 13 1012 81 10000 0 0 23:19 06.07.2022
2721 Clear 13 1012 81 10000 0 0 22:57 06.07.2022
2722 Clear 12 1012 87 10000 1 0 22:38 06.07.2022
2723 Clear 13 1012 81 10000 1 0 21:46 06.07.2022
2724 Clear 17 1011 63 10000 2 30 19:39 06.07.2022
2725 Clear 19 1011 55 10000 2 20 18:29 06.07.2022
2726 Clear 22 1010 40 10000 3.13 10 16:27 06.07.2022
2727 Clear 22 1010 37 10000 3.13 360 14:58 06.07.2022
2728 Clear 23 1010 38 10000 4 10 12:42 06.07.2022
2729 Clear 23 1010 38 10000 4.02 330 11:49 06.07.2022
2730 Clear 22 1009 37 10000 4.02 40 10:18 06.07.2022
2731 Clouds 21 1009 40 10000 4 70 07:47 06.07.2022
2732 Clouds 20 1009 42 10000 4.02 70 07:23 06.07.2022
2733 Clear 19 1009 48 10000 3.13 90 05:28 06.07.2022
2734 Clear 13 1008 66 10000 4.02 30 22:45 05.07.2022
2735 Clear 13 1008 71 10000 4.02 30 21:53 05.07.2022
2736 Clear 14 1008 67 10000 3.13 20 20:39 05.07.2022
2737 Clear 14 1008 67 10000 3.13 20 19:43 05.07.2022
2738 Clear 15 1008 63 10000 3 10 19:22 05.07.2022
2739 Clear 18 1007 48 10000 2 20 17:47 05.07.2022
2740 Clear 19 1007 45 10000 4 40 16:54 05.07.2022
2741 Clear 19 1007 45 10000 4.02 30 15:25 05.07.2022
2742 Clear 19 1007 45 10000 3.13 50 14:28 05.07.2022
2743 Clear 19 1007 42 10000 4.02 40 12:43 05.07.2022
2744 Clouds 18 1007 48 10000 4.02 40 11:33 05.07.2022
2745 Clouds 18 1007 48 10000 4.02 10 10:40 05.07.2022
2746 Clouds 17 1007 55 10000 4.02 30 09:22 05.07.2022
2747 Clouds 17 1008 55 10000 4.02 50 07:45 05.07.2022
2748 Clouds 13 1008 71 10000 4.02 30 04:49 05.07.2022
2749 Clouds 12 1008 76 10000 4.02 20 04:23 05.07.2022
2750 Clear 11 1009 76 10000 5 30 23:56 04.07.2022
2751 Clouds 11 1009 76 10000 5 30 23:26 04.07.2022
2752 Clouds 12 1009 71 10000 5 30 22:25 04.07.2022
2753 Clouds 12 1009 71 10000 4.02 30 21:30 04.07.2022
2754 Clouds 12 1009 71 10000 5 30 20:52 04.07.2022
2755 Clouds 12 1009 76 10000 4.02 20 20:33 04.07.2022
2756 Clouds 12 1009 76 10000 3.13 20 19:52 04.07.2022
2757 Clouds 12 1009 76 10000 3.13 20 19:34 04.07.2022
2758 Clouds 13 1009 71 10000 4.02 30 17:57 04.07.2022
2759 Clear 14 1009 71 10000 5 10 15:50 04.07.2022
2760 Clouds 15 1009 67 10000 5 350 14:54 04.07.2022
2761 Clouds 16 1009 58 10000 4.02 10 13:29 04.07.2022
2762 Clouds 15 1009 62 10000 5 360 12:20 04.07.2022
2763 Clouds 14 1009 67 10000 6 350 10:34 04.07.2022
2764 Clouds 14 1009 71 10000 5 360 09:40 04.07.2022
2765 Clouds 13 1009 71 10000 4.02 360 07:21 04.07.2022
2766 Clouds 10 1008 87 10000 3.13 30 03:35 04.07.2022
2767 Clouds 11 1007 81 10000 4.02 30 00:35 04.07.2022
2768 Clouds 11 1007 87 10000 4.02 30 22:58 03.07.2022
2769 Clouds 11 1007 87 10000 4.02 30 22:58 03.07.2022
2770 Clouds 12 1007 87 10000 4.02 10 20:51 03.07.2022
2771 Clouds 12 1007 93 10000 3.13 360 20:25 03.07.2022
2772 Rain 12 1007 93 10000 3.13 360 19:27 03.07.2022
2773 Rain 12 1007 100 10000 3.13 340 18:35 03.07.2022
2774 Rain 12 1007 100 10000 3.13 340 17:43 03.07.2022
2775 Rain 12 1006 93 6000 4.02 340 15:49 03.07.2022
2776 Clouds 13 1006 87 10000 4.02 360 14:58 03.07.2022
2777 Clouds 13 1006 87 10000 5 10 13:59 03.07.2022
2778 Rain 13 1006 93 10000 5 360 13:33 03.07.2022
2779 Rain 14 1006 82 10000 5 360 12:32 03.07.2022
2780 Clouds 14 1005 82 10000 5 10 11:18 03.07.2022
2781 Clouds 14 1005 82 10000 4.02 20 10:38 03.07.2022
2782 Clouds 14 1004 82 10000 3 10 08:59 03.07.2022
2783 Clouds 14 1004 82 10000 2 60 07:34 03.07.2022
2784 Rain 12 1004 93 10000 3.13 280 01:42 03.07.2022
2785 Clouds 11 1005 93 10000 4.02 280 23:50 02.07.2022
2786 Rain 12 1005 87 10000 2 310 22:33 02.07.2022
2787 Clouds 14 1005 76 10000 3.13 300 20:37 02.07.2022
2788 Clear 14 1005 71 10000 2 320 19:51 02.07.2022
2789 Clear 14 1005 71 10000 3.13 330 19:19 02.07.2022
2790 Clouds 14 1005 76 10000 3.13 320 17:41 02.07.2022
2791 Clear 16 1006 63 10000 6 340 16:38 02.07.2022
2792 Clear 17 1006 55 10000 5 330 13:51 02.07.2022
2793 Clouds 17 1005 51 10000 5 330 11:52 02.07.2022
2794 Clouds 17 1005 55 10000 5 350 10:53 02.07.2022
2795 Clear 17 1005 55 10000 5 10 10:33 02.07.2022
2796 Clear 15 1005 67 10000 5 340 08:54 02.07.2022
2797 Clear 16 1005 63 10000 5 350 08:19 02.07.2022
2798 Clouds 15 1004 62 10000 7.15 350 06:51 02.07.2022
2799 Clear 11 1004 81 10000 3.13 330 00:55 02.07.2022
2800 Clear 12 1004 76 10000 4.02 360 23:31 01.07.2022
2801 Clear 12 1004 76 10000 4.02 340 22:40 01.07.2022
2802 Clear 13 1004 71 10000 4.02 340 21:40 01.07.2022
2803 Clear 14 1004 67 10000 4.02 340 20:59 01.07.2022
2804 Clear 14 1004 67 10000 5 350 20:37 01.07.2022
2805 Clear 15 1004 62 10000 6 360 19:41 01.07.2022
2806 Clouds 17 1004 55 10000 7 340 17:52 01.07.2022
2807 Clouds 19 1003 48 10000 7 360 15:26 01.07.2022
2808 Clouds 18 1003 55 10000 8.05 350 13:54 01.07.2022
2809 Clouds 18 1003 55 10000 8.05 350 13:54 01.07.2022
2810 Clouds 18 1002 59 10000 9 350 11:50 01.07.2022
2811 Clouds 17 1002 63 10000 9 340 10:20 01.07.2022
2812 Clouds 16 1001 67 10000 9 350 08:50 01.07.2022
2813 Clouds 14 999 82 10000 6 360 03:18 01.07.2022
2814 Rain 14 998 93 10000 6 350 00:25 01.07.2022
2815 Rain 14 998 93 9000 5 350 22:56 30.06.2022
2816 Rain 14 998 93 10000 5 340 22:33 30.06.2022
2817 Rain 14 998 93 9000 4.02 360 21:59 30.06.2022
2818 Rain 14 998 93 9000 3.13 350 21:35 30.06.2022
2819 Rain 14 998 93 10000 3.13 340 20:22 30.06.2022
2820 Rain 14 998 93 10000 3.13 360 19:53 30.06.2022
2821 Rain 14 998 93 9000 4.02 10 19:18 30.06.2022
2822 Rain 14 998 93 7000 6 50 18:42 30.06.2022
2823 Rain 14 997 93 4400 4.92 20 17:38 30.06.2022
2824 Rain 14 997 93 10000 5 20 16:48 30.06.2022
2825 Clouds 14 997 93 10000 5 30 15:27 30.06.2022
2826 Rain 13 996 93 6000 4.02 20 13:30 30.06.2022
2827 Rain 13 995 93 8000 6 20 12:35 30.06.2022
2828 Rain 13 995 87 10000 5 20 11:28 30.06.2022
2829 Clouds 13 993 87 10000 7.15 20 09:53 30.06.2022
2830 Clouds 13 993 87 10000 6 30 09:32 30.06.2022
2831 Clouds 11 993 93 10000 7.15 10 07:51 30.06.2022
2832 Rain 10 993 93 9000 7.15 20 05:57 30.06.2022
2833 Rain 9 994 87 8000 7.15 20 01:28 30.06.2022
2834 Rain 9 994 87 10000 6 20 23:34 29.06.2022
2835 Clear 10 995 81 10000 6 30 22:39 29.06.2022
2836 Clear 10 996 81 10000 6 30 21:37 29.06.2022
2837 Clouds 10 997 81 10000 6 40 20:34 29.06.2022
2838 Clouds 10 997 81 10000 6 30 19:37 29.06.2022
2839 Clouds 10 998 87 10000 4.92 30 17:45 29.06.2022
2840 Clouds 10 998 87 10000 7.15 30 16:41 29.06.2022
2841 Clouds 11 997 81 10000 6 20 15:19 29.06.2022
2842 Clouds 10 998 93 9000 5 30 12:40 29.06.2022
2843 Drizzle 10 998 100 5000 5 40 11:19 29.06.2022
2844 Drizzle 11 997 93 3500 5 30 09:33 29.06.2022
2845 Drizzle 12 996 93 3300 2 280 07:44 29.06.2022
2846 Rain 10 995 100 6000 3.13 240 04:57 29.06.2022
2847 Rain 10 995 93 10000 4.02 240 01:41 29.06.2022
2848 Rain 10 995 93 10000 5 240 00:36 29.06.2022
2849 Rain 10 995 93 10000 4.02 250 22:55 28.06.2022
2850 Rain 10 996 93 10000 4.02 250 22:34 28.06.2022
2851 Rain 10 996 93 10000 4.02 250 21:55 28.06.2022
2852 Rain 10 996 93 10000 4.02 250 21:33 28.06.2022
2853 Rain 10 996 93 10000 4.02 250 20:44 28.06.2022
2854 Clouds 10 997 93 10000 5 250 19:34 28.06.2022
2855 Clouds 10 997 93 10000 4.02 250 18:53 28.06.2022
2856 Clouds 11 997 87 10000 5 260 17:42 28.06.2022
2857 Clouds 11 997 87 10000 6 260 16:21 28.06.2022
2858 Clouds 11 997 87 10000 5.81 260 15:42 28.06.2022
2859 Rain 11 998 87 10000 6 260 14:21 28.06.2022
2860 Rain 11 998 87 10000 5 260 13:54 28.06.2022
2861 Rain 10 997 93 10000 6 260 12:57 28.06.2022
2862 Rain 10 996 93 10000 7.15 270 11:18 28.06.2022
2863 Rain 10 995 93 10000 7.15 260 09:30 28.06.2022
2864 Rain 10 995 93 10000 7.15 270 08:44 28.06.2022
2865 Rain 10 995 93 10000 6 280 07:42 28.06.2022
2866 Rain 10 995 87 10000 6 290 07:19 28.06.2022
2867 Rain 9 994 93 10000 5 290 01:32 28.06.2022
2868 Rain 10 994 93 10000 5 310 23:41 27.06.2022
2869 Rain 10 994 93 10000 6 320 22:52 27.06.2022
2870 Rain 11 994 93 10000 5 320 21:38 27.06.2022
2871 Rain 11 994 93 10000 4.02 320 20:52 27.06.2022
2872 Rain 12 994 87 10000 5 330 19:33 27.06.2022
2873 Rain 12 994 87 10000 4.02 330 18:26 27.06.2022
2874 Rain 13 993 87 10000 8.05 340 16:27 27.06.2022
2875 Rain 13 993 93 10000 7.15 350 15:23 27.06.2022
2876 Rain 14 992 93 7000 5 340 13:37 27.06.2022
2877 Rain 14 992 93 10000 7.15 340 12:56 27.06.2022
2878 Rain 14 991 100 6000 5 360 10:34 27.06.2022
2879 Rain 14 991 100 9000 4.02 360 09:20 27.06.2022
2880 Rain 14 990 100 9000 7.15 350 08:29 27.06.2022
2881 Rain 15 991 93 10000 4.02 310 06:39 27.06.2022
2882 Clouds 15 991 93 10000 2 10 03:55 27.06.2022
2883 Clouds 14 992 100 10000 2 10 00:56 27.06.2022
2884 Clouds 14 993 100 10000 2 40 22:18 26.06.2022
2885 Rain 14 993 93 10000 1 50 20:44 26.06.2022
2886 Clouds 15 994 87 10000 2 60 19:40 26.06.2022
2887 Clouds 16 994 82 10000 1 0 18:31 26.06.2022
2888 Clouds 16 994 93 10000 2 310 16:45 26.06.2022
2889 Rain 16 994 87 7000 4.02 110 15:26 26.06.2022
2890 Clouds 20 994 68 10000 3.13 340 13:41 26.06.2022
2891 Clouds 19 994 68 10000 3.13 330 13:20 26.06.2022
2892 Clouds 18 994 72 10000 3.13 220 11:26 26.06.2022
2893 Clouds 19 994 68 10000 4.02 120 10:26 26.06.2022
2894 Clouds 17 994 82 10000 4.02 120 09:22 26.06.2022
2895 Clouds 17 994 82 10000 3.13 120 07:44 26.06.2022
2896 Clouds 14 994 87 10000 3.13 100 01:55 26.06.2022
2897 Clouds 14 994 82 10000 4.02 100 00:21 26.06.2022
2898 Clouds 14 994 82 10000 2 90 23:49 25.06.2022
2899 Clouds 14 995 76 10000 1 0 23:20 25.06.2022
2900 Clouds 13 995 81 10000 1 0 22:27 25.06.2022
2901 Clear 14 995 76 10000 0.89 0 21:40 25.06.2022
2902 Clear 14 996 76 10000 0 0 21:18 25.06.2022
2903 Clear 15 996 76 10000 0 0 20:27 25.06.2022
2904 Clear 15 996 72 10000 1 140 19:21 25.06.2022
2905 Clear 17 996 55 10000 2 320 17:56 25.06.2022
2906 Clear 18 996 51 10000 4.02 280 17:22 25.06.2022
2907 Clear 21 997 40 10000 6 250 15:26 25.06.2022
2908 Clouds 21 997 37 10000 7.15 270 13:27 25.06.2022
2909 Clouds 21 997 40 10000 8 260 12:37 25.06.2022
2910 Clear 22 996 43 10000 8.05 250 10:34 25.06.2022
2911 Clouds 20 996 52 10000 5 240 08:58 25.06.2022
2912 Clear 20 997 49 10000 6 220 08:35 25.06.2022
2913 Clear 20 997 49 10000 6 210 07:54 25.06.2022
2914 Clear 15 999 67 10000 6 260 03:33 25.06.2022
2915 Clear 14 999 71 10000 4.02 260 00:34 25.06.2022
2916 Clear 15 999 72 10000 4.92 280 22:53 24.06.2022
2917 Clear 16 1000 72 10000 6 280 21:34 24.06.2022
2918 Clear 17 1000 72 10000 6 280 20:45 24.06.2022
2919 Clear 18 1000 67 10000 6 270 20:18 24.06.2022
2920 Clouds 19 1000 68 10000 7.15 280 19:21 24.06.2022
2921 Clouds 20 999 68 10000 5 280 18:48 24.06.2022
2922 Clouds 21 999 64 10000 6 270 18:30 24.06.2022
2923 Clouds 22 999 68 10000 2 260 17:19 24.06.2022
2924 Clouds 23 999 64 10000 6 330 15:29 24.06.2022
2925 Clouds 25 999 53 10000 7.15 250 14:26 24.06.2022
2926 Clouds 24 999 57 10000 8.05 260 13:54 24.06.2022
2927 Clouds 25 998 57 10000 6 260 11:43 24.06.2022
2928 Clouds 25 998 61 10000 4.02 250 10:47 24.06.2022
2929 Rain 23 999 68 10000 7 240 09:42 24.06.2022
2930 Rain 23 999 68 10000 7 240 09:19 24.06.2022
2931 Clouds 26 999 50 10000 5 200 08:42 24.06.2022
2932 Clouds 24 999 60 10000 5 220 06:47 24.06.2022
2933 Clouds 24 999 60 10000 5 220 06:29 24.06.2022
2934 Clear 21 999 73 10000 4 200 05:51 24.06.2022
2935 Rain 17 1000 93 9000 3.13 10 00:57 24.06.2022
2936 Clear 18 1000 82 10000 1.79 240 22:44 23.06.2022
2937 Clear 17 1000 88 10000 0 0 21:52 23.06.2022
2938 Clear 18 1000 82 10000 0 0 20:53 23.06.2022
2939 Clear 19 1000 77 10000 1 0 20:31 23.06.2022
2940 Clear 20 1000 77 10000 0 0 18:43 23.06.2022
2941 Clear 21 1000 68 10000 0 0 17:44 23.06.2022
2942 Clouds 23 1000 60 10000 1 150 16:34 23.06.2022
2943 Clouds 24 1000 50 10000 1 0 15:27 23.06.2022
2944 Clouds 24 1000 53 10000 1 0 14:51 23.06.2022
2945 Clouds 23 999 53 10000 2 90 12:39 23.06.2022
2946 Clouds 23 999 53 10000 1 0 11:19 23.06.2022
2947 Clouds 22 998 56 10000 2 60 09:20 23.06.2022
2948 Clouds 20 997 72 10000 3.13 110 05:51 23.06.2022
2949 Clear 15 995 93 10000 3.13 90 01:22 23.06.2022
2950 Clear 14 994 100 10000 3.13 80 00:25 23.06.2022
2951 Clear 15 994 93 10000 3.13 80 23:22 22.06.2022
2952 Clear 15 994 93 10000 3.13 80 21:44 22.06.2022
2953 Clear 15 994 100 10000 1 0 20:52 22.06.2022
2954 Clear 16 994 93 10000 3.13 80 20:20 22.06.2022
2955 Clear 17 994 88 10000 3.13 80 19:44 22.06.2022
2956 Clear 19 993 77 10000 4 90 17:50 22.06.2022
2957 Clear 20 992 73 10000 4 100 16:50 22.06.2022
2958 Clear 21 992 56 10000 4 120 15:46 22.06.2022
2959 Clouds 22 992 49 10000 4 130 15:22 22.06.2022
2960 Clouds 22 992 49 10000 5 150 13:50 22.06.2022
2961 Clouds 20 992 52 10000 4 140 13:25 22.06.2022
2962 Clouds 20 992 64 10000 4 150 12:37 22.06.2022
2963 Clouds 19 991 72 10000 3 160 11:46 22.06.2022
2964 Clouds 20 991 77 10000 4 150 10:50 22.06.2022
2965 Clouds 19 991 88 10000 5 130 09:42 22.06.2022
2966 Clouds 21 991 73 10000 6 130 07:51 22.06.2022
2967 Clouds 20 991 72 10000 5 130 02:56 22.06.2022
2968 Clouds 20 991 77 10000 6 110 01:19 22.06.2022
2969 Rain 18 992 88 10000 6 90 23:19 21.06.2022
2970 Clear 20 993 77 10000 4.02 120 21:25 21.06.2022
2971 Clear 19 993 82 10000 4.02 120 19:43 21.06.2022
2972 Clouds 19 994 77 10000 4.02 120 17:57 21.06.2022
2973 Clouds 19 994 82 10000 3.13 130 16:52 21.06.2022
2974 Clouds 21 994 78 10000 4 120 12:36 21.06.2022
2975 Thunderstorm 22 995 68 10000 4 200 10:55 21.06.2022
2976 Clouds 27 994 41 10000 7 140 09:39 21.06.2022
2977 Clouds 26 995 54 10000 6 130 07:56 21.06.2022
2978 Clear 24 996 57 10000 4.02 120 05:33 21.06.2022
2979 Clear 19 997 63 10000 2 140 00:35 21.06.2022
2980 Clear 20 997 64 10000 4.02 130 22:22 20.06.2022
2981 Clear 21 997 60 10000 4 120 21:41 20.06.2022
2982 Clear 21 998 64 10000 3.13 120 20:30 20.06.2022
2983 Clear 22 998 64 10000 3.13 120 19:37 20.06.2022
2984 Clear 23 999 60 10000 2 130 18:44 20.06.2022
2985 Clear 26 999 44 10000 2 50 17:50 20.06.2022
2986 Clear 27 999 44 10000 3.13 120 16:55 20.06.2022
2987 Clouds 28 999 39 10000 4.02 140 15:52 20.06.2022
2988 Clouds 29 1000 32 10000 4.02 160 12:38 20.06.2022
2989 Clouds 28 1001 34 10000 4.02 150 10:32 20.06.2022
2990 Clouds 28 1001 34 10000 4.02 200 08:56 20.06.2022
2991 Clouds 28 1001 34 10000 4.02 160 08:20 20.06.2022
2992 Clear 25 1002 44 10000 3.13 190 05:35 20.06.2022
2993 Clear 15 1002 76 10000 2 100 01:33 20.06.2022
2994 Clear 14 1003 76 10000 2 90 00:25 20.06.2022
2995 Clear 17 1003 59 10000 2 100 22:46 19.06.2022
2996 Clear 18 1003 55 10000 2 120 21:51 19.06.2022
2997 Clear 18 1003 55 10000 4.02 100 21:31 19.06.2022
2998 Clear 18 1003 63 10000 2 80 20:38 19.06.2022
2999 Clear 18 1003 67 10000 0 0 19:47 19.06.2022
3000 Clear 20 1003 64 10000 1 0 18:43 19.06.2022
3001 Clear 24 1003 50 10000 1 0 17:54 19.06.2022
3002 Clear 25 1003 41 10000 2 130 17:22 19.06.2022
3003 Clear 26 1004 34 10000 2 120 16:35 19.06.2022
3004 Clear 26 1004 34 10000 3.13 130 15:41 19.06.2022
3005 Clear 27 1004 32 10000 2 130 14:57 19.06.2022
3006 Clear 27 1004 32 10000 1 0 14:19 19.06.2022
3007 Clear 26 1004 31 10000 2 180 13:21 19.06.2022
3008 Clear 26 1005 31 10000 4.02 150 11:21 19.06.2022
3009 Clear 25 1005 31 10000 4.02 150 09:58 19.06.2022
3010 Clear 25 1005 33 10000 2 170 08:47 19.06.2022
3011 Clear 24 1006 33 10000 1 0 08:19 19.06.2022
3012 Clear 23 1006 40 10000 1 0 05:37 19.06.2022
3013 Clear 12 1007 81 10000 0 0 01:30 19.06.2022
3014 Clear 10 1006 87 10000 0 0 00:25 19.06.2022
3015 Clear 11 1007 87 10000 0 0 23:36 18.06.2022
3016 Clear 11 1006 87 10000 1 0 22:39 18.06.2022
3017 Clear 13 1007 76 10000 0 0 20:57 18.06.2022
3018 Clear 14 1007 76 10000 0 0 20:38 18.06.2022
3019 Clear 16 1007 67 10000 2 290 19:38 18.06.2022
3020 Clear 18 1007 59 10000 0 0 18:45 18.06.2022
3021 Clear 20 1006 56 10000 2 30 17:35 18.06.2022
3022 Clear 21 1006 46 10000 2 50 16:56 18.06.2022
3023 Clear 24 1007 33 10000 2 10 15:33 18.06.2022
3024 Clear 23 1007 35 10000 3.13 350 14:45 18.06.2022
3025 Clear 23 1007 38 10000 3.13 330 13:30 18.06.2022
3026 Clear 23 1007 35 10000 4.02 360 11:56 18.06.2022
3027 Clear 23 1007 35 10000 4.02 340 10:55 18.06.2022
3028 Clear 22 1007 40 10000 5 360 09:27 18.06.2022
3029 Clear 22 1007 43 10000 4.02 360 08:30 18.06.2022
3030 Clear 22 1007 37 10000 5 360 07:20 18.06.2022
3031 Clear 18 1007 59 10000 2 30 03:46 18.06.2022
3032 Clear 15 1008 82 10000 3.13 10 01:26 18.06.2022
3033 Clear 15 1007 87 10000 3.13 10 00:48 18.06.2022
3034 Clear 15 1007 87 10000 3.13 360 23:58 17.06.2022
3035 Clear 15 1007 87 10000 3.13 360 23:24 17.06.2022
3036 Clouds 16 1007 87 10000 3.13 10 21:27 17.06.2022
3037 Clouds 17 1008 82 10000 3.13 350 20:24 17.06.2022
3038 Clouds 19 1007 72 10000 2 340 18:52 17.06.2022
3039 Clouds 20 1007 68 10000 2 340 17:46 17.06.2022
3040 Clouds 21 1007 60 10000 4.02 360 16:43 17.06.2022
3041 Clouds 21 1007 60 10000 4.02 360 16:18 17.06.2022
3042 Clouds 21 1007 60 10000 4.02 20 15:34 17.06.2022
3043 Clouds 21 1007 60 10000 5 10 14:21 17.06.2022
3044 Clouds 20 1007 68 10000 4.02 360 13:48 17.06.2022
3045 Clouds 20 1007 64 10000 5 360 13:26 17.06.2022
3046 Clouds 20 1007 59 10000 5 350 11:58 17.06.2022
3047 Clouds 20 1007 59 10000 6 350 11:39 17.06.2022
3048 Clouds 20 1007 59 10000 6 350 11:21 17.06.2022
3049 Clouds 18 1006 59 10000 6 330 08:33 17.06.2022
3050 Clear 17 1006 63 10000 7.15 350 07:51 17.06.2022
3051 Clouds 16 1006 63 10000 6 350 06:32 17.06.2022
3052 Clouds 14 1005 67 10000 6 350 03:20 17.06.2022
3053 Clouds 14 1004 67 10000 5 340 00:46 17.06.2022
3054 Clouds 14 1004 67 10000 4.02 340 23:25 16.06.2022
3055 Rain 13 1004 81 10000 4.02 360 22:31 16.06.2022
3056 Rain 15 1004 67 10000 6 340 21:19 16.06.2022
3057 Rain 15 1004 67 10000 5 350 20:50 16.06.2022
3058 Rain 15 1004 72 10000 5 340 19:59 16.06.2022
3059 Clouds 15 1003 76 10000 5 330 18:48 16.06.2022
3060 Rain 15 1003 82 10000 4.02 330 17:44 16.06.2022
3061 Rain 15 1003 82 10000 4.02 330 17:22 16.06.2022
3062 Clouds 15 1003 87 10000 4.02 310 15:58 16.06.2022
3063 Rain 15 1003 87 10000 5 300 15:21 16.06.2022
3064 Rain 14 1003 87 10000 6 310 14:22 16.06.2022
3065 Rain 14 1003 93 10000 7.15 330 12:53 16.06.2022
3066 Rain 14 1002 93 9000 6 330 12:34 16.06.2022
3067 Rain 14 1002 93 10000 6 320 11:21 16.06.2022
3068 Rain 13 1001 100 8000 6 330 10:41 16.06.2022
3069 Rain 14 1001 93 10000 6 330 09:43 16.06.2022
3070 Rain 14 1001 93 10000 7.15 320 08:56 16.06.2022
3071 Rain 14 1001 87 10000 6 320 07:41 16.06.2022
3072 Clouds 15 1000 76 10000 6 330 05:51 16.06.2022
3073 Clouds 15 1000 76 10000 6 320 04:24 16.06.2022
3074 Clouds 13 1000 81 10000 6 320 01:52 16.06.2022
3075 Clouds 13 1000 81 10000 5 320 01:22 16.06.2022
3076 Clouds 13 1000 81 10000 5 320 00:22 16.06.2022
3077 Clouds 13 1001 87 10000 4.02 330 22:54 15.06.2022
3078 Clouds 13 1001 87 10000 5 330 21:48 15.06.2022
3079 Rain 13 1001 93 9000 5 330 21:19 15.06.2022
3080 Clouds 13 1002 87 10000 5 340 20:37 15.06.2022
3081 Clouds 14 1002 76 10000 5 340 20:18 15.06.2022
3082 Clouds 14 1002 76 10000 7.15 330 18:41 15.06.2022
3083 Clouds 15 1002 82 10000 5 330 17:53 15.06.2022
3084 Clouds 14 1002 93 10000 5 310 16:27 15.06.2022
3085 Clouds 14 1002 93 10000 5 330 15:19 15.06.2022
3086 Rain 13 1002 100 10000 4.02 320 13:29 15.06.2022
3087 Clouds 13 1002 93 10000 4.02 320 12:47 15.06.2022
3088 Rain 13 1002 93 10000 4.02 320 11:28 15.06.2022
3089 Rain 12 1002 94 6000 5 310 10:22 15.06.2022
3090 Drizzle 12 1002 94 9000 5 330 09:34 15.06.2022
3091 Clouds 12 1002 100 10000 5 330 07:58 15.06.2022
3092 Rain 12 1002 100 9000 5 320 05:58 15.06.2022
3093 Clouds 12 1002 100 10000 4.02 310 02:56 15.06.2022
3094 Clouds 12 1002 100 10000 5 310 01:37 15.06.2022
3095 Mist 12 1002 100 3400 4.02 310 00:37 15.06.2022
3096 Mist 12 1002 100 5000 4.02 310 23:38 14.06.2022
3097 Clouds 12 1003 100 9000 4.02 290 22:48 14.06.2022
3098 Mist 12 1003 100 4800 3.13 290 21:44 14.06.2022
3099 Drizzle 12 1003 100 3600 3.13 290 21:21 14.06.2022
3100 Drizzle 12 1003 100 2500 3.13 290 20:41 14.06.2022
3101 Drizzle 12 1004 100 8000 3.13 280 19:58 14.06.2022
3102 Drizzle 12 1004 100 5000 3.13 280 18:45 14.06.2022
3103 Clouds 12 1004 100 10000 4.02 270 17:20 14.06.2022
3104 Clouds 13 1004 87 10000 4.02 250 16:43 14.06.2022
3105 Clouds 13 1004 87 10000 3.13 250 15:49 14.06.2022
3106 Clouds 12 1004 94 10000 3 270 14:56 14.06.2022
3107 Clouds 12 1004 94 10000 4 260 14:18 14.06.2022
3108 Clouds 13 1004 88 10000 3 260 13:28 14.06.2022
3109 Clouds 12 1004 94 10000 4 270 12:19 14.06.2022
3110 Clouds 13 1003 81 10000 4.02 260 10:59 14.06.2022
3111 Clouds 12 1003 87 10000 5 290 10:29 14.06.2022
3112 Clouds 12 1003 87 10000 4 290 09:26 14.06.2022
3113 Clouds 12 1003 87 10000 5 290 08:40 14.06.2022
3114 Clouds 11 1002 87 10000 4.02 270 06:53 14.06.2022
3115 Clouds 11 1001 87 10000 5 290 04:23 14.06.2022
3116 Clouds 10 1001 93 10000 5 290 01:38 14.06.2022
3117 Clouds 11 1000 93 10000 4.02 300 00:24 14.06.2022
3118 Mist 11 1000 93 4500 4.02 310 22:59 13.06.2022
3119 Mist 11 1000 100 4200 4.02 320 22:23 13.06.2022
3120 Clouds 12 1000 93 10000 4.02 310 21:41 13.06.2022
3121 Drizzle 13 999 93 10000 5 300 19:59 13.06.2022
3122 Drizzle 13 999 93 10000 5 290 19:18 13.06.2022
3123 Drizzle 13 999 93 4900 5 300 17:56 13.06.2022
3124 Drizzle 13 999 93 9000 5 300 17:25 13.06.2022
3125 Clouds 14 998 87 10000 7.15 300 16:31 13.06.2022
3126 Clouds 16 998 82 10000 6 290 14:52 13.06.2022
3127 Rain 16 997 87 10000 5 290 14:32 13.06.2022
3128 Rain 16 997 87 10000 6 300 13:36 13.06.2022
3129 Rain 16 996 93 10000 3.13 290 12:23 13.06.2022
3130 Rain 16 995 93 9000 5 320 10:58 13.06.2022
3131 Rain 17 995 88 10000 4.02 290 10:26 13.06.2022
3132 Rain 17 995 82 10000 4.02 300 08:59 13.06.2022
3133 Clouds 17 994 82 10000 3.13 270 06:53 13.06.2022
3134 Clouds 16 994 87 10000 2 240 05:35 13.06.2022
3135 Rain 15 993 93 9000 1 0 02:27 13.06.2022
3136 Rain 14 994 100 2300 3.13 280 01:36 13.06.2022
3137 Clouds 14 993 100 9000 0 0 23:49 12.06.2022
3138 Clouds 15 993 93 9000 0 0 22:44 12.06.2022
3139 Clouds 15 993 93 6000 0 0 21:53 12.06.2022
3140 Rain 15 993 100 7000 0 0 20:54 12.06.2022
3141 Rain 15 993 100 8000 0 0 20:18 12.06.2022
3142 Clouds 15 993 93 10000 1 0 19:30 12.06.2022
3143 Clouds 15 993 93 10000 1 0 19:30 12.06.2022
3144 Rain 16 993 93 10000 3.13 250 17:41 12.06.2022
3145 Clouds 19 993 63 10000 2 210 15:57 12.06.2022
3146 Thunderstorm 20 993 59 10000 3.13 200 14:51 12.06.2022
3147 Clouds 20 993 56 10000 3.13 210 14:20 12.06.2022
3148 Clouds 20 993 56 10000 3.13 210 13:49 12.06.2022
3149 Clouds 21 993 52 10000 3.13 200 12:32 12.06.2022
3150 Clouds 20 992 64 10000 5 240 11:22 12.06.2022
3151 Clouds 21 992 56 10000 4.02 210 10:21 12.06.2022
3152 Clouds 18 993 72 10000 5 210 08:54 12.06.2022
3153 Clouds 19 992 68 10000 5 190 08:35 12.06.2022
3154 Clouds 18 992 77 10000 3.13 230 07:31 12.06.2022
3155 Clouds 15 993 93 10000 2 230 04:35 12.06.2022
3156 Clouds 14 993 100 10000 1 0 02:33 12.06.2022
3157 Clouds 14 993 100 9000 0 0 01:36 12.06.2022
3158 Clouds 14 993 100 9000 1 0 00:58 12.06.2022
3159 Clouds 14 993 100 10000 1 50 00:20 12.06.2022
3160 Rain 15 993 93 10000 1 290 23:21 11.06.2022
3161 Clouds 15 993 93 10000 3 110 22:38 11.06.2022
3162 Clouds 15 993 93 10000 3 110 22:38 11.06.2022
3163 Clear 15 994 93 10000 2 80 21:37 11.06.2022
3164 Clouds 16 994 87 10000 3.13 90 20:33 11.06.2022
3165 Clouds 16 994 87 10000 3.13 60 19:39 11.06.2022
3166 Clouds 17 995 82 10000 4.02 130 18:56 11.06.2022
3167 Clouds 18 995 77 10000 4.02 130 18:33 11.06.2022
3168 Clouds 18 995 77 10000 5 90 17:50 11.06.2022
3169 Clouds 18 995 77 10000 4.02 120 17:26 11.06.2022
3170 Clouds 18 995 77 10000 4.02 100 16:50 11.06.2022
3171 Clouds 18 996 77 10000 5 120 16:26 11.06.2022
3172 Clouds 19 996 68 10000 6 110 15:27 11.06.2022
3173 Clouds 20 996 68 10000 7.15 100 13:53 11.06.2022
3174 Clouds 23 996 56 10000 4.02 110 12:25 11.06.2022
3175 Clouds 21 997 60 10000 6 110 10:40 11.06.2022
3176 Clear 22 997 53 10000 5.81 100 09:42 11.06.2022
3177 Clear 22 998 53 10000 5 110 08:45 11.06.2022
3178 Clear 21 998 56 10000 2 40 06:47 11.06.2022
3179 Clear 20 999 59 10000 2 310 05:58 11.06.2022
3180 Clear 18 999 67 10000 0 0 03:45 11.06.2022
3181 Clear 13 999 87 10000 1 0 01:52 11.06.2022
3182 Clear 12 999 93 10000 0 0 01:26 11.06.2022
3183 Clouds 13 1000 87 10000 0 0 23:28 10.06.2022
3184 Clouds 13 999 87 10000 2 100 22:27 10.06.2022
3185 Clouds 14 1000 82 10000 3.13 100 21:46 10.06.2022
3186 Clouds 16 1000 77 10000 2 60 20:39 10.06.2022
3187 Clouds 16 1001 77 10000 2 60 20:20 10.06.2022
3188 Clouds 17 1002 67 10000 2 70 19:19 10.06.2022
3189 Clouds 17 1002 63 10000 4.02 80 18:46 10.06.2022
3190 Clouds 19 1003 59 10000 6 100 17:54 10.06.2022
3191 Clouds 20 1003 56 10000 7 100 17:23 10.06.2022
3192 Clear 20 1003 56 10000 6 100 16:28 10.06.2022
3193 Clear 20 1003 60 10000 7 110 15:40 10.06.2022
3194 Clear 20 1004 59 10000 7.15 110 14:28 10.06.2022
3195 Clear 19 1005 63 10000 8 100 12:58 10.06.2022
3196 Clear 19 1005 59 10000 6 110 11:59 10.06.2022
3197 Clear 17 1006 67 10000 5 120 10:51 10.06.2022
3198 Clear 18 1006 63 10000 6 110 09:57 10.06.2022
3199 Clear 17 1007 67 10000 7.15 130 08:48 10.06.2022
3200 Clear 17 1007 67 10000 5 140 07:41 10.06.2022
3201 Clear 15 1007 72 10000 5 130 06:46 10.06.2022
3202 Clear 15 1007 72 10000 4.02 140 06:27 10.06.2022
3203 Clear 13 1007 81 10000 4.02 130 04:47 10.06.2022
3204 Clouds 13 1007 76 10000 4.02 120 01:59 10.06.2022
3205 Clouds 13 1007 76 10000 4.02 120 01:36 10.06.2022
3206 Clouds 13 1007 76 10000 4.02 120 01:36 10.06.2022
3207 Clouds 13 1007 71 10000 4.02 110 23:57 09.06.2022
3208 Clouds 14 1007 71 10000 4.02 120 22:24 09.06.2022
3209 Rain 13 1007 76 9000 4.02 110 21:38 09.06.2022
3210 Rain 13 1007 81 9000 4.02 110 21:18 09.06.2022
3211 Rain 16 1008 58 10000 5 130 20:27 09.06.2022
3212 Clear 16 1008 58 10000 5 120 19:31 09.06.2022
3213 Clear 17 1007 55 10000 6 120 18:35 09.06.2022
3214 Clear 18 1007 55 10000 5 100 17:25 09.06.2022
3215 Clouds 18 1007 55 10000 5 110 16:21 09.06.2022
3216 Clouds 18 1007 59 10000 4.92 80 14:42 09.06.2022
3217 Clouds 17 1007 67 10000 4.02 90 14:23 09.06.2022
3218 Clouds 16 1008 77 10000 3 80 13:29 09.06.2022
3219 Clouds 18 1008 51 10000 5 110 12:46 09.06.2022
3220 Clouds 18 1008 55 10000 7.15 120 11:19 09.06.2022
3221 Clouds 16 1009 63 10000 8.05 120 09:50 09.06.2022
3222 Clouds 15 1009 67 10000 9 110 09:31 09.06.2022
3223 Clouds 14 1009 71 10000 8.05 110 08:21 09.06.2022
3224 Clouds 13 1010 71 10000 6 120 06:55 09.06.2022
3225 Clouds 11 1011 87 10000 5 100 03:28 09.06.2022
3226 Rain 12 1012 76 10000 3.13 170 23:55 08.06.2022
3227 Clear 14 1012 50 10000 5 160 22:59 08.06.2022
3228 Clear 14 1012 50 10000 3.13 140 22:27 08.06.2022
3229 Clear 13 1012 54 10000 4.02 120 21:57 08.06.2022
3230 Clear 13 1012 58 10000 3.13 110 21:23 08.06.2022
3231 Clear 14 1012 54 10000 3.13 120 20:22 08.06.2022
3232 Clear 14 1012 54 10000 4 120 19:39 08.06.2022
3233 Clear 15 1012 51 10000 3.13 120 18:48 08.06.2022
3234 Clear 17 1012 41 10000 4.02 100 17:30 08.06.2022
3235 Clear 19 1013 34 10000 6 110 15:52 08.06.2022
3236 Clear 20 1013 30 10000 5 120 13:58 08.06.2022
3237 Clear 20 1014 30 10000 5 110 12:29 08.06.2022
3238 Clear 19 1015 32 10000 4.02 150 11:34 08.06.2022
3239 Clear 18 1015 31 10000 4.02 140 10:30 08.06.2022
3240 Clear 17 1015 33 10000 5 120 09:22 08.06.2022
3241 Clear 17 1015 36 10000 4.02 120 08:43 08.06.2022
3242 Clear 15 1016 38 10000 3.13 150 06:36 08.06.2022
3243 Clear 12 1017 50 10000 3.13 180 04:22 08.06.2022
3244 Clear 5 1017 86 10000 2 160 00:49 08.06.2022
3245 Clear 4 1017 86 10000 1 70 23:30 07.06.2022
3246 Clear 4 1017 86 10000 2 80 22:48 07.06.2022
3247 Clear 4 1017 86 10000 0 0 22:30 07.06.2022
3248 Clear 5 1017 86 10000 0 0 21:35 07.06.2022
3249 Clear 6 1017 81 10000 0 0 20:59 07.06.2022
3250 Clear 6 1017 81 10000 1 110 20:33 07.06.2022
3251 Clear 7 1018 75 10000 0 0 19:45 07.06.2022
3252 Clear 10 1017 61 10000 3.13 80 18:24 07.06.2022
3253 Clear 13 1017 50 10000 2 50 17:27 07.06.2022
3254 Clear 13 1017 47 10000 3.13 50 16:43 07.06.2022
3255 Clear 14 1017 44 10000 2 40 15:56 07.06.2022
3256 Clear 14 1018 44 10000 1 0 15:26 07.06.2022
3257 Clear 13 1018 43 10000 3.13 40 14:52 07.06.2022
3258 Clear 14 1018 41 10000 2 40 14:32 07.06.2022
3259 Clear 14 1018 41 10000 2 260 13:32 07.06.2022
3260 Clear 13 1018 43 10000 2 300 12:52 07.06.2022
3261 Clear 13 1018 43 10000 3.13 350 11:47 07.06.2022
3262 Clear 11 1018 46 10000 3.13 330 10:27 07.06.2022
3263 Clear 10 1019 46 10000 5 350 08:50 07.06.2022
3264 Clear 9 1019 49 10000 3.13 30 07:34 07.06.2022
3265 Clear 8 1019 49 10000 2 90 06:22 07.06.2022
3266 Clear 5 1019 70 10000 3.13 70 03:32 07.06.2022
3267 Clear 1 1018 86 10000 1 300 00:45 07.06.2022
3268 Clear 2 1018 86 10000 1 0 23:41 06.06.2022
3269 Clear 2 1018 86 10000 2 60 22:53 06.06.2022
3270 Clear 2 1018 86 10000 2 60 21:57 06.06.2022
3271 Clear 2 1018 87 10000 0 0 20:42 06.06.2022
3272 Clear 3 1018 87 10000 0 0 19:24 06.06.2022
3273 Clear 4 1018 86 10000 0 0 18:47 06.06.2022
3274 Clear 7 1018 65 10000 2 20 17:55 06.06.2022
3275 Clear 8 1018 56 10000 2 20 16:55 06.06.2022
3276 Clear 9 1018 49 10000 3.13 10 15:45 06.06.2022
3277 Clouds 9 1018 49 10000 3.13 20 14:59 06.06.2022
3278 Clouds 9 1018 49 10000 3.13 10 14:18 06.06.2022
3279 Clouds 9 1018 49 10000 2 50 13:20 06.06.2022
3280 Clouds 8 1018 52 10000 3.13 360 12:34 06.06.2022
3281 Clouds 8 1018 56 10000 3.13 20 11:47 06.06.2022
3282 Clouds 7 1018 70 10000 3.13 30 09:53 06.06.2022
3283 Clouds 7 1018 75 10000 3.13 50 08:57 06.06.2022
3284 Clouds 8 1018 70 10000 3.13 40 08:28 06.06.2022
3285 Clouds 8 1018 70 10000 3.13 30 07:19 06.06.2022
3286 Clear 6 1018 81 10000 3.13 30 04:38 06.06.2022
3287 Clear 5 1019 86 10000 2 310 01:57 06.06.2022
3288 Clear 5 1019 86 10000 3.13 340 00:57 06.06.2022
3289 Clear 5 1019 86 10000 2 320 00:34 06.06.2022
3290 Clouds 5 1019 80 10000 3.13 280 23:20 05.06.2022
3291 Clouds 5 1019 80 10000 2 280 22:21 05.06.2022
3292 Clouds 5 1019 80 10000 2 330 20:24 05.06.2022
3293 Clear 6 1019 70 10000 3.13 330 19:23 05.06.2022
3294 Clouds 7 1019 65 10000 1 0 18:19 05.06.2022
3295 Clouds 8 1019 61 10000 3.13 330 17:39 05.06.2022
3296 Clouds 8 1019 61 10000 3.13 330 17:21 05.06.2022
3297 Clouds 9 1019 57 10000 3.13 350 16:47 05.06.2022
3298 Clouds 9 1018 57 10000 4.02 20 15:28 05.06.2022
3299 Clouds 9 1018 53 10000 4.02 30 14:21 05.06.2022
3300 Clouds 9 1018 57 10000 4.02 360 11:59 05.06.2022
3301 Clouds 8 1018 61 10000 5 360 10:45 05.06.2022
3302 Clouds 7 1018 65 10000 5 20 10:24 05.06.2022
3303 Clouds 6 1018 75 10000 5 20 09:42 05.06.2022
3304 Clouds 6 1017 75 10000 4.02 360 08:25 05.06.2022
3305 Clouds 4 1017 80 10000 5 360 06:25 05.06.2022
3306 Clouds 3 1016 86 10000 5 30 05:19 05.06.2022
3307 Clouds 1 1015 93 10000 4.02 350 02:48 05.06.2022
3308 Snow 1 1014 93 8000 4.02 340 01:24 05.06.2022
3309 Clouds 1 1014 93 10000 4.02 350 23:36 04.06.2022
3310 Clouds 2 1014 93 10000 4.02 340 21:30 04.06.2022
3311 Clouds 1 1014 93 10000 4.02 320 19:46 04.06.2022
3312 Clouds 2 1014 80 10000 5 340 17:28 04.06.2022
3313 Clouds 2 1014 80 10000 5.81 330 16:22 04.06.2022
3314 Clouds 2 1014 80 10000 6 330 15:45 04.06.2022
3315 Clouds 2 1014 86 10000 7.15 330 14:18 04.06.2022
3316 Snow 3 1013 86 9000 6 330 11:45 04.06.2022
3317 Rain 3 1012 86 10000 7.15 330 10:55 04.06.2022
3318 Rain 3 1012 86 10000 7.15 330 10:19 04.06.2022
3319 Rain 4 1012 80 10000 7.15 340 09:39 04.06.2022
3320 Snow 3 1012 86 9000 8.05 320 08:39 04.06.2022
3321 Clouds 3 1012 86 8000 7.15 330 07:18 04.06.2022
3322 Snow 2 1012 86 9000 7.15 320 04:33 04.06.2022
3323 Rain 1 1013 93 6000 6 290 00:37 04.06.2022
3324 Rain 1 1013 93 9000 7.15 300 23:28 03.06.2022
3325 Clouds 2 1014 80 10000 7.15 300 22:20 03.06.2022
3326 Clouds 2 1015 80 10000 5 310 20:42 03.06.2022
3327 Clouds 2 1015 80 10000 5 310 20:42 03.06.2022
3328 Clouds 2 1015 80 10000 5 310 19:58 03.06.2022
3329 Clouds 3 1016 69 10000 5 320 17:00 03.06.2022
3330 Clouds 3 1017 64 10000 6 310 16:34 03.06.2022
3331 Clouds 4 1017 51 10000 7.15 320 14:52 03.06.2022
3332 Snow 3 1017 64 10000 8.05 320 12:28 03.06.2022
3333 Snow 3 1017 59 10000 7.15 320 10:18 03.06.2022
3334 Clouds 3 1017 55 10000 7.15 340 09:30 03.06.2022
3335 Clouds 2 1017 59 10000 7.15 340 07:53 03.06.2022
3336 Clouds 1 1017 69 10000 7.15 330 07:20 03.06.2022
3337 Snow 2 1017 74 9000 7.15 330 06:30 03.06.2022
3338 Clouds 2 1017 69 10000 6 330 04:40 03.06.2022
3339 Clouds 1 1016 80 10000 4.02 330 00:22 03.06.2022
3340 Clouds 1 1017 86 10000 5 330 22:35 02.06.2022
3341 Snow 2 1017 86 9000 5 330 21:29 02.06.2022
3342 Clouds 2 1017 74 10000 5 320 20:00 02.06.2022
3343 Clouds 1 1017 93 10000 3.13 320 19:41 02.06.2022
3344 Clouds 1 1017 93 10000 3.13 320 19:18 02.06.2022
3345 Clouds 3 1017 55 10000 6 330 16:30 02.06.2022
3346 Clouds 3 1017 51 10000 8.05 340 15:58 02.06.2022
3347 Snow 1 1017 93 9000 6 340 13:47 02.06.2022
3348 Snow 1 1017 93 8000 6 340 13:26 02.06.2022
3349 Clouds 3 1016 56 10000 8 330 11:18 02.06.2022
3350 Clouds 3 1016 56 10000 8 340 10:19 02.06.2022
3351 Clouds 3 1015 56 10000 10 340 09:27 02.06.2022
3352 Clouds 4 1015 65 10000 9 340 08:25 02.06.2022
3353 Clouds 5 1015 56 10000 5 340 06:50 02.06.2022
3354 Clouds 3 1015 80 10000 5 330 03:54 02.06.2022
3355 Clouds 3 1015 69 10000 4.02 360 02:22 02.06.2022
3356 Clouds 3 1015 74 10000 5 30 23:36 01.06.2022
3357 Rain 3 1015 80 10000 5 340 22:21 01.06.2022
3358 Clouds 4 1015 75 10000 5 20 21:26 01.06.2022
3359 Rain 4 1015 75 10000 4.02 360 20:39 01.06.2022
3360 Clouds 5 1015 65 10000 6 360 19:52 01.06.2022
3361 Clouds 5 1015 60 10000 6 10 18:52 01.06.2022
3362 Clouds 6 1015 60 10000 8 350 17:40 01.06.2022
3363 Clouds 6 1014 65 10000 9 350 16:22 01.06.2022
3364 Clouds 7 1013 57 10000 8 360 14:51 01.06.2022
3365 Clouds 9 1012 49 10000 7.15 10 13:44 01.06.2022
3366 Clouds 10 1011 53 10000 8.05 10 11:41 01.06.2022
3367 Clouds 12 1009 54 10000 9 350 09:34 01.06.2022
3368 Clouds 13 1008 47 10000 10 350 08:28 01.06.2022
3369 Clouds 14 1008 44 10000 10 340 07:21 01.06.2022
3370 Clear 12 1008 50 10000 7.15 350 04:59 01.06.2022
3371 Clear 10 1010 57 10000 4 360 23:57 31.05.2022
3372 Clear 11 1010 54 10000 4 360 22:51 31.05.2022
3373 Clear 11 1010 53 10000 4.02 10 22:29 31.05.2022
3374 Clear 11 1010 53 10000 4.02 10 21:45 31.05.2022
3375 Clear 12 1010 46 10000 5 20 20:45 31.05.2022
3376 Clear 12 1010 46 10000 5 20 20:45 31.05.2022
3377 Clear 12 1010 50 10000 3.13 360 19:52 31.05.2022
3378 Clear 13 1010 47 10000 4.02 10 18:45 31.05.2022
3379 Clear 14 1010 41 10000 4.02 20 17:49 31.05.2022
3380 Clear 15 1010 35 10000 5 30 16:48 31.05.2022
3381 Clear 16 1010 29 10000 7.15 30 15:40 31.05.2022
3382 Clear 16 1010 36 10000 6 10 13:38 31.05.2022
3383 Clear 16 1010 38 10000 7.15 350 12:19 31.05.2022
3384 Clear 16 1010 36 10000 6 10 10:52 31.05.2022
3385 Clear 15 1010 47 10000 5 20 08:37 31.05.2022
3386 Clear 13 1010 58 10000 5 350 06:52 31.05.2022
3387 Clear 12 1010 57 10000 4.02 30 04:46 31.05.2022
3388 Clear 7 1010 81 10000 3.13 40 23:53 30.05.2022
3389 Clear 8 1010 75 10000 3.13 40 23:25 30.05.2022
3390 Clear 9 1010 75 10000 3.13 30 22:44 30.05.2022
3391 Clear 9 1009 70 10000 3.13 30 21:47 30.05.2022
3392 Clear 9 1009 75 10000 3.13 30 21:29 30.05.2022
3393 Clear 10 1009 66 10000 3.13 10 19:51 30.05.2022
3394 Clear 12 1009 54 10000 2 30 18:26 30.05.2022
3395 Clear 15 1008 44 10000 3.13 20 17:23 30.05.2022
3396 Clear 16 1008 41 10000 4.02 40 16:36 30.05.2022
3397 Clear 16 1007 41 10000 4.02 40 13:44 30.05.2022
3398 Clear 13 1007 58 10000 4 50 11:54 30.05.2022
3399 Clouds 13 1006 62 10000 4.02 30 10:20 30.05.2022
3400 Clouds 12 1006 66 10000 3.13 30 09:18 30.05.2022
3401 Clouds 13 1003 81 10000 6 60 06:28 30.05.2022
3402 Clouds 13 1003 81 10000 4.02 60 05:38 30.05.2022
3403 Clouds 12 1001 100 10000 1 0 01:30 30.05.2022
3404 Rain 13 1002 93 10000 2 10 22:49 29.05.2022
3405 Rain 13 1002 93 9000 2 350 22:29 29.05.2022
3406 Rain 13 1003 93 8000 4 280 20:38 29.05.2022
3407 Clouds 15 1004 72 10000 7.15 280 19:30 29.05.2022
3408 Clouds 16 1004 77 10000 8.05 240 18:34 29.05.2022
3409 Clouds 18 1003 63 10000 5 280 16:40 29.05.2022
3410 Rain 21 1003 49 10000 6 110 15:47 29.05.2022
3411 Clouds 23 1004 33 10000 5 120 14:55 29.05.2022
3412 Clear 24 1004 31 10000 5 120 13:46 29.05.2022
3413 Clouds 25 1006 27 10000 4 120 11:31 29.05.2022
3414 Clear 24 1007 31 10000 3.13 160 10:37 29.05.2022
3415 Clear 23 1008 33 10000 3.13 190 08:36 29.05.2022
3416 Clear 18 1009 48 10000 3.13 160 04:59 29.05.2022
3417 Clear 18 1009 48 10000 3.13 160 04:39 29.05.2022
3418 Clear 11 1010 81 10000 2 70 01:52 29.05.2022
3419 Clear 10 1010 87 10000 0 0 23:48 28.05.2022
3420 Clear 11 1010 81 10000 1 0 23:25 28.05.2022
3421 Clear 13 1010 71 10000 2 160 22:21 28.05.2022
3422 Clear 14 1010 67 10000 3.13 190 21:19 28.05.2022
3423 Clear 14 1010 67 10000 3.13 190 21:19 28.05.2022
3424 Clear 16 1010 51 10000 3.13 190 19:21 28.05.2022
3425 Clear 16 1010 51 10000 4 210 18:45 28.05.2022
3426 Clear 17 1009 51 10000 5 190 17:34 28.05.2022
3427 Clear 18 1009 51 10000 6 210 16:22 28.05.2022
3428 Clear 18 1009 51 10000 6 190 15:38 28.05.2022
3429 Clear 19 1008 45 10000 4.92 180 13:42 28.05.2022
3430 Clear 19 1008 45 10000 5 170 12:43 28.05.2022
3431 Clouds 19 1008 48 10000 4.02 190 11:50 28.05.2022
3432 Clouds 18 1008 51 10000 5 170 10:43 28.05.2022
3433 Clouds 18 1008 51 10000 5 170 09:56 28.05.2022
3434 Clouds 14 1007 76 10000 5 160 08:39 28.05.2022
3435 Clouds 13 1007 76 10000 4.02 200 06:53 28.05.2022
3436 Clouds 15 1006 82 10000 5 200 05:24 28.05.2022
3437 Clouds 16 1006 63 10000 4.02 120 02:33 28.05.2022
3438 Clear 16 1006 58 10000 4.92 120 00:18 28.05.2022
3439 Clear 17 1006 51 10000 5 110 22:49 27.05.2022
3440 Clear 17 1007 51 10000 6 100 21:35 27.05.2022
3441 Clear 18 1007 48 10000 5 120 20:46 27.05.2022
3442 Clear 18 1006 48 10000 7.15 110 20:21 27.05.2022
3443 Clear 19 1007 45 10000 8 110 19:41 27.05.2022
3444 Clear 19 1007 45 10000 8.05 110 19:21 27.05.2022
3445 Clear 21 1007 40 10000 10 110 17:26 27.05.2022
3446 Clear 22 1007 35 10000 9 100 15:57 27.05.2022
3447 Clear 23 1007 31 10000 11.18 110 14:58 27.05.2022
3448 Clear 23 1008 31 10000 11 110 13:41 27.05.2022
3449 Clear 23 1008 31 10000 12.07 100 12:20 27.05.2022
3450 Clear 22 1009 35 10000 11.18 110 11:31 27.05.2022
3451 Clear 23 1009 33 10000 11.18 110 10:47 27.05.2022
3452 Clear 22 1010 35 10000 9 110 09:59 27.05.2022
3453 Clear 22 1010 37 10000 10 110 09:31 27.05.2022
3454 Clear 21 1011 43 10000 8 110 07:40 27.05.2022
3455 Clear 19 1012 48 10000 5 110 04:58 27.05.2022
3456 Clear 15 1013 62 10000 3.13 120 01:44 27.05.2022
3457 Clear 15 1014 62 10000 3.13 120 23:31 26.05.2022
3458 Clear 17 1014 55 10000 4.02 130 22:28 26.05.2022
3459 Clear 17 1014 55 10000 4.02 130 21:32 26.05.2022
3460 Clouds 19 1014 52 10000 4.02 130 19:39 26.05.2022
3461 Clouds 20 1014 49 10000 4.92 120 18:52 26.05.2022
3462 Clouds 21 1014 49 10000 5 120 17:36 26.05.2022
3463 Clouds 22 1014 46 10000 6 110 16:31 26.05.2022
3464 Clouds 22 1014 46 10000 8.05 110 15:32 26.05.2022
3465 Clouds 23 1015 46 10000 7.15 100 14:20 26.05.2022
3466 Clear 25 1015 41 10000 7.15 110 12:18 26.05.2022
3467 Clear 24 1016 43 10000 8.05 110 11:21 26.05.2022
3468 Clouds 23 1016 46 10000 9 100 09:39 26.05.2022
3469 Clouds 22 1017 49 10000 9 110 08:48 26.05.2022
3470 Clear 20 1017 56 10000 7.15 120 06:47 26.05.2022
3471 Clouds 16 1019 63 10000 6 120 02:54 26.05.2022
3472 Clear 15 1019 72 10000 5 120 00:19 26.05.2022
3473 Clear 16 1019 72 10000 4.02 120 22:58 25.05.2022
3474 Clear 15 1019 76 10000 3.13 120 21:44 25.05.2022
3475 Clear 16 1019 67 10000 5 110 20:50 25.05.2022
3476 Clear 17 1019 63 10000 5 110 19:56 25.05.2022
3477 Clear 18 1019 59 10000 5 110 18:48 25.05.2022
3478 Clear 20 1019 56 10000 5 110 17:26 25.05.2022
3479 Clear 20 1019 52 10000 6 110 16:35 25.05.2022
3480 Clear 20 1019 52 10000 5 110 15:49 25.05.2022
3481 Clear 20 1019 56 10000 7.15 100 14:51 25.05.2022
3482 Clear 21 1019 49 10000 6 120 14:32 25.05.2022
3483 Clear 21 1019 46 10000 6 120 13:27 25.05.2022
3484 Clouds 21 1020 52 10000 4.46 94 11:51 25.05.2022
3485 Clouds 21 1020 52 10000 5.81 90 10:42 25.05.2022
3486 Clouds 19 1020 59 10000 5 100 09:46 25.05.2022
3487 Clouds 19 1020 63 10000 4.02 110 08:21 25.05.2022
3488 Clouds 18 1020 61 10000 3.19 90 06:37 25.05.2022
3489 Clear 12 1019 93 10000 2 80 02:46 25.05.2022
3490 Clear 9 1018 93 10000 0 0 23:52 24.05.2022
3491 Clear 9 1018 93 10000 0 0 23:23 24.05.2022
3492 Clear 10 1017 93 10000 0 0 22:18 24.05.2022
3493 Clear 9 1017 100 10000 1.79 90 21:38 24.05.2022
3494 Clear 10 1017 93 10000 0 0 21:19 24.05.2022
3495 Clear 13 1016 87 10000 1 0 19:32 24.05.2022
3496 Clear 13 1016 87 10000 1 60 18:40 24.05.2022
3497 Clouds 16 1015 63 10000 1 0 16:40 24.05.2022
3498 Clouds 15 1014 67 10000 2 190 15:54 24.05.2022
3499 Clouds 16 1014 63 10000 3.13 200 14:45 24.05.2022
3500 Clouds 15 1014 67 10000 2 150 13:48 24.05.2022
3501 Clouds 14 1014 71 10000 2 180 12:42 24.05.2022
3502 Clouds 13 1013 76 10000 2 150 10:18 24.05.2022
3503 Clouds 13 1013 76 10000 1 0 09:41 24.05.2022
3504 Clouds 13 1013 76 10000 2 150 08:43 24.05.2022
3505 Clouds 12 1012 81 10000 3.13 140 06:45 24.05.2022
3506 Clouds 11 1011 81 10000 2 110 03:48 24.05.2022
3507 Clouds 8 1011 93 10000 0 0 01:49 24.05.2022
3508 Clear 7 1010 93 10000 2 90 01:18 24.05.2022
3509 Clouds 10 1010 76 10000 1 0 22:50 23.05.2022
3510 Clouds 11 1010 71 10000 2 160 21:54 23.05.2022
3511 Clouds 9 1010 87 10000 1 0 20:59 23.05.2022
3512 Clouds 8 1010 93 10000 3.13 100 20:26 23.05.2022
3513 Clouds 8 1009 93 10000 4.02 90 19:31 23.05.2022
3514 Clouds 9 1009 87 10000 4.02 90 18:43 23.05.2022
3515 Clouds 9 1009 87 10000 4.02 80 18:22 23.05.2022
3516 Clouds 10 1009 76 10000 5 120 16:51 23.05.2022
3517 Thunderstorm 10 1009 81 10000 2 150 14:52 23.05.2022
3518 Rain 9 1008 81 7000 5 140 12:50 23.05.2022
3519 Clouds 14 1007 41 10000 4.02 160 11:26 23.05.2022
3520 Clear 14 1007 38 10000 5 230 09:50 23.05.2022
3521 Clear 13 1007 47 10000 6 220 09:23 23.05.2022
3522 Clear 11 1005 57 10000 7.15 220 07:48 23.05.2022
3523 Clouds 10 1004 61 10000 8.94 240 06:45 23.05.2022
3524 Clouds 8 1004 81 10000 6 230 05:21 23.05.2022
3525 Rain 8 1000 93 10000 5 210 02:19 23.05.2022
3526 Rain 8 1000 93 10000 4.02 210 01:36 23.05.2022
3527 Rain 8 1000 93 9000 6 230 23:51 22.05.2022
3528 Rain 12 998 81 10000 5 220 22:35 22.05.2022
3529 Clouds 12 997 81 10000 5 240 21:55 22.05.2022
3530 Clouds 13 997 81 10000 3.13 230 20:53 22.05.2022
3531 Clouds 13 997 81 10000 3.13 230 20:27 22.05.2022
3532 Clouds 14 997 77 10000 5 240 19:56 22.05.2022
3533 Clouds 14 996 76 10000 5 270 18:55 22.05.2022
3534 Thunderstorm 15 996 77 10000 7 250 18:25 22.05.2022
3535 Clouds 21 993 49 10000 9 120 17:33 22.05.2022
3536 Clear 21 993 49 10000 11.18 110 16:31 22.05.2022
3537 Clear 22 994 46 10000 11.18 110 14:48 22.05.2022
3538 Clear 23 994 43 10000 12.07 110 13:45 22.05.2022
3539 Clear 22 994 43 10000 11 100 12:50 22.05.2022
3540 Clear 21 995 46 10000 11 110 11:42 22.05.2022
3541 Clear 19 996 48 10000 12.07 110 09:45 22.05.2022
3542 Clear 16 996 55 10000 11.18 110 08:37 22.05.2022
3543 Clear 14 998 58 10000 12.07 110 07:22 22.05.2022
3544 Clear 13 999 58 10000 9 110 05:44 22.05.2022
3545 Clear 8 1002 81 10000 7.15 90 02:23 22.05.2022
3546 Clear 6 1003 93 10000 5 80 00:43 22.05.2022
3547 Clear 6 1003 93 10000 5 90 23:55 21.05.2022
3548 Rain 6 1003 93 10000 5 80 23:20 21.05.2022
3549 Rain 6 1005 86 10000 5 90 21:43 21.05.2022
3550 Rain 6 1006 86 10000 4.02 80 21:23 21.05.2022
3551 Clear 5 1007 86 10000 1 0 20:24 21.05.2022
3552 Clear 5 1005 86 10000 3.13 90 19:35 21.05.2022
3553 Clear 6 1005 81 10000 2 70 17:51 21.05.2022
3554 Clear 7 1005 70 10000 2 50 16:46 21.05.2022
3555 Clear 8 1005 65 10000 3.13 340 14:38 21.05.2022
3556 Clear 8 1005 70 10000 3.13 330 13:52 21.05.2022
3557 Clear 8 1004 65 10000 4.02 290 12:50 21.05.2022
3558 Clear 8 1004 65 10000 5 280 12:26 21.05.2022
3559 Clouds 7 1003 75 10000 6 270 10:34 21.05.2022
3560 Rain 7 1003 75 10000 7 250 09:44 21.05.2022
3561 Rain 6 1003 81 10000 7.15 250 08:57 21.05.2022
3562 Rain 6 1002 86 10000 6 260 07:54 21.05.2022
3563 Clouds 5 999 75 10000 8.05 240 04:29 21.05.2022
3564 Clouds 5 996 80 10000 7.15 230 23:54 20.05.2022
3565 Rain 6 996 75 10000 9 240 22:57 20.05.2022
3566 Clouds 6 996 75 10000 7.15 240 22:24 20.05.2022
3567 Clouds 6 996 75 10000 9 230 21:43 20.05.2022
3568 Rain 6 996 86 10000 9 250 20:56 20.05.2022
3569 Clouds 8 996 65 10000 9 240 19:59 20.05.2022
3570 Clouds 9 996 61 10000 7.15 240 19:26 20.05.2022
3571 Clouds 9 996 61 10000 8.05 230 18:46 20.05.2022
3572 Clouds 10 995 62 10000 5 240 17:24 20.05.2022
3573 Clouds 10 995 71 10000 6 250 16:19 20.05.2022
3574 Clouds 10 995 71 10000 8.05 270 15:47 20.05.2022
3575 Clouds 11 995 66 10000 7.15 250 14:30 20.05.2022
3576 Clouds 12 994 57 10000 8.05 240 13:55 20.05.2022
3577 Clouds 10 994 76 10000 8.94 230 11:38 20.05.2022
3578 Clouds 10 993 76 10000 9 220 10:19 20.05.2022
3579 Clouds 10 992 87 9000 10 220 08:45 20.05.2022
3580 Rain 10 991 93 10000 7.15 220 07:18 20.05.2022
3581 Rain 10 990 93 9000 7.15 220 06:32 20.05.2022
3582 Rain 10 990 93 5000 6 200 04:42 20.05.2022
3583 Clouds 9 990 93 10000 4.02 200 00:54 20.05.2022
3584 Clear 9 991 93 10000 3 180 22:48 19.05.2022
3585 Clear 9 991 93 10000 2 190 22:20 19.05.2022
3586 Clear 10 992 87 10000 3.13 170 21:48 19.05.2022
3587 Clouds 9 992 93 10000 1 0 21:22 19.05.2022
3588 Clear 9 992 93 10000 1 0 20:34 19.05.2022
3589 Clear 9 993 93 10000 2 140 19:50 19.05.2022
3590 Clouds 11 993 87 10000 4.02 140 18:22 19.05.2022
3591 Rain 11 995 93 10000 1 0 16:35 19.05.2022
3592 Rain 12 995 93 10000 2 310 14:52 19.05.2022
3593 Rain 12 995 93 10000 2 300 14:24 19.05.2022
3594 Rain 12 996 93 10000 3.13 210 13:20 19.05.2022
3595 Rain 16 996 67 10000 5 260 11:29 19.05.2022
3596 Clouds 21 996 35 10000 4.02 170 09:27 19.05.2022
3597 Clear 20 997 45 10000 3.13 180 07:50 19.05.2022
3598 Clear 16 998 63 10000 3.13 140 05:32 19.05.2022
3599 Clear 11 999 93 10000 4.02 80 02:23 19.05.2022
3600 Clouds 11 1002 93 10000 1 0 23:57 18.05.2022
3601 Clear 12 1001 87 10000 3.13 140 22:47 18.05.2022
3602 Clear 12 1002 87 10000 4.02 120 21:51 18.05.2022
3603 Clear 12 1002 87 10000 4.02 120 21:29 18.05.2022
3604 Clouds 12 1002 81 10000 4.02 130 20:41 18.05.2022
3605 Clouds 12 1003 87 10000 3.13 130 20:18 18.05.2022
3606 Clouds 12 1003 87 10000 3.13 110 18:28 18.05.2022
3607 Clouds 12 1003 93 10000 4.02 100 17:41 18.05.2022
3608 Clouds 13 1003 87 10000 4.02 100 17:23 18.05.2022
3609 Clouds 14 1003 82 10000 3.13 100 16:34 18.05.2022
3610 Clouds 14 1004 82 10000 3 200 15:41 18.05.2022
3611 Clouds 14 1003 87 10000 4.02 70 14:35 18.05.2022
3612 Thunderstorm 14 1004 82 10000 1 0 13:35 18.05.2022
3613 Clouds 15 1003 72 10000 4 100 12:42 18.05.2022
3614 Thunderstorm 14 1003 88 10000 3 140 11:34 18.05.2022
3615 Thunderstorm 16 1003 67 8000 5 240 10:56 18.05.2022
3616 Thunderstorm 16 1003 67 8000 5 240 10:56 18.05.2022
3617 Clouds 20 1002 49 10000 3.13 220 09:31 18.05.2022
3618 Clear 17 1002 59 10000 3.13 160 07:36 18.05.2022
3619 Clear 15 1001 72 10000 1 0 05:56 18.05.2022
3620 Clouds 7 999 93 10000 0 0 01:20 18.05.2022
3621 Clear 7 998 100 10000 1 0 00:22 18.05.2022
3622 Clear 9 997 93 10000 2 290 21:56 17.05.2022
3623 Clear 9 997 93 10000 2 280 21:20 17.05.2022
3624 Clear 10 996 87 10000 4.02 280 19:59 17.05.2022
3625 Clouds 11 996 87 10000 3.13 280 19:27 17.05.2022
3626 Clouds 13 995 76 10000 3.13 230 17:50 17.05.2022
3627 Thunderstorm 15 995 58 10000 2 350 16:59 17.05.2022
3628 Clouds 16 995 51 10000 3.13 10 16:29 17.05.2022
3629 Clear 16 994 63 10000 3.13 360 15:25 17.05.2022
3630 Clear 17 994 55 10000 4.02 360 14:30 17.05.2022
3631 Clear 17 993 55 10000 5 320 13:34 17.05.2022
3632 Clouds 17 993 51 10000 4.02 10 11:43 17.05.2022
3633 Clouds 13 993 81 10000 4.02 360 09:27 17.05.2022
3634 Clouds 13 993 76 10000 3.13 30 08:25 17.05.2022
3635 Clouds 14 993 77 10000 3 80 06:46 17.05.2022
3636 Clouds 11 994 93 10000 1 0 03:20 17.05.2022
3637 Clear 11 995 93 10000 1.79 90 00:43 17.05.2022
3638 Clouds 11 996 93 10000 3 280 22:43 16.05.2022
3639 Clouds 11 996 93 10000 1 0 21:41 16.05.2022
3640 Clouds 12 997 93 10000 1 0 20:47 16.05.2022
3641 Rain 12 998 87 9000 1.79 170 19:43 16.05.2022
3642 Rain 13 999 87 6000 4.02 160 18:20 16.05.2022
3643 Clear 18 999 45 10000 3.13 120 15:50 16.05.2022
3644 Clouds 19 1000 45 10000 2 310 13:56 16.05.2022
3645 Clouds 17 1000 55 10000 4.02 290 13:23 16.05.2022
3646 Clear 21 1000 32 10000 6 220 11:25 16.05.2022
3647 Clear 19 1001 39 10000 5 210 09:37 16.05.2022
3648 Clear 16 1002 51 10000 4.02 200 06:56 16.05.2022
3649 Clouds 13 1002 62 10000 3.13 210 03:58 16.05.2022
3650 Clear 9 1002 81 10000 0 0 23:38 15.05.2022
3651 Clear 11 1002 66 10000 0 0 22:32 15.05.2022
3652 Clear 11 1003 66 10000 0 0 21:47 15.05.2022
3653 Clouds 13 1002 58 10000 1 0 20:57 15.05.2022
3654 Clear 13 1002 58 10000 0 0 19:52 15.05.2022
3655 Clear 18 1002 39 10000 2 200 17:52 15.05.2022
3656 Clear 20 1002 30 10000 3 230 16:29 15.05.2022
3657 Clear 20 1002 30 10000 6 250 13:58 15.05.2022
3658 Clear 20 1002 30 10000 6 240 12:50 15.05.2022
3659 Clear 19 1002 37 10000 6 240 11:40 15.05.2022
3660 Clear 19 1002 42 10000 4.02 230 10:27 15.05.2022
3661 Clouds 16 1002 58 10000 4.02 230 08:45 15.05.2022
3662 Clouds 13 1002 87 10000 4.02 220 06:58 15.05.2022
3663 Clouds 13 1002 87 10000 4.02 240 05:52 15.05.2022
3664 Clouds 12 1002 93 10000 2 160 00:49 15.05.2022
3665 Clouds 12 1002 93 10000 3 160 23:39 14.05.2022
3666 Clouds 13 1002 87 10000 3.13 150 22:59 14.05.2022
3667 Clouds 12 1003 100 10000 2 90 21:29 14.05.2022
3668 Rain 14 1003 76 10000 1 0 20:53 14.05.2022
3669 Clouds 14 1003 76 10000 0.89 0 19:38 14.05.2022
3670 Clouds 15 1003 62 10000 0 0 19:19 14.05.2022
3671 Clouds 16 1003 58 10000 1 210 18:44 14.05.2022
3672 Clouds 17 1003 55 10000 4.02 230 16:46 14.05.2022
3673 Clear 21 1002 35 10000 5 210 15:30 14.05.2022
3674 Clouds 22 1002 33 10000 5 190 14:34 14.05.2022
3675 Clouds 23 1001 31 10000 6 200 12:24 14.05.2022
3676 Rain 21 1002 35 9000 5 170 10:59 14.05.2022
3677 Clouds 24 1001 25 10000 6 160 10:21 14.05.2022
3678 Clouds 24 1001 25 10000 7.15 150 09:53 14.05.2022
3679 Clear 25 1002 22 10000 7.15 160 08:49 14.05.2022
3680 Clear 20 1003 37 10000 5 130 06:41 14.05.2022
3681 Clear 10 1007 81 10000 3 100 02:39 14.05.2022
3682 Clear 10 1008 87 10000 3.13 90 23:36 13.05.2022
3683 Clear 11 1009 81 10000 4.02 90 22:58 13.05.2022
3684 Clear 10 1009 87 10000 2 80 22:27 13.05.2022
3685 Clear 11 1009 81 10000 3.13 90 21:52 13.05.2022
3686 Clear 12 1010 81 10000 4.02 100 20:45 13.05.2022
3687 Clear 13 1010 76 10000 4.02 90 20:27 13.05.2022
3688 Clear 15 1010 62 10000 4.02 100 19:28 13.05.2022
3689 Clear 16 1011 58 10000 2 80 17:50 13.05.2022
3690 Clear 17 1011 55 10000 3.13 90 17:27 13.05.2022
3691 Clear 19 1011 45 10000 4.02 120 16:20 13.05.2022
3692 Clear 20 1012 39 10000 2 180 15:28 13.05.2022
3693 Clear 20 1012 37 10000 3 200 13:41 13.05.2022
3694 Clear 20 1013 39 10000 3.13 190 12:28 13.05.2022
3695 Clear 18 1014 45 10000 3.13 300 10:53 13.05.2022
3696 Clouds 17 1015 55 10000 3.13 210 09:34 13.05.2022
3697 Clouds 16 1015 58 10000 3.13 220 08:24 13.05.2022
3698 Clouds 16 1015 63 10000 4.02 190 07:48 13.05.2022
3699 Clouds 14 1016 76 10000 2 210 06:33 13.05.2022
3700 Clouds 11 1015 93 10000 1 0 02:48 13.05.2022
3701 Clear 11 1015 87 10000 2 240 23:56 12.05.2022
3702 Clear 12 1015 81 10000 3.13 230 22:44 12.05.2022
3703 Clear 13 1015 71 10000 3.13 230 21:54 12.05.2022
3704 Clear 13 1014 71 10000 2 200 20:27 12.05.2022
3705 Clear 16 1014 55 10000 2 250 18:51 12.05.2022
3706 Clear 18 1014 42 10000 2 210 16:58 12.05.2022
3707 Clear 18 1014 39 10000 2 200 15:50 12.05.2022
3708 Clear 19 1014 34 10000 4.02 140 14:40 12.05.2022
3709 Clear 19 1014 37 10000 5 170 13:38 12.05.2022
3710 Clear 18 1015 34 10000 5 200 10:45 12.05.2022
3711 Clear 18 1015 27 10000 5 140 09:28 12.05.2022
3712 Clear 18 1015 27 10000 5 150 08:50 12.05.2022
3713 Clear 16 1015 31 10000 4.02 140 07:40 12.05.2022
3714 Clear 14 1016 38 10000 3.13 160 05:46 12.05.2022
3715 Clear 11 1016 46 10000 2 160 02:49 12.05.2022
3716 Clear 12 1016 43 10000 3.13 140 00:35 12.05.2022
3717 Clear 12 1017 46 10000 2 130 22:34 11.05.2022
3718 Clear 12 1017 43 10000 2 130 21:38 11.05.2022
3719 Clear 13 1017 40 10000 2 140 20:55 11.05.2022
3720 Clear 16 1017 33 10000 3.13 170 18:33 11.05.2022
3721 Clear 18 1017 32 10000 3 170 16:53 11.05.2022
3722 Clear 19 1017 29 10000 3.13 150 14:58 11.05.2022
3723 Clear 19 1017 29 10000 4 160 14:38 11.05.2022
3724 Clear 19 1018 27 10000 4.02 160 14:18 11.05.2022
3725 Clear 20 1019 26 10000 8.05 160 11:52 11.05.2022
3726 Clear 20 1019 28 10000 5 180 10:44 11.05.2022
3727 Clear 19 1020 29 10000 5 190 08:40 11.05.2022
3728 Clear 15 1021 41 10000 2 210 05:27 11.05.2022
3729 Clear 12 1020 46 10000 2 170 00:42 11.05.2022
3730 Clear 10 1020 53 10000 1 0 22:31 10.05.2022
3731 Clear 11 1020 50 10000 2 140 21:56 10.05.2022
3732 Clear 12 1020 46 10000 1 100 20:56 10.05.2022
3733 Clear 15 1021 38 10000 3.13 140 19:27 10.05.2022
3734 Clear 17 1020 33 10000 2 160 17:58 10.05.2022
3735 Clear 18 1020 29 10000 2 160 17:21 10.05.2022
3736 Clear 21 1020 22 10000 4.02 180 15:28 10.05.2022
3737 Clear 22 1021 19 10000 4.02 200 12:39 10.05.2022
3738 Clear 22 1021 19 10000 5 170 11:50 10.05.2022
3739 Clear 22 1022 18 10000 4.02 220 11:20 10.05.2022
3740 Clear 22 1022 19 10000 3.13 230 10:26 10.05.2022
3741 Clear 21 1022 22 10000 4.02 200 09:25 10.05.2022
3742 Clear 18 1023 34 10000 4.02 180 06:54 10.05.2022
3743 Clear 10 1023 61 10000 1 0 03:30 10.05.2022
3744 Clear 6 1022 75 10000 2 30 00:57 10.05.2022
3745 Clear 9 1022 61 10000 2 160 22:56 09.05.2022
3746 Clear 10 1022 61 10000 2 130 21:50 09.05.2022
3747 Clear 11 1022 58 10000 2 120 20:52 09.05.2022
3748 Clear 11 1022 53 10000 2 150 19:23 09.05.2022
3749 Clear 13 1022 47 10000 3 110 17:51 09.05.2022
3750 Clear 16 1022 36 10000 2 170 16:34 09.05.2022
3751 Clear 17 1022 34 10000 3 180 15:52 09.05.2022
3752 Clear 18 1022 29 10000 3.13 200 15:24 09.05.2022
3753 Clear 19 1022 25 10000 4.02 230 14:29 09.05.2022
3754 Clouds 18 1022 27 10000 4.02 210 13:49 09.05.2022
3755 Clouds 17 1022 33 10000 6 220 12:26 09.05.2022
3756 Clouds 18 1022 29 10000 5 230 11:32 09.05.2022
3757 Clouds 18 1022 31 10000 5 240 10:42 09.05.2022
3758 Clear 17 1022 39 10000 4 230 08:45 09.05.2022
3759 Clear 15 1022 47 10000 3 230 07:54 09.05.2022
3760 Clouds 7 1022 81 10000 2 180 03:21 09.05.2022
3761 Clear 6 1022 81 10000 2 160 23:37 08.05.2022
3762 Clear 6 1023 81 10000 3 160 22:55 08.05.2022
3763 Clear 5 1023 81 10000 3 160 21:55 08.05.2022
3764 Clear 5 1023 81 10000 3 150 20:35 08.05.2022
3765 Clear 4 1023 86 10000 3 160 19:45 08.05.2022
3766 Clear 5 1023 81 10000 2 150 18:54 08.05.2022
3767 Clear 6 1023 75 10000 1 120 17:59 08.05.2022
3768 Clear 8 1024 66 10000 3 210 16:44 08.05.2022
3769 Clear 8 1024 61 10000 3 210 15:39 08.05.2022
3770 Clear 8 1024 61 10000 4 210 14:45 08.05.2022
3771 Clouds 7 1024 56 10000 5 220 12:27 08.05.2022
3772 Clouds 6 1024 56 10000 5 200 10:32 08.05.2022
3773 Clouds 6 1024 56 10000 5 220 09:57 08.05.2022
3774 Clouds 6 1024 56 10000 4 220 08:56 08.05.2022
3775 Clear 5 1024 56 10000 5 220 07:25 08.05.2022
3776 Clear 0 1023 74 10000 3.13 240 03:40 08.05.2022
3777 Clear -2 1022 79 10000 2 230 02:45 08.05.2022
3778 Clear -6 1022 92 10000 0 0 00:28 08.05.2022
3779 Clear -6 1022 85 10000 1 110 23:50 07.05.2022
3780 Clear -6 1022 85 10000 2 100 22:46 07.05.2022
3781 Clear -5 1022 80 10000 2 110 21:59 07.05.2022
3782 Clear -5 1022 74 10000 2 100 21:34 07.05.2022
3783 Clear -4 1021 68 10000 1 90 20:28 07.05.2022
3784 Clear -4 1021 74 10000 1 0 19:44 07.05.2022
3785 Clear -2 1021 64 10000 0 0 17:35 07.05.2022
3786 Clear 1 1021 47 10000 4 320 15:46 07.05.2022
3787 Clear 1 1020 43 10000 8.05 320 13:39 07.05.2022
3788 Clouds -1 1019 46 10000 10 300 10:41 07.05.2022
3789 Clouds -2 1017 54 10000 11.18 300 09:19 07.05.2022
3790 Clouds -3 1016 58 10000 10 320 07:50 07.05.2022
3791 Clouds -3 1015 58 9000 11 320 06:43 07.05.2022
3792 Clouds -4 1011 62 8000 9.83 320 04:41 07.05.2022
3793 Clouds -3 1007 73 8000 10 320 01:19 07.05.2022
3794 Clouds -2 1004 64 8000 9 340 23:36 06.05.2022
3795 Clouds -3 1003 68 2200 13 360 22:26 06.05.2022
3796 Clouds -3 1002 73 1000 12 350 21:41 06.05.2022
3797 Clouds -3 1001 86 450 13 340 20:24 06.05.2022
3798 Clouds -3 1000 92 700 13 350 19:29 06.05.2022
3799 Snow -3 1000 92 800 12.07 360 18:56 06.05.2022
3800 Snow -3 999 92 350 12.96 360 17:38 06.05.2022
3801 Snow -2 997 92 150 10 20 15:56 06.05.2022
3802 Snow -2 997 92 200 9.83 20 15:38 06.05.2022
3803 Snow -1 998 86 1600 8.05 30 14:23 06.05.2022
3804 Clouds 0 998 92 10000 9 30 12:53 06.05.2022
3805 Clouds 1 998 86 10000 7.15 30 12:30 06.05.2022
3806 Clouds 1 997 86 10000 10 60 11:38 06.05.2022
3807 Clouds 1 1000 93 10000 6 50 09:49 06.05.2022
3808 Clouds 1 1000 93 10000 6 50 09:19 06.05.2022
3809 Clouds 1 1001 93 10000 9 70 07:57 06.05.2022
3810 Snow 0 1003 100 2400 9 70 06:29 06.05.2022
3811 Snow 0 1006 100 1900 8.05 70 04:37 06.05.2022
3812 Snow 1 1008 93 1400 7.15 60 02:43 06.05.2022
3813 Snow 2 1010 93 10000 4.02 100 23:34 05.05.2022
3814 Clear 3 1011 80 10000 3.13 100 21:52 05.05.2022
3815 Clear 3 1011 80 10000 4.02 90 20:53 05.05.2022
3816 Clear 3 1011 80 10000 2 50 19:49 05.05.2022
3817 Clouds 4 1011 80 10000 2 20 16:53 05.05.2022
3818 Clouds 4 1010 80 10000 2 20 15:52 05.05.2022
3819 Clouds 4 1010 86 10000 5.81 10 14:37 05.05.2022
3820 Clouds 4 1009 86 10000 4.02 360 13:18 05.05.2022
3821 Rain 3 1008 93 10000 6 350 12:24 05.05.2022
3822 Clear 6 1006 70 10000 8.05 330 10:30 05.05.2022
3823 Clear 10 1004 49 10000 8.05 320 09:34 05.05.2022
3824 Clear 14 1003 30 10000 8.05 240 07:19 05.05.2022
3825 Clear 9 1003 42 10000 5 190 02:33 05.05.2022
3826 Clear 9 1003 42 10000 5 190 01:47 05.05.2022
3827 Clear 10 1003 40 10000 6 190 01:20 05.05.2022
3828 Clear 10 1004 39 10000 6 190 23:28 04.05.2022
3829 Clear 10 1005 42 10000 6 190 22:25 04.05.2022
3830 Clear 10 1005 42 10000 6 190 21:48 04.05.2022
3831 Clear 10 1005 42 10000 6 190 21:26 04.05.2022
3832 Clear 11 1006 40 10000 7.15 190 20:22 04.05.2022
3833 Clear 11 1006 40 10000 6 190 19:51 04.05.2022
3834 Clear 12 1006 37 10000 6 190 18:45 04.05.2022
3835 Clear 12 1007 37 10000 5 190 18:20 04.05.2022
3836 Clear 13 1006 33 10000 5 190 17:28 04.05.2022
3837 Clear 14 1007 30 10000 6 200 15:38 04.05.2022
3838 Clear 15 1007 28 10000 7 200 14:49 04.05.2022
3839 Clear 15 1007 28 10000 6 200 14:20 04.05.2022
3840 Clear 14 1008 33 10000 8.05 190 12:58 04.05.2022
3841 Clear 14 1008 30 10000 8.05 190 12:24 04.05.2022
3842 Clear 13 1009 32 10000 9 200 10:30 04.05.2022
3843 Clear 12 1010 32 10000 7.15 190 09:23 04.05.2022
3844 Clouds 10 1011 34 10000 7.15 190 08:33 04.05.2022
3845 Clear 6 1013 38 10000 7.15 200 05:44 04.05.2022
3846 Clear 1 1015 50 10000 4.02 200 02:43 04.05.2022
3847 Clear 0 1015 50 10000 4.02 200 23:31 03.05.2022
3848 Clear 1 1015 47 10000 4.02 190 22:20 03.05.2022
3849 Clear 1 1015 47 10000 3.13 190 21:33 03.05.2022
3850 Clear 1 1015 47 10000 3.13 200 20:52 03.05.2022
3851 Clear 1 1015 51 10000 3 190 19:39 03.05.2022
3852 Clear 1 1015 51 10000 3 190 18:48 03.05.2022
3853 Clear 3 1015 44 10000 2 220 17:34 03.05.2022
3854 Clear 3 1015 41 10000 3 290 16:28 03.05.2022
3855 Clear 4 1014 41 10000 5 300 14:43 03.05.2022
3856 Clear 4 1013 44 10000 6 330 12:47 03.05.2022
3857 Clear 4 1013 44 10000 6 320 12:25 03.05.2022
3858 Clouds 3 1012 51 10000 5 320 10:52 03.05.2022
3859 Clouds 4 1011 65 10000 5 270 08:38 03.05.2022
3860 Clear 2 1010 74 10000 4.02 220 06:46 03.05.2022
3861 Clear -2 1009 86 10000 3.13 320 03:34 03.05.2022
3862 Snow -1 1006 100 6000 7.15 320 23:44 02.05.2022
3863 Snow 0 1004 92 900 8.05 310 22:34 02.05.2022
3864 Snow 0 1004 100 1400 7.15 320 21:49 02.05.2022
3865 Snow 0 1003 100 2300 5 290 20:50 02.05.2022
3866 Snow 1 1002 93 6000 4.02 250 18:35 02.05.2022
3867 Snow 1 1002 93 5000 4.02 260 17:44 02.05.2022
3868 Rain 3 1002 93 10000 5 240 16:50 02.05.2022
3869 Rain 4 1002 75 10000 8.05 250 15:56 02.05.2022
3870 Clear 7 1001 39 10000 1 0 14:57 02.05.2022
3871 Clear 7 1002 42 10000 2 240 13:48 02.05.2022
3872 Clear 7 1002 36 10000 1 0 12:18 02.05.2022
3873 Clear 8 1002 31 10000 1 0 10:20 02.05.2022
3874 Clear 7 1002 36 10000 2 310 08:46 02.05.2022
3875 Clouds 7 1003 36 10000 2 250 07:30 02.05.2022
3876 Clear -2 1006 74 10000 2 90 01:28 02.05.2022
3877 Clear -2 1007 74 10000 1 0 00:23 02.05.2022
3878 Clear -1 1007 68 10000 2 110 23:46 01.05.2022
3879 Clear -2 1009 74 10000 3.13 90 21:56 01.05.2022
3880 Clear -1 1009 68 10000 3.13 80 20:50 01.05.2022
3881 Clear 0 1010 64 10000 3 90 19:46 01.05.2022
3882 Clear 1 1011 55 10000 2 100 18:53 01.05.2022
3883 Clear 3 1011 44 10000 2 90 17:57 01.05.2022
3884 Clear 6 1012 31 10000 2 160 16:46 01.05.2022
3885 Clear 7 1012 29 10000 3 160 16:23 01.05.2022
3886 Clear 7 1012 26 10000 4 150 15:22 01.05.2022
3887 Clear 7 1014 30 10000 2 200 13:23 01.05.2022
3888 Clear 7 1017 28 10000 5 180 10:46 01.05.2022
3889 Clear 6 1018 33 10000 6 210 08:51 01.05.2022
3890 Clear 4 1020 44 10000 6 190 06:53 01.05.2022
3891 Clear -1 1021 63 10000 0 0 02:51 01.05.2022
3892 Clear -3 1021 73 10000 0 0 22:58 30.04.2022
3893 Clear -3 1021 79 10000 0 0 21:35 30.04.2022
3894 Clear -3 1021 79 10000 0 0 20:35 30.04.2022
3895 Clear -2 1021 69 10000 1 250 19:33 30.04.2022
3896 Clear 0 1021 55 10000 0 0 17:38 30.04.2022
3897 Clear 3 1021 44 10000 4 280 16:34 30.04.2022
3898 Clear 4 1021 44 10000 5 290 15:19 30.04.2022
3899 Clear 3 1021 40 10000 5 260 14:31 30.04.2022
3900 Clear 3 1021 37 10000 4.02 290 12:36 30.04.2022
3901 Clouds 3 1021 44 10000 5 270 11:32 30.04.2022
3902 Clouds 2 1021 43 10000 4.02 290 10:31 30.04.2022
3903 Clouds 1 1022 50 10000 4.02 300 08:34 30.04.2022
3904 Clouds -1 1021 74 10000 2 270 05:19 30.04.2022
3905 Clouds -1 1020 80 10000 2 330 00:35 30.04.2022
3906 Clouds -1 1020 74 10000 4 330 23:36 29.04.2022
3907 Clouds -1 1020 74 10000 3.13 320 22:30 29.04.2022
3908 Clouds -1 1020 80 10000 4.02 330 21:26 29.04.2022
3909 Clouds -1 1019 80 10000 4 330 20:36 29.04.2022
3910 Clouds 0 1019 80 10000 3.13 320 19:36 29.04.2022
3911 Clouds 0 1019 80 10000 4.02 310 17:48 29.04.2022
3912 Clouds 1 1018 74 10000 4.02 310 16:43 29.04.2022
3913 Clouds 1 1017 74 10000 6 290 14:38 29.04.2022
3914 Clouds 1 1017 74 10000 6 290 14:38 29.04.2022
3915 Clouds 1 1017 74 10000 6 290 14:38 29.04.2022
3916 Clouds 1 1016 80 10000 7.15 290 13:59 29.04.2022
3917 Clouds 2 1016 74 10000 8.05 290 12:41 29.04.2022
3918 Clouds 3 1013 80 10000 9 280 10:57 29.04.2022
3919 Clouds 4 1009 93 10000 9 260 08:18 29.04.2022
3920 Drizzle 4 1007 100 9000 10 250 07:27 29.04.2022
3921 Mist 4 1007 100 2300 7.15 250 06:34 29.04.2022
3922 Fog 2 1005 100 100 1 0 03:23 29.04.2022
3923 Fog 2 1006 100 150 2 90 00:18 29.04.2022
3924 Fog 2 1006 100 300 2 90 23:26 28.04.2022
3925 Fog 2 1006 100 500 2 70 22:37 28.04.2022
3926 Fog 2 1006 100 500 3.13 80 21:45 28.04.2022
3927 Mist 2 1006 100 2700 2 80 20:49 28.04.2022
3928 Fog 2 1006 100 500 2 40 19:57 28.04.2022
3929 Fog 2 1006 100 500 2 40 19:39 28.04.2022
3930 Mist 2 1006 100 1500 2 20 19:19 28.04.2022
3931 Clouds 3 1007 100 6000 2 50 17:56 28.04.2022
3932 Clouds 3 1007 100 10000 3.13 120 16:58 28.04.2022
3933 Clouds 3 1007 100 10000 3.13 130 16:21 28.04.2022
3934 Clouds 3 1007 100 10000 2 80 15:52 28.04.2022
3935 Rain 3 1008 100 10000 4.02 20 15:21 28.04.2022
3936 Rain 4 1008 100 9000 3.13 350 13:43 28.04.2022
3937 Clouds 5 1009 93 10000 2 290 12:32 28.04.2022
3938 Clouds 5 1009 93 10000 3.13 260 11:51 28.04.2022
3939 Clouds 5 1009 93 10000 5 260 10:29 28.04.2022
3940 Clouds 6 1009 93 10000 6 260 09:50 28.04.2022
3941 Mist 6 1009 100 4300 7.15 250 07:45 28.04.2022
3942 Mist 7 1007 100 3200 6 250 06:54 28.04.2022
3943 Mist 7 1007 100 2400 7.15 260 05:54 28.04.2022
3944 Fog 8 1006 100 550 5 240 04:43 28.04.2022
3945 Fog 8 1006 100 150 1 0 03:28 28.04.2022
3946 Fog 8 1006 100 300 2 140 23:43 27.04.2022
3947 Fog 8 1007 100 100 1 0 22:25 27.04.2022
3948 Fog 8 1007 100 100 0 0 21:50 27.04.2022
3949 Fog 9 1007 100 200 2 160 20:51 27.04.2022
3950 Rain 9 1008 93 200 3.13 170 20:32 27.04.2022
3951 Fog 8 1008 100 150 1.79 170 19:36 27.04.2022
3952 Fog 8 1008 100 600 2 170 18:45 27.04.2022
3953 Rain 8 1008 100 4100 3.13 180 18:21 27.04.2022
3954 Fog 8 1008 93 10000 0 0 16:21 27.04.2022
3955 Clear 13 1007 58 10000 4 230 13:29 27.04.2022
3956 Clear 13 1007 54 10000 6 220 11:37 27.04.2022
3957 Clear 13 1007 54 10000 7 220 11:18 27.04.2022
3958 Rain 9 1007 61 10000 4 190 08:53 27.04.2022
3959 Clouds 9 1009 45 10000 5 190 06:44 27.04.2022
3960 Clear 5 1011 52 10000 5 180 03:30 27.04.2022
3961 Clear 1 1013 69 10000 3.13 140 01:27 27.04.2022
3962 Clear 1 1014 64 10000 3.13 140 00:35 27.04.2022
3963 Clear 2 1014 59 10000 4.02 150 23:24 26.04.2022
3964 Clear 2 1015 59 10000 4.02 160 22:52 26.04.2022
3965 Clear 2 1015 59 10000 4.02 140 22:32 26.04.2022
3966 Clear 1 1015 64 10000 3.13 130 21:25 26.04.2022
3967 Clear 1 1016 64 10000 4.02 130 20:40 26.04.2022
3968 Clear 1 1016 64 10000 4.02 130 20:40 26.04.2022
3969 Clear 1 1016 64 10000 4.02 120 19:48 26.04.2022
3970 Clear -1 1016 74 10000 3.13 110 19:26 26.04.2022
3971 Clear -1 1017 74 10000 0 0 18:40 26.04.2022
3972 Clear 0 1017 69 10000 0 0 17:50 26.04.2022
3973 Clear 4 1017 44 10000 2 360 16:19 26.04.2022
3974 Clear 5 1017 52 10000 4 350 13:58 26.04.2022
3975 Clear 5 1017 52 10000 5 340 13:29 26.04.2022
3976 Clear 4 1016 55 10000 4.02 360 11:32 26.04.2022
3977 Clear 4 1016 55 10000 5 10 10:31 26.04.2022
3978 Clear 4 1016 55 10000 5 350 08:47 26.04.2022
3979 Clear 3 1014 65 10000 4 360 05:46 26.04.2022
3980 Clear 1 1014 74 10000 4.02 360 04:23 26.04.2022
3981 Clear -1 1012 86 10000 2 50 00:53 26.04.2022
3982 Clear 0 1011 80 10000 3.13 40 23:52 25.04.2022
3983 Clear 1 1011 74 10000 1 100 22:18 25.04.2022
3984 Clear 3 1011 64 10000 2 80 21:33 25.04.2022
3985 Clear 3 1011 64 10000 3.13 90 20:26 25.04.2022
3986 Clear 4 1011 60 10000 3 70 18:52 25.04.2022
3987 Clear 4 1011 60 10000 3 80 17:40 25.04.2022
3988 Clear 5 1011 56 10000 3 70 16:50 25.04.2022
3989 Clear 7 1011 53 10000 4 70 15:23 25.04.2022
3990 Clear 10 1011 37 10000 2 90 14:34 25.04.2022
3991 Clear 11 1011 25 10000 3 300 13:21 25.04.2022
3992 Clear 10 1011 32 10000 3 210 10:44 25.04.2022
3993 Clear 9 1011 34 10000 2 220 09:42 25.04.2022
3994 Clear 7 1011 42 10000 3 220 07:56 25.04.2022
3995 Clear 5 1012 48 10000 3 220 05:55 25.04.2022
3996 Clear 3 1012 55 10000 5 250 01:49 25.04.2022
3997 Clear 3 1013 51 10000 4.02 220 23:57 24.04.2022
3998 Clear 3 1013 51 10000 4.02 220 23:28 24.04.2022
3999 Clear 3 1013 51 10000 4.02 220 22:39 24.04.2022
4000 Clear 2 1014 55 10000 3.13 190 21:56 24.04.2022
4001 Clear 2 1014 55 10000 2 200 21:22 24.04.2022
4002 Clear 2 1014 55 10000 2 200 21:22 24.04.2022
4003 Clear 3 1014 47 10000 2 210 20:46 24.04.2022
4004 Clear 3 1015 51 10000 2 210 20:21 24.04.2022
4005 Clear 3 1016 51 10000 3.13 190 18:44 24.04.2022
4006 Clear 3 1016 47 10000 3.13 190 17:54 24.04.2022
4007 Clear 3 1016 47 10000 3.13 190 17:54 24.04.2022
4008 Clear 3 1017 47 10000 3.13 190 17:21 24.04.2022
4009 Clear 3 1017 47 10000 2 200 16:55 24.04.2022
4010 Clear 4 1017 48 10000 2 200 16:29 24.04.2022
4011 Clear 4 1017 45 10000 3 230 15:43 24.04.2022
4012 Clear 4 1018 41 10000 4 220 14:36 24.04.2022
4013 Clear 4 1018 38 10000 6 210 13:27 24.04.2022
4014 Clear 4 1018 38 10000 6 220 12:56 24.04.2022
4015 Clear 3 1019 40 10000 6 220 11:50 24.04.2022
4016 Clear 2 1020 40 10000 6 220 10:47 24.04.2022
4017 Clear 1 1020 43 10000 6 220 09:47 24.04.2022
4018 Clear -1 1021 46 10000 5 220 07:55 24.04.2022
4019 Clear -4 1022 58 10000 4.02 220 05:45 24.04.2022
4020 Clear -12 1023 85 10000 0 0 02:30 24.04.2022
4021 Clear -12 1022 78 10000 0 0 00:45 24.04.2022
4022 Clear -11 1023 85 10000 0 0 23:46 23.04.2022
4023 Clear -12 1023 92 10000 0 0 23:25 23.04.2022
4024 Clear -11 1023 85 10000 2 280 21:59 23.04.2022
4025 Clear -10 1022 79 10000 2 280 21:38 23.04.2022
4026 Clear -10 1023 85 10000 1 290 20:59 23.04.2022
4027 Clear -9 1023 78 10000 2 290 19:56 23.04.2022
4028 Clear -8 1023 72 10000 3.13 340 19:20 23.04.2022
4029 Clear -8 1023 72 10000 3.13 330 18:53 23.04.2022
4030 Clear -8 1023 72 10000 2 330 18:31 23.04.2022
4031 Clear -8 1023 72 10000 2 320 17:44 23.04.2022
4032 Clear -7 1023 73 10000 4.02 330 16:44 23.04.2022
4033 Clear -5 1023 62 10000 5 330 15:36 23.04.2022
4034 Clear -5 1022 62 10000 7.15 340 12:59 23.04.2022
4035 Clear -6 1022 67 10000 8.05 330 11:24 23.04.2022
4036 Clouds -7 1021 67 10000 8.05 330 09:38 23.04.2022
4037 Clouds -9 1020 72 10000 7.15 330 07:52 23.04.2022
4038 Snow -11 1018 78 7000 6 330 03:56 23.04.2022
4039 Snow -10 1018 85 2800 5 340 01:59 23.04.2022
4040 Snow -9 1017 78 3600 3.13 330 23:34 22.04.2022
4041 Snow -10 1017 85 5000 3.13 330 22:32 22.04.2022
4042 Snow -10 1017 85 5000 3.13 320 21:44 22.04.2022
4043 Snow -11 1017 85 8000 4.02 320 21:20 22.04.2022
4044 Snow -11 1017 78 7000 4.02 310 20:28 22.04.2022
4045 Clear -12 1017 85 10000 3.13 300 19:23 22.04.2022
4046 Clouds -12 1017 78 10000 3.13 290 18:52 22.04.2022
4047 Clouds -11 1017 66 10000 3.13 300 17:54 22.04.2022
4048 Clouds -10 1017 61 10000 3.13 320 16:52 22.04.2022
4049 Clouds -10 1016 56 10000 3.13 330 15:56 22.04.2022
4050 Clouds -9 1016 56 10000 4.02 340 15:22 22.04.2022
4051 Clouds -8 1016 52 10000 5 330 13:54 22.04.2022
4052 Snow -9 1015 61 10000 5 330 13:27 22.04.2022
4053 Snow -9 1015 61 1100 6 320 12:29 22.04.2022
4054 Snow -9 1014 61 9000 5 330 11:22 22.04.2022
4055 Snow -10 1014 66 7000 6 320 10:52 22.04.2022
4056 Snow -10 1014 72 8000 7.15 300 10:31 22.04.2022
4057 Clouds -9 1013 61 10000 7.15 290 09:53 22.04.2022
4058 Snow -10 1013 66 7000 6 320 08:56 22.04.2022
4059 Snow -10 1012 61 5000 7.15 290 07:44 22.04.2022
4060 Snow -11 1011 72 10000 7.15 310 05:20 22.04.2022
4061 Clouds -11 1011 78 10000 5 280 00:53 22.04.2022
4062 Snow -11 1011 85 10000 5 280 23:28 21.04.2022
4063 Clouds -11 1011 78 10000 4.02 320 22:29 21.04.2022
4064 Snow -10 1012 85 6000 5 300 20:55 21.04.2022
4065 Snow -10 1012 78 10000 4.02 290 20:26 21.04.2022
4066 Snow -10 1012 72 9000 4.02 300 18:48 21.04.2022
4067 Clouds -10 1013 72 10000 4.02 290 18:19 21.04.2022
4068 Snow -10 1013 78 6000 5 330 16:49 21.04.2022
4069 Clouds -8 1012 61 10000 6 350 15:23 21.04.2022
4070 Snow -8 1012 61 10000 5 330 14:51 21.04.2022
4071 Snow -8 1012 67 6000 6 340 13:52 21.04.2022
4072 Snow -8 1012 72 9000 7.15 350 13:19 21.04.2022
4073 Clouds -7 1012 52 10000 7.15 350 11:25 21.04.2022
4074 Clouds -7 1011 52 10000 7.15 350 08:59 21.04.2022
4075 Clouds -7 1011 67 10000 6 10 07:55 21.04.2022
4076 Clear -7 1011 57 10000 5 10 06:21 21.04.2022
4077 Clear -7 1010 73 10000 3.13 50 03:35 21.04.2022
4078 Clear -7 1010 73 10000 3.13 30 02:48 21.04.2022
4079 Clear -7 1010 73 10000 3.13 20 01:50 21.04.2022
4080 Clear -6 1010 67 10000 3.13 40 23:53 20.04.2022
4081 Clear -6 1010 73 10000 3.13 40 23:23 20.04.2022
4082 Clear -5 1010 74 10000 3 30 22:51 20.04.2022
4083 Clear -5 1009 73 10000 4.02 30 22:32 20.04.2022
4084 Clouds -3 1009 68 10000 6 30 21:33 20.04.2022
4085 Clouds -2 1009 80 10000 5 30 20:42 20.04.2022
4086 Clouds -1 1008 80 10000 4 350 19:53 20.04.2022
4087 Clouds -1 1008 80 10000 5 360 19:25 20.04.2022
4088 Snow -1 1008 92 4600 6 360 18:33 20.04.2022
4089 Clouds 1 1007 93 9000 6 340 16:58 20.04.2022
4090 Rain 1 1007 93 10000 5.81 340 16:38 20.04.2022
4091 Clouds 4 1007 69 10000 5 300 14:48 20.04.2022
4092 Clear 5 1007 60 10000 7 270 11:56 20.04.2022
4093 Clear 4 1007 64 10000 8.05 280 11:29 20.04.2022
4094 Clouds 4 1007 64 10000 8.05 280 10:27 20.04.2022
4095 Clouds 5 1007 60 10000 5 250 09:26 20.04.2022
4096 Clouds 4 1008 64 10000 5 250 08:24 20.04.2022
4097 Clouds 4 1008 64 10000 5 250 08:24 20.04.2022
4098 Clouds 4 1008 64 10000 5 270 07:42 20.04.2022
4099 Clear 3 1009 74 10000 4.92 280 04:37 20.04.2022
4100 Clear 2 1010 74 10000 3.13 280 00:55 20.04.2022
4101 Clear 2 1010 69 10000 3.13 280 00:20 20.04.2022
4102 Clear 2 1011 69 10000 3.13 280 22:28 19.04.2022
4103 Clear 2 1012 69 10000 3.13 270 21:57 19.04.2022
4104 Clear 2 1012 74 10000 3.13 280 21:34 19.04.2022
4105 Clear 2 1012 69 10000 3.13 280 20:50 19.04.2022
4106 Clear 3 1012 59 10000 4.02 260 20:32 19.04.2022
4107 Clear 3 1013 64 10000 3.13 280 19:24 19.04.2022
4108 Clear 4 1013 51 10000 2 280 17:59 19.04.2022
4109 Clear 4 1013 55 10000 0 0 16:44 19.04.2022
4110 Clear 5 1014 48 10000 1 300 16:24 19.04.2022
4111 Clear 6 1014 45 10000 4 290 14:51 19.04.2022
4112 Clear 6 1015 52 10000 4 290 14:30 19.04.2022
4113 Clear 5 1015 48 10000 6 280 12:51 19.04.2022
4114 Clear 5 1015 52 10000 5 270 12:26 19.04.2022
4115 Clear 4 1015 55 10000 6 280 11:22 19.04.2022
4116 Clear 4 1016 51 10000 5 240 09:25 19.04.2022
4117 Clear 2 1016 64 10000 6 280 06:34 19.04.2022
4118 Clear 2 1015 59 10000 6 260 04:19 19.04.2022
4119 Clear 2 1016 64 10000 5 250 00:56 19.04.2022
4120 Clear 2 1016 64 10000 6 270 23:38 18.04.2022
4121 Clear 2 1017 64 10000 6 260 21:39 18.04.2022
4122 Clear 2 1017 64 10000 6 260 21:20 18.04.2022
4123 Clear 2 1017 64 10000 5 260 20:36 18.04.2022
4124 Clear 2 1018 59 10000 5 250 19:59 18.04.2022
4125 Clear 2 1018 59 10000 5 250 19:27 18.04.2022
4126 Clear 1 1018 64 10000 4.02 250 18:33 18.04.2022
4127 Clear 2 1018 55 10000 3.13 240 17:38 18.04.2022
4128 Clear 2 1018 55 10000 3.13 240 17:18 18.04.2022
4129 Clear 3 1018 51 10000 5 250 16:35 18.04.2022
4130 Clear 3 1018 51 10000 5 250 16:35 18.04.2022
4131 Clear 3 1019 51 10000 7.15 280 15:27 18.04.2022
4132 Clear 3 1020 48 10000 6 250 13:42 18.04.2022
4133 Clear 3 1020 48 10000 6 250 13:42 18.04.2022
4134 Clouds 3 1020 51 10000 6 240 12:40 18.04.2022
4135 Clouds 2 1021 51 10000 7.15 260 11:43 18.04.2022
4136 Clouds 1 1021 50 10000 7.15 290 10:43 18.04.2022
4137 Clouds 1 1021 50 10000 6 270 09:31 18.04.2022
4138 Clouds 1 1022 64 10000 4.02 230 08:29 18.04.2022
4139 Clouds -2 1022 68 10000 3.13 210 05:58 18.04.2022
4140 Clear -9 1021 92 10000 0 0 01:37 18.04.2022
4141 Clear -9 1021 92 10000 0 0 22:44 17.04.2022
4142 Clear -9 1021 92 10000 0 0 21:51 17.04.2022
4143 Clear -9 1020 92 10000 0 0 21:32 17.04.2022
4144 Clear -8 1021 85 10000 0 0 20:50 17.04.2022
4145 Clear -8 1020 92 10000 1 0 19:53 17.04.2022
4146 Clear -6 1020 79 10000 1 0 18:32 17.04.2022
4147 Clear -3 1020 68 10000 4.02 310 16:33 17.04.2022
4148 Clouds -3 1019 68 10000 5 310 15:32 17.04.2022
4149 Clouds -2 1019 68 10000 6 310 14:28 17.04.2022
4150 Clouds -2 1018 74 10000 6 320 13:20 17.04.2022
4151 Clouds -2 1018 74 10000 6 290 12:29 17.04.2022
4152 Snow -3 1017 79 7000 6 290 10:48 17.04.2022
4153 Snow -3 1016 86 3000 6 300 10:29 17.04.2022
4154 Snow -4 1016 85 4800 6 290 09:49 17.04.2022
4155 Snow -4 1015 85 1800 5 300 08:54 17.04.2022
4156 Snow -4 1015 79 2400 6 320 08:26 17.04.2022
4157 Snow -3 1013 79 9000 5 320 04:52 17.04.2022
4158 Clouds -3 1011 79 10000 4.92 320 01:40 17.04.2022
4159 Clouds -3 1010 79 10000 4.02 330 23:59 16.04.2022
4160 Clouds -2 1009 79 10000 6 330 22:50 16.04.2022
4161 Clouds -1 1008 80 10000 6 330 21:42 16.04.2022
4162 Clouds 0 1007 80 10000 6 310 20:45 16.04.2022
4163 Clouds 1 1007 86 10000 6 290 19:20 16.04.2022
4164 Clouds 1 1006 93 10000 6 280 18:32 16.04.2022
4165 Clouds 2 1005 86 10000 7 260 16:41 16.04.2022
4166 Clouds 3 1004 80 10000 7.15 260 15:46 16.04.2022
4167 Clouds 3 1004 80 10000 9 260 14:57 16.04.2022
4168 Clouds 3 1003 86 10000 9 280 13:58 16.04.2022
4169 Clouds 3 1003 86 10000 9 260 13:40 16.04.2022
4170 Clouds 6 1000 81 10000 9 250 12:33 16.04.2022
4171 Clouds 10 999 62 7000 8 250 11:19 16.04.2022
4172 Clouds 11 997 43 6000 6 210 09:59 16.04.2022
4173 Clouds 11 997 43 6000 6 200 09:18 16.04.2022
4174 Clouds 10 997 42 7000 5 160 08:31 16.04.2022
4175 Clouds 7 999 56 6000 3.13 70 06:59 16.04.2022
4176 Haze 9 1002 43 5000 4 170 03:48 16.04.2022
4177 Haze 10 1005 46 5000 3 190 00:35 16.04.2022
4178 Clouds 10 1005 50 6000 3 180 23:27 15.04.2022
4179 Clouds 11 1006 50 7000 4 190 22:37 15.04.2022
4180 Clouds 11 1006 58 8000 4 180 21:58 15.04.2022
4181 Clouds 12 1007 54 9000 5 190 21:18 15.04.2022
4182 Clouds 12 1007 54 9000 5 190 21:18 15.04.2022
4183 Clouds 12 1007 54 9000 5 190 21:18 15.04.2022
4184 Clear 11 1008 66 10000 3 170 20:27 15.04.2022
4185 Clear 9 1008 75 10000 3.13 140 19:40 15.04.2022
4186 Clear 10 1009 71 10000 2 140 18:54 15.04.2022
4187 Clear 9 1010 76 10000 2 150 18:25 15.04.2022
4188 Clear 9 1010 76 10000 3 150 17:48 15.04.2022
4189 Clear 9 1011 81 10000 2 150 17:21 15.04.2022
4190 Clear 9 1011 81 10000 3 130 16:23 15.04.2022
4191 Clear 9 1012 87 10000 3 110 15:24 15.04.2022
4192 Clouds 8 1013 100 10000 3.13 130 13:42 15.04.2022
4193 Rain 8 1015 93 5000 3.13 150 12:43 15.04.2022
4194 Rain 9 1015 81 9000 3 170 11:58 15.04.2022
4195 Rain 10 1015 76 9000 3 140 11:35 15.04.2022
4196 Rain 10 1015 76 10000 1 0 10:45 15.04.2022
4197 Rain 12 1015 54 10000 3 180 09:47 15.04.2022
4198 Clear 11 1016 58 10000 4 230 09:21 15.04.2022
4199 Clear 10 1016 62 10000 4 220 07:53 15.04.2022
4200 Clear 7 1016 70 10000 3.13 220 06:37 15.04.2022
4201 Clouds 2 1016 93 9000 2 240 03:21 15.04.2022
4202 Clear 4 1015 80 10000 3.13 250 23:32 14.04.2022
4203 Clear 3 1015 80 10000 3.13 270 22:49 14.04.2022
4204 Clear 4 1014 75 10000 4.02 260 22:31 14.04.2022
4205 Clear 5 1014 75 10000 3.13 250 21:59 14.04.2022
4206 Clear 5 1014 70 10000 2 240 20:57 14.04.2022
4207 Clear 8 1014 57 10000 3 230 19:23 14.04.2022
4208 Clouds 8 1014 61 10000 3 190 18:30 14.04.2022
4209 Clouds 8 1015 61 10000 4 170 17:44 14.04.2022
4210 Rain 8 1015 61 10000 3 160 17:44 14.04.2022
4211 Clouds 6 1015 81 10000 1 0 16:46 14.04.2022
4212 Clouds 7 1016 81 10000 3.13 120 15:28 14.04.2022
4213 Rain 10 1017 53 10000 6 190 13:47 14.04.2022
4214 Clear 11 1017 43 10000 4 160 12:58 14.04.2022
4215 Clear 12 1017 40 10000 6 180 12:31 14.04.2022
4216 Clear 11 1018 43 10000 3 160 11:30 14.04.2022
4217 Clear 11 1019 43 10000 4 150 10:54 14.04.2022
4218 Clear 10 1019 43 10000 5 150 10:27 14.04.2022
4219 Clear 10 1020 43 10000 4 150 09:25 14.04.2022
4220 Clear 8 1022 46 10000 3 150 07:33 14.04.2022
4221 Clouds 4 1024 51 10000 2 140 04:28 14.04.2022
4222 Clear 4 1026 45 10000 2 200 23:29 13.04.2022
4223 Clear 5 1027 42 10000 2 190 22:24 13.04.2022
4224 Clear 5 1027 42 10000 0 0 21:42 13.04.2022
4225 Clear 6 1027 39 10000 2 210 20:24 13.04.2022
4226 Clear 6 1027 39 10000 2 170 19:39 13.04.2022
4227 Clear 7 1028 36 10000 2 150 18:36 13.04.2022
4228 Clear 8 1028 34 10000 3 190 17:24 13.04.2022
4229 Clear 10 1028 27 10000 3 200 16:41 13.04.2022
4230 Clear 10 1028 27 10000 3 200 15:43 13.04.2022
4231 Clear 12 1028 26 10000 4 210 14:53 13.04.2022
4232 Clear 13 1028 24 10000 4 200 14:30 13.04.2022
4233 Clear 13 1029 26 10000 4 200 13:36 13.04.2022
4234 Clear 13 1029 26 10000 3 210 12:38 13.04.2022
4235 Clear 12 1030 28 10000 4 200 10:58 13.04.2022
4236 Clear 11 1030 30 10000 4 210 09:45 13.04.2022
4237 Clear 10 1030 32 10000 3 230 08:43 13.04.2022
4238 Clear 8 1030 36 10000 3 210 07:23 13.04.2022
4239 Clear 7 1030 39 10000 2 210 06:46 13.04.2022
4240 Clear 6 1030 42 10000 3 220 06:18 13.04.2022
4241 Clear 0 1030 63 10000 2 210 00:25 13.04.2022
4242 Clear 0 1030 63 10000 0 0 23:46 12.04.2022
4243 Clear 0 1030 69 10000 1 0 22:20 12.04.2022
4244 Clear 1 1030 59 10000 0 0 21:39 12.04.2022
4245 Clear 2 1030 59 10000 3.13 190 20:42 12.04.2022
4246 Clear 4 1030 52 10000 3 190 19:54 12.04.2022
4247 Clear 4 1030 52 10000 3 190 19:35 12.04.2022
4248 Clouds 4 1030 52 10000 3 190 18:50 12.04.2022
4249 Clouds 4 1030 52 10000 3 190 18:50 12.04.2022
4250 Clouds 5 1030 52 10000 2 190 17:36 12.04.2022
4251 Clouds 7 1030 42 10000 2 160 16:32 12.04.2022
4252 Clouds 9 1030 37 10000 2 150 15:33 12.04.2022
4253 Clear 10 1030 34 10000 3 200 14:33 12.04.2022
4254 Clear 10 1030 32 10000 4 210 13:39 12.04.2022
4255 Clear 10 1030 32 10000 3 220 12:59 12.04.2022
4256 Clear 10 1031 32 10000 4 220 11:47 12.04.2022
4257 Clear 9 1031 34 10000 4 230 11:24 12.04.2022
4258 Clear 8 1031 39 10000 3 210 09:25 12.04.2022
4259 Clear 7 1031 42 10000 3 240 08:18 12.04.2022
4260 Clear 4 1031 51 10000 3.13 220 06:33 12.04.2022
4261 Clear 2 1031 55 10000 3.13 220 05:36 12.04.2022
4262 Clear -1 1031 63 10000 0 0 01:47 12.04.2022
4263 Clear 0 1031 59 10000 2 220 23:19 11.04.2022
4264 Clear 2 1031 51 10000 2 240 21:50 11.04.2022
4265 Clear 3 1031 48 10000 2 230 21:18 11.04.2022
4266 Clear 3 1030 48 10000 3 200 20:30 11.04.2022
4267 Clear 3 1030 48 10000 3 200 19:57 11.04.2022
4268 Clear 4 1030 45 10000 3 200 19:22 11.04.2022
4269 Clear 5 1031 45 10000 3 200 18:49 11.04.2022
4270 Clear 5 1030 45 10000 3 200 17:57 11.04.2022
4271 Clear 6 1030 45 10000 3 190 16:57 11.04.2022
4272 Clear 7 1030 42 10000 3 190 16:20 11.04.2022
4273 Clear 8 1031 36 10000 4 200 14:36 11.04.2022
4274 Clear 8 1031 34 10000 5 210 12:54 11.04.2022
4275 Clear 8 1031 36 10000 6 220 12:35 11.04.2022
4276 Clear 7 1031 39 10000 4 230 11:42 11.04.2022
4277 Clear 7 1032 36 10000 6 230 10:34 11.04.2022
4278 Clear 6 1032 42 10000 6 210 09:22 11.04.2022
4279 Clear 3 1032 47 10000 4.02 220 07:19 11.04.2022
4280 Clear -2 1032 50 10000 3.13 200 02:32 11.04.2022
4281 Clear -2 1033 54 10000 3.13 200 22:54 10.04.2022
4282 Clear -1 1033 50 10000 3.13 200 22:26 10.04.2022
4283 Clear -1 1033 50 10000 2 200 21:33 10.04.2022
4284 Clear -1 1033 50 10000 3.13 190 20:33 10.04.2022
4285 Clear -1 1033 50 10000 2 200 19:45 10.04.2022
4286 Clear -2 1033 58 10000 2 160 19:23 10.04.2022
4287 Clear -2 1033 58 10000 2 160 18:45 10.04.2022
4288 Clear -3 1033 63 10000 2 150 17:55 10.04.2022
4289 Clear -2 1033 58 10000 2 140 17:35 10.04.2022
4290 Clear -1 1033 54 10000 2 140 16:25 10.04.2022
4291 Clear 0 1033 46 10000 3.13 160 15:20 10.04.2022
4292 Clear 0 1033 46 10000 3.13 140 14:22 10.04.2022
4293 Clear 0 1034 43 10000 2 170 12:35 10.04.2022
4294 Clear 0 1034 39 10000 3.13 180 11:49 10.04.2022
4295 Clear -1 1034 42 10000 3.13 200 11:29 10.04.2022
4296 Clear -1 1034 39 10000 3.13 210 10:54 10.04.2022
4297 Clear -1 1034 39 10000 3.13 210 10:54 10.04.2022
4298 Clear -2 1035 46 10000 3.13 190 09:56 10.04.2022
4299 Clear -2 1035 46 10000 3.13 180 09:28 10.04.2022
4300 Clear -4 1035 53 10000 3.13 170 08:22 10.04.2022
4301 Clear -5 1035 53 10000 2 170 07:21 10.04.2022
4302 Clear -9 1035 72 10000 1 0 05:27 10.04.2022
4303 Clear -19 1033 77 10000 0 0 02:21 10.04.2022
4304 Clear -18 1032 84 10000 2 290 00:25 10.04.2022
4305 Clear -17 1032 84 10000 1 280 23:43 09.04.2022
4306 Clear -19 1031 77 10000 1 0 22:45 09.04.2022
4307 Clear -17 1031 77 10000 0 0 21:34 09.04.2022
4308 Clear -16 1030 91 10000 1 300 20:48 09.04.2022
4309 Clear -15 1030 78 10000 0 0 20:25 09.04.2022
4310 Clear -14 1030 85 10000 1 290 19:41 09.04.2022
4311 Clear -14 1030 85 10000 0 0 18:55 09.04.2022
4312 Clear -14 1030 85 10000 0 0 18:19 09.04.2022
4313 Clear -12 1030 79 10000 2 340 17:34 09.04.2022
4314 Clear -10 1030 67 10000 2 350 16:47 09.04.2022
4315 Clear -8 1029 62 10000 2 340 15:55 09.04.2022
4316 Clear -7 1029 57 10000 3.13 340 15:28 09.04.2022
4317 Clear -7 1028 57 10000 3.13 350 14:27 09.04.2022
4318 Clear -7 1028 57 10000 3.13 10 13:54 09.04.2022
4319 Clear -7 1028 57 10000 4.02 320 12:59 09.04.2022
4320 Clear -7 1028 57 10000 4.02 320 12:34 09.04.2022
4321 Clear -8 1027 61 10000 4.02 340 11:21 09.04.2022
4322 Clear -8 1027 57 10000 3.13 330 10:20 09.04.2022
4323 Clear -9 1026 61 10000 3.13 340 09:37 09.04.2022
4324 Clear -9 1026 61 10000 4.02 20 08:50 09.04.2022
4325 Clear -13 1024 71 10000 3.13 340 05:58 09.04.2022
4326 Clear -16 1020 84 10000 3.13 350 01:31 09.04.2022
4327 Clear -14 1018 77 10000 3.13 330 23:25 08.04.2022
4328 Clear -12 1017 78 10000 4.02 330 21:58 08.04.2022
4329 Clear -11 1016 72 10000 4.02 340 20:47 08.04.2022
4330 Clear -11 1015 78 10000 3.13 320 19:58 08.04.2022
4331 Clear -10 1015 72 10000 3.13 330 19:18 08.04.2022
4332 Clear -10 1014 78 10000 4.02 330 18:28 08.04.2022
4333 Clear -9 1014 72 10000 4.02 330 17:45 08.04.2022
4334 Clear -9 1013 72 10000 4.02 320 17:22 08.04.2022
4335 Clear -9 1013 72 10000 5 330 16:38 08.04.2022
4336 Clear -8 1012 72 10000 6 330 15:53 08.04.2022
4337 Clouds -7 1011 67 10000 5 330 15:23 08.04.2022
4338 Snow -6 1010 79 5000 6 330 14:26 08.04.2022
4339 Snow -6 1010 79 2900 7.15 340 13:44 08.04.2022
4340 Clear -6 1009 73 10000 7.15 330 13:25 08.04.2022
4341 Clear -5 1007 73 10000 7.15 330 11:53 08.04.2022
4342 Clear -5 1005 73 10000 7.15 360 10:32 08.04.2022
4343 Snow -4 1004 73 10000 6 360 09:26 08.04.2022
4344 Snow -4 1003 85 5000 6 10 08:34 08.04.2022
4345 Snow -4 1002 92 2600 5 20 06:47 08.04.2022
4346 Snow -4 1002 92 2600 5 20 06:47 08.04.2022
4347 Snow -3 1001 92 1500 6 50 04:34 08.04.2022
4348 Snow -4 1002 92 1900 4.02 60 00:42 08.04.2022
4349 Snow -3 1002 79 1900 4.02 60 00:19 08.04.2022
4350 Clear -2 1003 74 10000 3.13 90 22:58 07.04.2022
4351 Clear -2 1003 74 10000 3.13 90 22:37 07.04.2022
4352 Clear -2 1003 74 10000 3.13 90 22:19 07.04.2022
4353 Clear -2 1004 68 10000 3.13 110 21:49 07.04.2022
4354 Clear -1 1004 68 10000 3.13 90 20:58 07.04.2022
4355 Clear -1 1005 63 10000 2 100 20:30 07.04.2022
4356 Clear -3 1006 68 10000 1 0 18:29 07.04.2022
4357 Clear -3 1006 68 10000 1 70 17:25 07.04.2022
4358 Clear -2 1006 68 10000 0.89 60 16:44 07.04.2022
4359 Clear 0 1006 59 10000 0 0 16:20 07.04.2022
4360 Clear 2 1007 51 10000 5 290 14:42 07.04.2022
4361 Clear 2 1007 51 10000 5 280 13:42 07.04.2022
4362 Clear 2 1008 43 10000 7.15 280 12:41 07.04.2022
4363 Clear 1 1008 43 10000 9 270 11:29 07.04.2022
4364 Clear 0 1008 50 10000 10 270 09:37 07.04.2022
4365 Clear 0 1008 50 10000 10 270 09:37 07.04.2022
4366 Clear -1 1007 50 10000 11.18 270 08:37 07.04.2022
4367 Clear -2 1007 54 10000 7.15 250 06:42 07.04.2022
4368 Clear -5 1005 67 10000 5 250 02:47 07.04.2022
4369 Clear -4 1005 62 10000 7.15 250 02:20 07.04.2022
4370 Clear -3 1005 63 10000 9 260 00:26 07.04.2022
4371 Clear -3 1004 58 10000 8.05 250 22:49 06.04.2022
4372 Clear -3 1004 63 10000 8.05 260 22:26 06.04.2022
4373 Clear -3 1004 63 10000 9 260 21:34 06.04.2022
4374 Clear -3 1004 68 10000 9 260 20:35 06.04.2022
4375 Clear -3 1003 68 10000 8.05 250 19:53 06.04.2022
4376 Clear -2 1003 63 10000 9 250 18:51 06.04.2022
4377 Clear -2 1003 68 10000 9 250 18:22 06.04.2022
4378 Clouds -2 1003 68 10000 9 250 17:35 06.04.2022
4379 Clear -2 1003 68 10000 9 250 16:38 06.04.2022
4380 Clouds -1 1002 68 10000 9 250 15:48 06.04.2022
4381 Clouds -1 1002 68 10000 11.18 260 14:57 06.04.2022
4382 Clouds -1 1001 68 10000 9 250 13:24 06.04.2022
4383 Snow -1 1001 74 4800 12.07 250 12:26 06.04.2022
4384 Snow 0 1000 69 10000 10 260 10:47 06.04.2022
4385 Clouds 0 999 69 10000 12.07 260 10:25 06.04.2022
4386 Snow 0 999 69 9000 11.18 250 09:40 06.04.2022
4387 Snow 0 999 69 9000 11.18 250 09:40 06.04.2022
4388 Clouds 0 998 74 10000 10 250 08:32 06.04.2022
4389 Clouds 0 998 69 10000 10 250 07:50 06.04.2022
4390 Clouds 2 994 74 10000 12.07 250 03:54 06.04.2022
4391 Clear 2 992 80 10000 8.05 220 23:53 05.04.2022
4392 Clear 3 993 80 10000 8.05 210 22:57 05.04.2022
4393 Clear 2 993 86 10000 7.15 210 21:23 05.04.2022
4394 Clear 3 993 80 10000 7.15 230 20:26 05.04.2022
4395 Clouds 3 992 86 10000 6 240 19:47 05.04.2022
4396 Clouds 4 992 93 10000 8.05 230 18:18 05.04.2022
4397 Rain 4 990 93 9000 5 230 16:54 05.04.2022
4398 Rain 6 990 81 9000 8.05 240 15:57 05.04.2022
4399 Rain 6 990 81 9000 8 240 15:34 05.04.2022
4400 Clouds 7 989 70 10000 2 190 14:36 05.04.2022
4401 Clear 7 989 70 10000 3 160 13:35 05.04.2022
4402 Clouds 6 991 75 10000 6 130 11:51 05.04.2022
4403 Clouds 6 991 75 10000 6 130 11:51 05.04.2022
4404 Clouds 5 992 80 10000 5 110 11:32 05.04.2022
4405 Clear 5 995 86 10000 6 120 09:59 05.04.2022
4406 Clear 6 996 75 10000 5 100 08:55 05.04.2022
4407 Clear 5 998 81 10000 4 110 07:22 05.04.2022
4408 Mist 4 1002 100 5000 3.13 180 01:58 05.04.2022
4409 Rain 4 1002 100 10000 3.13 190 22:44 04.04.2022
4410 Rain 4 1002 93 10000 3.13 190 22:26 04.04.2022
4411 Rain 5 1002 86 10000 5 200 21:21 04.04.2022
4412 Clouds 6 1002 75 10000 3 210 20:50 04.04.2022
4413 Clouds 5 1002 80 10000 3.13 190 19:58 04.04.2022
4414 Clouds 6 1002 75 10000 3 190 19:26 04.04.2022
4415 Clouds 5 1002 75 10000 3.13 190 18:33 04.04.2022
4416 Clouds 7 1002 70 10000 4 200 16:37 04.04.2022
4417 Clear 7 1001 70 10000 5 200 15:58 04.04.2022
4418 Clear 7 1001 70 10000 4 190 15:33 04.04.2022
4419 Clear 8 1001 66 10000 3 190 14:46 04.04.2022
4420 Clear 7 1000 76 10000 3 180 13:33 04.04.2022
4421 Clear 7 1001 70 10000 4 200 12:23 04.04.2022
4422 Clouds 5 1001 81 10000 4 190 11:29 04.04.2022
4423 Clouds 3 1001 93 10000 5 180 09:20 04.04.2022
4424 Rain 0 1003 100 10000 5 140 05:27 04.04.2022
4425 Clouds 0 1006 86 10000 7 150 02:41 04.04.2022
4426 Snow -2 1011 92 1400 7.15 130 22:47 03.04.2022
4427 Snow -2 1013 79 2400 7.15 150 21:48 03.04.2022
4428 Clouds -1 1014 63 10000 7.15 150 21:19 03.04.2022
4429 Clear -2 1015 54 10000 6 130 19:52 03.04.2022
4430 Clear -2 1017 54 10000 6 130 18:33 03.04.2022
4431 Clear -2 1017 50 10000 6 120 17:49 03.04.2022
4432 Clear -2 1018 50 10000 7.15 110 17:27 03.04.2022
4433 Clear -2 1019 50 10000 5 110 16:48 03.04.2022
4434 Clear -2 1020 50 10000 5 90 15:32 03.04.2022
4435 Clear -1 1020 46 10000 6 90 13:58 03.04.2022
4436 Clear -1 1021 50 10000 4.02 90 12:56 03.04.2022
4437 Clear -1 1021 46 10000 4.02 120 11:33 03.04.2022
4438 Clouds 0 1021 43 10000 2 90 09:40 03.04.2022
4439 Clouds 0 1021 43 10000 0 0 08:50 03.04.2022
4440 Clear -7 1020 62 10000 1 320 05:44 03.04.2022
4441 Clear -14 1020 85 10000 1 320 02:55 03.04.2022
4442 Clear -12 1019 85 10000 1 260 23:22 02.04.2022
4443 Clear -12 1019 85 10000 1 260 23:22 02.04.2022
4444 Clear -10 1019 73 10000 2 290 22:40 02.04.2022
4445 Clear -10 1019 73 10000 2 280 21:54 02.04.2022
4446 Clear -9 1019 73 10000 1 270 21:19 02.04.2022
4447 Clear -8 1019 73 10000 0 0 20:35 02.04.2022
4448 Clear -7 1018 68 10000 2 240 18:47 02.04.2022
4449 Clear -6 1018 63 10000 2 280 18:19 02.04.2022
4450 Clear -2 1018 54 10000 4 250 16:45 02.04.2022
4451 Clear 0 1018 51 10000 5 250 15:27 02.04.2022
4452 Clear 1 1017 44 10000 5 220 14:52 02.04.2022
4453 Clear 1 1017 43 10000 5 220 14:20 02.04.2022
4454 Clear 1 1017 37 10000 7.15 240 13:29 02.04.2022
4455 Clear 1 1017 40 10000 6 220 12:20 02.04.2022
4456 Clear -1 1017 42 10000 5 220 10:22 02.04.2022
4457 Clear -4 1017 53 10000 4.02 210 07:48 02.04.2022
4458 Clear -11 1016 78 10000 3.13 250 04:34 02.04.2022
4459 Clear -13 1014 78 10000 2 250 01:21 02.04.2022
4460 Clear -13 1014 85 10000 2 270 23:54 01.04.2022
4461 Clear -13 1014 78 10000 0 0 22:46 01.04.2022
4462 Clear -12 1014 79 10000 0 0 20:55 01.04.2022
4463 Clear -11 1014 73 10000 0 0 20:35 01.04.2022
4464 Clear -11 1014 73 10000 0 0 19:45 01.04.2022
4465 Clear -10 1014 73 10000 0 0 19:25 01.04.2022
4466 Clear -10 1014 67 10000 0 0 18:37 01.04.2022
4467 Clear -8 1015 62 10000 2 290 17:38 01.04.2022
4468 Clear -3 1015 46 10000 2 230 15:46 01.04.2022
4469 Clear -1 1016 40 10000 4 230 14:53 01.04.2022
4470 Clear -1 1016 39 10000 5 240 13:40 01.04.2022
4471 Clear -1 1017 42 10000 6 250 13:20 01.04.2022
4472 Clear -1 1017 46 10000 7.15 240 12:24 01.04.2022
4473 Clear -1 1017 50 10000 6 260 10:50 01.04.2022
4474 Clear -2 1017 54 10000 8.05 250 09:39 01.04.2022
4475 Clear -5 1017 57 10000 5.81 250 07:41 01.04.2022
4476 Clear -7 1016 62 10000 5 250 05:38 01.04.2022
4477 Clear -9 1016 72 10000 4.02 250 04:41 01.04.2022
4478 Clear -11 1015 79 10000 3 250 03:18 01.04.2022
4479 Clear -11 1014 78 10000 3 250 01:35 01.04.2022
4480 Clear -9 1014 72 10000 2 230 22:31 31.03.2022
4481 Clear -8 1014 67 10000 4 240 21:44 31.03.2022
4482 Clear -8 1014 67 10000 3 230 20:51 31.03.2022
4483 Clear -8 1014 67 10000 3.13 220 20:28 31.03.2022
4484 Clear -8 1014 67 10000 3.13 220 19:43 31.03.2022
4485 Clear -7 1014 67 10000 3.13 230 18:34 31.03.2022
4486 Clear -4 1014 58 10000 6 240 16:53 31.03.2022
4487 Clouds -4 1013 58 10000 6 250 15:56 31.03.2022
4488 Clouds -3 1013 53 10000 8.05 250 15:29 31.03.2022
4489 Clouds -3 1012 58 10000 8.94 250 14:48 31.03.2022
4490 Clouds -2 1012 54 10000 12 250 13:42 31.03.2022
4491 Clouds -3 1010 73 6000 11.18 270 11:31 31.03.2022
4492 Snow -3 1009 86 900 10 250 10:26 31.03.2022
4493 Snow -3 1008 79 4800 9 260 09:39 31.03.2022
4494 Clouds -4 1005 73 6000 12.07 280 07:48 31.03.2022
4495 Snow -2 993 92 500 5 150 02:33 31.03.2022
4496 Clouds -4 1000 92 10000 3.13 120 23:25 30.03.2022
4497 Clouds -4 1002 92 10000 4.02 190 21:57 30.03.2022
4498 Clouds -4 1002 85 10000 3.13 200 21:31 30.03.2022
4499 Clouds -4 1002 85 10000 5 210 20:44 30.03.2022
4500 Clouds -3 1003 86 10000 6 200 19:47 30.03.2022
4501 Clear -4 1003 85 10000 6 220 18:41 30.03.2022
4502 Clear -4 1002 85 10000 7.15 230 17:51 30.03.2022
4503 Clear -4 1002 79 10000 6 230 17:20 30.03.2022
4504 Clouds -3 1002 68 10000 6 240 16:40 30.03.2022
4505 Clouds -3 1001 68 10000 8.05 240 15:55 30.03.2022
4506 Snow -1 999 63 10000 10 250 14:35 30.03.2022
4507 Snow -1 998 86 4500 10 250 13:22 30.03.2022
4508 Snow 0 997 92 1000 7.15 220 12:22 30.03.2022
4509 Snow 0 996 92 1600 4.02 190 10:48 30.03.2022
4510 Snow 0 996 86 1400 4.02 160 09:55 30.03.2022
4511 Snow -1 997 86 4200 4.92 130 08:21 30.03.2022
4512 Snow -1 997 86 1900 5 120 06:50 30.03.2022
4513 Clouds -2 998 86 10000 5 130 05:40 30.03.2022
4514 Clear -2 1001 86 10000 5 120 01:48 30.03.2022
4515 Clear -1 1003 86 10000 4.02 140 22:39 29.03.2022
4516 Clear -1 1003 86 10000 4.02 150 21:48 29.03.2022
4517 Clear -1 1004 86 10000 3.13 150 21:28 29.03.2022
4518 Clear -1 1004 86 10000 4.02 150 20:25 29.03.2022
4519 Clouds 0 1004 80 10000 4.02 150 19:31 29.03.2022
4520 Clouds 1 1005 80 10000 4.02 160 18:53 29.03.2022
4521 Clouds 1 1005 80 10000 4.02 160 17:52 29.03.2022
4522 Clouds 1 1005 80 10000 5 160 17:18 29.03.2022
4523 Clouds 1 1005 80 10000 5 160 16:52 29.03.2022
4524 Clouds 2 1005 69 10000 4.02 160 15:29 29.03.2022
4525 Clouds 2 1005 69 10000 5 170 14:43 29.03.2022
4526 Clouds 2 1005 69 10000 5 170 13:34 29.03.2022
4527 Clouds 2 1005 69 10000 5 200 12:21 29.03.2022
4528 Clouds 2 1005 69 10000 7.15 190 10:59 29.03.2022
4529 Clear 2 1006 64 10000 5 160 09:51 29.03.2022
4530 Clear 1 1006 69 10000 5.81 150 08:43 29.03.2022
4531 Clear -2 1006 79 10000 5 160 06:21 29.03.2022
4532 Clear -4 1005 79 10000 4.02 180 02:19 29.03.2022
4533 Clear -2 1005 68 10000 4.02 170 23:26 28.03.2022
4534 Clear -2 1005 68 10000 4.02 170 23:26 28.03.2022
4535 Clear -2 1005 68 10000 4.02 170 23:26 28.03.2022
4536 Clear -2 1005 68 10000 4.02 180 22:56 28.03.2022
4537 Clear -2 1005 68 10000 4.02 180 22:31 28.03.2022
4538 Clear -2 1006 68 10000 3.13 170 21:38 28.03.2022
4539 Clear -2 1006 63 10000 3.13 170 20:32 28.03.2022
4540 Clear -2 1006 58 10000 4.02 170 19:48 28.03.2022
4541 Clear -2 1006 58 10000 4.02 170 19:30 28.03.2022
4542 Clear -2 1006 54 10000 4.02 160 18:44 28.03.2022
4543 Clear -2 1007 54 10000 4.02 160 17:41 28.03.2022
4544 Clear -1 1007 50 10000 5 170 16:47 28.03.2022
4545 Clear 0 1006 43 10000 5 160 14:53 28.03.2022
4546 Clear 0 1006 43 10000 6 160 14:23 28.03.2022
4547 Clear 0 1007 43 10000 6 150 13:18 28.03.2022
4548 Clear -1 1007 42 10000 6 150 11:43 28.03.2022
4549 Clear -3 1008 45 10000 5 150 09:55 28.03.2022
4550 Clear -4 1008 49 10000 5 150 09:20 28.03.2022
4551 Clear -5 1009 49 10000 5 150 08:23 28.03.2022
4552 Clear -6 1009 53 10000 5 150 07:56 28.03.2022
4553 Clear -9 1010 56 10000 4.02 170 05:55 28.03.2022
4554 Clear -7 1010 48 10000 4.02 180 00:19 28.03.2022
4555 Clear -7 1011 44 10000 3.13 180 22:34 27.03.2022
4556 Clear -6 1011 42 10000 3 180 21:42 27.03.2022
4557 Clear -6 1011 45 10000 3.13 180 20:58 27.03.2022
4558 Clear -6 1011 41 10000 3.13 190 20:21 27.03.2022
4559 Clear -5 1011 39 10000 5 190 19:36 27.03.2022
4560 Clear -5 1011 39 10000 4 190 18:30 27.03.2022
4561 Clear -5 1011 39 10000 4 190 17:55 27.03.2022
4562 Clear -5 1011 39 10000 4 190 17:35 27.03.2022
4563 Clear -5 1011 39 10000 4 190 17:35 27.03.2022
4564 Clear -4 1011 33 10000 3 190 15:47 27.03.2022
4565 Clear -3 1011 33 10000 5 200 13:57 27.03.2022
4566 Clear -2 1012 30 10000 6 190 12:58 27.03.2022
4567 Clear -3 1011 33 10000 6 180 11:30 27.03.2022
4568 Clear -5 1012 38 10000 6 200 09:37 27.03.2022
4569 Clear -8 1012 48 10000 5 220 06:54 27.03.2022
4570 Clear -11 1012 56 10000 4.02 200 01:55 27.03.2022
4571 Clear -10 1012 56 10000 4.02 220 00:25 27.03.2022
4572 Clear -10 1012 56 10000 4.02 220 22:45 26.03.2022
4573 Clear -11 1012 61 10000 3.13 220 21:50 26.03.2022
4574 Clear -11 1013 61 10000 3.13 210 21:28 26.03.2022
4575 Clear -9 1012 52 10000 3.13 240 19:31 26.03.2022
4576 Clear -8 1012 52 10000 5 240 18:40 26.03.2022
4577 Clear -8 1012 57 10000 5 240 17:34 26.03.2022
4578 Clear -7 1011 57 10000 5 250 16:30 26.03.2022
4579 Clear -6 1011 53 10000 5.81 250 15:35 26.03.2022
4580 Clouds -5 1012 53 10000 9 260 13:55 26.03.2022
4581 Clouds -5 1011 53 10000 10 250 13:19 26.03.2022
4582 Clouds -5 1011 57 10000 11.18 270 11:42 26.03.2022
4583 Clouds -5 1010 57 10000 11.18 260 10:32 26.03.2022
4584 Clouds -7 1010 62 10000 9 260 08:46 26.03.2022
4585 Clouds -10 1010 66 10000 8.05 290 06:37 26.03.2022
4586 Clouds -12 1009 72 10000 9 290 05:29 26.03.2022
4587 Clouds -14 1004 77 10000 10 290 00:41 26.03.2022
4588 Snow -11 999 85 2500 9 290 21:56 25.03.2022
4589 Snow -10 998 78 2200 10 300 20:46 25.03.2022
4590 Snow -10 998 78 3000 10 290 20:20 25.03.2022
4591 Snow -9 996 85 2400 10 280 18:59 25.03.2022
4592 Snow -9 995 85 1800 10 290 17:53 25.03.2022
4593 Snow -8 995 78 1800 11.18 290 17:27 25.03.2022
4594 Snow -7 994 85 3600 11.18 290 16:21 25.03.2022
4595 Snow -5 992 79 9000 10 290 14:54 25.03.2022
4596 Clouds -3 990 86 4800 13 280 13:26 25.03.2022
4597 Snow -1 989 86 1600 6 220 10:35 25.03.2022
4598 Snow -2 989 86 3700 5 200 09:28 25.03.2022
4599 Snow -3 990 86 2500 5 200 08:36 25.03.2022
4600 Snow -3 991 86 1700 7.15 180 07:30 25.03.2022
4601 Snow -4 992 85 1900 7.15 180 06:29 25.03.2022
4602 Snow -4 992 85 1900 7.15 180 06:29 25.03.2022
4603 Snow -7 1001 85 4000 5 170 01:57 25.03.2022
4604 Clear -8 1004 85 10000 3.13 190 22:56 24.03.2022
4605 Clear -8 1005 85 10000 3.13 200 21:52 24.03.2022
4606 Clear -9 1006 85 10000 3 220 20:40 24.03.2022
4607 Clear -9 1006 85 10000 3.13 230 19:48 24.03.2022
4608 Clear -12 1006 92 10000 1 250 18:22 24.03.2022
4609 Clear -11 1006 85 10000 2 250 17:29 24.03.2022
4610 Clouds -8 1005 79 10000 3 280 15:52 24.03.2022
4611 Clouds -6 1005 73 10000 4 290 14:50 24.03.2022
4612 Clear -6 1005 73 10000 4 290 14:20 24.03.2022
4613 Clouds -4 1004 68 10000 4.02 320 13:24 24.03.2022
4614 Clouds -3 1002 79 10000 5 340 11:59 24.03.2022
4615 Clouds -3 1001 79 10000 4.02 330 10:28 24.03.2022
4616 Snow -3 999 79 10000 4.02 330 09:22 24.03.2022
4617 Clouds -3 998 86 10000 5 310 07:39 24.03.2022
4618 Clouds -7 995 92 10000 2 280 04:34 24.03.2022
4619 Clouds -7 993 93 10000 1 0 23:21 23.03.2022
4620 Snow -7 993 92 9000 1 0 21:53 23.03.2022
4621 Snow -8 993 92 5000 1 0 21:20 23.03.2022
4622 Clouds -9 994 92 10000 1 150 19:46 23.03.2022
4623 Clouds -11 994 85 6000 0 0 18:59 23.03.2022
4624 Snow -10 994 92 7000 0.89 0 17:38 23.03.2022
4625 Snow -9 995 92 6000 1 0 16:50 23.03.2022
4626 Clouds -8 995 85 10000 3.13 280 14:52 23.03.2022
4627 Clouds -7 995 85 10000 2 290 14:32 23.03.2022
4628 Snow -6 995 85 10000 5 280 13:21 23.03.2022
4629 Snow -5 994 85 8000 2 200 10:20 23.03.2022
4630 Snow -7 994 92 6000 3.13 130 07:44 23.03.2022
4631 Snow -9 994 92 8000 2 130 05:27 23.03.2022
4632 Snow -12 995 92 10000 1 0 01:18 23.03.2022
4633 Snow -12 996 92 3200 2 190 00:23 23.03.2022
4634 Mist -12 998 92 5000 1 0 21:31 22.03.2022
4635 Mist -11 998 92 3600 2 210 20:51 22.03.2022
4636 Snow -9 999 92 6000 1 230 19:52 22.03.2022
4637 Snow -9 999 92 5000 2 260 19:25 22.03.2022
4638 Snow -8 1000 86 5000 2 230 18:45 22.03.2022
4639 Clouds -9 1001 92 10000 1 0 17:42 22.03.2022
4640 Clouds -8 1002 86 10000 0 0 16:32 22.03.2022
4641 Clouds -8 1002 86 10000 2 320 15:23 22.03.2022
4642 Clouds -7 1002 79 10000 2 320 14:59 22.03.2022
4643 Clouds -7 1002 79 10000 2 320 14:41 22.03.2022
4644 Clouds -6 1003 79 10000 3.13 320 13:36 22.03.2022
4645 Clouds -6 1004 79 10000 3.13 330 11:52 22.03.2022
4646 Snow -6 1005 79 9000 3.13 340 10:46 22.03.2022
4647 Snow -6 1005 85 9000 5 350 08:38 22.03.2022
4648 Snow -6 1006 85 8000 5 350 06:58 22.03.2022
4649 Snow -4 1006 93 5000 3 10 03:52 22.03.2022
4650 Snow -5 1005 85 9000 4.02 40 00:34 22.03.2022
4651 Snow -5 1005 92 10000 3.13 20 22:42 21.03.2022
4652 Snow -5 1005 92 8000 3.13 20 21:18 21.03.2022
4653 Snow -5 1005 92 8000 3.13 20 21:18 21.03.2022
4654 Snow -5 1005 92 5000 3.13 20 20:41 21.03.2022
4655 Snow -5 1004 92 9000 4.02 40 19:59 21.03.2022
4656 Snow -5 1004 92 7000 3.13 40 19:34 21.03.2022
4657 Snow -5 1004 92 6000 4.02 60 18:36 21.03.2022
4658 Snow -5 1003 93 9000 4 50 17:19 21.03.2022
4659 Snow -4 1003 93 7000 4 70 16:53 21.03.2022
4660 Snow -3 1002 93 2300 5 60 16:24 21.03.2022
4661 Snow -3 1001 93 7000 5 70 15:21 21.03.2022
4662 Snow -3 1001 92 1900 4.02 60 14:28 21.03.2022
4663 Snow -2 1000 92 10000 4.02 80 12:43 21.03.2022
4664 Snow -2 999 92 7000 4.02 100 11:54 21.03.2022
4665 Snow -2 998 92 2200 3.13 90 10:49 21.03.2022
4666 Snow -2 997 92 2700 1 0 09:21 21.03.2022
4667 Snow -3 995 92 1700 3.13 180 06:59 21.03.2022
4668 Snow -3 993 92 2000 3.13 160 03:29 21.03.2022
4669 Snow -3 992 92 4000 4.02 190 00:35 21.03.2022
4670 Snow -3 993 92 4200 4.02 190 22:56 20.03.2022
4671 Snow -3 993 92 5000 4.02 190 21:57 20.03.2022
4672 Snow -2 994 86 1700 4.02 180 21:30 20.03.2022
4673 Snow -2 994 86 2500 5 190 20:47 20.03.2022
4674 Clouds -1 994 68 10000 4.02 190 20:24 20.03.2022
4675 Clear -2 994 74 10000 4.02 190 19:43 20.03.2022
4676 Clear -2 995 74 10000 4.02 200 18:44 20.03.2022
4677 Clouds -1 996 68 10000 4.02 200 17:38 20.03.2022
4678 Clouds -1 996 68 10000 3.13 200 16:58 20.03.2022
4679 Clouds -2 997 86 10000 2 160 15:56 20.03.2022
4680 Clouds -1 998 74 10000 2 190 14:36 20.03.2022
4681 Clouds -1 999 74 10000 3.13 200 13:20 20.03.2022
4682 Clouds -1 1001 74 10000 4.02 220 11:37 20.03.2022
4683 Clouds -2 1001 86 10000 5 220 09:57 20.03.2022
4684 Clouds -2 1003 79 10000 4.02 240 07:51 20.03.2022
4685 Snow -4 1004 86 10000 3 240 05:49 20.03.2022
4686 Clear -5 1006 80 10000 4 240 03:18 20.03.2022
4687 Clear -5 1007 80 10000 5 240 00:48 20.03.2022
4688 Clear -5 1008 74 10000 5 230 23:35 19.03.2022
4689 Clear -5 1011 73 10000 5 230 21:54 19.03.2022
4690 Clear -5 1011 73 10000 5 230 21:20 19.03.2022
4691 Clear -4 1014 68 10000 5 230 19:21 19.03.2022
4692 Clear -4 1015 68 10000 5 250 18:25 19.03.2022
4693 Clear -4 1016 73 10000 4.02 240 17:45 19.03.2022
4694 Clear -4 1017 73 10000 4.02 240 16:40 19.03.2022
4695 Clear -3 1018 68 10000 3.13 240 15:21 19.03.2022
4696 Clear -1 1019 58 10000 5 250 13:40 19.03.2022
4697 Clear -1 1019 58 10000 6 250 12:42 19.03.2022
4698 Clear -1 1020 58 10000 5 240 12:19 19.03.2022
4699 Clear -1 1020 58 10000 7 240 11:42 19.03.2022
4700 Clear -3 1022 63 10000 5 240 08:34 19.03.2022
4701 Clear -5 1024 73 10000 4.02 240 04:24 19.03.2022
4702 Clouds -4 1024 73 10000 4.02 250 02:31 19.03.2022
4703 Clouds -4 1025 79 10000 4.02 260 23:50 18.03.2022
4704 Clouds -3 1026 73 10000 5 260 22:43 18.03.2022
4705 Clouds -3 1026 73 10000 5 260 22:20 18.03.2022
4706 Clouds -3 1027 73 10000 6 260 20:25 18.03.2022
4707 Clouds -3 1027 73 10000 6 270 19:24 18.03.2022
4708 Clouds -3 1027 73 10000 7.15 260 18:35 18.03.2022
4709 Clouds -3 1028 79 10000 8.05 280 16:53 18.03.2022
4710 Clouds -3 1028 79 10000 7.15 270 16:18 18.03.2022
4711 Snow -3 1029 79 9000 5 260 14:25 18.03.2022
4712 Clouds -3 1029 73 10000 5 250 13:18 18.03.2022
4713 Clouds -4 1029 73 10000 6 250 11:28 18.03.2022
4714 Clouds -5 1030 79 10000 5.81 250 09:41 18.03.2022
4715 Clouds -5 1030 73 10000 5 240 08:45 18.03.2022
4716 Clouds -7 1030 85 10000 3.13 230 06:45 18.03.2022
4717 Clouds -9 1030 86 10000 1 0 04:38 18.03.2022
4718 Clouds -22 1032 100 3423 1.79 307 00:55 18.03.2022
4719 Clouds -12 1030 92 10000 2 290 23:52 17.03.2022
4720 Clouds -12 1030 92 10000 2 290 23:52 17.03.2022
4721 Clouds -12 1030 92 10000 2 290 23:52 17.03.2022
4722 Clouds -12 1030 92 10000 2 290 23:52 17.03.2022
4723 Clouds -12 1030 92 10000 2 290 23:52 17.03.2022
4724 Clouds -12 1030 92 10000 2 290 23:52 17.03.2022
4725 Clouds -13 1030 92 10000 2 280 22:43 17.03.2022
4726 Clouds -13 1030 92 10000 2 280 22:18 17.03.2022
4727 Clear -13 1030 85 10000 2 300 21:27 17.03.2022
4728 Clear -11 1029 85 10000 2 300 20:52 17.03.2022
4729 Clouds -9 1030 79 10000 3 330 20:18 17.03.2022
4730 Clouds -10 1029 92 10000 3 320 19:37 17.03.2022
4731 Clear -10 1029 85 10000 3 320 18:51 17.03.2022
4732 Clouds -8 1029 79 10000 4 330 17:27 17.03.2022
4733 Clouds -7 1028 79 10000 4 340 15:57 17.03.2022
4734 Clouds -7 1028 79 10000 4 340 15:36 17.03.2022
4735 Clouds -8 1028 86 10000 3 340 14:58 17.03.2022
4736 Clear -6 1027 79 10000 3.13 340 13:28 17.03.2022
4737 Clear -5 1027 79 10000 4.02 350 12:38 17.03.2022
4738 Clouds -4 1027 73 10000 4.02 360 11:31 17.03.2022
4739 Clouds -4 1026 73 10000 5 350 10:38 17.03.2022
4740 Snow -4 1025 79 9000 5 350 08:46 17.03.2022
4741 Clouds -4 1025 85 10000 4.02 350 08:18 17.03.2022
4742 Snow -5 1023 85 10000 4.02 360 05:49 17.03.2022
4743 Clouds -7 1023 85 10000 3.13 320 04:24 17.03.2022
4744 Snow -8 1022 92 4300 5 290 00:24 17.03.2022
4745 Snow -8 1022 92 3000 5 280 22:52 16.03.2022
4746 Snow -8 1022 92 3700 5 280 22:33 16.03.2022
4747 Snow -8 1022 92 4300 6 280 21:55 16.03.2022
4748 Snow -7 1022 85 4000 6 270 20:32 16.03.2022
4749 Snow -7 1023 85 3500 7.15 280 19:22 16.03.2022
4750 Snow -7 1023 85 1400 7.15 280 18:40 16.03.2022
4751 Snow -7 1023 85 1700 7.15 280 17:45 16.03.2022
4752 Snow -7 1023 85 3400 6 260 17:27 16.03.2022
4753 Snow -7 1024 85 2200 7.15 270 15:56 16.03.2022
4754 Snow -7 1024 67 8000 8.05 280 14:35 16.03.2022
4755 Clear -7 1025 62 10000 8.05 270 13:34 16.03.2022
4756 Clear -7 1026 52 10000 7.15 250 11:59 16.03.2022
4757 Clear -7 1026 52 10000 7.15 250 11:22 16.03.2022
4758 Clear -7 1026 48 10000 6 250 10:28 16.03.2022
4759 Clear -7 1026 44 10000 6 260 09:55 16.03.2022
4760 Clear -12 1028 51 10000 4.02 240 06:33 16.03.2022
4761 Clear -18 1031 65 10000 4 280 02:29 16.03.2022
4762 Clear -16 1032 59 10000 4.02 280 22:51 15.03.2022
4763 Clear -16 1032 59 10000 4.02 280 22:32 15.03.2022
4764 Clear -15 1032 60 10000 5 280 20:36 15.03.2022
4765 Clear -16 1033 59 10000 5 280 18:58 15.03.2022
4766 Clear -16 1033 59 10000 4.02 280 17:24 15.03.2022
4767 Clear -16 1033 59 10000 5 280 16:34 15.03.2022
4768 Clear -14 1034 55 10000 3.13 260 15:21 15.03.2022
4769 Clear -10 1034 48 10000 4 250 14:46 15.03.2022
4770 Clear -8 1034 41 10000 4 250 13:55 15.03.2022
4771 Clear -7 1035 41 10000 6 280 12:29 15.03.2022
4772 Clear -7 1035 37 10000 6 280 11:31 15.03.2022
4773 Clear -7 1035 37 10000 5 290 09:46 15.03.2022
4774 Clear -8 1036 44 10000 4.02 280 08:49 15.03.2022
4775 Clear -9 1036 40 10000 4.92 300 07:52 15.03.2022
4776 Clear -9 1036 40 10000 5 300 07:34 15.03.2022
4777 Clear -19 1036 59 10000 3.13 290 04:20 15.03.2022
4778 Clear -19 1036 65 10000 3 280 23:57 14.03.2022
4779 Clear -20 1036 71 10000 4 280 23:24 14.03.2022
4780 Clear -18 1036 65 10000 3 280 22:30 14.03.2022
4781 Clear -20 1035 71 10000 3 290 21:30 14.03.2022
4782 Clear -20 1035 71 10000 2 280 20:54 14.03.2022
4783 Clear -19 1035 71 10000 2 280 20:20 14.03.2022
4784 Clear -18 1035 70 10000 1 280 18:55 14.03.2022
4785 Clear -17 1035 66 10000 2 290 17:54 14.03.2022
4786 Clear -18 1035 64 10000 1 280 17:23 14.03.2022
4787 Clear -14 1035 56 10000 1 280 15:56 14.03.2022
4788 Clear -9 1035 38 10000 1 300 14:41 14.03.2022
4789 Clear -6 1035 29 10000 3.13 250 12:29 14.03.2022
4790 Clear -6 1035 32 10000 3.13 220 10:54 14.03.2022
4791 Clear -5 1035 30 10000 2 220 09:52 14.03.2022
4792 Clear -6 1035 33 10000 1 0 09:22 14.03.2022
4793 Clear -6 1035 35 10000 1 0 08:55 14.03.2022
4794 Clear -8 1034 41 10000 1 0 07:32 14.03.2022
4795 Clear -13 1034 60 10000 2 220 05:45 14.03.2022
4796 Clear -21 1032 77 10000 0 0 01:55 14.03.2022
4797 Clear -20 1032 77 10000 0 0 01:28 14.03.2022
4798 Clear -15 1031 61 10000 2 240 22:44 13.03.2022
4799 Clear -15 1030 72 10000 0 0 21:31 13.03.2022
4800 Clear -16 1030 78 10000 1 0 20:56 13.03.2022
4801 Clear -16 1030 72 10000 1 0 20:31 13.03.2022
4802 Clear -15 1029 66 10000 2 180 19:49 13.03.2022
4803 Clear -14 1029 61 10000 2 190 19:28 13.03.2022
4804 Clear -13 1029 61 10000 3 190 18:59 13.03.2022
4805 Clear -13 1029 61 10000 3 190 18:35 13.03.2022
4806 Clear -13 1029 61 10000 3 190 17:46 13.03.2022
4807 Clear -12 1029 56 10000 3 190 17:19 13.03.2022
4808 Clear -12 1028 56 10000 2 190 16:30 13.03.2022
4809 Clear -12 1028 56 10000 2 190 15:47 13.03.2022
4810 Clear -12 1028 61 10000 2 160 14:56 13.03.2022
4811 Clear -9 1028 48 10000 2 160 13:43 13.03.2022
4812 Clear -8 1028 45 10000 3 190 12:55 13.03.2022
4813 Clear -8 1028 40 10000 3.13 200 11:52 13.03.2022
4814 Clear -9 1028 44 10000 4.02 190 11:32 13.03.2022
4815 Clear -9 1028 44 10000 4.02 190 10:47 13.03.2022
4816 Clear -9 1028 44 10000 4.02 220 10:22 13.03.2022
4817 Clear -9 1028 44 10000 5 220 09:40 13.03.2022
4818 Clear -11 1027 47 10000 5 200 08:45 13.03.2022
4819 Clear -12 1028 51 10000 4.02 210 07:41 13.03.2022
4820 Clear -16 1027 59 10000 4.02 200 05:40 13.03.2022
4821 Clear -20 1027 76 10000 4.02 190 02:39 13.03.2022
4822 Clear -19 1027 70 10000 2 190 23:33 12.03.2022
4823 Clear -17 1026 65 10000 3.13 220 21:53 12.03.2022
4824 Clear -16 1026 59 10000 3.13 200 20:29 12.03.2022
4825 Clear -16 1026 59 10000 4.02 220 19:47 12.03.2022
4826 Clear -16 1026 59 10000 3.13 210 18:58 12.03.2022
4827 Clear -16 1026 59 10000 3.13 200 18:22 12.03.2022
4828 Clear -14 1027 55 10000 5 210 17:23 12.03.2022
4829 Clear -14 1027 55 10000 3.13 200 16:23 12.03.2022
4830 Clear -15 1027 60 10000 3.13 200 15:22 12.03.2022
4831 Clear -14 1027 55 10000 2 200 14:27 12.03.2022
4832 Clear -12 1028 47 10000 4.02 230 12:35 12.03.2022
4833 Clear -12 1028 47 10000 5 230 11:56 12.03.2022
4834 Clear -13 1028 51 10000 6 230 11:34 12.03.2022
4835 Clear -13 1029 51 10000 6 230 10:52 12.03.2022
4836 Clear -14 1029 50 10000 5 210 09:44 12.03.2022
4837 Clear -15 1029 55 10000 5 220 08:53 12.03.2022
4838 Clear -17 1030 59 10000 3.13 210 06:53 12.03.2022
4839 Clear -23 1031 83 10000 2 240 01:44 12.03.2022
4840 Clear -21 1031 70 10000 2 230 23:51 11.03.2022
4841 Clear -21 1032 76 10000 3.13 230 22:52 11.03.2022
4842 Clear -21 1032 76 10000 3.13 230 21:35 11.03.2022
4843 Clear -22 1032 76 10000 2 230 20:54 11.03.2022
4844 Clear -21 1032 70 10000 2 250 20:28 11.03.2022
4845 Clear -21 1032 76 10000 3.13 240 19:42 11.03.2022
4846 Clear -22 1033 83 10000 2 230 18:51 11.03.2022
4847 Clear -23 1033 76 10000 0 0 17:28 11.03.2022
4848 Clear -23 1034 76 10000 2 200 16:27 11.03.2022
4849 Clear -21 1034 71 10000 1 0 15:52 11.03.2022
4850 Clear -18 1035 60 10000 1 250 14:18 11.03.2022
4851 Clouds -15 1037 51 10000 5 240 12:43 11.03.2022
4852 Clouds -15 1037 50 10000 5 240 12:20 11.03.2022
4853 Clear -15 1037 50 10000 5 240 11:40 11.03.2022
4854 Clear -15 1038 55 10000 3.13 230 09:37 11.03.2022
4855 Clear -16 1038 59 10000 4.02 280 08:29 11.03.2022
4856 Clear -17 1039 59 10000 5 280 07:48 11.03.2022
4857 Clear -20 1039 76 10000 4.02 280 06:55 11.03.2022
4858 Clear -26 1039 75 10000 3.13 280 04:44 11.03.2022
4859 Clear -27 1040 76 10000 3 280 01:51 11.03.2022
4860 Clear -26 1040 76 10000 3 280 22:33 10.03.2022
4861 Clear -26 1040 76 10000 3 280 21:58 10.03.2022
4862 Clear -26 1040 76 10000 3 280 21:26 10.03.2022
4863 Clear -26 1040 84 10000 3 280 20:39 10.03.2022
4864 Clear -26 1040 76 10000 4 280 19:22 10.03.2022
4865 Clear -25 1039 77 10000 3 280 18:18 10.03.2022
4866 Clear -25 1039 77 10000 3 280 16:53 10.03.2022
4867 Clear -23 1040 77 10000 2 280 15:34 10.03.2022
4868 Clear -19 1040 60 10000 2 300 13:51 10.03.2022
4869 Clear -18 1040 59 10000 3.13 310 12:43 10.03.2022
4870 Clear -18 1040 59 10000 4.02 300 11:29 10.03.2022
4871 Clear -19 1040 64 10000 3.13 290 09:54 10.03.2022
4872 Clear -19 1039 64 10000 4.02 290 08:39 10.03.2022
4873 Clear -30 1038 76 10000 2 280 05:33 10.03.2022
4874 Clear -33 1037 75 10000 0 0 02:39 10.03.2022
4875 Clear -32 1035 68 10000 1 310 23:37 09.03.2022
4876 Clear -30 1035 76 10000 1 0 22:28 09.03.2022
4877 Clear -31 1035 69 10000 1 0 21:47 09.03.2022
4878 Clear -29 1034 76 10000 1 0 20:44 09.03.2022
4879 Clear -26 1033 76 10000 4 10 18:58 09.03.2022
4880 Clear -25 1032 70 10000 3 340 17:28 09.03.2022
4881 Clear -25 1032 70 10000 3 330 16:45 09.03.2022
4882 Clear -26 1032 76 10000 1 350 15:37 09.03.2022
4883 Clear -23 1031 64 10000 2 320 14:23 09.03.2022
4884 Clear -22 1030 59 10000 3 320 13:25 09.03.2022
4885 Clear -22 1030 64 10000 4 300 12:20 09.03.2022
4886 Clear -22 1030 64 10000 4 310 11:45 09.03.2022
4887 Clear -22 1029 64 10000 4 290 10:50 09.03.2022
4888 Clear -24 1027 70 10000 5 320 09:22 09.03.2022
4889 Clear -24 1027 64 10000 5 300 08:42 09.03.2022
4890 Clear -29 1024 75 10000 5 310 04:49 09.03.2022
4891 Clear -28 1021 69 10000 4 300 00:56 09.03.2022
4892 Clear -28 1020 76 10000 4 300 23:37 08.03.2022
4893 Clear -27 1019 76 10000 4 300 22:45 08.03.2022
4894 Clear -26 1018 70 10000 5 310 21:43 08.03.2022
4895 Clear -26 1018 70 10000 5 310 21:18 08.03.2022
4896 Clear -25 1016 69 10000 5 320 19:59 08.03.2022
4897 Clear -25 1015 76 10000 5 330 18:53 08.03.2022
4898 Clear -23 1015 69 10000 6 320 17:51 08.03.2022
4899 Clear -23 1013 69 10000 6 310 16:35 08.03.2022
4900 Clear -23 1011 69 10000 6 310 14:23 08.03.2022
4901 Clear -22 1009 69 10000 8.05 320 12:44 08.03.2022
4902 Clear -22 1008 69 10000 7.15 320 11:53 08.03.2022
4903 Clouds -22 1007 63 10000 7.15 320 11:34 08.03.2022
4904 Snow -23 1005 69 10000 7.15 320 10:27 08.03.2022
4905 Snow -23 1003 69 2800 6 320 08:28 08.03.2022
4906 Snow -24 1000 69 7000 5 340 05:47 08.03.2022
4907 Snow -23 996 76 3000 5 340 00:43 08.03.2022
4908 Snow -22 995 76 4500 5 350 22:23 07.03.2022
4909 Snow -21 994 76 2100 5 340 21:35 07.03.2022
4910 Snow -20 994 76 1800 5 340 20:54 07.03.2022
4911 Snow -20 994 76 2700 5 360 20:22 07.03.2022
4912 Snow -20 994 76 2100 5 360 19:38 07.03.2022
4913 Snow -20 993 76 2800 5 360 18:47 07.03.2022
4914 Snow -19 993 77 3700 5 360 17:54 07.03.2022
4915 Snow -19 993 77 2600 5 10 16:56 07.03.2022
4916 Snow -19 993 77 4000 5 10 16:20 07.03.2022
4917 Snow -17 992 77 3700 4.02 20 14:19 07.03.2022
4918 Snow -17 992 71 2900 4.02 30 12:33 07.03.2022
4919 Snow -17 991 77 2200 5 50 10:39 07.03.2022
4920 Snow -17 991 71 1700 6 40 09:47 07.03.2022
4921 Snow -18 992 70 1500 6 40 06:20 07.03.2022
4922 Snow -20 993 76 1600 6 40 00:23 07.03.2022
4923 Snow -21 993 76 1200 6 40 23:41 06.03.2022
4924 Snow -21 993 76 1400 6 40 22:57 06.03.2022
4925 Snow -21 994 76 1500 6 40 22:24 06.03.2022
4926 Snow -21 994 76 1500 6 40 22:24 06.03.2022
4927 Snow -21 994 76 1800 6 50 20:51 06.03.2022
4928 Snow -21 994 76 2100 6 50 20:26 06.03.2022
4929 Snow -21 995 76 2600 7.15 40 19:23 06.03.2022
4930 Snow -21 995 70 2500 7.15 50 18:25 06.03.2022
4931 Snow -21 996 70 4500 7.15 50 17:21 06.03.2022
4932 Clouds -21 997 76 3000 7 60 16:44 06.03.2022
4933 Clouds -21 997 70 3000 7.15 60 16:18 06.03.2022
4934 Clear -21 999 70 10000 5 50 14:57 06.03.2022
4935 Clear -21 999 70 10000 6 60 14:33 06.03.2022
4936 Clear -21 999 70 10000 7.15 50 13:30 06.03.2022
4937 Clear -21 1000 70 10000 7.15 50 12:35 06.03.2022
4938 Clear -21 1000 70 10000 7.15 50 11:21 06.03.2022
4939 Clear -20 1001 64 10000 6 60 10:28 06.03.2022
4940 Clear -21 1003 70 10000 6 60 08:30 06.03.2022
4941 Clear -21 1003 70 10000 7.15 70 07:45 06.03.2022
4942 Clear -22 1004 69 10000 6 70 06:19 06.03.2022
4943 Clear -24 1008 76 10000 5 90 00:53 06.03.2022
4944 Clear -24 1009 76 10000 5 70 00:31 06.03.2022
4945 Clear -24 1009 76 10000 5 70 23:23 05.03.2022
4946 Clear -24 1010 76 10000 3.13 90 22:53 05.03.2022
4947 Clear -24 1011 76 10000 3.13 70 21:56 05.03.2022
4948 Clear -24 1011 76 10000 4.02 70 21:23 05.03.2022
4949 Clear -24 1012 76 10000 3.13 70 19:49 05.03.2022
4950 Clear -24 1012 76 10000 4.02 60 18:56 05.03.2022
4951 Clear -24 1013 76 10000 4.02 60 18:27 05.03.2022
4952 Clear -24 1014 77 10000 2 60 16:49 05.03.2022
4953 Clear -22 1014 71 10000 4 20 15:31 05.03.2022
4954 Clear -22 1014 71 10000 3 10 14:47 05.03.2022
4955 Clear -22 1014 71 10000 3 10 14:29 05.03.2022
4956 Clear -20 1015 64 10000 3.13 10 13:22 05.03.2022
4957 Clear -19 1015 64 10000 3.13 350 11:48 05.03.2022
4958 Clear -19 1015 64 10000 4.02 10 11:19 05.03.2022
4959 Clear -19 1015 64 10000 3.13 360 10:18 05.03.2022
4960 Clear -19 1015 64 10000 2 360 08:59 05.03.2022
4961 Clear -20 1015 70 10000 3.13 20 07:38 05.03.2022
4962 Clear -24 1015 76 10000 1 300 05:43 05.03.2022
4963 Clear -28 1015 75 10000 1 0 03:18 05.03.2022
4964 Clear -25 1014 77 10000 4 360 23:37 04.03.2022
4965 Clear -24 1014 77 10000 3 340 22:42 04.03.2022
4966 Clear -24 1014 77 10000 3 340 21:49 04.03.2022
4967 Clear -24 1014 84 10000 3 330 20:54 04.03.2022
4968 Clear -23 1014 77 10000 3 340 20:24 04.03.2022
4969 Clear -23 1014 84 10000 3 350 19:36 04.03.2022
4970 Clear -22 1014 77 10000 4 350 18:44 04.03.2022
4971 Clear -20 1013 77 10000 4 340 17:32 04.03.2022
4972 Clear -19 1013 78 10000 3 330 16:46 04.03.2022
4973 Clear -17 1012 71 10000 4 320 15:29 04.03.2022
4974 Clear -16 1012 72 10000 3 330 14:29 04.03.2022
4975 Clear -15 1011 71 10000 4.02 340 13:26 04.03.2022
4976 Clear -13 1011 66 10000 5.81 340 11:41 04.03.2022
4977 Clear -13 1010 66 10000 5 350 10:50 04.03.2022
4978 Clear -14 1009 65 10000 5 340 09:52 04.03.2022
4979 Clear -14 1009 71 10000 4.02 340 08:39 04.03.2022
4980 Clear -14 1008 77 10000 5 340 07:34 04.03.2022
4981 Clouds -6 1005 86 10000 5 330 03:53 04.03.2022
4982 Clear -5 1004 85 10000 4.02 250 00:28 04.03.2022
4983 Clouds -2 1004 74 10000 5 260 22:27 03.03.2022
4984 Clouds -2 1004 74 10000 6 260 21:42 03.03.2022
4985 Clouds -2 1004 74 10000 6 260 21:24 03.03.2022
4986 Clouds -2 1004 74 10000 7.15 270 19:52 03.03.2022
4987 Clouds -2 1004 74 10000 5 240 18:54 03.03.2022
4988 Clouds -2 1004 74 10000 6 250 18:23 03.03.2022
4989 Clouds -2 1004 74 10000 5 240 17:30 03.03.2022
4990 Clouds -1 1004 68 10000 4.02 230 16:24 03.03.2022
4991 Clouds -1 1005 68 10000 5 240 15:21 03.03.2022
4992 Clouds -1 1005 74 10000 5 230 14:42 03.03.2022
4993 Clouds 0 1005 69 10000 5 230 13:24 03.03.2022
4994 Clouds -1 1006 74 10000 6 250 11:54 03.03.2022
4995 Clouds -1 1006 74 10000 6 250 10:42 03.03.2022
4996 Clouds -1 1006 74 10000 5 250 09:38 03.03.2022
4997 Clouds -2 1006 79 10000 6 260 07:48 03.03.2022
4998 Clouds -3 1005 79 10000 6 270 06:35 03.03.2022
4999 Clouds -5 1004 79 10000 6 280 02:23 03.03.2022
5000 Clouds -6 1003 79 10000 4.02 240 23:31 02.03.2022
5001 Snow -7 1003 85 10000 4.02 230 22:52 02.03.2022
5002 Clouds -7 1005 73 10000 4.02 200 21:32 02.03.2022
5003 Clouds -7 1005 73 10000 4.02 200 20:46 02.03.2022
5004 Clouds -7 1005 73 10000 4.02 190 20:24 02.03.2022
5005 Clear -7 1007 67 10000 5 190 19:36 02.03.2022
5006 Clouds -7 1009 67 10000 4.02 200 18:46 02.03.2022
5007 Clouds -7 1009 67 10000 4.02 200 18:18 02.03.2022
5008 Clear -8 1010 61 10000 4.02 210 17:32 02.03.2022
5009 Clear -8 1011 61 10000 4.02 210 16:51 02.03.2022
5010 Clear -10 1012 66 10000 2 200 14:48 02.03.2022
5011 Clear -8 1014 57 10000 3.13 230 13:25 02.03.2022
5012 Clear -8 1014 57 10000 4 240 12:44 02.03.2022
5013 Clear -9 1014 61 10000 5 260 11:51 02.03.2022
5014 Clear -9 1014 61 10000 5 240 11:24 02.03.2022
5015 Clear -9 1014 61 10000 5 240 11:24 02.03.2022
5016 Clear -10 1014 61 10000 5 230 09:47 02.03.2022
5017 Clear -9 1014 56 10000 4.02 240 09:23 02.03.2022
5018 Clear -11 1014 66 10000 6 280 07:51 02.03.2022
5019 Clouds -13 1014 71 10000 6 280 06:54 02.03.2022
5020 Clear -15 1013 77 10000 6 290 02:54 02.03.2022
5021 Clear -13 1012 71 10000 6 300 00:33 02.03.2022
5022 Clear -12 1011 72 10000 8.05 300 22:50 01.03.2022
5023 Clear -12 1010 72 10000 7.15 300 22:31 01.03.2022
5024 Clear -11 1009 72 10000 8.05 310 21:25 01.03.2022
5025 Clouds -10 1008 72 10000 9 330 20:32 01.03.2022
5026 Clouds -9 1007 72 10000 9 320 19:45 01.03.2022
5027 Clouds -8 1006 72 10000 9 330 18:51 01.03.2022
5028 Clouds -8 1005 72 10000 10 320 18:21 01.03.2022
5029 Clouds -8 1004 78 10000 10 310 17:30 01.03.2022
5030 Snow -7 1003 73 6000 11.18 320 16:35 01.03.2022
5031 Snow -7 1002 79 6000 9.83 310 15:42 01.03.2022
5032 Clouds -6 1001 73 10000 9 320 14:41 01.03.2022
5033 Snow -6 1000 85 4400 9 300 14:23 01.03.2022
5034 Snow -5 999 79 4500 10 300 13:25 01.03.2022
5035 Snow -4 998 68 8000 10 300 12:34 01.03.2022
5036 Snow -2 996 74 8000 12.07 290 10:37 01.03.2022
5037 Clouds -1 995 68 10000 12.07 280 09:18 01.03.2022
5038 Clear -2 994 74 10000 11.18 280 07:54 01.03.2022
5039 Clouds -2 994 74 10000 9 260 06:27 01.03.2022
5040 Clouds -2 996 68 10000 8.05 250 02:45 01.03.2022
5041 Clouds -2 997 79 10000 8.94 240 00:39 01.03.2022
5042 Clouds -2 999 92 10000 8.05 240 23:33 28.02.2022
5043 Snow -1 1000 74 1700 9 250 22:24 28.02.2022
5044 Clear 0 999 63 10000 8.05 240 21:41 28.02.2022
5045 Clear 0 1001 63 10000 8.05 230 20:28 28.02.2022
5046 Clouds -1 1002 68 10000 9 230 19:41 28.02.2022
5047 Clear -1 1004 68 10000 8.05 230 18:49 28.02.2022
5048 Clear -1 1006 68 10000 9 230 17:33 28.02.2022
5049 Clear -1 1006 68 10000 8.05 230 16:53 28.02.2022
5050 Clouds -1 1009 68 10000 7.15 240 15:31 28.02.2022
5051 Clouds -2 1010 79 10000 7.15 230 14:32 28.02.2022
5052 Clouds -2 1011 79 10000 8.05 240 13:48 28.02.2022
5053 Clear -2 1012 68 10000 7.15 210 12:53 28.02.2022
5054 Clear -4 1014 73 10000 7.15 220 11:59 28.02.2022
5055 Clouds -4 1015 68 10000 6 210 11:18 28.02.2022
5056 Clear -6 1017 73 10000 6 210 10:22 28.02.2022
5057 Clear -7 1017 79 10000 5 220 09:41 28.02.2022
5058 Clear -8 1019 72 10000 5 220 08:48 28.02.2022
5059 Clear -10 1020 72 10000 5 220 07:43 28.02.2022
5060 Clear -15 1022 84 10000 1 0 05:52 28.02.2022
5061 Clear -20 1022 84 10000 3 270 04:30 28.02.2022
5062 Clear -20 1022 84 10000 3 270 04:30 28.02.2022
5063 Clear -20 1022 84 10000 3 270 04:30 28.02.2022
5064 Clear -14 1023 85 10000 4 340 00:34 28.02.2022
5065 Clear -11 1022 85 10000 4 330 22:38 27.02.2022
5066 Clear -10 1021 79 10000 4 330 21:58 27.02.2022
5067 Clear -9 1021 78 10000 5 330 21:36 27.02.2022
5068 Clear -8 1020 78 10000 5 330 20:41 27.02.2022
5069 Clouds -7 1020 79 10000 7.15 340 20:18 27.02.2022
5070 Snow -2 1018 92 1900 6 320 19:36 27.02.2022
5071 Snow -2 1018 92 1900 6 320 19:18 27.02.2022
5072 Clouds -1 1017 80 10000 6 270 17:57 27.02.2022
5073 Clouds -1 1017 80 10000 7.15 260 17:34 27.02.2022
5074 Clouds -1 1017 74 10000 6 260 16:22 27.02.2022
5075 Clouds -1 1017 74 10000 7.15 250 14:28 27.02.2022
5076 Clouds -1 1016 74 10000 8.05 260 12:35 27.02.2022
5077 Clouds -2 1016 74 10000 9 260 11:36 27.02.2022
5078 Clouds -2 1015 74 10000 8.05 260 10:36 27.02.2022
5079 Clouds -2 1015 74 10000 7.15 250 09:52 27.02.2022
5080 Clouds -3 1015 79 10000 7.15 240 09:21 27.02.2022
5081 Clouds -3 1015 73 10000 7.15 240 08:44 27.02.2022
5082 Clear -4 1015 73 10000 6 240 05:43 27.02.2022
5083 Clear -5 1015 73 10000 7.15 250 03:26 27.02.2022
5084 Clear -6 1017 73 10000 5 240 23:51 26.02.2022
5085 Clear -7 1017 79 10000 4.02 230 22:42 26.02.2022
5086 Clear -6 1018 73 10000 5 250 21:27 26.02.2022
5087 Clear -7 1018 79 10000 5 250 20:41 26.02.2022
5088 Clear -7 1018 79 10000 4.02 240 19:55 26.02.2022
5089 Clear -6 1018 73 10000 5 250 19:33 26.02.2022
5090 Clear -6 1019 73 10000 4.02 240 18:33 26.02.2022
5091 Clear -6 1019 73 10000 5 240 17:34 26.02.2022
5092 Clear -5 1019 67 10000 5 240 16:39 26.02.2022
5093 Clear -5 1019 73 10000 5 220 15:37 26.02.2022
5094 Clear -5 1019 73 10000 5 220 15:18 26.02.2022
5095 Clear -5 1019 73 10000 4.02 230 14:41 26.02.2022
5096 Clear -4 1019 68 10000 4.02 240 13:51 26.02.2022
5097 Clear -4 1019 68 10000 4.02 230 12:53 26.02.2022
5098 Clear -4 1019 68 10000 5 230 11:50 26.02.2022
5099 Clear -4 1019 68 10000 5 230 11:25 26.02.2022
5100 Clear -6 1019 73 10000 5 240 09:31 26.02.2022
5101 Clear -6 1019 73 10000 6 250 08:26 26.02.2022
5102 Clear -11 1019 85 10000 4 230 04:23 26.02.2022
5103 Clear -12 1018 85 10000 2 250 23:50 25.02.2022
5104 Clouds -9 1017 79 10000 4 250 22:31 25.02.2022
5105 Clouds -9 1017 79 10000 3 250 21:31 25.02.2022
5106 Clear -9 1017 79 10000 3 250 20:47 25.02.2022
5107 Clear -9 1017 73 10000 3 250 20:25 25.02.2022
5108 Clear -10 1017 78 10000 3.13 250 17:57 25.02.2022
5109 Clear -10 1017 72 10000 4.02 250 16:54 25.02.2022
5110 Clear -10 1017 78 10000 5 250 15:55 25.02.2022
5111 Clear -10 1017 79 10000 5 250 15:23 25.02.2022
5112 Clear -10 1017 79 10000 4 260 14:55 25.02.2022
5113 Clear -9 1016 79 10000 5 250 14:24 25.02.2022
5114 Clear -8 1016 79 10000 5 250 13:30 25.02.2022
5115 Clear -6 1015 68 10000 6 290 12:21 25.02.2022
5116 Clear -6 1015 67 10000 7.15 290 11:22 25.02.2022
5117 Clear -6 1014 73 10000 7.15 290 10:23 25.02.2022
5118 Clear -6 1013 73 10000 8.05 290 09:46 25.02.2022
5119 Snow -6 1012 86 6000 9 280 08:22 25.02.2022
5120 Snow -5 1011 80 7000 8 290 07:31 25.02.2022
5121 Snow -5 1010 80 10000 7 290 05:42 25.02.2022
5122 Clouds -5 1008 86 10000 7 280 02:46 25.02.2022
5123 Clouds -3 1005 93 10000 7 280 22:47 24.02.2022
5124 Clouds -2 1004 92 10000 8.05 280 21:51 24.02.2022
5125 Snow -2 1004 92 10000 7.15 290 21:30 24.02.2022
5126 Snow -1 1003 92 7000 5 280 20:47 24.02.2022
5127 Clouds 0 1002 92 10000 4.02 280 19:32 24.02.2022
5128 Clouds 0 1002 92 10000 4.02 280 18:21 24.02.2022
5129 Clouds 0 1002 92 10000 4.02 280 17:58 24.02.2022
5130 Clouds 0 1002 100 10000 4.02 270 17:21 24.02.2022
5131 Clouds 0 1001 92 10000 4.02 270 16:28 24.02.2022
5132 Snow 0 1001 100 1800 3.13 250 15:44 24.02.2022
5133 Snow 0 1002 92 2100 2 230 14:48 24.02.2022
5134 Snow 0 1002 92 2200 3.13 210 14:19 24.02.2022
5135 Snow 0 1002 92 7000 2 200 13:39 24.02.2022
5136 Clouds 0 1002 92 10000 4.02 190 11:56 24.02.2022
5137 Snow 0 1003 92 7000 4.02 190 10:34 24.02.2022
5138 Snow -1 1004 100 4500 4.02 190 08:46 24.02.2022
5139 Snow -1 1004 100 4200 4.02 190 08:22 24.02.2022
5140 Snow -1 1005 92 10000 5 190 05:50 24.02.2022
5141 Snow -2 1007 92 8000 4.02 190 00:32 24.02.2022
5142 Snow -3 1007 92 7000 4.02 190 22:29 23.02.2022
5143 Snow -3 1008 92 10000 5 190 20:52 23.02.2022
5144 Snow -3 1008 92 10000 4.02 180 20:30 23.02.2022
5145 Snow -3 1008 92 10000 3.13 170 19:37 23.02.2022
5146 Snow -3 1008 86 10000 4.02 160 18:31 23.02.2022
5147 Snow -3 1009 86 10000 5 160 17:21 23.02.2022
5148 Clear -3 1010 68 10000 4.02 150 14:34 23.02.2022
5149 Clouds -2 1010 63 10000 3.13 150 12:37 23.02.2022
5150 Clouds -1 1010 59 10000 3 160 11:23 23.02.2022
5151 Clouds -1 1010 64 10000 3 170 10:30 23.02.2022
5152 Clouds -3 1010 68 10000 2 210 08:57 23.02.2022
5153 Clouds -4 1011 73 10000 4.02 220 07:57 23.02.2022
5154 Snow -6 1010 86 9000 2 220 03:48 23.02.2022
5155 Clouds -6 1009 79 10000 3 240 00:19 23.02.2022
5156 Clouds -6 1008 79 10000 3 230 23:35 22.02.2022
5157 Snow -6 1008 79 10000 3 240 22:31 22.02.2022
5158 Clouds -6 1008 79 10000 2 240 21:49 22.02.2022
5159 Clouds -6 1008 79 9000 3 240 21:28 22.02.2022
5160 Clouds -6 1008 79 10000 3 230 20:51 22.02.2022
5161 Clouds -7 1007 86 10000 2 230 20:29 22.02.2022
5162 Clouds -8 1007 93 10000 2 240 19:36 22.02.2022
5163 Clouds -8 1007 93 10000 2 240 19:18 22.02.2022
5164 Clouds -6 1007 86 10000 3 230 17:40 22.02.2022
5165 Clouds -6 1007 86 10000 3 230 17:19 22.02.2022
5166 Clouds -5 1006 80 10000 3 230 16:36 22.02.2022
5167 Clear -6 1006 79 10000 3.13 220 15:38 22.02.2022
5168 Clouds -6 1006 79 10000 3.13 210 14:43 22.02.2022
5169 Clouds -2 1005 68 10000 6 230 12:20 22.02.2022
5170 Clouds -2 1004 74 10000 7.15 240 10:28 22.02.2022
5171 Clouds -3 1003 73 10000 7.15 230 07:48 22.02.2022
5172 Clouds -4 1003 79 10000 6 230 07:25 22.02.2022
5173 Clouds -5 1002 85 10000 5 200 02:52 22.02.2022
5174 Clouds -5 1002 85 10000 4.02 200 00:49 22.02.2022
5175 Snow -6 1002 92 10000 4.92 200 22:41 21.02.2022
5176 Snow -6 1002 85 10000 5 200 21:30 21.02.2022
5177 Snow -6 1002 85 9000 4.02 200 20:29 21.02.2022
5178 Snow -6 1002 85 10000 5 200 18:41 21.02.2022
5179 Snow -7 1002 85 9000 5 200 16:50 21.02.2022
5180 Snow -6 1002 85 9000 5 190 14:24 21.02.2022
5181 Snow -6 1002 85 8000 4.02 190 13:59 21.02.2022
5182 Snow -6 1002 85 9000 4.02 190 12:59 21.02.2022
5183 Snow -6 1002 85 3700 4.02 200 12:22 21.02.2022
5184 Snow -7 1001 79 4100 6 160 10:45 21.02.2022
5185 Clouds -8 1002 67 10000 6 150 08:44 21.02.2022
5186 Clear -10 1006 66 10000 5 160 02:58 21.02.2022
5187 Clear -8 1008 61 10000 6 180 23:29 20.02.2022
5188 Clear -8 1009 61 10000 5 190 22:19 20.02.2022
5189 Clear -7 1009 57 10000 6 200 21:41 20.02.2022
5190 Clear -6 1009 58 10000 6 180 20:52 20.02.2022
5191 Clear -6 1010 58 10000 5 180 20:22 20.02.2022
5192 Clear -6 1010 53 10000 5 180 19:29 20.02.2022
5193 Clear -6 1011 53 10000 5 190 18:49 20.02.2022
5194 Clear -6 1011 53 10000 6 190 18:30 20.02.2022
5195 Clear -6 1012 53 10000 5 190 17:30 20.02.2022
5196 Clear -5 1013 53 10000 5 190 15:30 20.02.2022
5197 Clear -4 1013 49 10000 5 190 14:39 20.02.2022
5198 Clear -3 1013 54 10000 5 190 13:22 20.02.2022
5199 Clear -3 1013 54 10000 5 190 13:22 20.02.2022
5200 Clear -3 1013 54 10000 5 190 13:22 20.02.2022
5201 Clear -3 1014 49 10000 6 190 11:56 20.02.2022
5202 Clear -3 1014 49 10000 6 190 11:56 20.02.2022
5203 Clear -3 1014 49 10000 6 190 11:56 20.02.2022
5204 Clear -2 1014 46 10000 6 200 10:21 20.02.2022
5205 Clear -2 1014 43 10000 7 190 09:46 20.02.2022
5206 Clear -7 1015 52 10000 5 200 06:30 20.02.2022
5207 Clear -9 1016 67 10000 5 190 00:32 20.02.2022
5208 Clear -8 1016 67 10000 5 190 23:33 19.02.2022
5209 Clear -8 1016 67 10000 4.02 200 22:24 19.02.2022
5210 Clear -7 1017 67 10000 5 200 21:47 19.02.2022
5211 Clear -6 1017 67 10000 5 200 20:28 19.02.2022
5212 Clear -5 1017 62 10000 5 200 19:34 19.02.2022
5213 Clear -5 1017 62 10000 5 200 18:40 19.02.2022
5214 Clear -5 1017 62 10000 5 200 18:40 19.02.2022
5215 Clear -5 1017 67 10000 5 200 17:57 19.02.2022
5216 Clear -4 1017 62 10000 4.02 200 17:21 19.02.2022
5217 Clear -3 1017 58 10000 6 200 15:59 19.02.2022
5218 Clear -3 1017 58 10000 5 200 14:54 19.02.2022
5219 Clear -4 1018 68 10000 5 210 13:57 19.02.2022
5220 Clear -3 1017 63 10000 5 200 11:47 19.02.2022
5221 Clear -3 1017 63 10000 5 200 10:48 19.02.2022
5222 Clear -5 1017 67 10000 5 220 08:56 19.02.2022
5223 Clear -7 1017 73 10000 5 210 06:45 19.02.2022
5224 Clear -4 1016 80 10000 6 210 00:38 19.02.2022
5225 Clear -3 1015 73 10000 5 210 22:24 18.02.2022
5226 Clear -3 1015 73 10000 5 220 21:21 18.02.2022
5227 Clouds -3 1015 73 10000 5 220 19:56 18.02.2022
5228 Clouds -3 1014 73 10000 5 220 18:51 18.02.2022
5229 Clouds -3 1014 79 10000 5 220 18:28 18.02.2022
5230 Clear -3 1014 79 10000 4.02 220 17:56 18.02.2022
5231 Clouds -3 1014 86 10000 4.02 210 15:57 18.02.2022
5232 Clouds -4 1014 85 10000 4.02 190 13:56 18.02.2022
5233 Snow -4 1014 85 9000 4.02 200 13:32 18.02.2022
5234 Clouds -4 1014 85 10000 3.13 200 12:48 18.02.2022
5235 Clouds -4 1014 79 10000 5 220 11:56 18.02.2022
5236 Clouds -4 1014 85 10000 5 210 10:42 18.02.2022
5237 Clouds -5 1013 85 10000 5 230 07:20 18.02.2022
5238 Clouds -4 1013 85 10000 4.02 230 05:43 18.02.2022
5239 Clouds -4 1012 85 10000 4.02 250 03:47 18.02.2022
5240 Snow -5 1010 92 3500 4.02 230 21:56 17.02.2022
5241 Snow -5 1010 92 3400 4.02 230 21:33 17.02.2022
5242 Snow -5 1010 92 1800 4.02 230 20:42 17.02.2022
5243 Snow -5 1010 92 6000 4.02 240 19:54 17.02.2022
5244 Snow -5 1009 92 6000 4.02 230 18:57 17.02.2022
5245 Clouds -5 1009 92 9000 4.02 230 18:18 17.02.2022
5246 Clouds -6 1009 92 9000 4.02 220 16:43 17.02.2022
5247 Snow -6 1009 85 8000 4.02 220 15:50 17.02.2022
5248 Snow -7 1009 92 6000 4.02 210 14:29 17.02.2022
5249 Snow -7 1009 93 9000 3 200 13:30 17.02.2022
5250 Snow -8 1009 85 8000 3.13 200 11:36 17.02.2022
5251 Snow -9 1008 85 6000 4.02 200 09:38 17.02.2022
5252 Snow -11 1010 85 5000 5 160 06:44 17.02.2022
5253 Clouds -15 1015 84 10000 3.13 180 23:23 16.02.2022
5254 Clouds -15 1015 84 10000 3.13 200 22:27 16.02.2022
5255 Clouds -15 1016 84 7000 4.02 190 20:21 16.02.2022
5256 Snow -16 1017 84 9000 3.13 190 18:50 16.02.2022
5257 Snow -16 1017 84 9000 3.13 200 17:56 16.02.2022
5258 Snow -15 1018 84 8000 3.13 200 16:44 16.02.2022
5259 Snow -15 1018 84 2100 4.02 180 15:21 16.02.2022
5260 Snow -17 1019 84 2300 4.02 160 13:38 16.02.2022
5261 Clear -18 1019 78 10000 3 160 12:24 16.02.2022
5262 Clear -19 1019 84 10000 3 160 11:45 16.02.2022
5263 Clear -21 1020 84 10000 3 140 10:34 16.02.2022
5264 Clear -21 1020 84 10000 3 170 09:34 16.02.2022
5265 Clouds -24 1021 77 10000 2 150 06:43 16.02.2022
5266 Mist -29 1022 75 5000 0 0 00:37 16.02.2022
5267 Clouds -30 1021 75 10000 2 290 22:34 15.02.2022
5268 Clear -29 1021 75 10000 1 290 21:50 15.02.2022
5269 Clear -30 1021 75 10000 2 280 21:29 15.02.2022
5270 Clear -29 1022 75 10000 1 300 20:57 15.02.2022
5271 Clear -29 1021 75 10000 2 300 20:19 15.02.2022
5272 Clear -28 1021 75 10000 2 290 19:33 15.02.2022
5273 Clear -28 1021 75 10000 1 290 18:24 15.02.2022
5274 Clear -28 1021 82 10000 2 280 17:52 15.02.2022
5275 Clouds -27 1021 83 10000 0 0 17:26 15.02.2022
5276 Clear -24 1021 83 10000 1 0 15:36 15.02.2022
5277 Clear -23 1020 76 10000 2 340 13:49 15.02.2022
5278 Clear -23 1020 83 10000 2 350 13:25 15.02.2022
5279 Clear -20 1020 76 10000 2 300 11:41 15.02.2022
5280 Clear -20 1020 76 10000 2 300 11:41 15.02.2022
5281 Clouds -19 1019 77 10000 2 60 09:54 15.02.2022
5282 Clouds -24 1018 77 10000 0 0 07:00 15.02.2022
5283 Clouds -26 1018 76 10000 0 0 06:19 15.02.2022
5284 Clouds -26 1017 76 10000 0 0 23:34 14.02.2022
5285 Clouds -27 1017 83 10000 1 0 21:55 14.02.2022
5286 Clouds -27 1017 83 10000 1 330 20:51 14.02.2022
5287 Clouds -25 1017 84 10000 1 10 19:46 14.02.2022
5288 Clouds -25 1017 77 10000 0 0 19:26 14.02.2022
5289 Clouds -24 1017 77 10000 1 50 18:23 14.02.2022
5290 Clouds -24 1017 77 10000 1 0 17:27 14.02.2022
5291 Clouds -23 1017 76 10000 2 100 16:27 14.02.2022
5292 Clouds -22 1017 76 10000 3.13 80 14:43 14.02.2022
5293 Clouds -20 1016 76 10000 1 40 13:34 14.02.2022
5294 Clouds -20 1016 76 10000 2 50 12:58 14.02.2022
5295 Clouds -20 1016 77 10000 3 90 11:56 14.02.2022
5296 Clouds -20 1016 77 10000 3 90 11:37 14.02.2022
5297 Clouds -20 1015 77 10000 3 80 09:25 14.02.2022
5298 Clouds -22 1015 77 10000 3 90 07:34 14.02.2022
5299 Clear -24 1015 84 10000 0 0 06:54 14.02.2022
5300 Clear -24 1015 76 10000 4.02 100 22:44 13.02.2022
5301 Clear -24 1016 76 10000 4.02 90 22:26 13.02.2022
5302 Clear -25 1016 83 10000 4.02 90 21:48 13.02.2022
5303 Clear -25 1016 83 10000 4.02 90 20:42 13.02.2022
5304 Clear -24 1016 76 10000 3.13 100 19:51 13.02.2022
5305 Clear -24 1016 83 10000 4.02 90 18:56 13.02.2022
5306 Clear -24 1016 83 10000 5 110 18:38 13.02.2022
5307 Clear -22 1017 76 10000 6 100 16:40 13.02.2022
5308 Clear -22 1017 76 10000 6 110 15:42 13.02.2022
5309 Clear -20 1018 70 10000 5.81 110 14:38 13.02.2022
5310 Clear -20 1018 70 10000 5 100 12:52 13.02.2022
5311 Clear -20 1018 76 10000 5 100 12:33 13.02.2022
5312 Clear -20 1018 76 10000 5 110 10:38 13.02.2022
5313 Clouds -20 1018 76 10000 5 100 09:49 13.02.2022
5314 Clear -22 1019 76 10000 5 90 08:33 13.02.2022
5315 Clouds -24 1021 76 10000 5 110 01:24 13.02.2022
5316 Clear -24 1021 76 10000 4.02 110 00:21 13.02.2022
5317 Clear -23 1021 83 10000 5 120 22:34 12.02.2022
5318 Clear -23 1022 83 10000 5 120 21:40 12.02.2022
5319 Clear -23 1022 83 10000 5 120 20:55 12.02.2022
5320 Clear -23 1022 83 10000 5 120 19:56 12.02.2022
5321 Clear -23 1022 83 10000 6 120 18:54 12.02.2022
5322 Clouds -23 1022 83 10000 6 120 18:36 12.02.2022
5323 Clear -22 1022 76 10000 7.15 120 17:39 12.02.2022
5324 Clouds -22 1022 76 10000 6 120 16:45 12.02.2022
5325 Clouds -22 1023 76 10000 6 120 15:53 12.02.2022
5326 Clouds -22 1023 76 10000 4.02 120 15:20 12.02.2022
5327 Clouds -21 1023 76 10000 5 120 14:25 12.02.2022
5328 Clear -19 1024 70 10000 5 120 11:31 12.02.2022
5329 Clear -20 1025 77 10000 5 110 10:30 12.02.2022
5330 Clear -20 1026 70 10000 4.02 120 09:37 12.02.2022
5331 Clear -21 1026 77 10000 4 120 08:46 12.02.2022
5332 Clouds -22 1027 77 10000 3 120 07:44 12.02.2022
5333 Clouds -26 1029 75 10000 4.02 100 04:47 12.02.2022
5334 Clear -24 1031 76 10000 4.02 110 02:19 12.02.2022
5335 Clear -23 1033 83 10000 3.13 120 23:21 11.02.2022
5336 Clear -23 1033 83 10000 4.02 100 22:21 11.02.2022
5337 Clear -22 1034 76 10000 4.02 120 21:32 11.02.2022
5338 Clear -22 1035 83 10000 3.13 110 20:26 11.02.2022
5339 Clear -21 1035 76 10000 4.02 120 19:28 11.02.2022
5340 Clear -20 1036 76 10000 4.02 120 18:29 11.02.2022
5341 Clear -20 1036 76 10000 5 120 17:27 11.02.2022
5342 Clear -20 1036 76 10000 5 120 16:39 11.02.2022
5343 Clear -20 1037 76 10000 4.02 120 15:19 11.02.2022
5344 Clear -19 1038 77 10000 3.13 120 14:37 11.02.2022
5345 Clear -19 1038 77 10000 3.13 120 14:37 11.02.2022
5346 Clear -19 1038 77 10000 3.13 120 14:19 11.02.2022
5347 Clear -19 1038 77 10000 4.02 120 13:40 11.02.2022
5348 Clear -19 1038 70 10000 3.13 120 13:21 11.02.2022
5349 Clear -19 1039 71 10000 4 130 10:55 11.02.2022
5350 Clear -19 1040 71 10000 4 130 09:32 11.02.2022
5351 Clouds -19 1040 77 10000 4.02 140 08:31 11.02.2022
5352 Clouds -21 1040 84 10000 4 140 07:40 11.02.2022
5353 Clouds -23 1041 77 6000 3 150 05:34 11.02.2022
5354 Clear -22 1041 77 10000 3 140 02:21 11.02.2022
5355 Clear -20 1042 84 10000 3.13 140 23:45 10.02.2022
5356 Clear -19 1042 78 10000 3 150 22:25 10.02.2022
5357 Clear -19 1042 78 10000 2 140 21:40 10.02.2022
5358 Clear -19 1042 84 10000 2 140 20:48 10.02.2022
5359 Clear -18 1042 78 10000 3 140 19:49 10.02.2022
5360 Clear -18 1042 77 10000 3.13 140 19:21 10.02.2022
5361 Clear -17 1042 78 10000 4 150 17:53 10.02.2022
5362 Clear -17 1042 77 10000 4.02 160 17:21 10.02.2022
5363 Clear -17 1042 77 10000 4.02 160 16:31 10.02.2022
5364 Clear -16 1042 77 10000 4.02 160 15:37 10.02.2022
5365 Clear -16 1042 71 10000 4.02 160 15:18 10.02.2022
5366 Clear -16 1042 77 10000 4.02 160 14:33 10.02.2022
5367 Clear -16 1042 77 10000 4.02 150 13:34 10.02.2022
5368 Clear -16 1042 77 10000 3.13 150 12:53 10.02.2022
5369 Clear -16 1042 77 10000 3.13 140 11:48 10.02.2022
5370 Clear -16 1042 77 10000 3.13 140 11:28 10.02.2022
5371 Clear -17 1042 84 10000 3.13 150 10:21 10.02.2022
5372 Clear -18 1042 84 10000 3.13 130 09:27 10.02.2022
5373 Clear -19 1042 77 10000 2 140 08:21 10.02.2022
5374 Clear -21 1042 76 10000 3.13 160 06:19 10.02.2022
5375 Clear -24 1041 76 10000 2 140 02:28 10.02.2022
5376 Clear -23 1041 83 10000 2 150 00:51 10.02.2022
5377 Clear -22 1041 76 10000 2 150 00:30 10.02.2022
5378 Clear -21 1041 84 10000 2 150 23:49 09.02.2022
5379 Clear -23 1041 83 10000 3.13 160 22:45 09.02.2022
5380 Clear -23 1041 76 10000 2 150 22:25 09.02.2022
5381 Clear -23 1041 76 10000 2 120 21:38 09.02.2022
5382 Clear -24 1041 83 10000 2 120 21:18 09.02.2022
5383 Clouds -23 1041 83 10000 2 110 20:41 09.02.2022
5384 Clouds -22 1041 76 10000 2 110 20:20 09.02.2022
5385 Clouds -22 1041 83 10000 2 110 19:38 09.02.2022
5386 Clouds -21 1041 76 10000 3.13 100 17:43 09.02.2022
5387 Clouds -22 1041 83 10000 3.13 120 16:53 09.02.2022
5388 Clouds -22 1041 83 10000 3.13 120 15:55 09.02.2022
5389 Clear -21 1040 76 10000 3.13 100 14:43 09.02.2022
5390 Clear -20 1040 84 10000 3.13 120 12:42 09.02.2022
5391 Clear -20 1040 84 10000 3.13 120 12:42 09.02.2022
5392 Clear -19 1039 84 10000 3 130 11:20 09.02.2022
5393 Clear -19 1039 84 10000 3 130 10:31 09.02.2022
5394 Clouds -20 1039 84 10000 3 130 09:42 09.02.2022
5395 Clouds -20 1039 84 10000 3 130 09:19 09.02.2022
5396 Clouds -20 1039 76 10000 2 130 08:26 09.02.2022
5397 Clouds -25 1038 83 10000 3.13 100 05:30 09.02.2022
5398 Clouds -25 1038 83 10000 3.13 100 05:30 09.02.2022
5399 Clouds -24 1038 76 10000 3.13 100 03:50 09.02.2022
5400 Clouds -23 1037 76 10000 4.02 100 01:28 09.02.2022
5401 Clouds -23 1037 83 10000 3.13 110 23:39 08.02.2022
5402 Clouds -23 1036 83 10000 3.13 120 22:51 08.02.2022
5403 Clouds -22 1036 76 10000 3.13 120 22:22 08.02.2022
5404 Clouds -22 1036 76 10000 4.02 120 21:52 08.02.2022
5405 Clouds -22 1037 76 10000 3.13 120 21:21 08.02.2022
5406 Clouds -23 1037 83 10000 4.02 110 20:45 08.02.2022
5407 Clouds -22 1036 76 10000 4.02 110 19:52 08.02.2022
5408 Clouds -22 1036 76 10000 5 100 18:52 08.02.2022
5409 Clear -22 1035 83 10000 5 110 17:50 08.02.2022
5410 Clear -21 1035 83 10000 4.02 120 16:35 08.02.2022
5411 Clear -21 1035 83 10000 4.02 120 15:39 08.02.2022
5412 Clear -21 1035 83 10000 4.02 120 14:56 08.02.2022
5413 Clear -20 1035 76 10000 4.02 120 13:29 08.02.2022
5414 Clear -19 1035 77 10000 4.02 120 12:18 08.02.2022
5415 Clear -17 1034 71 10000 3.13 120 10:39 08.02.2022
5416 Clear -18 1034 77 10000 5 120 09:46 08.02.2022
5417 Clear -20 1034 84 10000 4.02 120 08:25 08.02.2022
5418 Clouds -22 1034 76 10000 4 120 05:41 08.02.2022
5419 Clouds -23 1034 83 10000 4.02 120 04:39 08.02.2022
5420 Clouds -23 1034 83 10000 4.02 120 04:21 08.02.2022
5421 Clouds -22 1034 76 10000 5 120 03:36 08.02.2022
5422 Clouds -22 1034 76 10000 5 120 03:18 08.02.2022
5423 Clear -22 1034 76 10000 5 120 02:59 08.02.2022
5424 Clouds -22 1034 83 10000 4.02 120 02:36 08.02.2022
5425 Clouds -22 1034 83 10000 4.02 120 02:18 08.02.2022
5426 Clouds -22 1034 83 10000 5 110 01:44 08.02.2022
5427 Clouds -22 1033 83 10000 5 110 01:24 08.02.2022
5428 Clear -21 1033 76 10000 6 110 00:55 08.02.2022
5429 Clear -21 1033 83 10000 6 110 23:58 07.02.2022
5430 Clear -21 1033 83 10000 6 110 23:40 07.02.2022
5431 Clear -21 1033 83 10000 6 110 23:40 07.02.2022
5432 Clear -20 1033 76 10000 6 110 23:18 07.02.2022
5433 Clear -20 1033 84 10000 5 120 22:54 07.02.2022
5434 Clear -20 1033 84 10000 5 110 22:18 07.02.2022
5435 Clouds -20 1033 84 10000 5 120 21:44 07.02.2022
5436 Clouds -20 1033 84 10000 5 120 21:25 07.02.2022
5437 Clouds -19 1033 77 10000 4.02 120 20:41 07.02.2022
5438 Clear -19 1033 77 10000 4.02 120 19:56 07.02.2022
5439 Clear -19 1033 77 10000 5 100 19:38 07.02.2022
5440 Clear -19 1033 84 10000 6 100 18:21 07.02.2022
5441 Clear -19 1033 84 10000 6 100 16:53 07.02.2022
5442 Clear -18 1032 84 10000 6 90 16:20 07.02.2022
5443 Clear -18 1032 84 10000 6 90 16:20 07.02.2022
5444 Clear -18 1032 84 10000 6 100 15:48 07.02.2022
5445 Clear -17 1032 84 10000 5 90 13:37 07.02.2022
5446 Clear -17 1032 84 10000 5 90 13:19 07.02.2022
5447 Clear -15 1032 84 10000 5.81 90 11:58 07.02.2022
5448 Clear -15 1032 84 10000 5.81 90 11:58 07.02.2022
5449 Clear -15 1031 84 10000 5.81 100 11:37 07.02.2022
5450 Clear -14 1032 77 10000 7.15 100 10:52 07.02.2022
5451 Clear -14 1032 77 10000 4.92 120 10:32 07.02.2022
5452 Clear -14 1031 84 10000 4.92 120 09:53 07.02.2022
5453 Clear -15 1031 77 10000 4.92 90 09:18 07.02.2022
5454 Clear -16 1031 84 10000 4.92 90 08:39 07.02.2022
5455 Clouds -18 1031 77 10000 4.92 80 07:19 07.02.2022
5456 Clear -19 1031 84 10000 4.92 90 06:34 07.02.2022
5457 Clear -21 1030 83 10000 5.81 100 03:27 07.02.2022
5458 Clear -21 1029 83 10000 1.79 70 00:45 07.02.2022
5459 Clear -21 1028 83 10000 3.13 80 23:49 06.02.2022
5460 Clear -20 1027 84 10000 3.13 90 22:49 06.02.2022
5461 Clear -20 1027 84 10000 3.13 80 21:56 06.02.2022
5462 Clear -19 1027 84 10000 4.02 70 21:35 06.02.2022
5463 Clear -20 1027 84 10000 0.89 0 20:55 06.02.2022
5464 Clear -20 1027 84 10000 0.89 0 20:55 06.02.2022
5465 Clear -19 1026 84 10000 3.13 70 20:31 06.02.2022
5466 Clear -19 1026 84 10000 4.92 70 19:38 06.02.2022
5467 Clear -18 1025 84 10000 1.79 70 18:41 06.02.2022
5468 Clear -18 1025 84 10000 1.79 80 17:56 06.02.2022
5469 Clear -17 1024 84 10000 3.13 80 17:21 06.02.2022
5470 Clear -17 1024 84 10000 4.02 70 16:47 06.02.2022
5471 Clear -16 1024 84 10000 4.92 60 15:49 06.02.2022
5472 Clear -15 1023 84 10000 4.02 70 15:27 06.02.2022
5473 Clear -15 1023 84 10000 4.92 60 14:45 06.02.2022
5474 Clear -13 1022 92 10000 4.02 50 13:27 06.02.2022
5475 Clouds -12 1022 85 10000 4.02 60 12:58 06.02.2022
5476 Snow -10 1021 78 4400 4.02 50 11:35 06.02.2022
5477 Snow -9 1020 78 7000 4.92 60 10:31 06.02.2022
5478 Snow -9 1020 85 7000 5.81 70 08:59 06.02.2022
5479 Clouds -9 1019 85 10000 5.81 70 08:30 06.02.2022
5480 Snow -10 1020 85 10000 4.92 80 05:31 06.02.2022
5481 Snow -10 1020 85 10000 4.92 80 05:31 06.02.2022
5482 Snow -10 1020 85 3200 5.81 90 02:50 06.02.2022
5483 Snow -10 1020 92 2000 5.81 90 02:24 06.02.2022
5484 Snow -9 1021 85 2000 4.92 90 00:29 06.02.2022
5485 Snow -10 1021 92 1700 4.92 80 22:31 05.02.2022
5486 Snow -10 1021 92 1900 4.92 90 21:32 05.02.2022
5487 Snow -10 1022 92 6000 4.92 80 20:24 05.02.2022
5488 Snow -10 1022 92 10000 4.02 90 19:46 05.02.2022
5489 Snow -9 1022 85 3200 4.02 80 18:58 05.02.2022
5490 Clear -10 1022 92 10000 4.02 90 17:45 05.02.2022
5491 Clear -10 1022 92 10000 3.13 110 17:25 05.02.2022
5492 Clouds -10 1023 92 10000 4.02 90 15:40 05.02.2022
5493 Clouds -10 1023 92 10000 4.02 90 15:21 05.02.2022
5494 Clouds -9 1022 92 10000 1.79 50 12:47 05.02.2022
5495 Clouds -9 1023 85 10000 1.79 60 12:27 05.02.2022
5496 Clouds -8 1022 85 10000 0.89 10 10:48 05.02.2022
5497 Clouds -8 1022 85 10000 0 0 10:20 05.02.2022
5498 Clear -8 1022 85 10000 0.89 0 09:43 05.02.2022
5499 Clouds -9 1021 92 10000 1.79 240 07:51 05.02.2022
5500 Clouds -9 1021 92 10000 3.13 280 06:57 05.02.2022
5501 Clouds -8 1020 86 10000 2 290 04:30 05.02.2022
5502 Clouds -7 1018 86 10000 5 280 01:19 05.02.2022
5503 Clouds -7 1018 86 10000 4 290 00:53 05.02.2022
5504 Snow -6 1017 86 9000 6 300 23:41 04.02.2022
5505 Snow -6 1017 86 9000 6 300 23:23 04.02.2022
5506 Clouds -5 1016 85 10000 4.92 250 21:54 04.02.2022
5507 Clouds -4 1016 85 10000 4.92 250 21:36 04.02.2022
5508 Clouds -4 1016 85 10000 4.92 250 21:18 04.02.2022
5509 Clouds -4 1015 85 10000 5.81 250 19:39 04.02.2022
5510 Clouds -4 1015 85 10000 4.02 230 17:43 04.02.2022
5511 Snow -4 1015 85 7000 4.02 230 15:39 04.02.2022
5512 Snow -5 1015 92 10000 4.02 220 14:54 04.02.2022
5513 Snow -5 1015 92 7000 4.02 230 13:31 04.02.2022
5514 Snow -5 1015 92 7000 4.92 220 12:43 04.02.2022
5515 Clouds -5 1014 85 10000 4.02 230 11:41 04.02.2022
5516 Snow -6 1014 92 10000 4.92 230 10:36 04.02.2022
5517 Snow -6 1013 85 9000 4.92 230 08:34 04.02.2022
5518 Snow -7 1013 92 5000 4.02 220 06:18 04.02.2022
5519 Snow -6 1014 85 2100 4.92 190 02:44 04.02.2022
5520 Snow -6 1015 92 1100 4.02 180 01:48 04.02.2022
5521 Clouds -5 1017 85 10000 4.02 170 23:29 03.02.2022
5522 Snow -5 1018 85 10000 4.02 150 22:33 03.02.2022
5523 Snow -5 1020 85 10000 4.92 190 21:49 03.02.2022
5524 Snow -5 1020 85 2300 4.02 190 20:38 03.02.2022
5525 Snow -6 1020 92 2300 4.02 190 20:18 03.02.2022
5526 Snow -6 1021 92 1100 4.92 190 19:30 03.02.2022
5527 Snow -6 1021 92 2300 4.92 170 18:34 03.02.2022
5528 Snow -6 1022 85 3200 4.92 190 17:32 03.02.2022
5529 Clouds -7 1023 92 10000 4.02 190 16:25 03.02.2022
5530 Clear -7 1024 92 10000 3.13 200 14:37 03.02.2022
5531 Clouds -5 1024 85 10000 4.92 230 12:51 03.02.2022
5532 Clouds -4 1023 85 10000 4.92 220 10:45 03.02.2022
5533 Snow -4 1023 85 4500 4.92 230 08:35 03.02.2022
5534 Snow -5 1020 92 2600 4.92 210 03:57 03.02.2022
5535 Clouds -6 1020 92 10000 4.92 190 00:30 03.02.2022
5536 Snow -6 1020 92 7000 4.02 200 23:36 02.02.2022
5537 Snow -6 1020 92 4100 4.02 190 21:54 02.02.2022
5538 Snow -6 1020 92 3000 4.02 180 21:30 02.02.2022
5539 Snow -6 1020 92 3100 3.13 170 20:38 02.02.2022
5540 Snow -6 1021 92 3700 4.02 170 19:55 02.02.2022
5541 Snow -6 1021 92 5000 3.13 170 19:26 02.02.2022
5542 Clouds -6 1021 92 10000 3.13 180 18:34 02.02.2022
5543 Clouds -7 1021 92 10000 3.13 160 17:38 02.02.2022
5544 Clouds -8 1022 92 10000 3.13 160 17:19 02.02.2022
5545 Clouds -8 1022 92 10000 3.13 150 16:30 02.02.2022
5546 Snow -14 1023 84 6000 1.79 140 12:54 02.02.2022
5547 Snow -13 1023 92 3800 1.79 160 12:18 02.02.2022
5548 Snow -14 1023 84 3000 1.79 130 11:31 02.02.2022
5549 Clouds -16 1023 92 10000 2 120 09:46 02.02.2022
5550 Snow -18 1024 84 7000 1.79 100 07:32 02.02.2022
5551 Clear -24 1024 76 10000 0 0 22:46 01.02.2022
5552 Clear -23 1023 84 10000 1 230 21:36 01.02.2022
5553 Clouds -23 1023 84 9000 1 250 19:57 01.02.2022
5554 Clouds -23 1022 83 9000 0.89 0 17:38 01.02.2022
5555 Clear -23 1022 84 10000 2 250 16:36 01.02.2022
5556 Clouds -21 1021 84 10000 1 0 13:32 01.02.2022
5557 Mist -19 1021 77 5000 0.89 240 12:30 01.02.2022
5558 Clouds -19 1020 78 10000 1 260 11:19 01.02.2022
5559 Clouds -20 1018 84 10000 0.89 0 02:32 01.02.2022
5560 Clouds -20 1017 84 10000 0.89 150 23:41 31.01.2022
5561 Snow -20 1017 84 8000 1.79 120 22:48 31.01.2022
5562 Snow -19 1017 84 9000 1.79 120 21:38 31.01.2022
5563 Snow -17 1017 84 7000 1.79 150 20:50 31.01.2022
5564 Snow -17 1017 84 10000 1.79 150 20:27 31.01.2022
5565 Clouds -16 1017 91 10000 1.79 140 19:20 31.01.2022
5566 Clouds -15 1017 84 10000 1.79 150 18:20 31.01.2022
5567 Clouds -15 1017 84 10000 1.79 160 17:25 31.01.2022
5568 Clouds -15 1017 92 10000 1.79 160 16:26 31.01.2022
5569 Snow -14 1017 84 9000 3.13 160 14:54 31.01.2022
5570 Snow -13 1017 84 7000 4.02 160 13:51 31.01.2022
5571 Clouds -13 1016 84 10000 3.13 160 12:38 31.01.2022
5572 Clouds -13 1016 84 10000 3.13 160 11:42 31.01.2022
5573 Clouds -13 1016 84 10000 3.13 160 10:50 31.01.2022
5574 Clouds -13 1016 84 10000 3.13 150 09:59 31.01.2022
5575 Clouds -13 1016 84 10000 3.13 150 08:59 31.01.2022
5576 Clouds -13 1016 84 10000 3.13 150 08:39 31.01.2022
5577 Clouds -13 1016 84 10000 3.13 150 08:20 31.01.2022
5578 Snow -13 1016 92 6000 3.13 150 06:18 31.01.2022
5579 Snow -13 1016 85 10000 3 160 00:46 31.01.2022
5580 Clouds -15 1016 85 10000 2 130 22:40 30.01.2022
5581 Clouds -15 1016 84 10000 1.79 130 22:22 30.01.2022
5582 Clouds -15 1016 84 10000 4.02 150 21:38 30.01.2022
5583 Clouds -15 1016 84 10000 3.13 130 21:18 30.01.2022
5584 Clouds -16 1016 91 10000 1.79 130 20:45 30.01.2022
5585 Clouds -15 1016 84 10000 3.13 120 20:27 30.01.2022
5586 Clouds -16 1017 84 10000 4.02 110 19:24 30.01.2022
5587 Clouds -15 1017 84 10000 4.02 120 18:36 30.01.2022
5588 Clouds -15 1017 84 10000 4.02 110 17:54 30.01.2022
5589 Clouds -15 1017 84 10000 4.02 120 17:21 30.01.2022
5590 Clear -15 1017 84 10000 4.02 110 16:39 30.01.2022
5591 Clear -15 1017 84 10000 4.02 110 16:21 30.01.2022
5592 Clear -15 1017 84 10000 4.02 110 15:49 30.01.2022
5593 Clear -15 1017 85 10000 4 110 15:31 30.01.2022
5594 Clear -15 1018 85 10000 3 120 14:45 30.01.2022
5595 Clear -16 1018 85 10000 4 110 12:46 30.01.2022
5596 Clear -16 1019 85 10000 4 100 11:53 30.01.2022
5597 Clouds -16 1019 85 10000 4 110 10:29 30.01.2022
5598 Clouds -16 1019 85 10000 3 100 09:50 30.01.2022
5599 Clouds -16 1020 85 10000 3 120 08:52 30.01.2022
5600 Clouds -17 1020 85 10000 3 100 06:55 30.01.2022
5601 Clouds -19 1022 84 7000 1.79 160 01:55 30.01.2022
5602 Clear -19 1022 84 10000 0.89 0 00:22 30.01.2022
5603 Clouds -19 1022 84 10000 1.79 160 22:58 29.01.2022
5604 Clear -19 1023 84 10000 1.79 150 21:47 29.01.2022
5605 Clear -20 1023 84 10000 0.89 150 21:23 29.01.2022
5606 Clouds -19 1023 84 10000 1.79 190 20:22 29.01.2022
5607 Clouds -19 1023 77 9000 1.79 190 19:33 29.01.2022
5608 Clouds -20 1023 84 8000 1.79 190 18:52 29.01.2022
5609 Clouds -20 1023 84 8000 1.79 190 18:18 29.01.2022
5610 Mist -20 1023 84 10000 0 0 17:28 29.01.2022
5611 Clouds -19 1023 84 10000 3 190 15:50 29.01.2022
5612 Mist -22 1023 76 5000 0.89 150 13:59 29.01.2022
5613 Clouds -22 1023 76 8000 0.89 150 13:41 29.01.2022
5614 Clouds -21 1023 83 8000 1 0 13:22 29.01.2022
5615 Clouds -21 1023 83 10000 1.79 220 11:47 29.01.2022
5616 Clouds -20 1023 84 10000 1.79 210 10:54 29.01.2022
5617 Clouds -20 1023 76 10000 0.89 220 08:42 29.01.2022
5618 Clouds -22 1022 83 6000 1.79 220 06:37 29.01.2022
5619 Clear -21 1021 84 10000 1 230 00:34 29.01.2022
5620 Clear -21 1021 84 10000 1 210 23:51 28.01.2022
5621 Clear -21 1021 84 10000 1 220 22:50 28.01.2022
5622 Clear -21 1021 84 10000 1 0 22:21 28.01.2022
5623 Clear -20 1021 84 10000 2 220 21:35 28.01.2022
5624 Clear -20 1020 84 10000 1.79 220 20:29 28.01.2022
5625 Clear -20 1020 84 10000 1.79 210 19:28 28.01.2022
5626 Clouds -20 1020 84 10000 1.79 200 18:42 28.01.2022
5627 Clear -18 1020 84 10000 3.13 220 16:45 28.01.2022
5628 Clear -17 1020 91 10000 4.02 220 14:59 28.01.2022
5629 Clear -16 1019 84 10000 3.13 210 13:34 28.01.2022
5630 Clear -15 1019 84 10000 3.13 200 12:26 28.01.2022
5631 Clear -15 1018 84 10000 4.02 200 10:41 28.01.2022
5632 Clear -15 1018 84 10000 4.02 210 09:48 28.01.2022
5633 Clouds -16 1018 84 10000 4.02 200 07:43 28.01.2022
5634 Clouds -17 1018 85 10000 3 200 06:32 28.01.2022
5635 Clouds -16 1018 85 10000 4 190 03:52 28.01.2022
5636 Clouds -15 1018 84 10000 4.02 200 02:29 28.01.2022
5637 Clouds -15 1018 84 10000 3.13 200 01:57 28.01.2022
5638 Clouds -15 1017 84 10000 3.13 200 01:30 28.01.2022
5639 Clouds -13 1017 84 10000 4.02 200 22:40 27.01.2022
5640 Clouds -13 1017 84 10000 4.02 190 21:41 27.01.2022
5641 Clouds -13 1018 84 10000 4.02 190 21:21 27.01.2022
5642 Snow -12 1018 85 9000 4.02 200 19:47 27.01.2022
5643 Snow -12 1018 92 7000 4.02 190 18:23 27.01.2022
5644 Clouds -12 1018 92 10000 4.92 180 17:18 27.01.2022
5645 Clear -13 1019 92 10000 4.92 160 14:24 27.01.2022
5646 Clear -14 1021 84 10000 4.92 160 12:53 27.01.2022
5647 Clear -14 1021 84 10000 4.02 150 12:20 27.01.2022
5648 Clouds -15 1022 84 10000 3.13 150 09:51 27.01.2022
5649 Clouds -16 1022 85 8000 3 150 08:40 27.01.2022
5650 Clouds -16 1022 84 10000 1.79 140 07:58 27.01.2022
5651 Snow -17 1023 84 10000 3.13 150 03:34 27.01.2022
5652 Snow -16 1023 85 10000 3 160 00:24 27.01.2022
5653 Snow -15 1023 85 3000 4 190 22:28 26.01.2022
5654 Snow -15 1023 85 7000 3 190 21:44 26.01.2022
5655 Snow -15 1023 85 4900 4 190 20:57 26.01.2022
5656 Snow -15 1023 92 4800 4 190 20:33 26.01.2022
5657 Snow -15 1023 85 4900 3 190 19:49 26.01.2022
5658 Clouds -15 1022 84 10000 3.13 190 18:52 26.01.2022
5659 Clouds -15 1022 84 10000 3.13 190 18:24 26.01.2022
5660 Snow -15 1022 84 9000 3.13 180 17:34 26.01.2022
5661 Snow -15 1022 84 10000 3.13 170 16:56 26.01.2022
5662 Snow -15 1022 84 10000 3.13 180 16:23 26.01.2022
5663 Snow -16 1022 84 10000 3.13 170 14:54 26.01.2022
5664 Clouds -18 1022 84 8000 3.13 160 12:22 26.01.2022
5665 Clouds -18 1022 84 10000 3.13 160 10:52 26.01.2022
5666 Clouds -17 1022 84 9000 3.13 180 09:55 26.01.2022
5667 Clouds -18 1022 84 9000 1.79 170 09:36 26.01.2022
5668 Clouds -18 1022 84 8000 1.79 180 06:42 26.01.2022
5669 Clouds -15 1022 85 10000 1 0 00:24 26.01.2022
5670 Clouds -15 1022 85 10000 2 140 23:41 25.01.2022
5671 Clouds -15 1022 85 10000 1 160 22:49 25.01.2022
5672 Clouds -15 1022 85 10000 1 160 22:19 25.01.2022
5673 Clouds -15 1022 85 10000 1 130 21:27 25.01.2022
5674 Clouds -16 1021 92 10000 2 130 20:45 25.01.2022
5675 Clouds -16 1021 85 10000 2 150 19:57 25.01.2022
5676 Clouds -16 1021 85 10000 2 130 19:28 25.01.2022
5677 Snow -18 1021 84 8000 3.13 90 17:56 25.01.2022
5678 Snow -18 1021 84 8000 3.13 90 17:20 25.01.2022
5679 Snow -18 1021 84 7000 3.13 90 16:34 25.01.2022
5680 Clouds -18 1021 84 10000 1.79 100 15:39 25.01.2022
5681 Clouds -18 1021 84 10000 1.79 100 15:19 25.01.2022
5682 Clouds -19 1021 84 10000 3.13 100 14:51 25.01.2022
5683 Clouds -18 1021 84 10000 4.02 110 12:20 25.01.2022
5684 Clouds -16 1021 85 10000 4 120 09:35 25.01.2022
5685 Clouds -16 1022 85 7000 3 120 07:52 25.01.2022
5686 Snow -16 1022 85 7000 3 120 07:20 25.01.2022
5687 Snow -16 1022 84 8000 0.89 0 05:23 25.01.2022
5688 Snow -16 1022 84 8000 0.89 0 05:23 25.01.2022
5689 Snow -16 1024 84 10000 3.13 150 00:31 25.01.2022
5690 Snow -16 1025 84 10000 3.13 160 23:36 24.01.2022
5691 Snow -16 1025 84 10000 3.13 160 23:18 24.01.2022
5692 Snow -16 1025 84 10000 4.02 150 22:42 24.01.2022
5693 Snow -16 1026 84 10000 3.13 150 22:19 24.01.2022
5694 Clouds -16 1026 91 10000 3.13 160 21:40 24.01.2022
5695 Clouds -15 1027 84 10000 3.13 160 21:19 24.01.2022
5696 Clouds -16 1027 85 10000 3 190 20:26 24.01.2022
5697 Clouds -16 1027 85 10000 3 190 20:26 24.01.2022
5698 Clouds -15 1027 92 10000 3 190 19:38 24.01.2022
5699 Clouds -14 1027 85 10000 3 190 18:50 24.01.2022
5700 Snow -14 1028 85 6000 2 170 17:25 24.01.2022
5701 Snow -15 1029 85 9000 2 170 16:59 24.01.2022
5702 Snow -15 1029 85 7000 2 190 16:30 24.01.2022
5703 Clouds -15 1030 85 10000 2 210 14:56 24.01.2022
5704 Clouds -14 1030 85 10000 2 210 13:39 24.01.2022
5705 Clouds -13 1030 85 10000 2 200 12:33 24.01.2022
5706 Clouds -12 1030 85 10000 3.13 210 11:21 24.01.2022
5707 Clouds -12 1031 85 10000 1.79 220 10:18 24.01.2022
5708 Clouds -12 1031 85 10000 1.79 220 09:44 24.01.2022
5709 Snow -12 1031 85 10000 1.79 200 07:40 24.01.2022
5710 Snow -12 1032 85 6000 2 240 01:38 24.01.2022
5711 Snow -12 1032 92 9000 0.89 200 00:50 24.01.2022
5712 Snow -12 1032 92 5000 0.89 200 00:29 24.01.2022
5713 Snow -12 1032 92 10000 0.89 0 22:58 23.01.2022
5714 Clouds -12 1032 85 10000 2 110 21:52 23.01.2022
5715 Snow -12 1032 85 10000 1 0 21:27 23.01.2022
5716 Snow -12 1033 85 8000 1 0 20:55 23.01.2022
5717 Snow -12 1033 85 9000 0 0 20:21 23.01.2022
5718 Snow -12 1033 85 10000 0 0 18:53 23.01.2022
5719 Snow -13 1033 92 9000 0.89 190 17:56 23.01.2022
5720 Snow -13 1033 92 7000 0 0 16:55 23.01.2022
5721 Snow -12 1033 85 10000 1 230 15:46 23.01.2022
5722 Snow -12 1033 85 8000 1 230 14:48 23.01.2022
5723 Snow -12 1033 92 6000 2 230 14:18 23.01.2022
5724 Snow -12 1032 92 5000 2 210 12:44 23.01.2022
5725 Snow -11 1032 85 5000 1 0 12:19 23.01.2022
5726 Snow -12 1032 85 5000 0.89 0 11:25 23.01.2022
5727 Snow -12 1031 85 7000 0 0 10:57 23.01.2022
5728 Snow -13 1031 92 10000 0.89 220 10:24 23.01.2022
5729 Snow -12 1031 85 6000 1.79 210 09:26 23.01.2022
5730 Snow -12 1030 85 4400 2 230 06:18 23.01.2022
5731 Snow -12 1030 85 10000 2 230 03:20 23.01.2022
5732 Snow -12 1029 92 10000 1 0 01:36 23.01.2022
5733 Snow -12 1029 92 10000 1 0 00:46 23.01.2022
5734 Clouds -22 1031 100 2701 1.41 221 23:58 22.01.2022
5735 Clouds -12 1029 92 10000 2 230 22:48 22.01.2022
5736 Clouds -21 1031 100 2554 1.3 209 22:19 22.01.2022
5737 Clouds -11 1028 85 10000 2 210 20:33 22.01.2022
5738 Clouds -11 1028 85 10000 2 200 19:41 22.01.2022
5739 Clouds -22 1030 100 5018 1.45 221 18:37 22.01.2022
5740 Clouds -22 1030 100 5289 1.5 225 17:45 22.01.2022
5741 Clouds -11 1028 85 10000 2 210 17:19 22.01.2022
5742 Clouds -11 1028 85 10000 2 220 16:54 22.01.2022
5743 Clouds -11 1027 85 10000 2 200 15:45 22.01.2022
5744 Clouds -11 1027 85 10000 2 210 14:42 22.01.2022
5745 Clouds -11 1026 85 10000 2 230 13:28 22.01.2022
5746 Clouds -11 1026 85 10000 2 210 12:37 22.01.2022
5747 Clouds -11 1026 85 10000 2 210 12:18 22.01.2022
5748 Clouds -11 1026 85 10000 3 200 10:54 22.01.2022
5749 Clouds -11 1025 85 10000 3.13 220 10:23 22.01.2022
5750 Clouds -11 1025 85 10000 4.02 230 08:56 22.01.2022
5751 Clouds -11 1025 85 10000 4.02 230 08:38 22.01.2022
5752 Clouds -11 1024 85 10000 3.13 230 06:46 22.01.2022
5753 Snow -11 1023 85 10000 3.13 200 02:39 22.01.2022
5754 Snow -11 1022 85 6000 4.02 210 23:50 21.01.2022
5755 Snow -11 1022 85 6000 4.02 220 23:20 21.01.2022
5756 Snow -11 1021 85 1700 4.92 200 21:18 21.01.2022
5757 Snow -11 1020 92 2200 4.92 200 19:30 21.01.2022
5758 Snow -10 1020 85 1700 4.92 200 17:50 21.01.2022
5759 Snow -10 1020 85 1800 4.92 180 15:56 21.01.2022
5760 Clear -10 1020 85 10000 4.02 170 14:58 21.01.2022
5761 Clouds -10 1022 89 10000 5.32 187 12:43 21.01.2022
5762 Clear -10 1020 85 10000 5.81 170 11:29 21.01.2022
5763 Clear -10 1020 85 10000 5.81 180 10:33 21.01.2022
5764 Clear -10 1020 85 10000 4.92 190 08:58 21.01.2022
5765 Clear -10 1020 85 10000 4.02 190 07:48 21.01.2022
5766 Clear -12 1020 92 10000 5.81 190 01:51 21.01.2022
5767 Clear -11 1021 85 10000 4.02 190 22:47 20.01.2022
5768 Clear -11 1021 92 10000 4.02 190 21:49 20.01.2022
5769 Clear -11 1021 92 10000 4.02 190 21:25 20.01.2022
5770 Clouds -9 1021 92 10000 4.92 200 19:47 20.01.2022
5771 Clouds -8 1020 85 10000 4.92 210 19:18 20.01.2022
5772 Clouds -7 1020 92 10000 4.92 210 17:37 20.01.2022
5773 Clouds -6 1020 86 10000 6 210 16:19 20.01.2022
5774 Clouds -6 1019 93 10000 6 210 15:29 20.01.2022
5775 Clouds -6 1019 93 10000 6 200 14:19 20.01.2022
5776 Clouds -5 1019 86 10000 4 210 12:49 20.01.2022
5777 Snow -5 1019 86 8000 5 210 12:29 20.01.2022
5778 Snow -5 1018 93 3000 5 220 11:19 20.01.2022
5779 Clouds -5 1018 92 10000 5.81 230 09:50 20.01.2022
5780 Clouds -5 1017 93 10000 6 230 08:45 20.01.2022
5781 Snow -5 1016 93 10000 6 230 06:49 20.01.2022
5782 Clouds -6 1014 93 10000 5 230 00:40 20.01.2022
5783 Clouds -6 1013 86 10000 5 220 22:38 19.01.2022
5784 Clouds -6 1013 86 10000 5 230 21:34 19.01.2022
5785 Clouds -6 1013 86 10000 6 230 20:56 19.01.2022
5786 Clouds -6 1013 86 10000 6 230 20:30 19.01.2022
5787 Clouds -7 1012 93 10000 5 230 18:52 19.01.2022
5788 Clouds -7 1012 86 10000 5 220 17:51 19.01.2022
5789 Clouds -7 1012 86 10000 5 230 17:18 19.01.2022
5790 Clouds -7 1012 86 10000 5 230 17:18 19.01.2022
5791 Clouds -7 1012 86 10000 5 230 17:18 19.01.2022
5792 Clouds -7 1012 86 10000 5 230 17:18 19.01.2022
5793 Clouds -8 1011 92 10000 4.92 220 15:32 19.01.2022
5794 Clouds -8 1011 85 10000 5.81 220 13:25 19.01.2022
5795 Snow -7 1010 85 8000 4.92 230 11:58 19.01.2022
5796 Snow -7 1010 85 8000 4.92 230 11:38 19.01.2022
5797 Clouds -8 1009 85 10000 4.92 230 09:35 19.01.2022
5798 Clouds -7 1008 79 10000 4.92 230 08:33 19.01.2022
5799 Clouds -7 1008 85 10000 5.81 240 05:19 19.01.2022
5800 Clouds -7 1006 85 10000 5.81 230 00:21 19.01.2022
5801 Clouds -7 1006 85 10000 5.81 220 23:18 18.01.2022
5802 Clouds -7 1006 85 10000 5.81 220 23:18 18.01.2022
5803 Snow -7 1006 85 1900 5.81 220 21:44 18.01.2022
5804 Snow -8 1005 85 1700 4.92 220 20:34 18.01.2022
5805 Clouds -8 1005 85 10000 5.81 210 19:49 18.01.2022
5806 Snow -8 1005 85 3900 5.81 210 19:31 18.01.2022
5807 Snow -8 1005 85 1600 5.81 210 18:19 18.01.2022
5808 Snow -9 1005 92 2500 4.92 210 17:32 18.01.2022
5809 Snow -9 1005 85 4400 4.02 200 16:20 18.01.2022
5810 Snow -10 1005 85 9000 4.02 200 15:25 18.01.2022
5811 Snow -11 1005 85 10000 4.02 210 14:22 18.01.2022
5812 Snow -12 1005 78 6000 3.13 210 11:31 18.01.2022
5813 Snow -13 1004 84 8000 4.02 200 10:25 18.01.2022
5814 Snow -14 1004 77 7000 4.02 200 08:29 18.01.2022
5815 Snow -15 1003 84 6000 3.13 200 07:42 18.01.2022
5816 Clouds -16 1000 77 10000 7.15 230 00:38 18.01.2022
5817 Clouds -17 999 77 10000 7.15 230 22:39 17.01.2022
5818 Clouds -17 997 77 10000 7.15 220 21:41 17.01.2022
5819 Clouds -17 996 77 10000 8.94 230 20:39 17.01.2022
5820 Snow -15 994 77 7000 8.94 230 18:46 17.01.2022
5821 Snow -15 994 77 3400 9.83 230 18:24 17.01.2022
5822 Snow -14 992 77 3000 8.94 230 17:19 17.01.2022
5823 Clouds -13 990 78 1900 11.18 230 15:47 17.01.2022
5824 Clouds -12 988 85 900 9.83 230 14:58 17.01.2022
5825 Clouds -11 987 85 900 11.18 230 14:22 17.01.2022
5826 Clouds -10 986 85 1300 12.07 230 13:18 17.01.2022
5827 Clouds -9 983 85 1300 9.83 210 11:51 17.01.2022
5828 Clouds -8 981 85 1600 8.94 200 10:47 17.01.2022
5829 Clouds -7 979 85 900 8.94 190 09:35 17.01.2022
5830 Clouds -7 979 85 1000 8.05 200 08:43 17.01.2022
5831 Clouds -5 978 85 1700 8.05 180 07:20 17.01.2022
5832 Snow -6 982 85 6000 5.81 140 00:58 17.01.2022
5833 Clouds -6 983 85 1400 5.81 130 23:27 16.01.2022
5834 Snow -7 988 92 1500 7.15 120 20:41 16.01.2022
5835 Snow -7 990 92 9000 5.81 120 19:55 16.01.2022
5836 Clouds -7 992 92 10000 5.81 130 18:45 16.01.2022
5837 Clouds -7 993 92 10000 4.92 130 17:46 16.01.2022
5838 Clouds -6 995 85 10000 5.81 130 16:50 16.01.2022
5839 Clouds -6 996 85 10000 4.92 150 15:34 16.01.2022
5840 Clouds -7 997 92 10000 4.92 170 14:29 16.01.2022
5841 Clouds -8 997 92 10000 4.02 160 12:51 16.01.2022
5842 Clouds -8 997 85 10000 4.02 160 11:48 16.01.2022
5843 Clouds -9 997 92 10000 4.02 160 10:58 16.01.2022
5844 Clouds -9 997 85 10000 4.02 170 10:26 16.01.2022
5845 Clouds -9 997 85 10000 4.02 160 09:54 16.01.2022
5846 Clouds -9 997 85 10000 4.02 170 09:22 16.01.2022
5847 Snow -9 997 85 9000 4.02 180 08:38 16.01.2022
5848 Clouds -12 994 85 10000 4.92 160 03:21 16.01.2022
5849 Snow -14 994 84 7000 4.02 130 23:50 15.01.2022
5850 Snow -14 994 84 7000 4.02 130 23:50 15.01.2022
5851 Snow -14 994 78 5000 5 120 22:19 15.01.2022
5852 Snow -14 994 84 1700 4.02 120 21:19 15.01.2022
5853 Snow -14 994 84 6000 4.02 120 20:40 15.01.2022
5854 Snow -14 995 84 10000 4.02 120 19:30 15.01.2022
5855 Snow -14 994 84 10000 4.92 110 18:45 15.01.2022
5856 Snow -14 996 84 7000 4.92 130 17:30 15.01.2022
5857 Snow -14 996 84 7000 4.92 120 15:59 15.01.2022
5858 Snow -14 997 84 7000 5.81 140 13:56 15.01.2022
5859 Snow -14 997 84 7000 4.92 130 12:18 15.01.2022
5860 Snow -14 997 84 6000 4.92 130 10:38 15.01.2022
5861 Snow -14 998 84 9000 5.81 130 08:31 15.01.2022
5862 Clear -16 1003 84 10000 4.92 150 00:28 15.01.2022
5863 Clouds -17 1005 77 9000 5.81 150 21:52 14.01.2022
5864 Clouds -18 1005 84 8000 5.81 150 20:41 14.01.2022
5865 Clouds -18 1005 84 8000 4.92 150 20:20 14.01.2022
5866 Mist -17 1007 77 10000 4.02 150 18:49 14.01.2022
5867 Clear -17 1007 84 10000 5.81 160 17:57 14.01.2022
5868 Clear -15 1007 77 10000 7.15 160 16:48 14.01.2022
5869 Clear -14 1007 77 10000 7.15 170 15:39 14.01.2022
5870 Clear -13 1008 66 10000 7.15 180 14:42 14.01.2022
5871 Clear -12 1008 66 10000 7.15 180 13:35 14.01.2022
5872 Clear -11 1008 66 10000 5.81 190 12:28 14.01.2022
5873 Clear -10 1008 72 10000 5.81 190 10:53 14.01.2022
5874 Clear -10 1009 66 10000 5.81 190 08:54 14.01.2022
5875 Clear -10 1009 66 10000 5.81 190 08:34 14.01.2022
5876 Clear -8 1009 67 10000 8.05 220 05:29 14.01.2022
5877 Clear -12 1010 72 10000 5.81 200 01:20 14.01.2022
5878 Clear -14 1011 72 10000 5 210 22:52 13.01.2022
5879 Clear -14 1011 65 10000 7.15 210 21:31 13.01.2022
5880 Clear -14 1011 65 10000 4.92 210 20:57 13.01.2022
5881 Clear -17 1012 78 10000 4 200 19:40 13.01.2022
5882 Clear -17 1012 77 10000 4.02 200 19:21 13.01.2022
5883 Clear -17 1013 77 10000 4.02 210 17:52 13.01.2022
5884 Clear -15 1014 71 10000 4.02 220 16:21 13.01.2022
5885 Clear -13 1014 72 10000 5 240 15:37 13.01.2022
5886 Clear -13 1014 78 10000 4 240 14:40 13.01.2022
5887 Clear -16 1014 84 10000 4.02 230 12:37 13.01.2022
5888 Clear -19 1015 84 10000 3.13 230 10:23 13.01.2022
5889 Clear -20 1015 84 10000 3 230 08:58 13.01.2022
5890 Clear -21 1015 84 10000 3 230 08:26 13.01.2022
5891 Clear -21 1015 77 10000 3 230 07:23 13.01.2022
5892 Clear -22 1016 84 10000 3 220 05:59 13.01.2022
5893 Clouds -21 1016 77 10000 3 220 05:19 13.01.2022
5894 Clouds -20 1017 76 10000 3.13 230 01:56 13.01.2022
5895 Clouds -20 1018 76 10000 3.13 230 00:49 13.01.2022
5896 Clouds -20 1018 84 10000 3.13 220 23:46 12.01.2022
5897 Clouds -19 1018 84 10000 3 240 22:59 12.01.2022
5898 Snow -18 1019 85 10000 3 220 21:57 12.01.2022
5899 Snow -18 1019 85 10000 3 220 21:57 12.01.2022
5900 Snow -18 1019 85 10000 2 220 21:22 12.01.2022
5901 Snow -18 1019 85 10000 2 200 20:56 12.01.2022
5902 Snow -18 1019 85 10000 2 240 19:41 12.01.2022
5903 Snow -18 1019 85 10000 2 240 18:30 12.01.2022
5904 Snow -18 1019 85 10000 2 240 17:20 12.01.2022
5905 Snow -18 1019 85 10000 3 250 16:28 12.01.2022
5906 Snow -18 1020 85 10000 3 250 14:48 12.01.2022
5907 Snow -18 1019 84 7000 1.79 220 12:59 12.01.2022
5908 Snow -18 1019 84 7000 1.79 220 12:59 12.01.2022
5909 Snow -19 1020 84 7000 1.79 240 10:48 12.01.2022
5910 Snow -20 1020 76 5000 1.79 190 08:38 12.01.2022
5911 Clear -21 1020 76 10000 1.79 190 07:49 12.01.2022
5912 Clear -22 1021 83 10000 0.89 230 07:31 12.01.2022
5913 Fog -26 1023 76 5000 2 290 23:40 11.01.2022
5914 Mist -26 1023 76 2800 2 290 22:49 11.01.2022
5915 Clouds -26 1023 83 10000 3.13 300 22:22 11.01.2022
5916 Clouds -26 1023 75 10000 3.13 290 20:51 11.01.2022
5917 Clear -24 1023 84 10000 3 290 19:48 11.01.2022
5918 Clouds -23 1022 83 10000 3.13 280 18:31 11.01.2022
5919 Clouds -21 1022 83 10000 1.79 290 17:24 11.01.2022
5920 Clear -23 1022 83 10000 1.79 290 16:37 11.01.2022
5921 Clouds -22 1022 76 10000 3.13 280 15:35 11.01.2022
5922 Clear -20 1021 84 10000 1.79 290 14:42 11.01.2022
5923 Clouds -19 1021 84 10000 3.13 290 13:55 11.01.2022
5924 Clouds -18 1021 84 10000 3.13 280 13:34 11.01.2022
5925 Clouds -17 1021 84 10000 3.13 280 12:42 11.01.2022
5926 Clouds -16 1020 84 10000 1.79 280 11:40 11.01.2022
5927 Clouds -13 1019 84 10000 3.13 260 09:29 11.01.2022
5928 Snow -13 1019 84 6000 3.13 240 06:37 11.01.2022
5929 Snow -13 1020 85 3800 4 220 00:31 11.01.2022
5930 Snow -14 1020 85 8000 3 220 23:41 10.01.2022
5931 Clouds -15 1020 85 10000 3 220 22:51 10.01.2022
5932 Snow -15 1020 92 10000 3 210 22:19 10.01.2022
5933 Snow -14 1020 85 10000 3 220 21:54 10.01.2022
5934 Snow -14 1020 85 10000 3 230 21:20 10.01.2022
5935 Snow -15 1020 92 6000 2 220 20:56 10.01.2022
5936 Clouds -15 1020 85 10000 3 220 20:28 10.01.2022
5937 Snow -14 1020 85 8000 4 220 19:42 10.01.2022
5938 Snow -14 1020 85 8000 4 220 19:20 10.01.2022
5939 Snow -14 1020 85 2400 4 210 18:48 10.01.2022
5940 Snow -14 1020 85 2200 4 210 17:41 10.01.2022
5941 Snow -14 1021 78 1800 4 210 16:42 10.01.2022
5942 Snow -14 1021 77 3300 4.92 210 15:45 10.01.2022
5943 Snow -15 1021 84 3200 4.92 220 14:26 10.01.2022
5944 Snow -15 1022 77 5000 4.02 210 11:58 10.01.2022
5945 Snow -16 1022 85 4200 3 210 11:25 10.01.2022
5946 Clear -16 1023 84 10000 4.92 230 09:48 10.01.2022
5947 Clouds -17 1022 84 10000 4.92 240 06:47 10.01.2022
5948 Clear -17 1022 77 10000 4.92 240 05:49 10.01.2022
5949 Clear -19 1023 84 10000 4.02 240 01:30 10.01.2022
5950 Clear -18 1022 77 10000 4.02 250 00:24 10.01.2022
5951 Clear -19 1021 84 10000 4.92 250 23:29 09.01.2022
5952 Clear -19 1021 77 10000 4.92 250 22:37 09.01.2022
5953 Clear -20 1020 84 10000 4.92 250 21:46 09.01.2022
5954 Clear -20 1020 76 10000 4.02 250 21:23 09.01.2022
5955 Clear -20 1020 76 10000 4.02 250 21:23 09.01.2022
5956 Clear -21 1020 83 10000 4.92 260 20:50 09.01.2022
5957 Clear -21 1019 83 10000 4.92 250 20:32 09.01.2022
5958 Clear -21 1019 83 10000 4.02 250 19:44 09.01.2022
5959 Clear -21 1018 83 10000 4.02 250 19:23 09.01.2022
5960 Clear -22 1018 83 10000 4.02 250 18:51 09.01.2022
5961 Clear -21 1018 76 10000 3.13 240 18:33 09.01.2022
5962 Clear -21 1017 76 10000 4.02 240 17:31 09.01.2022
5963 Clear -20 1017 76 10000 4.02 240 16:53 09.01.2022
5964 Clear -21 1016 83 10000 5.81 270 15:57 09.01.2022
5965 Clear -21 1015 83 10000 5.81 270 15:35 09.01.2022
5966 Clear -21 1015 76 10000 7.15 280 14:40 09.01.2022
5967 Clear -20 1014 76 10000 5.81 270 13:50 09.01.2022
5968 Clear -20 1013 84 10000 7.15 260 12:50 09.01.2022
5969 Clear -19 1011 84 10000 4.92 250 11:51 09.01.2022
5970 Clear -18 1010 85 10000 5 250 10:52 09.01.2022
5971 Clear -18 1009 84 10000 4.02 250 09:42 09.01.2022
5972 Clouds -17 1007 85 10000 4 250 08:34 09.01.2022
5973 Clouds -18 1004 85 10000 3 250 03:55 09.01.2022
5974 Clouds -19 1003 84 10000 3.13 250 01:23 09.01.2022
5975 Clear -20 1002 76 10000 1.79 260 23:44 08.01.2022
5976 Clear -21 1002 84 10000 3 280 23:26 08.01.2022
5977 Clear -19 1001 84 10000 3 280 22:19 08.01.2022
5978 Clouds -17 1001 84 10000 3.13 280 21:25 08.01.2022
5979 Clouds -17 1000 84 10000 3.13 280 20:41 08.01.2022
5980 Clear -16 1000 84 10000 3.13 270 20:19 08.01.2022
5981 Clouds -15 999 84 10000 4.02 280 18:40 08.01.2022
5982 Clouds -14 998 85 10000 5 280 17:22 08.01.2022
5983 Snow -11 997 85 10000 4.92 280 15:52 08.01.2022
5984 Snow -9 996 85 6000 4.92 290 14:44 08.01.2022
5985 Snow -7 994 92 7000 1.79 270 13:25 08.01.2022
5986 Snow -6 992 92 3500 0.89 320 11:25 08.01.2022
5987 Snow -5 992 92 1200 1.79 90 10:25 08.01.2022
5988 Snow -5 993 92 3200 1.79 120 09:47 08.01.2022
5989 Snow -5 994 92 1700 3.13 130 07:50 08.01.2022
5990 Snow -4 1000 92 1400 3.13 150 02:50 08.01.2022
5991 Snow -4 1002 92 3100 3.13 200 00:41 08.01.2022
5992 Snow -4 1003 100 3900 4.02 190 22:47 07.01.2022
5993 Snow -4 1003 92 5000 7.15 190 20:58 07.01.2022
5994 Snow -4 1003 92 5000 7.15 190 20:19 07.01.2022
5995 Snow -4 1002 85 10000 5.81 190 19:23 07.01.2022
5996 Snow -4 1002 85 8000 7.15 190 18:44 07.01.2022
5997 Snow -5 1003 85 10000 7.15 180 17:28 07.01.2022
5998 Snow -7 1003 92 1000 5.81 160 16:39 07.01.2022
5999 Snow -11 1006 92 700 8 150 13:56 07.01.2022
6000 Snow -11 1006 92 700 8 150 13:38 07.01.2022
6001 Snow -12 1008 85 2400 8 150 12:49 07.01.2022
6002 Snow -17 1013 85 1900 6 140 09:42 07.01.2022
6003 Clouds -27 1023 75 10000 4.02 120 02:56 07.01.2022
6004 Clouds -28 1024 75 10000 3.13 120 01:54 07.01.2022
6005 Mist -26 1025 75 5000 3.13 150 01:28 07.01.2022
6006 Mist -27 1025 75 2700 3.13 140 00:59 07.01.2022
6007 Mist -28 1026 75 6000 3.13 150 23:53 06.01.2022
6008 Mist -29 1027 75 6000 1.79 150 21:34 06.01.2022
6009 Clouds -29 1027 75 10000 1.79 140 20:22 06.01.2022
6010 Clouds -29 1027 75 8000 3.13 140 19:45 06.01.2022
6011 Clouds -29 1027 75 9000 1.79 140 18:34 06.01.2022
6012 Clouds -29 1027 75 10000 1.79 160 17:41 06.01.2022
6013 Clouds -29 1027 75 10000 0.89 0 16:52 06.01.2022
6014 Clear -30 1026 75 10000 0.89 0 15:48 06.01.2022
6015 Clear -30 1027 76 10000 2 180 15:26 06.01.2022
6016 Clear -29 1026 76 10000 1 170 14:51 06.01.2022
6017 Clear -30 1026 76 10000 1 200 14:18 06.01.2022
6018 Clear -29 1025 76 10000 1 220 12:50 06.01.2022
6019 Clear -29 1024 76 10000 2 200 11:43 06.01.2022
6020 Clear -28 1024 69 10000 2 220 11:22 06.01.2022
6021 Clear -28 1023 75 10000 1.79 240 08:52 06.01.2022
6022 Clear -30 1017 75 10000 3.13 280 01:24 06.01.2022
6023 Clear -29 1016 75 10000 3.13 250 23:38 05.01.2022
6024 Clear -29 1015 82 10000 3.13 240 22:59 05.01.2022
6025 Clear -28 1015 75 10000 3.13 250 22:33 05.01.2022
6026 Clear -30 1014 83 10000 3 260 21:49 05.01.2022
6027 Clear -28 1014 75 10000 3.13 250 21:20 05.01.2022
6028 Clear -28 1013 75 10000 4.02 260 20:18 05.01.2022
6029 Clear -27 1011 75 10000 4.02 270 18:44 05.01.2022
6030 Clear -27 1009 76 10000 4 280 17:26 05.01.2022
6031 Clear -26 1009 76 10000 5 280 16:51 05.01.2022
6032 Clouds -24 1007 77 10000 8 280 15:26 05.01.2022
6033 Clouds -21 1005 76 10000 4.02 250 13:52 05.01.2022
6034 Clouds -21 1005 77 10000 6 250 13:22 05.01.2022
6035 Snow -19 1001 77 10000 5.81 230 10:34 05.01.2022
6036 Clouds -19 999 77 9000 5.81 230 07:47 05.01.2022
6037 Clouds -19 999 77 9000 5.81 230 07:47 05.01.2022
6038 Clouds -19 998 77 10000 4.92 210 06:25 05.01.2022
6039 Snow -20 995 84 8000 4.02 200 00:58 05.01.2022
6040 Clouds -21 995 76 10000 4.02 200 23:28 04.01.2022
6041 Clouds -21 995 76 10000 4.02 200 23:28 04.01.2022
6042 Clouds -22 994 76 10000 4.02 200 22:46 04.01.2022
6043 Clear -22 995 76 10000 4.92 240 21:24 04.01.2022
6044 Clear -21 992 76 10000 4.02 240 19:20 04.01.2022
6045 Clear -21 991 76 10000 4.92 240 17:51 04.01.2022
6046 Clear -18 990 70 10000 8.05 230 16:44 04.01.2022
6047 Snow -18 990 70 10000 8.05 230 16:24 04.01.2022
6048 Clouds -16 988 77 10000 7.15 250 14:54 04.01.2022
6049 Clouds -15 988 78 3000 8 240 14:34 04.01.2022
6050 Snow -13 987 84 3400 8.05 250 13:27 04.01.2022
6051 Clouds -10 985 78 10000 4.92 230 10:41 04.01.2022
6052 Clouds -8 983 85 10000 5.81 230 09:20 04.01.2022
6053 Snow -7 983 79 9000 6 240 08:30 04.01.2022
6054 Snow -6 984 85 1200 5.81 130 02:31 04.01.2022
6055 Snow -6 987 85 3100 4.92 140 00:41 04.01.2022
6056 Snow -7 989 92 3400 4.02 150 23:26 03.01.2022
6057 Snow -8 991 92 2300 4.02 160 21:52 03.01.2022
6058 Snow -8 991 92 2300 4.02 160 21:32 03.01.2022
6059 Snow -8 992 85 1900 4.02 160 20:22 03.01.2022
6060 Snow -8 993 85 6000 4.02 160 18:54 03.01.2022
6061 Snow -9 993 92 7000 4.02 170 18:28 03.01.2022
6062 Snow -8 994 85 2100 4.02 180 16:58 03.01.2022
6063 Clouds -8 996 85 10000 4.02 190 14:56 03.01.2022
6064 Clouds -8 996 85 10000 4.02 180 14:30 03.01.2022
6065 Clouds -8 996 85 10000 4.02 180 12:46 03.01.2022
6066 Clouds -8 996 85 10000 4.02 180 11:35 03.01.2022
6067 Snow -8 996 92 7000 4.02 170 10:27 03.01.2022
6068 Snow -8 997 85 9000 4.02 180 08:47 03.01.2022
6069 Clouds -8 997 92 10000 4.02 160 07:34 03.01.2022
6070 Clouds -8 997 92 10000 4.02 160 07:34 03.01.2022
6071 Snow -10 1003 92 10000 3.13 140 23:56 02.01.2022
6072 Clouds -10 1003 92 10000 3.13 150 23:22 02.01.2022
6073 Clouds -10 1003 92 10000 3.13 170 22:53 02.01.2022
6074 Snow -10 1004 85 10000 1.79 180 21:42 02.01.2022
6075 Clouds -10 1004 85 10000 2 190 20:33 02.01.2022
6076 Clouds -10 1004 85 10000 2 190 19:55 02.01.2022
6077 Clouds -10 1004 85 10000 3.13 200 19:30 02.01.2022
6078 Clouds -11 1005 92 10000 2 200 18:46 02.01.2022
6079 Clouds -11 1005 92 10000 2 200 18:46 02.01.2022
6080 Clouds -11 1005 85 10000 3.13 210 17:54 02.01.2022
6081 Clouds -10 1005 85 10000 3 210 17:36 02.01.2022
6082 Clouds -10 1005 85 10000 3 210 17:18 02.01.2022
6083 Snow -10 1005 85 10000 4 220 16:25 02.01.2022
6084 Clouds -10 1005 92 10000 3 220 14:32 02.01.2022
6085 Snow -10 1004 92 5000 3 230 12:50 02.01.2022
6086 Clouds -10 1004 85 9000 3.13 230 11:58 02.01.2022
6087 Clouds -10 1004 85 10000 3.13 230 11:26 02.01.2022
6088 Snow -10 1004 92 10000 4.02 230 10:46 02.01.2022
6089 Snow -10 1003 85 8000 4.02 220 09:45 02.01.2022
6090 Snow -11 1003 85 5000 3.13 190 05:21 02.01.2022
6091 Snow -11 1005 85 10000 4.02 190 01:41 02.01.2022
6092 Clouds -11 1005 85 10000 4.92 190 23:39 01.01.2022
6093 Snow -12 1006 92 10000 3.13 160 22:57 01.01.2022
6094 Snow -11 1006 85 10000 3.13 150 22:22 01.01.2022
6095 Snow -12 1007 92 9000 4.02 180 21:43 01.01.2022
6096 Snow -11 1007 85 7000 3.13 190 20:53 01.01.2022
6097 Snow -12 1008 92 8000 3.13 190 19:57 01.01.2022
6098 Clouds -12 1008 92 10000 3.13 190 19:19 01.01.2022
6099 Clouds -12 1009 85 10000 3.13 190 17:58 01.01.2022
6100 Snow -12 1009 85 10000 1.79 190 16:37 01.01.2022
6101 Snow -12 1009 85 10000 1.79 190 16:19 01.01.2022
6102 Snow -13 1010 84 10000 3.13 190 15:26 01.01.2022
6103 Snow -13 1011 84 9000 3.13 190 13:58 01.01.2022
6104 Snow -13 1011 84 10000 3.13 200 12:50 01.01.2022
6105 Snow -14 1012 84 10000 3.13 190 11:56 01.01.2022
6106 Snow -14 1012 84 10000 3.13 190 11:22 01.01.2022
6107 Snow -13 1012 78 10000 3.13 190 10:27 01.01.2022
6108 Snow -14 1012 84 10000 3.13 200 09:46 01.01.2022
6109 Snow -14 1013 84 10000 3.13 200 08:26 01.01.2022
6110 Snow -14 1013 84 10000 3.13 200 07:44 01.01.2022
6111 Snow -15 1014 84 10000 3.13 200 06:47 01.01.2022
6112 Clear -15 1014 84 10000 3.13 200 05:27 01.01.2022
6113 Snow -15 1014 77 10000 3.13 200 04:38 01.01.2022
6114 Clear -16 1015 77 10000 3.13 210 01:59 01.01.2022
6115 Clear -17 1016 84 10000 3.13 220 23:39 31.12.2021
6116 Clear -17 1017 84 10000 4.02 220 21:53 31.12.2021
6117 Clear -16 1017 77 10000 4.02 230 20:38 31.12.2021
6118 Snow -16 1017 77 9000 4.02 230 19:30 31.12.2021
6119 Clear -17 1018 85 10000 4 230 18:37 31.12.2021
6120 Snow -17 1018 84 10000 3.13 220 17:40 31.12.2021
6121 Snow -17 1018 84 5000 3.13 220 17:18 31.12.2021
6122 Snow -17 1018 84 9000 4.02 230 16:38 31.12.2021
6123 Snow -17 1018 84 5000 4.02 220 15:57 31.12.2021
6124 Snow -17 1018 84 4900 4.02 210 15:28 31.12.2021
6125 Snow -17 1019 84 8000 4.02 210 14:56 31.12.2021
6126 Snow -17 1019 84 8000 3.13 210 14:30 31.12.2021
6127 Snow -17 1019 84 5000 3.13 200 13:36 31.12.2021
6128 Snow -17 1019 84 5000 3.13 200 12:45 31.12.2021
6129 Clouds -18 1020 84 10000 1.79 210 11:51 31.12.2021
6130 Clouds -18 1019 84 10000 3.13 200 11:30 31.12.2021
6131 Clouds -18 1019 77 10000 3.13 200 10:38 31.12.2021
6132 Clouds -19 1020 84 10000 3 200 09:55 31.12.2021
6133 Snow -19 1020 84 9000 3 210 09:33 31.12.2021
6134 Snow -19 1020 84 5000 3 230 08:39 31.12.2021
6135 Snow -19 1020 84 6000 3 210 07:31 31.12.2021
6136 Clouds -21 1021 77 10000 2 200 23:32 30.12.2021
6137 Clear -22 1022 84 10000 3 220 22:33 30.12.2021
6138 Clear -22 1022 84 10000 3 230 21:59 30.12.2021
6139 Clear -22 1022 84 10000 3 230 21:59 30.12.2021
6140 Clear -22 1022 84 10000 3 230 21:37 30.12.2021
6141 Clear -22 1022 77 10000 3 220 20:47 30.12.2021
6142 Clouds -22 1022 76 10000 3.13 210 20:28 30.12.2021
6143 Clouds -23 1022 83 10000 1.79 220 19:48 30.12.2021
6144 Clear -23 1022 77 10000 2 200 18:51 30.12.2021
6145 Clear -23 1021 77 10000 2 210 18:20 30.12.2021
6146 Snow -22 1021 76 10000 3.13 240 16:27 30.12.2021
6147 Snow -23 1021 83 9000 3.13 220 15:52 30.12.2021
6148 Clear -24 1021 76 10000 3.13 200 14:41 30.12.2021
6149 Clear -25 1021 83 10000 3.13 230 13:57 30.12.2021
6150 Clear -27 1021 75 10000 3.13 230 12:52 30.12.2021
6151 Clear -28 1021 76 10000 3 230 11:22 30.12.2021
6152 Clear -28 1021 76 10000 2 210 09:59 30.12.2021
6153 Clear -28 1021 76 10000 2 210 09:23 30.12.2021
6154 Clear -31 1020 76 10000 3 240 06:54 30.12.2021
6155 Clear -31 1020 74 10000 1.79 250 04:20 30.12.2021
6156 Clear -31 1020 74 10000 1.79 250 04:20 30.12.2021
6157 Clear -31 1019 74 10000 3.13 250 03:38 30.12.2021
6158 Clear -30 1018 76 10000 3 250 23:57 29.12.2021
6159 Clear -29 1018 76 10000 4 250 23:31 29.12.2021
6160 Clear -28 1017 76 10000 3 250 22:24 29.12.2021
6161 Clear -29 1017 83 10000 3 260 21:53 29.12.2021
6162 Clouds -27 1016 76 10000 4 280 20:40 29.12.2021
6163 Snow -25 1016 77 9000 4 280 19:54 29.12.2021
6164 Snow -25 1016 84 6000 4 270 19:24 29.12.2021
6165 Snow -24 1015 77 3800 4 280 18:19 29.12.2021
6166 Snow -24 1015 84 2200 4 270 17:28 29.12.2021
6167 Snow -24 1015 84 5000 3 250 16:49 29.12.2021
6168 Snow -24 1015 84 3700 2 250 16:19 29.12.2021
6169 Snow -24 1014 76 4200 1.79 230 14:40 29.12.2021
6170 Clear -25 1014 76 10000 1.79 200 12:48 29.12.2021
6171 Clouds -25 1014 83 10000 0.89 0 12:27 29.12.2021
6172 Clear -24 1014 76 10000 1.79 200 10:36 29.12.2021
6173 Clouds -23 1015 76 10000 3.13 200 08:24 29.12.2021
6174 Clouds -24 1015 83 10000 1.79 190 06:45 29.12.2021
6175 Clouds -24 1015 83 10000 1.79 190 06:24 29.12.2021
6176 Clouds -24 1015 83 10000 1.79 200 05:42 29.12.2021
6177 Snow -23 1014 83 10000 3.13 210 03:20 29.12.2021
6178 Snow -23 1014 83 10000 3.13 210 03:20 29.12.2021
6179 Clouds -21 1014 83 10000 3.13 200 00:24 29.12.2021
6180 Clouds -20 1014 76 10000 3.13 200 23:47 28.12.2021
6181 Clouds -20 1014 84 10000 3.13 180 22:45 28.12.2021
6182 Clouds -20 1014 84 10000 3.13 190 22:24 28.12.2021
6183 Snow -20 1014 84 10000 3.13 200 21:53 28.12.2021
6184 Snow -19 1014 84 9000 1.79 200 20:47 28.12.2021
6185 Snow -18 1015 85 10000 3 200 19:44 28.12.2021
6186 Snow -18 1015 85 10000 3 210 18:44 28.12.2021
6187 Clouds -18 1015 84 10000 3.13 210 18:23 28.12.2021
6188 Clouds -17 1015 84 10000 3.13 200 16:35 28.12.2021
6189 Clouds -17 1015 84 10000 4.02 200 15:51 28.12.2021
6190 Clouds -17 1015 84 10000 3.13 200 15:25 28.12.2021
6191 Clouds -16 1015 85 10000 3 190 14:52 28.12.2021
6192 Clouds -16 1015 84 10000 3.13 190 14:21 28.12.2021
6193 Clouds -16 1015 84 10000 3.13 190 13:51 28.12.2021
6194 Clouds -16 1015 84 10000 3.13 190 13:31 28.12.2021
6195 Clouds -16 1015 84 10000 1.79 200 12:49 28.12.2021
6196 Clouds -16 1015 84 10000 1.79 180 11:51 28.12.2021
6197 Clouds -15 1014 84 10000 1.79 200 09:27 28.12.2021
6198 Clouds -15 1014 84 10000 3.13 200 07:31 28.12.2021
6199 Clear -14 1013 84 10000 4.02 190 02:22 28.12.2021
6200 Snow -14 1013 84 5000 4.02 180 23:26 27.12.2021
6201 Clear -15 1013 84 10000 4.02 180 21:54 27.12.2021
6202 Clouds -15 1014 84 10000 4.02 170 21:26 27.12.2021
6203 Snow -15 1014 85 2500 4 170 20:24 27.12.2021
6204 Snow -15 1014 85 2200 4 160 19:45 27.12.2021
6205 Snow -14 1014 84 1400 4.02 150 18:54 27.12.2021
6206 Snow -16 1015 85 1600 4 130 17:50 27.12.2021
6207 Snow -17 1015 85 2900 5 120 17:18 27.12.2021
6208 Snow -17 1017 85 10000 5 120 15:53 27.12.2021
6209 Clear -17 1019 78 10000 4 130 14:34 27.12.2021
6210 Clear -18 1020 78 10000 4 130 13:58 27.12.2021
6211 Clear -18 1021 78 10000 4 130 12:47 27.12.2021
6212 Clear -19 1024 84 10000 4.02 150 10:36 27.12.2021
6213 Clear -19 1024 84 10000 4.02 150 10:18 27.12.2021
6214 Clear -20 1025 76 10000 4.02 140 08:41 27.12.2021
6215 Clear -22 1026 83 10000 4.02 140 07:33 27.12.2021
6216 Mist -22 1028 76 5000 4.02 140 02:26 27.12.2021
6217 Mist -23 1028 83 3500 3.13 140 00:29 27.12.2021
6218 Mist -22 1029 76 3000 3.13 140 23:42 26.12.2021
6219 Mist -23 1029 83 3300 3.13 140 22:49 26.12.2021
6220 Mist -23 1030 76 3300 1.79 140 21:30 26.12.2021
6221 Mist -24 1030 76 3000 1.79 150 19:52 26.12.2021
6222 Mist -23 1030 76 2400 3.13 140 18:25 26.12.2021
6223 Mist -24 1030 84 2400 3 140 17:51 26.12.2021
6224 Clear -23 1031 76 10000 3.13 160 15:31 26.12.2021
6225 Clear -23 1031 83 10000 3.13 160 13:43 26.12.2021
6226 Clear -23 1031 83 10000 3.13 150 13:21 26.12.2021
6227 Clear -23 1031 83 10000 3.13 160 12:34 26.12.2021
6228 Clear -22 1031 76 10000 3.13 160 11:18 26.12.2021
6229 Clear -21 1031 76 10000 3.13 190 09:30 26.12.2021
6230 Clear -21 1031 76 10000 3.13 190 08:44 26.12.2021
6231 Clear -22 1031 83 10000 3.13 200 08:23 26.12.2021
6232 Clear -23 1029 83 10000 4.92 200 01:37 26.12.2021
6233 Clear -23 1028 83 10000 4.92 190 00:28 26.12.2021
6234 Clear -23 1029 83 10000 4.92 190 23:35 25.12.2021
6235 Clear -22 1028 76 10000 4.92 190 22:29 25.12.2021
6236 Clear -22 1028 83 10000 4.02 190 21:29 25.12.2021
6237 Clear -21 1028 76 10000 4.02 200 19:46 25.12.2021
6238 Clear -21 1028 76 10000 4.92 200 19:18 25.12.2021
6239 Clear -21 1028 76 10000 4.92 200 18:26 25.12.2021
6240 Clear -21 1027 76 10000 4.92 190 16:49 25.12.2021
6241 Clear -22 1027 76 10000 4.92 190 15:30 25.12.2021
6242 Clear -21 1027 76 10000 4.92 190 14:22 25.12.2021
6243 Clear -20 1026 76 10000 4.92 190 12:21 25.12.2021
6244 Clear -21 1026 76 10000 5.81 180 10:38 25.12.2021
6245 Clear -21 1026 76 10000 4.92 190 09:48 25.12.2021
6246 Clear -21 1025 76 10000 5.81 190 07:27 25.12.2021
6247 Clouds -16 1021 71 10000 8.05 190 01:36 25.12.2021
6248 Clouds -16 1020 77 10000 8.05 200 00:19 25.12.2021
6249 Snow -14 1018 71 5000 8.05 190 21:57 24.12.2021
6250 Clouds -11 1014 72 10000 8.05 210 19:27 24.12.2021
6251 Snow -11 1014 78 10000 8.94 200 18:55 24.12.2021
6252 Snow -10 1011 78 9000 7.15 210 16:44 24.12.2021
6253 Snow -10 1010 78 9000 8.05 200 15:50 24.12.2021
6254 Snow -10 1010 78 9000 8.05 200 15:50 24.12.2021
6255 Snow -9 1010 72 8000 8.94 200 15:20 24.12.2021
6256 Clouds -9 1008 85 10000 5.81 190 14:34 24.12.2021
6257 Clouds -9 1008 85 10000 4.02 190 13:54 24.12.2021
6258 Snow -10 1007 92 9000 4.02 170 13:32 24.12.2021
6259 Snow -11 1007 92 5000 5 150 12:40 24.12.2021
6260 Snow -11 1007 85 3900 4 130 11:43 24.12.2021
6261 Snow -12 1006 85 3900 5 130 11:24 24.12.2021
6262 Snow -12 1007 85 2100 5 120 10:35 24.12.2021
6263 Snow -12 1008 85 2200 5.81 120 08:58 24.12.2021
6264 Snow -12 1009 85 1200 7.15 120 07:58 24.12.2021
6265 Snow -12 1009 92 800 8.94 110 07:31 24.12.2021
6266 Clouds -18 1021 84 10000 5.81 90 00:47 24.12.2021
6267 Clouds -19 1021 84 10000 4.92 100 23:50 23.12.2021
6268 Clear -20 1022 84 10000 4.02 90 22:53 23.12.2021
6269 Clear -20 1022 84 10000 3.13 90 22:24 23.12.2021
6270 Clear -20 1022 84 10000 3.13 80 21:47 23.12.2021
6271 Clear -20 1023 84 10000 1.79 70 20:31 23.12.2021
6272 Clear -20 1022 84 10000 0.89 0 19:30 23.12.2021
6273 Clear -20 1022 84 10000 0.89 0 19:30 23.12.2021
6274 Clear -19 1023 84 10000 0.89 0 18:27 23.12.2021
6275 Clear -18 1022 84 10000 1.79 200 17:46 23.12.2021
6276 Clear -16 1021 78 10000 2 220 16:27 23.12.2021
6277 Clear -16 1021 85 10000 3 240 15:48 23.12.2021
6278 Clear -15 1020 78 10000 3 230 15:30 23.12.2021
6279 Clear -14 1019 78 10000 5 250 14:42 23.12.2021
6280 Clear -14 1018 78 10000 4 220 13:43 23.12.2021
6281 Clear -13 1015 84 10000 4.02 240 11:52 23.12.2021
6282 Clouds -8 1011 78 10000 7.15 230 09:55 23.12.2021
6283 Snow -5 1010 80 9000 8 230 09:34 23.12.2021
6284 Snow -3 1008 86 6000 5 210 08:38 23.12.2021
6285 Snow -3 1005 92 6000 4.92 180 05:43 23.12.2021
6286 Snow -3 1002 92 3100 5.81 160 02:56 23.12.2021
6287 Snow -3 1003 79 10000 4.92 150 22:53 22.12.2021
6288 Clouds -3 1003 86 10000 5.81 150 22:22 22.12.2021
6289 Clouds -3 1004 86 10000 4.92 150 21:37 22.12.2021
6290 Clouds -3 1004 86 10000 4.92 150 21:19 22.12.2021
6291 Clouds -3 1004 86 10000 4.92 160 20:40 22.12.2021
6292 Clouds -3 1004 86 10000 5.81 160 19:57 22.12.2021
6293 Clouds -3 1005 79 10000 5.81 160 18:55 22.12.2021
6294 Clouds -3 1005 79 10000 4.92 160 17:38 22.12.2021
6295 Clouds -3 1005 86 10000 4.92 160 16:25 22.12.2021
6296 Clouds -3 1007 86 10000 5.81 160 14:34 22.12.2021
6297 Clouds -3 1007 79 10000 5.81 150 12:59 22.12.2021
6298 Clouds -3 1008 79 10000 4.92 150 11:50 22.12.2021
6299 Snow -3 1008 86 10000 4.92 150 09:53 22.12.2021
6300 Snow -4 1009 92 10000 5.81 160 08:34 22.12.2021
6301 Clouds -6 1011 92 10000 5.81 130 05:56 22.12.2021
6302 Clouds -6 1011 92 10000 5.81 130 05:37 22.12.2021
6303 Clouds -7 1011 92 10000 5.81 130 05:19 22.12.2021
6304 Clouds -7 1012 85 10000 4.92 130 04:40 22.12.2021
6305 Clouds -8 1013 92 10000 4.92 130 03:53 22.12.2021
6306 Snow -9 1013 92 10000 6 130 03:31 22.12.2021
6307 Snow -11 1016 92 6000 4.92 120 23:49 21.12.2021
6308 Snow -11 1017 85 10000 4.02 120 22:41 21.12.2021
6309 Clouds -12 1017 85 10000 4.02 120 21:58 21.12.2021
6310 Clouds -13 1018 92 10000 4 120 21:33 21.12.2021
6311 Clouds -13 1018 85 10000 4 110 20:42 21.12.2021
6312 Clouds -13 1018 84 10000 4.02 110 20:18 21.12.2021
6313 Snow -14 1018 85 9000 4 120 19:34 21.12.2021
6314 Snow -15 1019 85 9000 3 120 18:28 21.12.2021
6315 Snow -16 1019 92 9000 3 120 17:58 21.12.2021
6316 Snow -16 1018 85 7000 4 120 17:40 21.12.2021
6317 Snow -17 1019 78 10000 4 120 15:46 21.12.2021
6318 Snow -19 1018 84 10000 4 120 14:24 21.12.2021
6319 Snow -20 1019 84 8000 4 110 13:42 21.12.2021
6320 Snow -21 1019 84 6000 5 120 12:29 21.12.2021
6321 Snow -22 1018 77 8000 5 120 10:52 21.12.2021
6322 Snow -22 1018 77 4000 5 120 09:56 21.12.2021
6323 Snow -23 1018 77 3000 5 120 08:57 21.12.2021
6324 Snow -24 1019 77 3700 5 120 07:45 21.12.2021
6325 Snow -25 1019 77 4900 5 120 07:23 21.12.2021
6326 Snow -27 1019 76 1900 6 120 04:26 21.12.2021
6327 Snow -27 1019 76 3000 5 120 02:30 21.12.2021
6328 Snow -28 1020 76 7000 6 120 23:54 20.12.2021
6329 Clouds -28 1020 69 10000 6 110 22:36 20.12.2021
6330 Clouds -28 1020 76 10000 6 120 21:59 20.12.2021
6331 Snow -28 1020 76 10000 7 110 21:27 20.12.2021
6332 Snow -28 1020 76 9000 5 110 20:54 20.12.2021
6333 Snow -28 1020 76 7000 5 120 20:23 20.12.2021
6334 Snow -27 1020 69 3300 6 120 19:38 20.12.2021
6335 Snow -27 1020 69 3300 6 120 19:19 20.12.2021
6336 Snow -27 1019 76 2400 7 100 18:33 20.12.2021
6337 Snow -27 1020 76 2400 7 110 17:50 20.12.2021
6338 Snow -26 1019 76 5000 6 120 16:47 20.12.2021
6339 Snow -26 1019 76 3000 6 110 16:18 20.12.2021
6340 Snow -26 1019 76 6000 7 100 15:40 20.12.2021
6341 Snow -27 1019 76 10000 8 90 13:49 20.12.2021
6342 Clear -27 1019 76 10000 7 90 12:30 20.12.2021
6343 Clear -27 1019 76 10000 7 90 10:46 20.12.2021
6344 Clear -27 1019 76 10000 6 90 09:40 20.12.2021
6345 Clear -27 1019 76 10000 7 90 08:50 20.12.2021
6346 Clear -27 1019 76 10000 7 90 08:31 20.12.2021
6347 Clear -28 1019 76 10000 6 90 07:35 20.12.2021
6348 Clear -28 1019 76 10000 7 100 06:39 20.12.2021
6349 Clear -26 1019 75 10000 5.81 100 00:20 20.12.2021
6350 Clear -25 1019 76 10000 8.05 110 22:56 19.12.2021
6351 Clear -25 1019 76 10000 7.15 110 22:32 19.12.2021
6352 Clear -25 1019 76 10000 7.15 110 21:32 19.12.2021
6353 Clear -25 1019 76 10000 7.15 110 20:42 19.12.2021
6354 Clear -25 1019 76 10000 7.15 110 20:23 19.12.2021
6355 Clear -25 1019 76 10000 7.15 110 19:41 19.12.2021
6356 Clear -25 1019 76 10000 7.15 110 18:42 19.12.2021
6357 Clear -25 1019 76 10000 5.81 110 17:53 19.12.2021
6358 Clouds -26 1019 75 10000 5.81 110 17:30 19.12.2021
6359 Clear -26 1019 83 10000 4.92 110 16:41 19.12.2021
6360 Clouds -26 1019 75 10000 5.81 110 15:55 19.12.2021
6361 Clear -26 1019 75 10000 4.92 110 15:24 19.12.2021
6362 Clouds -26 1020 75 10000 4.92 110 14:45 19.12.2021
6363 Clouds -26 1020 75 10000 5.81 110 13:32 19.12.2021
6364 Clouds -26 1020 75 10000 4.92 110 12:59 19.12.2021
6365 Clear -27 1020 75 10000 4.92 100 12:29 19.12.2021
6366 Clear -28 1020 75 10000 4.92 90 11:37 19.12.2021
6367 Clouds -28 1020 75 10000 4.02 90 10:49 19.12.2021
6368 Clouds -28 1020 75 10000 4.02 80 10:22 19.12.2021
6369 Clouds -30 1020 75 10000 3.13 90 08:46 19.12.2021
6370 Clouds -31 1020 74 10000 3.13 110 06:45 19.12.2021
6371 Clouds -35 1020 75 10000 4 90 01:51 19.12.2021
6372 Clouds -35 1020 75 10000 4 100 00:54 19.12.2021
6373 Clear -36 1020 68 10000 4 90 22:59 18.12.2021
6374 Clouds -37 1020 74 10000 3 90 22:24 18.12.2021
6375 Clouds -37 1020 74 10000 2 120 21:43 18.12.2021
6376 Clear -36 1019 68 10000 3 100 21:22 18.12.2021
6377 Clear -36 1019 68 10000 3 100 20:25 18.12.2021
6378 Clear -36 1019 75 10000 2 80 19:35 18.12.2021
6379 Clear -35 1019 68 10000 2 70 18:24 18.12.2021
6380 Clear -35 1019 68 10000 2 80 17:49 18.12.2021
6381 Clear -35 1019 68 10000 2 60 16:36 18.12.2021
6382 Clear -35 1019 68 10000 2 60 16:18 18.12.2021
6383 Clear -34 1018 75 10000 1 0 14:54 18.12.2021
6384 Clear -33 1018 68 10000 1 0 13:44 18.12.2021
6385 Clear -32 1017 75 10000 1 350 11:55 18.12.2021
6386 Clear -31 1016 76 10000 2 330 09:54 18.12.2021
6387 Clear -30 1016 69 10000 2 330 09:30 18.12.2021
6388 Clear -30 1015 76 10000 2 360 08:36 18.12.2021
6389 Clear -30 1015 76 10000 2 360 08:36 18.12.2021
6390 Clear -30 1014 76 10000 2 360 06:28 18.12.2021
6391 Clear -28 1012 83 10000 1 0 00:58 18.12.2021
6392 Clear -26 1011 76 10000 1 0 23:47 17.12.2021
6393 Clouds -25 1010 84 10000 2 350 22:37 17.12.2021
6394 Clouds -24 1009 84 9000 2 340 21:29 17.12.2021
6395 Snow -23 1009 77 3900 2 360 20:43 17.12.2021
6396 Clouds -23 1008 84 10000 2 360 19:51 17.12.2021
6397 Clouds -21 1007 77 10000 3 360 18:39 17.12.2021
6398 Clouds -21 1007 84 10000 3 10 17:47 17.12.2021
6399 Clouds -20 1006 84 10000 3 10 16:50 17.12.2021
6400 Clouds -19 1006 84 10000 3 10 16:27 17.12.2021
6401 Clouds -17 1005 85 10000 2 20 15:27 17.12.2021
6402 Clouds -15 1005 85 10000 3 20 14:42 17.12.2021
6403 Snow -14 1004 85 10000 3 20 13:35 17.12.2021
6404 Snow -13 1004 84 3500 3.13 30 12:28 17.12.2021
6405 Snow -12 1003 85 3300 1.79 50 10:41 17.12.2021
6406 Snow -12 1003 85 3200 3.13 70 09:47 17.12.2021
6407 Snow -12 1003 85 3200 3.13 70 09:47 17.12.2021
6408 Snow -12 1004 92 2700 3.13 80 08:31 17.12.2021
6409 Snow -12 1004 92 1900 3.13 90 07:21 17.12.2021
6410 Snow -12 1005 92 5000 4.02 100 04:40 17.12.2021
6411 Snow -12 1009 92 8000 1.79 120 23:58 16.12.2021
6412 Snow -12 1010 92 1700 0.89 0 22:24 16.12.2021
6413 Snow -12 1011 92 2100 0.89 0 21:51 16.12.2021
6414 Snow -12 1011 92 3200 0.89 130 21:33 16.12.2021
6415 Snow -12 1012 85 8000 0.89 0 20:31 16.12.2021
6416 Snow -12 1012 85 10000 0.89 0 19:51 16.12.2021
6417 Snow -13 1013 92 5000 0.89 0 18:41 16.12.2021
6418 Snow -13 1014 92 7000 0.89 150 17:57 16.12.2021
6419 Clouds -12 1014 85 9000 1 160 17:32 16.12.2021
6420 Snow -14 1014 92 9000 0.89 160 16:23 16.12.2021
6421 Snow -13 1015 85 9000 1 0 15:20 16.12.2021
6422 Clouds -16 1016 84 9000 0.89 90 13:43 16.12.2021
6423 Clouds -18 1017 84 9000 0.89 0 11:46 16.12.2021
6424 Clouds -19 1017 84 9000 0 0 11:18 16.12.2021
6425 Mist -17 1017 84 4000 0 0 10:27 16.12.2021
6426 Clouds -16 1017 85 10000 0 0 08:37 16.12.2021
6427 Clouds -16 1017 92 10000 0 0 06:22 16.12.2021
6428 Clouds -15 1018 85 10000 1 290 02:59 16.12.2021
6429 Clouds -17 1017 92 10000 2 290 23:35 15.12.2021
6430 Clouds -17 1017 85 10000 2 280 22:48 15.12.2021
6431 Clouds -20 1017 84 10000 1.79 280 21:58 15.12.2021
6432 Clouds -19 1017 84 10000 1.79 280 21:28 15.12.2021
6433 Clouds -19 1017 84 10000 3.13 280 20:31 15.12.2021
6434 Clouds -19 1017 84 10000 1.79 280 19:52 15.12.2021
6435 Clouds -18 1016 84 9000 1.79 290 18:39 15.12.2021
6436 Mist -17 1016 91 5000 3.13 300 17:56 15.12.2021
6437 Mist -16 1016 84 5000 3.13 300 17:37 15.12.2021
6438 Mist -17 1016 84 4600 1.79 290 16:35 15.12.2021
6439 Clouds -16 1015 84 9000 1.79 290 15:47 15.12.2021
6440 Mist -15 1015 84 4500 3.13 330 15:28 15.12.2021
6441 Clouds -15 1015 84 8000 3.13 310 14:42 15.12.2021
6442 Fog -13 1014 92 700 1.79 320 12:52 15.12.2021
6443 Snow -12 1013 92 5000 0.89 280 10:44 15.12.2021
6444 Snow -11 1013 92 9000 0.89 210 09:28 15.12.2021
6445 Snow -10 1013 92 9000 1.79 220 07:44 15.12.2021
6446 Snow -11 1013 92 9000 3.13 190 01:39 15.12.2021
6447 Snow -12 1014 85 6000 1.79 160 23:42 14.12.2021
6448 Snow -13 1015 84 5000 3.13 170 22:49 14.12.2021
6449 Snow -14 1015 92 5000 3.13 160 22:25 14.12.2021
6450 Snow -15 1016 84 4300 3.13 160 20:57 14.12.2021
6451 Snow -17 1017 85 2500 3 160 19:44 14.12.2021
6452 Snow -17 1017 85 2500 3 160 19:44 14.12.2021
6453 Snow -17 1017 85 1900 3 160 19:20 14.12.2021
6454 Snow -18 1018 84 4000 3.13 170 18:29 14.12.2021
6455 Snow -19 1019 84 1600 4.02 170 17:33 14.12.2021
6456 Snow -19 1019 77 1400 3.13 160 16:42 14.12.2021
6457 Snow -21 1021 76 1300 3.13 150 15:37 14.12.2021
6458 Mist -24 1023 77 2200 3 140 13:32 14.12.2021
6459 Clouds -24 1024 76 6000 3.13 150 12:21 14.12.2021
6460 Clear -24 1025 76 10000 4.02 150 11:24 14.12.2021
6461 Clear -25 1026 76 10000 3.13 150 10:25 14.12.2021
6462 Clear -25 1026 76 10000 3.13 150 09:53 14.12.2021
6463 Clear -25 1027 76 10000 3.13 150 08:28 14.12.2021
6464 Clear -26 1028 75 10000 1.79 150 07:59 14.12.2021
6465 Clouds -29 1029 68 7000 0.89 0 05:38 14.12.2021
6466 Clear -34 1031 74 10000 0.89 90 22:59 13.12.2021
6467 Clouds -33 1032 74 9000 0.89 0 21:54 13.12.2021
6468 Clouds -33 1032 74 10000 1.79 280 21:34 13.12.2021
6469 Clouds -32 1032 74 10000 0.89 280 20:45 13.12.2021
6470 Clear -32 1032 74 10000 0.89 50 19:57 13.12.2021
6471 Clear -32 1032 74 10000 0.89 280 19:20 13.12.2021
6472 Clear -30 1032 75 10000 0.89 0 17:26 13.12.2021
6473 Clear -29 1032 75 10000 0.89 0 16:20 13.12.2021
6474 Clear -30 1032 82 10000 1.79 290 15:38 13.12.2021
6475 Clear -28 1031 82 10000 0.89 300 13:49 13.12.2021
6476 Clear -26 1031 75 10000 1.79 320 13:18 13.12.2021
6477 Clear -25 1031 76 10000 1.79 360 12:22 13.12.2021
6478 Clear -24 1030 76 10000 3.13 360 11:36 13.12.2021
6479 Clear -24 1030 76 10000 3.13 360 10:53 13.12.2021
6480 Clear -23 1030 76 10000 3.13 350 10:21 13.12.2021
6481 Clear -20 1029 84 10000 3.13 360 08:28 13.12.2021
6482 Clouds -15 1026 78 10000 4 30 05:37 13.12.2021
6483 Clear -14 1025 85 10000 2 340 03:32 13.12.2021
6484 Snow -14 1023 92 6000 1.79 280 23:39 12.12.2021
6485 Clear -14 1023 84 10000 1.79 280 21:52 12.12.2021
6486 Clear -14 1023 84 10000 3.13 290 20:45 12.12.2021
6487 Clouds -15 1023 84 10000 3.13 280 19:30 12.12.2021
6488 Clouds -15 1023 92 10000 1.79 280 17:46 12.12.2021
6489 Clouds -15 1023 92 10000 0.89 260 16:28 12.12.2021
6490 Clouds -16 1023 84 10000 0 0 15:51 12.12.2021
6491 Clouds -16 1023 84 10000 0 0 15:26 12.12.2021
6492 Clouds -16 1023 91 10000 0 0 14:37 12.12.2021
6493 Snow -13 1023 92 7000 0.89 260 13:34 12.12.2021
6494 Snow -12 1022 85 4600 1.79 240 12:32 12.12.2021
6495 Snow -12 1023 85 5000 3.13 240 11:44 12.12.2021
6496 Snow -12 1023 85 3700 1 0 11:25 12.12.2021
6497 Snow -11 1023 85 10000 2 260 10:39 12.12.2021
6498 Snow -12 1022 92 10000 2 240 09:44 12.12.2021
6499 Snow -12 1023 85 10000 2 260 08:38 12.12.2021
6500 Snow -12 1023 85 4500 2 320 06:34 12.12.2021
6501 Clouds -13 1023 85 10000 3 310 05:27 12.12.2021
6502 Snow -11 1023 79 5000 5 350 03:58 12.12.2021
6503 Snow -11 1021 85 4200 4 300 00:36 12.12.2021
6504 Clouds -13 1021 84 10000 5.81 310 22:24 11.12.2021
6505 Clouds -13 1021 84 10000 5.81 310 21:52 11.12.2021
6506 Snow -13 1020 84 10000 7.15 320 21:21 11.12.2021
6507 Snow -14 1020 84 10000 5.81 290 19:40 11.12.2021
6508 Snow -14 1020 84 8000 5.81 300 18:53 11.12.2021
6509 Snow -14 1020 77 7000 4.92 290 18:30 11.12.2021
6510 Clouds -15 1019 84 10000 4.92 290 17:41 11.12.2021
6511 Clouds -16 1018 85 10000 6 280 15:57 11.12.2021
6512 Clouds -16 1018 85 10000 6 280 15:35 11.12.2021
6513 Clouds -15 1018 77 10000 7.15 280 13:46 11.12.2021
6514 Clouds -15 1017 84 10000 5.81 250 11:55 11.12.2021
6515 Clouds -14 1017 77 10000 7.15 250 10:24 11.12.2021
6516 Snow -14 1016 84 3600 8.05 260 09:37 11.12.2021
6517 Clouds -12 1016 78 10000 8.05 270 03:25 11.12.2021
6518 Snow -9 1014 85 3100 7.15 280 00:44 11.12.2021
6519 Snow -8 1014 78 800 9.83 270 23:39 10.12.2021
6520 Snow -6 1013 85 5000 4.92 240 22:27 10.12.2021
6521 Snow -6 1013 85 6000 5.81 240 21:37 10.12.2021
6522 Snow -7 1014 85 7000 4.92 240 19:55 10.12.2021
6523 Snow -7 1014 85 8000 5.81 240 19:18 10.12.2021
6524 Snow -7 1015 79 9000 5.81 230 17:23 10.12.2021
6525 Clear -7 1015 79 10000 7.15 210 16:32 10.12.2021
6526 Clear -7 1016 79 10000 4.92 200 15:42 10.12.2021
6527 Clear -7 1016 79 10000 4.92 200 15:23 10.12.2021
6528 Clear -8 1017 85 10000 4.02 180 13:53 10.12.2021
6529 Clear -8 1018 85 10000 4.02 190 13:31 10.12.2021
6530 Clear -8 1019 85 10000 4.02 190 12:51 10.12.2021
6531 Clear -9 1020 92 10000 3.13 170 11:34 10.12.2021
6532 Clouds -9 1021 92 10000 4.02 180 10:55 10.12.2021
6533 Clouds -10 1022 92 10000 4.02 160 09:33 10.12.2021
6534 Snow -10 1025 85 10000 4.02 160 07:24 10.12.2021
6535 Snow -13 1029 92 2100 3.13 150 02:53 10.12.2021
6536 Snow -13 1029 92 3100 3.13 180 02:29 10.12.2021
6537 Snow -15 1031 92 10000 1.79 200 23:39 09.12.2021
6538 Snow -15 1031 85 5000 3 240 22:41 09.12.2021
6539 Snow -15 1031 85 5000 3 240 22:21 09.12.2021
6540 Snow -16 1031 92 5000 2 240 21:38 09.12.2021
6541 Snow -16 1031 84 8000 3.13 240 20:34 09.12.2021
6542 Snow -16 1031 84 9000 3.13 240 19:22 09.12.2021
6543 Snow -16 1030 91 4100 4.02 250 18:59 09.12.2021
6544 Snow -16 1030 84 6000 4.02 250 17:58 09.12.2021
6545 Snow -16 1031 84 3000 4.02 250 17:28 09.12.2021
6546 Snow -16 1030 84 2400 4.92 250 16:57 09.12.2021
6547 Snow -16 1030 84 5000 4.02 250 16:20 09.12.2021
6548 Snow -17 1030 77 2200 4.02 270 14:58 09.12.2021
6549 Clouds -17 1030 84 10000 4.92 250 13:52 09.12.2021
6550 Clouds -18 1029 84 10000 4.92 250 12:47 09.12.2021
6551 Clear -18 1029 77 10000 4.02 250 11:29 09.12.2021
6552 Clear -19 1029 84 10000 4.02 240 10:20 09.12.2021
6553 Clear -20 1029 84 10000 4.92 250 06:59 09.12.2021
6554 Clear -20 1030 84 10000 4.92 250 03:55 09.12.2021
6555 Clear -20 1030 84 10000 5.81 250 00:25 09.12.2021
6556 Clear -20 1030 84 10000 4.92 250 23:36 08.12.2021
6557 Clear -20 1030 84 10000 4.92 250 22:57 08.12.2021
6558 Clear -19 1031 84 10000 4.92 250 21:50 08.12.2021
6559 Clear -19 1031 84 10000 4.92 250 21:32 08.12.2021
6560 Clear -18 1031 84 10000 4.92 250 20:31 08.12.2021
6561 Clear -18 1031 84 10000 4.92 240 19:55 08.12.2021
6562 Clear -18 1031 84 10000 4.02 240 18:58 08.12.2021
6563 Clouds -17 1032 84 10000 4.92 250 18:22 08.12.2021
6564 Clouds -16 1031 84 10000 4.92 240 16:49 08.12.2021
6565 Clouds -16 1031 85 10000 4 250 15:41 08.12.2021
6566 Clouds -16 1031 85 10000 4 250 15:22 08.12.2021
6567 Snow -15 1032 85 9000 5 260 13:21 08.12.2021
6568 Clouds -15 1031 85 10000 5 280 10:44 08.12.2021
6569 Clouds -17 1030 85 10000 3 280 09:32 08.12.2021
6570 Clouds -21 1030 83 10000 3.13 280 08:31 08.12.2021
6571 Clear -23 1028 83 10000 4.92 280 05:37 08.12.2021
6572 Snow -22 1025 76 5000 4.92 280 00:27 08.12.2021
6573 Snow -23 1024 83 7000 5.81 280 22:52 07.12.2021
6574 Clouds -23 1024 76 10000 5.81 280 21:25 07.12.2021
6575 Clouds -24 1023 83 10000 4.92 260 20:25 07.12.2021
6576 Clouds -23 1023 76 10000 4.92 250 18:59 07.12.2021
6577 Clouds -23 1022 76 10000 4.92 250 18:21 07.12.2021
6578 Clouds -23 1022 83 10000 4.92 270 17:24 07.12.2021
6579 Clouds -23 1021 76 10000 4.92 270 16:42 07.12.2021
6580 Snow -23 1021 84 8000 6 280 15:59 07.12.2021
6581 Clear -23 1020 77 10000 5 240 14:38 07.12.2021
6582 Snow -24 1020 77 7000 4 240 13:40 07.12.2021
6583 Clear -25 1020 84 10000 4 250 12:22 07.12.2021
6584 Clouds -26 1019 84 10000 3 240 10:56 07.12.2021
6585 Clouds -26 1019 75 10000 3.13 240 09:20 07.12.2021
6586 Clouds -35 1019 75 10000 3 270 07:35 07.12.2021
6587 Clear -37 1018 74 10000 3 270 05:51 07.12.2021
6588 Clear -37 1018 67 10000 2 290 03:25 07.12.2021
6589 Clear -35 1016 75 10000 1 290 23:24 06.12.2021
6590 Clear -34 1016 68 10000 1 320 22:40 06.12.2021
6591 Clear -34 1016 75 10000 1 340 21:59 06.12.2021
6592 Clear -34 1016 75 10000 2 320 21:31 06.12.2021
6593 Clear -33 1016 68 10000 1 0 20:32 06.12.2021
6594 Clouds -33 1016 75 10000 1 0 19:24 06.12.2021
6595 Clouds -32 1016 75 10000 1 340 18:40 06.12.2021
6596 Clouds -32 1016 75 10000 1 0 17:54 06.12.2021
6597 Clouds -32 1016 68 10000 1 0 17:33 06.12.2021
6598 Clouds -32 1016 68 10000 1 0 15:51 06.12.2021
6599 Clouds -32 1017 75 10000 2 290 14:38 06.12.2021
6600 Clouds -32 1016 68 10000 0 0 13:23 06.12.2021
6601 Clear -32 1016 75 10000 2 330 12:37 06.12.2021
6602 Clear -31 1016 76 10000 2 320 09:56 06.12.2021
6603 Clear -31 1016 76 10000 2 340 07:40 06.12.2021
6604 Clear -30 1015 76 10000 3 320 02:26 06.12.2021
6605 Clouds -24 1012 77 10000 3 10 22:25 05.12.2021
6606 Clouds -23 1012 77 10000 4 360 21:25 05.12.2021
6607 Snow -22 1012 76 9000 3.13 10 20:43 05.12.2021
6608 Snow -22 1011 76 9000 3.13 10 20:18 05.12.2021
6609 Clouds -23 1011 77 10000 2 360 19:23 05.12.2021
6610 Clouds -22 1011 77 10000 3 40 18:28 05.12.2021
6611 Clouds -21 1011 76 10000 3.13 30 17:49 05.12.2021
6612 Clouds -21 1010 76 10000 4.02 40 17:18 05.12.2021
6613 Clouds -21 1010 76 10000 1.79 10 16:28 05.12.2021
6614 Clouds -21 1010 76 10000 1.79 30 15:59 05.12.2021
6615 Clouds -20 1009 77 10000 5 50 14:48 05.12.2021
6616 Clouds -19 1009 77 10000 4.92 60 14:29 05.12.2021
6617 Clouds -19 1009 77 10000 3.13 50 13:32 05.12.2021
6618 Snow -19 1009 77 7000 4.02 50 12:42 05.12.2021
6619 Snow -19 1008 78 7000 5 70 12:23 05.12.2021
6620 Snow -18 1008 78 10000 5 60 11:41 05.12.2021
6621 Snow -18 1007 77 10000 4.92 60 10:24 05.12.2021
6622 Snow -18 1007 77 1900 5.81 70 09:35 05.12.2021
6623 Snow -18 1008 77 2000 7.15 80 04:57 05.12.2021
6624 Snow -19 1011 77 1000 7.15 90 01:23 05.12.2021
6625 Snow -19 1014 77 2800 4.02 80 22:42 04.12.2021
6626 Snow -20 1016 84 7000 4 70 21:37 04.12.2021
6627 Snow -20 1016 84 10000 2 70 20:46 04.12.2021
6628 Clear -20 1016 84 10000 2 50 19:43 04.12.2021
6629 Clouds -19 1016 77 10000 1.79 10 19:23 04.12.2021
6630 Clouds -17 1016 84 10000 1.79 340 17:52 04.12.2021
6631 Snow -16 1016 84 10000 1.79 270 17:22 04.12.2021
6632 Snow -15 1016 84 9000 1.79 300 16:46 04.12.2021
6633 Snow -15 1016 84 9000 3.13 300 16:27 04.12.2021
6634 Snow -11 1013 85 1800 1.79 330 12:44 04.12.2021
6635 Snow -11 1013 92 3000 1.79 280 11:39 04.12.2021
6636 Snow -11 1012 92 7000 1.79 280 10:59 04.12.2021
6637 Snow -11 1011 85 8000 1.79 280 09:42 04.12.2021
6638 Snow -10 1010 85 8000 4.02 300 08:29 04.12.2021
6639 Clouds -7 1006 86 10000 7 280 04:43 04.12.2021
6640 Snow -6 1002 92 7000 5.81 250 00:56 04.12.2021
6641 Snow -5 1000 92 6000 4.92 250 23:43 03.12.2021
6642 Snow -5 1000 92 5000 4.92 270 22:53 03.12.2021
6643 Snow -5 999 92 6000 7.15 270 21:57 03.12.2021
6644 Snow -5 999 92 7000 7.15 260 21:23 03.12.2021
6645 Snow -5 999 92 6000 5.81 260 20:42 03.12.2021
6646 Snow -5 997 92 3000 3.13 250 19:28 03.12.2021
6647 Snow -6 997 92 2600 3.13 230 18:23 03.12.2021
6648 Snow -6 996 85 7000 3.13 250 17:31 03.12.2021
6649 Clouds -6 995 85 10000 5.81 260 13:40 03.12.2021
6650 Clouds -6 994 92 10000 7.15 260 12:44 03.12.2021
6651 Snow -6 993 93 7000 5 240 11:23 03.12.2021
6652 Snow -8 993 92 4600 4.02 230 09:22 03.12.2021
6653 Snow -8 993 85 7000 7.15 250 08:18 03.12.2021
6654 Clear -9 993 78 10000 7.15 260 06:44 03.12.2021
6655 Snow 0 987 100 3100 4.02 240 00:50 03.12.2021
6656 Snow 0 987 100 8000 4.92 240 00:21 03.12.2021
6657 Snow 0 987 100 10000 4.92 230 23:38 02.12.2021
6658 Snow 0 987 100 5000 4.02 220 21:41 02.12.2021
6659 Snow 0 988 92 3200 4.02 210 20:46 02.12.2021
6660 Snow 0 988 92 1500 4.92 220 20:26 02.12.2021
6661 Snow 0 988 92 3900 4.02 210 19:23 02.12.2021
6662 Snow 0 989 92 1300 4.92 210 17:30 02.12.2021
6663 Snow 0 990 92 10000 4.92 200 15:41 02.12.2021
6664 Snow 0 990 92 8000 5.81 200 14:57 02.12.2021
6665 Clouds 1 991 86 8000 4.92 200 13:45 02.12.2021
6666 Clouds 1 992 86 10000 4.92 200 12:52 02.12.2021
6667 Clouds 1 992 86 10000 4.92 200 11:53 02.12.2021
6668 Rain 2 993 86 9000 5.81 200 09:28 02.12.2021
6669 Clear 3 994 69 10000 5.81 210 08:20 02.12.2021
6670 Mist 0 1000 100 3600 4.02 170 01:59 02.12.2021
6671 Mist 0 1000 100 2500 4.02 170 00:50 02.12.2021
6672 Mist 0 1003 92 2700 4.02 190 22:34 01.12.2021
6673 Mist -1 1002 100 1900 4.02 180 21:55 01.12.2021
6674 Fog -1 1003 100 900 3.13 180 20:35 01.12.2021
6675 Mist -1 1004 100 2900 3.13 200 19:51 01.12.2021
6676 Mist -1 1004 92 2400 3.13 200 18:57 01.12.2021
6677 Mist -1 1004 92 3200 4.02 200 17:39 01.12.2021
6678 Clouds -1 1004 92 10000 4.02 200 16:38 01.12.2021
6679 Snow -1 1004 92 9000 4.02 210 14:48 01.12.2021
6680 Clouds -1 1005 92 10000 4.02 220 13:38 01.12.2021
6681 Clouds 0 1004 86 10000 4.92 220 11:34 01.12.2021
6682 Clouds 0 1004 92 10000 5.81 210 10:41 01.12.2021
6683 Clouds 0 1003 92 8000 5.81 220 08:54 01.12.2021
6684 Mist 0 1003 92 4700 5.81 220 08:26 01.12.2021
6685 Mist -1 1003 100 4000 4.02 220 07:32 01.12.2021
6686 Snow -9 1004 92 1200 6 130 04:18 01.12.2021
6687 Snow -12 1006 92 2400 6 120 03:38 01.12.2021
6688 Snow -14 1010 85 1100 7 120 00:48 01.12.2021
6689 Snow -16 1014 84 1500 7.15 110 23:35 30.11.2021
6690 Snow -16 1015 77 2200 7.15 110 22:42 30.11.2021
6691 Snow -17 1017 77 1700 5.81 100 20:53 30.11.2021
6692 Snow -17 1017 77 1000 7.15 90 20:34 30.11.2021
6693 Snow -17 1017 77 1600 7.15 100 19:51 30.11.2021
6694 Snow -17 1018 77 1400 4.92 90 19:24 30.11.2021
6695 Clear -16 1017 71 10000 4.92 80 17:57 30.11.2021
6696 Clear -16 1017 77 10000 4.02 50 16:25 30.11.2021
6697 Clear -15 1017 72 10000 3 350 14:35 30.11.2021
6698 Clouds -14 1017 78 10000 6 10 13:52 30.11.2021
6699 Clouds -11 1016 79 10000 5 350 13:23 30.11.2021
6700 Clouds -10 1016 79 10000 4 360 12:44 30.11.2021
6701 Clouds -8 1014 86 10000 6 350 11:26 30.11.2021
6702 Clouds -2 1012 86 10000 5 270 10:37 30.11.2021
6703 Clouds -2 1012 86 10000 5 260 09:44 30.11.2021
6704 Clouds -2 1012 86 10000 6 260 08:48 30.11.2021
6705 Snow -3 1011 92 10000 4.92 250 08:19 30.11.2021
6706 Snow -3 1011 92 10000 5.81 260 07:35 30.11.2021
6707 Clouds -3 1010 86 10000 4.02 240 01:52 30.11.2021
6708 Clouds -3 1010 86 10000 4.92 250 01:31 30.11.2021
6709 Clouds -3 1010 86 10000 4.92 240 23:55 29.11.2021
6710 Clouds -3 1010 79 10000 4.92 240 23:20 29.11.2021
6711 Clouds -3 1010 79 10000 5.81 240 22:44 29